<?xml version="1.0" encoding="UTF-8" standalone="no" ?>
<gpx xmlns="http://www.topografix.com/GPX/1/1" xmlns:xsi="http://www.w3.org/2001/XMLSchema-instance" xsi:schemaLocation="http://www.topografix.com/GPX/1/1 http://www.topografix.com/GPX/1/1/gpx.xsd" version="1.1" creator="VisuGPX - https://www.visugpx.com">
  <metadata>
    <name>Pornichet 13/03/2022</name>
    <desc><![CDATA[Sortie dimanche 13 mars 2022]]></desc>
  </metadata>
  <trk>
    <name><![CDATA[Pornichet Cyclisme]]></name>
    <trkseg>
      <trkpt lat="47.26377" lon="-2.31546">
        <ele>34</ele>
        <time>2022-03-13T07:57:19.000Z</time>
      </trkpt>
      <trkpt lat="47.26381" lon="-2.31566">
        <ele>34</ele>
        <time>2022-03-13T07:57:23.000Z</time>
      </trkpt>
      <trkpt lat="47.26382" lon="-2.31571">
        <ele>33.799999237061</ele>
        <time>2022-03-13T07:57:24.000Z</time>
      </trkpt>
      <trkpt lat="47.26385" lon="-2.31591">
        <ele>33.799999237061</ele>
        <time>2022-03-13T07:57:28.000Z</time>
      </trkpt>
      <trkpt lat="47.26393" lon="-2.31636">
        <ele>33.799999237061</ele>
        <time>2022-03-13T07:57:34.000Z</time>
      </trkpt>
      <trkpt lat="47.26395" lon="-2.31656">
        <ele>33.799999237061</ele>
        <time>2022-03-13T07:57:37.000Z</time>
      </trkpt>
      <trkpt lat="47.26392" lon="-2.31659">
        <ele>33.799999237061</ele>
        <time>2022-03-13T07:57:38.000Z</time>
      </trkpt>
      <trkpt lat="47.26368" lon="-2.31672">
        <ele>33.799999237061</ele>
        <time>2022-03-13T07:57:44.000Z</time>
      </trkpt>
      <trkpt lat="47.26363" lon="-2.31674">
        <ele>33.799999237061</ele>
        <time>2022-03-13T07:57:45.000Z</time>
      </trkpt>
      <trkpt lat="47.26345" lon="-2.31685">
        <ele>33.799999237061</ele>
        <time>2022-03-13T07:57:49.000Z</time>
      </trkpt>
      <trkpt lat="47.2634" lon="-2.31688">
        <ele>33.400001525879</ele>
        <time>2022-03-13T07:57:50.000Z</time>
      </trkpt>
      <trkpt lat="47.26335" lon="-2.31691">
        <ele>33</ele>
        <time>2022-03-13T07:57:51.000Z</time>
      </trkpt>
      <trkpt lat="47.2633" lon="-2.31693">
        <ele>32.599998474121</ele>
        <time>2022-03-13T07:57:52.000Z</time>
      </trkpt>
      <trkpt lat="47.26325" lon="-2.31696">
        <ele>32.200000762939</ele>
        <time>2022-03-13T07:57:53.000Z</time>
      </trkpt>
      <trkpt lat="47.2632" lon="-2.31698">
        <ele>31.60000038147</ele>
        <time>2022-03-13T07:57:54.000Z</time>
      </trkpt>
      <trkpt lat="47.2631" lon="-2.31703">
        <ele>31.60000038147</ele>
        <time>2022-03-13T07:57:56.000Z</time>
      </trkpt>
      <trkpt lat="47.26292" lon="-2.31714">
        <ele>31.200000762939</ele>
        <time>2022-03-13T07:58:00.000Z</time>
      </trkpt>
      <trkpt lat="47.26289" lon="-2.31719">
        <ele>30.799999237061</ele>
        <time>2022-03-13T07:58:01.000Z</time>
      </trkpt>
      <trkpt lat="47.26287" lon="-2.31725">
        <ele>30.39999961853</ele>
        <time>2022-03-13T07:58:02.000Z</time>
      </trkpt>
      <trkpt lat="47.26285" lon="-2.31732">
        <ele>30</ele>
        <time>2022-03-13T07:58:03.000Z</time>
      </trkpt>
      <trkpt lat="47.26284" lon="-2.31737">
        <ele>29.60000038147</ele>
        <time>2022-03-13T07:58:04.000Z</time>
      </trkpt>
      <trkpt lat="47.26284" lon="-2.31743">
        <ele>29.60000038147</ele>
        <time>2022-03-13T07:58:05.000Z</time>
      </trkpt>
      <trkpt lat="47.26284" lon="-2.31753">
        <ele>29.60000038147</ele>
        <time>2022-03-13T07:58:07.000Z</time>
      </trkpt>
      <trkpt lat="47.26285" lon="-2.31769">
        <ele>29.60000038147</ele>
        <time>2022-03-13T07:58:11.000Z</time>
      </trkpt>
      <trkpt lat="47.26286" lon="-2.31778">
        <ele>29.60000038147</ele>
        <time>2022-03-13T07:58:16.000Z</time>
      </trkpt>
      <trkpt lat="47.26285" lon="-2.3179">
        <ele>29.60000038147</ele>
        <time>2022-03-13T07:58:20.000Z</time>
      </trkpt>
      <trkpt lat="47.26284" lon="-2.31824">
        <ele>29.60000038147</ele>
        <time>2022-03-13T07:58:26.000Z</time>
      </trkpt>
      <trkpt lat="47.26284" lon="-2.31836">
        <ele>29.60000038147</ele>
        <time>2022-03-13T07:58:28.000Z</time>
      </trkpt>
      <trkpt lat="47.26282" lon="-2.31853">
        <ele>29.60000038147</ele>
        <time>2022-03-13T07:58:31.000Z</time>
      </trkpt>
      <trkpt lat="47.26281" lon="-2.31882">
        <ele>29.60000038147</ele>
        <time>2022-03-13T07:58:37.000Z</time>
      </trkpt>
      <trkpt lat="47.26268" lon="-2.31897">
        <ele>29.60000038147</ele>
        <time>2022-03-13T07:58:43.000Z</time>
      </trkpt>
      <trkpt lat="47.26266" lon="-2.319">
        <ele>29.60000038147</ele>
        <time>2022-03-13T07:58:44.000Z</time>
      </trkpt>
      <trkpt lat="47.26251" lon="-2.31925">
        <ele>29.60000038147</ele>
        <time>2022-03-13T07:58:50.000Z</time>
      </trkpt>
      <trkpt lat="47.26243" lon="-2.31947">
        <ele>29.60000038147</ele>
        <time>2022-03-13T07:58:56.000Z</time>
      </trkpt>
      <trkpt lat="47.26239" lon="-2.3196">
        <ele>29.200000762939</ele>
        <time>2022-03-13T07:59:00.000Z</time>
      </trkpt>
      <trkpt lat="47.26238" lon="-2.31962">
        <ele>28.799999237061</ele>
        <time>2022-03-13T07:59:01.000Z</time>
      </trkpt>
      <trkpt lat="47.26235" lon="-2.31964">
        <ele>28.39999961853</ele>
        <time>2022-03-13T07:59:02.000Z</time>
      </trkpt>
      <trkpt lat="47.26233" lon="-2.31964">
        <ele>28</ele>
        <time>2022-03-13T07:59:03.000Z</time>
      </trkpt>
      <trkpt lat="47.2623" lon="-2.31964">
        <ele>27.60000038147</ele>
        <time>2022-03-13T07:59:04.000Z</time>
      </trkpt>
      <trkpt lat="47.26224" lon="-2.31966">
        <ele>27.60000038147</ele>
        <time>2022-03-13T07:59:07.000Z</time>
      </trkpt>
      <trkpt lat="47.26223" lon="-2.3197">
        <ele>27.60000038147</ele>
        <time>2022-03-13T07:59:09.000Z</time>
      </trkpt>
      <trkpt lat="47.26222" lon="-2.31973">
        <ele>27.60000038147</ele>
        <time>2022-03-13T07:59:11.000Z</time>
      </trkpt>
      <trkpt lat="47.26221" lon="-2.31974">
        <ele>27.60000038147</ele>
        <time>2022-03-13T07:59:12.000Z</time>
      </trkpt>
      <trkpt lat="47.26219" lon="-2.31978">
        <ele>27.60000038147</ele>
        <time>2022-03-13T07:59:14.000Z</time>
      </trkpt>
      <trkpt lat="47.26214" lon="-2.31983">
        <ele>27.60000038147</ele>
        <time>2022-03-13T07:59:16.000Z</time>
      </trkpt>
      <trkpt lat="47.26202" lon="-2.3199">
        <ele>27.60000038147</ele>
        <time>2022-03-13T07:59:21.000Z</time>
      </trkpt>
      <trkpt lat="47.26201" lon="-2.31992">
        <ele>27.60000038147</ele>
        <time>2022-03-13T07:59:22.000Z</time>
      </trkpt>
      <trkpt lat="47.26199" lon="-2.31998">
        <ele>27.60000038147</ele>
        <time>2022-03-13T07:59:25.000Z</time>
      </trkpt>
      <trkpt lat="47.26197" lon="-2.3201">
        <ele>27.60000038147</ele>
        <time>2022-03-13T07:59:31.000Z</time>
      </trkpt>
      <trkpt lat="47.26196" lon="-2.32012">
        <ele>27.60000038147</ele>
        <time>2022-03-13T07:59:32.000Z</time>
      </trkpt>
      <trkpt lat="47.26192" lon="-2.32013">
        <ele>27.60000038147</ele>
        <time>2022-03-13T07:59:36.000Z</time>
      </trkpt>
      <trkpt lat="47.26186" lon="-2.32012">
        <ele>27.60000038147</ele>
        <time>2022-03-13T07:59:42.000Z</time>
      </trkpt>
      <trkpt lat="47.26182" lon="-2.3201">
        <ele>27.60000038147</ele>
        <time>2022-03-13T07:59:44.000Z</time>
      </trkpt>
      <trkpt lat="47.26178" lon="-2.3201">
        <ele>27.60000038147</ele>
        <time>2022-03-13T07:59:46.000Z</time>
      </trkpt>
      <trkpt lat="47.26172" lon="-2.32013">
        <ele>27.60000038147</ele>
        <time>2022-03-13T07:59:49.000Z</time>
      </trkpt>
      <trkpt lat="47.26161" lon="-2.32023">
        <ele>27.60000038147</ele>
        <time>2022-03-13T07:59:53.000Z</time>
      </trkpt>
      <trkpt lat="47.26152" lon="-2.32051">
        <ele>27.60000038147</ele>
        <time>2022-03-13T07:59:58.000Z</time>
      </trkpt>
      <trkpt lat="47.26148" lon="-2.32062">
        <ele>27.60000038147</ele>
        <time>2022-03-13T08:00:00.000Z</time>
      </trkpt>
      <trkpt lat="47.26141" lon="-2.32086">
        <ele>27.60000038147</ele>
        <time>2022-03-13T08:00:04.000Z</time>
      </trkpt>
      <trkpt lat="47.26132" lon="-2.32124">
        <ele>27.60000038147</ele>
        <time>2022-03-13T08:00:11.000Z</time>
      </trkpt>
      <trkpt lat="47.26118" lon="-2.32162">
        <ele>27.60000038147</ele>
        <time>2022-03-13T08:00:18.000Z</time>
      </trkpt>
      <trkpt lat="47.26103" lon="-2.32199">
        <ele>27.60000038147</ele>
        <time>2022-03-13T08:00:25.000Z</time>
      </trkpt>
      <trkpt lat="47.26085" lon="-2.32225">
        <ele>27.60000038147</ele>
        <time>2022-03-13T08:00:31.000Z</time>
      </trkpt>
      <trkpt lat="47.26078" lon="-2.32233">
        <ele>27.60000038147</ele>
        <time>2022-03-13T08:00:33.000Z</time>
      </trkpt>
      <trkpt lat="47.26065" lon="-2.32249">
        <ele>27.60000038147</ele>
        <time>2022-03-13T08:00:37.000Z</time>
      </trkpt>
      <trkpt lat="47.26037" lon="-2.32281">
        <ele>27.60000038147</ele>
        <time>2022-03-13T08:00:45.000Z</time>
      </trkpt>
      <trkpt lat="47.26033" lon="-2.32284">
        <ele>27.60000038147</ele>
        <time>2022-03-13T08:00:46.000Z</time>
      </trkpt>
      <trkpt lat="47.26026" lon="-2.32293">
        <ele>27.60000038147</ele>
        <time>2022-03-13T08:00:48.000Z</time>
      </trkpt>
      <trkpt lat="47.26016" lon="-2.32304">
        <ele>27.60000038147</ele>
        <time>2022-03-13T08:00:51.000Z</time>
      </trkpt>
      <trkpt lat="47.25989" lon="-2.32339">
        <ele>27.60000038147</ele>
        <time>2022-03-13T08:00:59.000Z</time>
      </trkpt>
      <trkpt lat="47.25963" lon="-2.32374">
        <ele>27.60000038147</ele>
        <time>2022-03-13T08:01:07.000Z</time>
      </trkpt>
      <trkpt lat="47.25941" lon="-2.32405">
        <ele>27.60000038147</ele>
        <time>2022-03-13T08:01:14.000Z</time>
      </trkpt>
      <trkpt lat="47.25931" lon="-2.32417">
        <ele>27.60000038147</ele>
        <time>2022-03-13T08:01:17.000Z</time>
      </trkpt>
      <trkpt lat="47.2592" lon="-2.3243">
        <ele>27.60000038147</ele>
        <time>2022-03-13T08:01:20.000Z</time>
      </trkpt>
      <trkpt lat="47.25911" lon="-2.32442">
        <ele>27.60000038147</ele>
        <time>2022-03-13T08:01:23.000Z</time>
      </trkpt>
      <trkpt lat="47.25897" lon="-2.32457">
        <ele>27.60000038147</ele>
        <time>2022-03-13T08:01:27.000Z</time>
      </trkpt>
      <trkpt lat="47.25879" lon="-2.3247">
        <ele>27.60000038147</ele>
        <time>2022-03-13T08:01:32.000Z</time>
      </trkpt>
      <trkpt lat="47.25875" lon="-2.32471">
        <ele>27.60000038147</ele>
        <time>2022-03-13T08:01:33.000Z</time>
      </trkpt>
      <trkpt lat="47.25858" lon="-2.32474">
        <ele>28</ele>
        <time>2022-03-13T08:01:37.000Z</time>
      </trkpt>
      <trkpt lat="47.25854" lon="-2.32474">
        <ele>28.39999961853</ele>
        <time>2022-03-13T08:01:38.000Z</time>
      </trkpt>
      <trkpt lat="47.2585" lon="-2.32474">
        <ele>28.799999237061</ele>
        <time>2022-03-13T08:01:39.000Z</time>
      </trkpt>
      <trkpt lat="47.25846" lon="-2.32473">
        <ele>29.200000762939</ele>
        <time>2022-03-13T08:01:40.000Z</time>
      </trkpt>
      <trkpt lat="47.25841" lon="-2.32473">
        <ele>29.60000038147</ele>
        <time>2022-03-13T08:01:41.000Z</time>
      </trkpt>
      <trkpt lat="47.25837" lon="-2.32471">
        <ele>29.60000038147</ele>
        <time>2022-03-13T08:01:42.000Z</time>
      </trkpt>
      <trkpt lat="47.25815" lon="-2.32463">
        <ele>29.60000038147</ele>
        <time>2022-03-13T08:01:47.000Z</time>
      </trkpt>
      <trkpt lat="47.25793" lon="-2.32457">
        <ele>29.60000038147</ele>
        <time>2022-03-13T08:01:53.000Z</time>
      </trkpt>
      <trkpt lat="47.25776" lon="-2.32457">
        <ele>29.60000038147</ele>
        <time>2022-03-13T08:01:58.000Z</time>
      </trkpt>
      <trkpt lat="47.25773" lon="-2.32454">
        <ele>29.60000038147</ele>
        <time>2022-03-13T08:01:59.000Z</time>
      </trkpt>
      <trkpt lat="47.25765" lon="-2.32443">
        <ele>29.60000038147</ele>
        <time>2022-03-13T08:02:02.000Z</time>
      </trkpt>
      <trkpt lat="47.25762" lon="-2.32438">
        <ele>29.60000038147</ele>
        <time>2022-03-13T08:02:03.000Z</time>
      </trkpt>
      <trkpt lat="47.25752" lon="-2.3243">
        <ele>29.60000038147</ele>
        <time>2022-03-13T08:02:06.000Z</time>
      </trkpt>
      <trkpt lat="47.25747" lon="-2.32429">
        <ele>29.60000038147</ele>
        <time>2022-03-13T08:02:07.000Z</time>
      </trkpt>
      <trkpt lat="47.25704" lon="-2.32428">
        <ele>29.60000038147</ele>
        <time>2022-03-13T08:02:16.000Z</time>
      </trkpt>
      <trkpt lat="47.25683" lon="-2.32426">
        <ele>29.60000038147</ele>
        <time>2022-03-13T08:02:21.000Z</time>
      </trkpt>
      <trkpt lat="47.25658" lon="-2.32426">
        <ele>29.60000038147</ele>
        <time>2022-03-13T08:02:27.000Z</time>
      </trkpt>
      <trkpt lat="47.25655" lon="-2.32429">
        <ele>29.60000038147</ele>
        <time>2022-03-13T08:02:28.000Z</time>
      </trkpt>
      <trkpt lat="47.25652" lon="-2.32441">
        <ele>29.60000038147</ele>
        <time>2022-03-13T08:02:30.000Z</time>
      </trkpt>
      <trkpt lat="47.25654" lon="-2.32459">
        <ele>29.60000038147</ele>
        <time>2022-03-13T08:02:33.000Z</time>
      </trkpt>
      <trkpt lat="47.25656" lon="-2.32465">
        <ele>29.60000038147</ele>
        <time>2022-03-13T08:02:34.000Z</time>
      </trkpt>
      <trkpt lat="47.25663" lon="-2.32493">
        <ele>30</ele>
        <time>2022-03-13T08:02:39.000Z</time>
      </trkpt>
      <trkpt lat="47.25665" lon="-2.32498">
        <ele>30.39999961853</ele>
        <time>2022-03-13T08:02:40.000Z</time>
      </trkpt>
      <trkpt lat="47.25666" lon="-2.32503">
        <ele>30.799999237061</ele>
        <time>2022-03-13T08:02:41.000Z</time>
      </trkpt>
      <trkpt lat="47.25668" lon="-2.32508">
        <ele>31.200000762939</ele>
        <time>2022-03-13T08:02:42.000Z</time>
      </trkpt>
      <trkpt lat="47.2567" lon="-2.32513">
        <ele>31.799999237061</ele>
        <time>2022-03-13T08:02:43.000Z</time>
      </trkpt>
      <trkpt lat="47.25681" lon="-2.32548">
        <ele>31.799999237061</ele>
        <time>2022-03-13T08:02:50.000Z</time>
      </trkpt>
      <trkpt lat="47.25688" lon="-2.32572">
        <ele>32.200000762939</ele>
        <time>2022-03-13T08:02:55.000Z</time>
      </trkpt>
      <trkpt lat="47.2569" lon="-2.32577">
        <ele>32.599998474121</ele>
        <time>2022-03-13T08:02:56.000Z</time>
      </trkpt>
      <trkpt lat="47.25691" lon="-2.32582">
        <ele>33</ele>
        <time>2022-03-13T08:02:57.000Z</time>
      </trkpt>
      <trkpt lat="47.25693" lon="-2.32586">
        <ele>33.599998474121</ele>
        <time>2022-03-13T08:02:58.000Z</time>
      </trkpt>
      <trkpt lat="47.25695" lon="-2.32591">
        <ele>34</ele>
        <time>2022-03-13T08:02:59.000Z</time>
      </trkpt>
      <trkpt lat="47.257" lon="-2.3262">
        <ele>34</ele>
        <time>2022-03-13T08:03:05.000Z</time>
      </trkpt>
      <trkpt lat="47.25698" lon="-2.32624">
        <ele>34</ele>
        <time>2022-03-13T08:03:06.000Z</time>
      </trkpt>
      <trkpt lat="47.25693" lon="-2.32629">
        <ele>34</ele>
        <time>2022-03-13T08:03:08.000Z</time>
      </trkpt>
      <trkpt lat="47.25679" lon="-2.32636">
        <ele>34</ele>
        <time>2022-03-13T08:03:12.000Z</time>
      </trkpt>
      <trkpt lat="47.25675" lon="-2.32638">
        <ele>34.799999237061</ele>
        <time>2022-03-13T08:03:13.000Z</time>
      </trkpt>
      <trkpt lat="47.25671" lon="-2.32639">
        <ele>35.200000762939</ele>
        <time>2022-03-13T08:03:14.000Z</time>
      </trkpt>
      <trkpt lat="47.25668" lon="-2.3264">
        <ele>35.599998474121</ele>
        <time>2022-03-13T08:03:15.000Z</time>
      </trkpt>
      <trkpt lat="47.25664" lon="-2.32642">
        <ele>36</ele>
        <time>2022-03-13T08:03:16.000Z</time>
      </trkpt>
      <trkpt lat="47.25649" lon="-2.32649">
        <ele>36</ele>
        <time>2022-03-13T08:03:20.000Z</time>
      </trkpt>
      <trkpt lat="47.25624" lon="-2.3266">
        <ele>36</ele>
        <time>2022-03-13T08:03:27.000Z</time>
      </trkpt>
      <trkpt lat="47.2562" lon="-2.32661">
        <ele>36.400001525879</ele>
        <time>2022-03-13T08:03:28.000Z</time>
      </trkpt>
      <trkpt lat="47.25617" lon="-2.32663">
        <ele>37</ele>
        <time>2022-03-13T08:03:29.000Z</time>
      </trkpt>
      <trkpt lat="47.25614" lon="-2.32665">
        <ele>37.400001525879</ele>
        <time>2022-03-13T08:03:30.000Z</time>
      </trkpt>
      <trkpt lat="47.2561" lon="-2.32667">
        <ele>37.799999237061</ele>
        <time>2022-03-13T08:03:31.000Z</time>
      </trkpt>
      <trkpt lat="47.25607" lon="-2.32669">
        <ele>38.200000762939</ele>
        <time>2022-03-13T08:03:32.000Z</time>
      </trkpt>
      <trkpt lat="47.256" lon="-2.32671">
        <ele>38.200000762939</ele>
        <time>2022-03-13T08:03:34.000Z</time>
      </trkpt>
      <trkpt lat="47.25578" lon="-2.32681">
        <ele>38.200000762939</ele>
        <time>2022-03-13T08:03:41.000Z</time>
      </trkpt>
      <trkpt lat="47.25553" lon="-2.32691">
        <ele>38.200000762939</ele>
        <time>2022-03-13T08:03:48.000Z</time>
      </trkpt>
      <trkpt lat="47.25523" lon="-2.32702">
        <ele>38.200000762939</ele>
        <time>2022-03-13T08:03:56.000Z</time>
      </trkpt>
      <trkpt lat="47.25518" lon="-2.32703">
        <ele>38.200000762939</ele>
        <time>2022-03-13T08:03:57.000Z</time>
      </trkpt>
      <trkpt lat="47.25502" lon="-2.32703">
        <ele>38.200000762939</ele>
        <time>2022-03-13T08:04:01.000Z</time>
      </trkpt>
      <trkpt lat="47.25491" lon="-2.32705">
        <ele>38.200000762939</ele>
        <time>2022-03-13T08:04:04.000Z</time>
      </trkpt>
      <trkpt lat="47.2548" lon="-2.3271">
        <ele>38.200000762939</ele>
        <time>2022-03-13T08:04:07.000Z</time>
      </trkpt>
      <trkpt lat="47.25473" lon="-2.32716">
        <ele>38.200000762939</ele>
        <time>2022-03-13T08:04:09.000Z</time>
      </trkpt>
      <trkpt lat="47.25449" lon="-2.32747">
        <ele>38.200000762939</ele>
        <time>2022-03-13T08:04:17.000Z</time>
      </trkpt>
      <trkpt lat="47.25437" lon="-2.3277">
        <ele>38.200000762939</ele>
        <time>2022-03-13T08:04:22.000Z</time>
      </trkpt>
      <trkpt lat="47.25429" lon="-2.32789">
        <ele>38.200000762939</ele>
        <time>2022-03-13T08:04:26.000Z</time>
      </trkpt>
      <trkpt lat="47.25425" lon="-2.32793">
        <ele>38.200000762939</ele>
        <time>2022-03-13T08:04:27.000Z</time>
      </trkpt>
      <trkpt lat="47.25403" lon="-2.32826">
        <ele>38.200000762939</ele>
        <time>2022-03-13T08:04:34.000Z</time>
      </trkpt>
      <trkpt lat="47.25378" lon="-2.32855">
        <ele>38.200000762939</ele>
        <time>2022-03-13T08:04:41.000Z</time>
      </trkpt>
      <trkpt lat="47.25364" lon="-2.3287">
        <ele>37.799999237061</ele>
        <time>2022-03-13T08:04:45.000Z</time>
      </trkpt>
      <trkpt lat="47.2536" lon="-2.32873">
        <ele>37.400001525879</ele>
        <time>2022-03-13T08:04:46.000Z</time>
      </trkpt>
      <trkpt lat="47.25357" lon="-2.32876">
        <ele>37</ele>
        <time>2022-03-13T08:04:47.000Z</time>
      </trkpt>
      <trkpt lat="47.25353" lon="-2.3288">
        <ele>36.599998474121</ele>
        <time>2022-03-13T08:04:48.000Z</time>
      </trkpt>
      <trkpt lat="47.2535" lon="-2.32884">
        <ele>36.200000762939</ele>
        <time>2022-03-13T08:04:49.000Z</time>
      </trkpt>
      <trkpt lat="47.25339" lon="-2.32894">
        <ele>36.200000762939</ele>
        <time>2022-03-13T08:04:52.000Z</time>
      </trkpt>
      <trkpt lat="47.25329" lon="-2.32905">
        <ele>36.200000762939</ele>
        <time>2022-03-13T08:04:55.000Z</time>
      </trkpt>
      <trkpt lat="47.2531" lon="-2.32928">
        <ele>36.200000762939</ele>
        <time>2022-03-13T08:05:01.000Z</time>
      </trkpt>
      <trkpt lat="47.2531" lon="-2.32952">
        <ele>36.200000762939</ele>
        <time>2022-03-13T08:05:05.000Z</time>
      </trkpt>
      <trkpt lat="47.25314" lon="-2.32964">
        <ele>36.200000762939</ele>
        <time>2022-03-13T08:05:07.000Z</time>
      </trkpt>
      <trkpt lat="47.25322" lon="-2.32987">
        <ele>36.200000762939</ele>
        <time>2022-03-13T08:05:11.000Z</time>
      </trkpt>
      <trkpt lat="47.25334" lon="-2.33016">
        <ele>35.200000762939</ele>
        <time>2022-03-13T08:05:16.000Z</time>
      </trkpt>
      <trkpt lat="47.25336" lon="-2.33021">
        <ele>34.799999237061</ele>
        <time>2022-03-13T08:05:17.000Z</time>
      </trkpt>
      <trkpt lat="47.25338" lon="-2.33025">
        <ele>34.400001525879</ele>
        <time>2022-03-13T08:05:18.000Z</time>
      </trkpt>
      <trkpt lat="47.25341" lon="-2.3303">
        <ele>34</ele>
        <time>2022-03-13T08:05:19.000Z</time>
      </trkpt>
      <trkpt lat="47.25343" lon="-2.33035">
        <ele>34</ele>
        <time>2022-03-13T08:05:20.000Z</time>
      </trkpt>
      <trkpt lat="47.25355" lon="-2.33067">
        <ele>34</ele>
        <time>2022-03-13T08:05:27.000Z</time>
      </trkpt>
      <trkpt lat="47.25366" lon="-2.33095">
        <ele>34</ele>
        <time>2022-03-13T08:05:34.000Z</time>
      </trkpt>
      <trkpt lat="47.25373" lon="-2.3311">
        <ele>34</ele>
        <time>2022-03-13T08:05:40.000Z</time>
      </trkpt>
      <trkpt lat="47.25373" lon="-2.3311">
        <ele>34</ele>
        <time>2022-03-13T08:05:42.000Z</time>
      </trkpt>
      <trkpt lat="47.25376" lon="-2.3312">
        <ele>34</ele>
        <time>2022-03-13T08:09:44.000Z</time>
      </trkpt>
      <trkpt lat="47.25377" lon="-2.33121">
        <ele>34</ele>
        <time>2022-03-13T08:09:45.000Z</time>
      </trkpt>
      <trkpt lat="47.25381" lon="-2.33135">
        <ele>34</ele>
        <time>2022-03-13T08:09:50.000Z</time>
      </trkpt>
      <trkpt lat="47.25376" lon="-2.33156">
        <ele>34</ele>
        <time>2022-03-13T08:09:56.000Z</time>
      </trkpt>
      <trkpt lat="47.25366" lon="-2.33173">
        <ele>34</ele>
        <time>2022-03-13T08:10:01.000Z</time>
      </trkpt>
      <trkpt lat="47.2535" lon="-2.33194">
        <ele>34</ele>
        <time>2022-03-13T08:10:08.000Z</time>
      </trkpt>
      <trkpt lat="47.25334" lon="-2.33215">
        <ele>34</ele>
        <time>2022-03-13T08:10:14.000Z</time>
      </trkpt>
      <trkpt lat="47.2532" lon="-2.33225">
        <ele>34</ele>
        <time>2022-03-13T08:10:20.000Z</time>
      </trkpt>
      <trkpt lat="47.25318" lon="-2.33221">
        <ele>34</ele>
        <time>2022-03-13T08:10:21.000Z</time>
      </trkpt>
      <trkpt lat="47.25313" lon="-2.33213">
        <ele>34</ele>
        <time>2022-03-13T08:10:23.000Z</time>
      </trkpt>
      <trkpt lat="47.25294" lon="-2.33178">
        <ele>34</ele>
        <time>2022-03-13T08:10:30.000Z</time>
      </trkpt>
      <trkpt lat="47.25271" lon="-2.33139">
        <ele>34</ele>
        <time>2022-03-13T08:10:38.000Z</time>
      </trkpt>
      <trkpt lat="47.25255" lon="-2.33112">
        <ele>34</ele>
        <time>2022-03-13T08:10:44.000Z</time>
      </trkpt>
      <trkpt lat="47.25233" lon="-2.33073">
        <ele>34</ele>
        <time>2022-03-13T08:10:52.000Z</time>
      </trkpt>
      <trkpt lat="47.25214" lon="-2.33037">
        <ele>34</ele>
        <time>2022-03-13T08:11:00.000Z</time>
      </trkpt>
      <trkpt lat="47.25206" lon="-2.33024">
        <ele>34</ele>
        <time>2022-03-13T08:11:04.000Z</time>
      </trkpt>
      <trkpt lat="47.25203" lon="-2.33024">
        <ele>34</ele>
        <time>2022-03-13T08:11:05.000Z</time>
      </trkpt>
      <trkpt lat="47.25194" lon="-2.33034">
        <ele>34</ele>
        <time>2022-03-13T08:11:08.000Z</time>
      </trkpt>
      <trkpt lat="47.25171" lon="-2.33059">
        <ele>34</ele>
        <time>2022-03-13T08:11:14.000Z</time>
      </trkpt>
      <trkpt lat="47.25157" lon="-2.3307">
        <ele>34</ele>
        <time>2022-03-13T08:11:17.000Z</time>
      </trkpt>
      <trkpt lat="47.25142" lon="-2.33077">
        <ele>34</ele>
        <time>2022-03-13T08:11:20.000Z</time>
      </trkpt>
      <trkpt lat="47.2512" lon="-2.33087">
        <ele>34</ele>
        <time>2022-03-13T08:11:26.000Z</time>
      </trkpt>
      <trkpt lat="47.25117" lon="-2.33086">
        <ele>34</ele>
        <time>2022-03-13T08:11:27.000Z</time>
      </trkpt>
      <trkpt lat="47.25115" lon="-2.3308">
        <ele>34</ele>
        <time>2022-03-13T08:11:29.000Z</time>
      </trkpt>
      <trkpt lat="47.25118" lon="-2.33064">
        <ele>34</ele>
        <time>2022-03-13T08:11:33.000Z</time>
      </trkpt>
      <trkpt lat="47.25132" lon="-2.33034">
        <ele>34</ele>
        <time>2022-03-13T08:11:39.000Z</time>
      </trkpt>
      <trkpt lat="47.25137" lon="-2.33023">
        <ele>34</ele>
        <time>2022-03-13T08:11:41.000Z</time>
      </trkpt>
      <trkpt lat="47.25139" lon="-2.33003">
        <ele>34</ele>
        <time>2022-03-13T08:11:44.000Z</time>
      </trkpt>
      <trkpt lat="47.25129" lon="-2.32982">
        <ele>34</ele>
        <time>2022-03-13T08:11:48.000Z</time>
      </trkpt>
      <trkpt lat="47.2511" lon="-2.32951">
        <ele>34</ele>
        <time>2022-03-13T08:11:55.000Z</time>
      </trkpt>
      <trkpt lat="47.25097" lon="-2.3293">
        <ele>34</ele>
        <time>2022-03-13T08:12:00.000Z</time>
      </trkpt>
      <trkpt lat="47.25093" lon="-2.32908">
        <ele>34</ele>
        <time>2022-03-13T08:12:04.000Z</time>
      </trkpt>
      <trkpt lat="47.25092" lon="-2.32901">
        <ele>34</ele>
        <time>2022-03-13T08:12:06.000Z</time>
      </trkpt>
      <trkpt lat="47.25091" lon="-2.32899">
        <ele>34</ele>
        <time>2022-03-13T08:12:07.000Z</time>
      </trkpt>
      <trkpt lat="47.25084" lon="-2.32884">
        <ele>34</ele>
        <time>2022-03-13T08:12:12.000Z</time>
      </trkpt>
      <trkpt lat="47.25079" lon="-2.32859">
        <ele>34</ele>
        <time>2022-03-13T08:12:18.000Z</time>
      </trkpt>
      <trkpt lat="47.25078" lon="-2.32848">
        <ele>34</ele>
        <time>2022-03-13T08:12:21.000Z</time>
      </trkpt>
      <trkpt lat="47.25075" lon="-2.32844">
        <ele>34</ele>
        <time>2022-03-13T08:12:22.000Z</time>
      </trkpt>
      <trkpt lat="47.25055" lon="-2.32821">
        <ele>34</ele>
        <time>2022-03-13T08:12:28.000Z</time>
      </trkpt>
      <trkpt lat="47.25049" lon="-2.3281">
        <ele>34</ele>
        <time>2022-03-13T08:12:30.000Z</time>
      </trkpt>
      <trkpt lat="47.25046" lon="-2.32798">
        <ele>34</ele>
        <time>2022-03-13T08:12:32.000Z</time>
      </trkpt>
      <trkpt lat="47.25042" lon="-2.32776">
        <ele>34</ele>
        <time>2022-03-13T08:12:36.000Z</time>
      </trkpt>
      <trkpt lat="47.25034" lon="-2.32763">
        <ele>34</ele>
        <time>2022-03-13T08:12:39.000Z</time>
      </trkpt>
      <trkpt lat="47.2503" lon="-2.32755">
        <ele>34</ele>
        <time>2022-03-13T08:12:41.000Z</time>
      </trkpt>
      <trkpt lat="47.25032" lon="-2.32741">
        <ele>34</ele>
        <time>2022-03-13T08:12:44.000Z</time>
      </trkpt>
      <trkpt lat="47.25035" lon="-2.32739">
        <ele>34</ele>
        <time>2022-03-13T08:12:45.000Z</time>
      </trkpt>
      <trkpt lat="47.25051" lon="-2.32727">
        <ele>34.400001525879</ele>
        <time>2022-03-13T08:12:50.000Z</time>
      </trkpt>
      <trkpt lat="47.25054" lon="-2.32724">
        <ele>34.799999237061</ele>
        <time>2022-03-13T08:12:51.000Z</time>
      </trkpt>
      <trkpt lat="47.25057" lon="-2.32721">
        <ele>35.200000762939</ele>
        <time>2022-03-13T08:12:52.000Z</time>
      </trkpt>
      <trkpt lat="47.25061" lon="-2.32718">
        <ele>35.599998474121</ele>
        <time>2022-03-13T08:12:53.000Z</time>
      </trkpt>
      <trkpt lat="47.25064" lon="-2.32715">
        <ele>36</ele>
        <time>2022-03-13T08:12:54.000Z</time>
      </trkpt>
      <trkpt lat="47.25075" lon="-2.32707">
        <ele>36</ele>
        <time>2022-03-13T08:12:57.000Z</time>
      </trkpt>
      <trkpt lat="47.25084" lon="-2.32697">
        <ele>36</ele>
        <time>2022-03-13T08:13:00.000Z</time>
      </trkpt>
      <trkpt lat="47.25086" lon="-2.32685">
        <ele>36</ele>
        <time>2022-03-13T08:13:02.000Z</time>
      </trkpt>
      <trkpt lat="47.25081" lon="-2.32669">
        <ele>36</ele>
        <time>2022-03-13T08:13:05.000Z</time>
      </trkpt>
      <trkpt lat="47.25078" lon="-2.32664">
        <ele>36</ele>
        <time>2022-03-13T08:13:06.000Z</time>
      </trkpt>
      <trkpt lat="47.25075" lon="-2.32659">
        <ele>36</ele>
        <time>2022-03-13T08:13:07.000Z</time>
      </trkpt>
      <trkpt lat="47.2507" lon="-2.32649">
        <ele>36</ele>
        <time>2022-03-13T08:13:09.000Z</time>
      </trkpt>
      <trkpt lat="47.25066" lon="-2.32639">
        <ele>36</ele>
        <time>2022-03-13T08:13:11.000Z</time>
      </trkpt>
      <trkpt lat="47.25057" lon="-2.32618">
        <ele>36.599998474121</ele>
        <time>2022-03-13T08:13:15.000Z</time>
      </trkpt>
      <trkpt lat="47.25055" lon="-2.32614">
        <ele>37</ele>
        <time>2022-03-13T08:13:16.000Z</time>
      </trkpt>
      <trkpt lat="47.25052" lon="-2.32608">
        <ele>37.400001525879</ele>
        <time>2022-03-13T08:13:17.000Z</time>
      </trkpt>
      <trkpt lat="47.2505" lon="-2.32604">
        <ele>37.799999237061</ele>
        <time>2022-03-13T08:13:18.000Z</time>
      </trkpt>
      <trkpt lat="47.25047" lon="-2.32599">
        <ele>38.200000762939</ele>
        <time>2022-03-13T08:13:19.000Z</time>
      </trkpt>
      <trkpt lat="47.25045" lon="-2.32594">
        <ele>38.200000762939</ele>
        <time>2022-03-13T08:13:20.000Z</time>
      </trkpt>
      <trkpt lat="47.25032" lon="-2.32562">
        <ele>38.599998474121</ele>
        <time>2022-03-13T08:13:26.000Z</time>
      </trkpt>
      <trkpt lat="47.2503" lon="-2.32557">
        <ele>39</ele>
        <time>2022-03-13T08:13:27.000Z</time>
      </trkpt>
      <trkpt lat="47.25028" lon="-2.32551">
        <ele>39.400001525879</ele>
        <time>2022-03-13T08:13:28.000Z</time>
      </trkpt>
      <trkpt lat="47.25028" lon="-2.32545">
        <ele>39.799999237061</ele>
        <time>2022-03-13T08:13:29.000Z</time>
      </trkpt>
      <trkpt lat="47.25028" lon="-2.32539">
        <ele>40.200000762939</ele>
        <time>2022-03-13T08:13:30.000Z</time>
      </trkpt>
      <trkpt lat="47.25029" lon="-2.32533">
        <ele>40.200000762939</ele>
        <time>2022-03-13T08:13:31.000Z</time>
      </trkpt>
      <trkpt lat="47.25038" lon="-2.32517">
        <ele>40.200000762939</ele>
        <time>2022-03-13T08:13:35.000Z</time>
      </trkpt>
      <trkpt lat="47.25042" lon="-2.32514">
        <ele>40.599998474121</ele>
        <time>2022-03-13T08:13:36.000Z</time>
      </trkpt>
      <trkpt lat="47.25045" lon="-2.32511">
        <ele>41.200000762939</ele>
        <time>2022-03-13T08:13:37.000Z</time>
      </trkpt>
      <trkpt lat="47.25048" lon="-2.32508">
        <ele>41.599998474121</ele>
        <time>2022-03-13T08:13:38.000Z</time>
      </trkpt>
      <trkpt lat="47.25051" lon="-2.32506">
        <ele>42</ele>
        <time>2022-03-13T08:13:39.000Z</time>
      </trkpt>
      <trkpt lat="47.25055" lon="-2.32504">
        <ele>42.400001525879</ele>
        <time>2022-03-13T08:13:40.000Z</time>
      </trkpt>
      <trkpt lat="47.25058" lon="-2.32502">
        <ele>42.400001525879</ele>
        <time>2022-03-13T08:13:41.000Z</time>
      </trkpt>
      <trkpt lat="47.25086" lon="-2.3249">
        <ele>42.400001525879</ele>
        <time>2022-03-13T08:13:48.000Z</time>
      </trkpt>
      <trkpt lat="47.25093" lon="-2.32485">
        <ele>42.400001525879</ele>
        <time>2022-03-13T08:13:50.000Z</time>
      </trkpt>
      <trkpt lat="47.25103" lon="-2.32472">
        <ele>42.400001525879</ele>
        <time>2022-03-13T08:13:53.000Z</time>
      </trkpt>
      <trkpt lat="47.25105" lon="-2.32466">
        <ele>42.400001525879</ele>
        <time>2022-03-13T08:13:54.000Z</time>
      </trkpt>
      <trkpt lat="47.25109" lon="-2.32448">
        <ele>42.400001525879</ele>
        <time>2022-03-13T08:13:57.000Z</time>
      </trkpt>
      <trkpt lat="47.25109" lon="-2.32429">
        <ele>42.799999237061</ele>
        <time>2022-03-13T08:14:00.000Z</time>
      </trkpt>
      <trkpt lat="47.25108" lon="-2.32423">
        <ele>43.200000762939</ele>
        <time>2022-03-13T08:14:01.000Z</time>
      </trkpt>
      <trkpt lat="47.25108" lon="-2.32417">
        <ele>43.599998474121</ele>
        <time>2022-03-13T08:14:02.000Z</time>
      </trkpt>
      <trkpt lat="47.25108" lon="-2.32411">
        <ele>44</ele>
        <time>2022-03-13T08:14:03.000Z</time>
      </trkpt>
      <trkpt lat="47.25108" lon="-2.32405">
        <ele>44.400001525879</ele>
        <time>2022-03-13T08:14:04.000Z</time>
      </trkpt>
      <trkpt lat="47.25108" lon="-2.32369">
        <ele>44.400001525879</ele>
        <time>2022-03-13T08:14:10.000Z</time>
      </trkpt>
      <trkpt lat="47.25112" lon="-2.32351">
        <ele>44.799999237061</ele>
        <time>2022-03-13T08:14:13.000Z</time>
      </trkpt>
      <trkpt lat="47.25113" lon="-2.32345">
        <ele>45.200000762939</ele>
        <time>2022-03-13T08:14:14.000Z</time>
      </trkpt>
      <trkpt lat="47.25114" lon="-2.32339">
        <ele>45.599998474121</ele>
        <time>2022-03-13T08:14:15.000Z</time>
      </trkpt>
      <trkpt lat="47.25116" lon="-2.32334">
        <ele>46</ele>
        <time>2022-03-13T08:14:16.000Z</time>
      </trkpt>
      <trkpt lat="47.25118" lon="-2.32329">
        <ele>46.400001525879</ele>
        <time>2022-03-13T08:14:17.000Z</time>
      </trkpt>
      <trkpt lat="47.2513" lon="-2.32304">
        <ele>46.400001525879</ele>
        <time>2022-03-13T08:14:23.000Z</time>
      </trkpt>
      <trkpt lat="47.25133" lon="-2.32299">
        <ele>46.799999237061</ele>
        <time>2022-03-13T08:14:24.000Z</time>
      </trkpt>
      <trkpt lat="47.25134" lon="-2.32295">
        <ele>47.200000762939</ele>
        <time>2022-03-13T08:14:25.000Z</time>
      </trkpt>
      <trkpt lat="47.25135" lon="-2.32289">
        <ele>47.799999237061</ele>
        <time>2022-03-13T08:14:26.000Z</time>
      </trkpt>
      <trkpt lat="47.25135" lon="-2.32284">
        <ele>48.200000762939</ele>
        <time>2022-03-13T08:14:27.000Z</time>
      </trkpt>
      <trkpt lat="47.25134" lon="-2.32279">
        <ele>48.599998474121</ele>
        <time>2022-03-13T08:14:28.000Z</time>
      </trkpt>
      <trkpt lat="47.25133" lon="-2.32244">
        <ele>48.599998474121</ele>
        <time>2022-03-13T08:14:34.000Z</time>
      </trkpt>
      <trkpt lat="47.25131" lon="-2.32201">
        <ele>48.599998474121</ele>
        <time>2022-03-13T08:14:41.000Z</time>
      </trkpt>
      <trkpt lat="47.2513" lon="-2.32195">
        <ele>49</ele>
        <time>2022-03-13T08:14:42.000Z</time>
      </trkpt>
      <trkpt lat="47.2513" lon="-2.32188">
        <ele>49.400001525879</ele>
        <time>2022-03-13T08:14:43.000Z</time>
      </trkpt>
      <trkpt lat="47.25129" lon="-2.32182">
        <ele>50.200000762939</ele>
        <time>2022-03-13T08:14:44.000Z</time>
      </trkpt>
      <trkpt lat="47.25129" lon="-2.32175">
        <ele>50.599998474121</ele>
        <time>2022-03-13T08:14:45.000Z</time>
      </trkpt>
      <trkpt lat="47.25126" lon="-2.32136">
        <ele>50.599998474121</ele>
        <time>2022-03-13T08:14:51.000Z</time>
      </trkpt>
      <trkpt lat="47.25121" lon="-2.3208">
        <ele>50.599998474121</ele>
        <time>2022-03-13T08:14:59.000Z</time>
      </trkpt>
      <trkpt lat="47.25116" lon="-2.32005">
        <ele>50.599998474121</ele>
        <time>2022-03-13T08:15:09.000Z</time>
      </trkpt>
      <trkpt lat="47.25115" lon="-2.31991">
        <ele>50.599998474121</ele>
        <time>2022-03-13T08:15:11.000Z</time>
      </trkpt>
      <trkpt lat="47.2511" lon="-2.31963">
        <ele>50.599998474121</ele>
        <time>2022-03-13T08:15:15.000Z</time>
      </trkpt>
      <trkpt lat="47.2511" lon="-2.31955">
        <ele>50.599998474121</ele>
        <time>2022-03-13T08:15:16.000Z</time>
      </trkpt>
      <trkpt lat="47.25108" lon="-2.3194">
        <ele>50.599998474121</ele>
        <time>2022-03-13T08:15:18.000Z</time>
      </trkpt>
      <trkpt lat="47.25106" lon="-2.31925">
        <ele>50.599998474121</ele>
        <time>2022-03-13T08:15:20.000Z</time>
      </trkpt>
      <trkpt lat="47.25099" lon="-2.3187">
        <ele>50.599998474121</ele>
        <time>2022-03-13T08:15:28.000Z</time>
      </trkpt>
      <trkpt lat="47.25089" lon="-2.31812">
        <ele>50.599998474121</ele>
        <time>2022-03-13T08:15:36.000Z</time>
      </trkpt>
      <trkpt lat="47.25085" lon="-2.31789">
        <ele>51</ele>
        <time>2022-03-13T08:15:39.000Z</time>
      </trkpt>
      <trkpt lat="47.25083" lon="-2.31782">
        <ele>51.400001525879</ele>
        <time>2022-03-13T08:15:40.000Z</time>
      </trkpt>
      <trkpt lat="47.25081" lon="-2.31775">
        <ele>51.799999237061</ele>
        <time>2022-03-13T08:15:41.000Z</time>
      </trkpt>
      <trkpt lat="47.25079" lon="-2.31768">
        <ele>52.400001525879</ele>
        <time>2022-03-13T08:15:42.000Z</time>
      </trkpt>
      <trkpt lat="47.25078" lon="-2.31761">
        <ele>52.799999237061</ele>
        <time>2022-03-13T08:15:43.000Z</time>
      </trkpt>
      <trkpt lat="47.25076" lon="-2.31754">
        <ele>52.799999237061</ele>
        <time>2022-03-13T08:15:44.000Z</time>
      </trkpt>
      <trkpt lat="47.25063" lon="-2.31699">
        <ele>52.799999237061</ele>
        <time>2022-03-13T08:15:52.000Z</time>
      </trkpt>
      <trkpt lat="47.25053" lon="-2.31655">
        <ele>52.799999237061</ele>
        <time>2022-03-13T08:15:59.000Z</time>
      </trkpt>
      <trkpt lat="47.25042" lon="-2.31631">
        <ele>52.799999237061</ele>
        <time>2022-03-13T08:16:04.000Z</time>
      </trkpt>
      <trkpt lat="47.25038" lon="-2.31627">
        <ele>52.799999237061</ele>
        <time>2022-03-13T08:16:05.000Z</time>
      </trkpt>
      <trkpt lat="47.25025" lon="-2.31613">
        <ele>52.799999237061</ele>
        <time>2022-03-13T08:16:09.000Z</time>
      </trkpt>
      <trkpt lat="47.25003" lon="-2.31593">
        <ele>52.799999237061</ele>
        <time>2022-03-13T08:16:15.000Z</time>
      </trkpt>
      <trkpt lat="47.24996" lon="-2.31586">
        <ele>52.799999237061</ele>
        <time>2022-03-13T08:16:17.000Z</time>
      </trkpt>
      <trkpt lat="47.24992" lon="-2.31581">
        <ele>53.200000762939</ele>
        <time>2022-03-13T08:16:18.000Z</time>
      </trkpt>
      <trkpt lat="47.24988" lon="-2.31577">
        <ele>53.599998474121</ele>
        <time>2022-03-13T08:16:19.000Z</time>
      </trkpt>
      <trkpt lat="47.24985" lon="-2.31572">
        <ele>54</ele>
        <time>2022-03-13T08:16:20.000Z</time>
      </trkpt>
      <trkpt lat="47.24982" lon="-2.31568">
        <ele>54.400001525879</ele>
        <time>2022-03-13T08:16:21.000Z</time>
      </trkpt>
      <trkpt lat="47.24979" lon="-2.31562">
        <ele>54.799999237061</ele>
        <time>2022-03-13T08:16:22.000Z</time>
      </trkpt>
      <trkpt lat="47.24976" lon="-2.31557">
        <ele>54.799999237061</ele>
        <time>2022-03-13T08:16:23.000Z</time>
      </trkpt>
      <trkpt lat="47.24973" lon="-2.31543">
        <ele>54.799999237061</ele>
        <time>2022-03-13T08:16:25.000Z</time>
      </trkpt>
      <trkpt lat="47.24966" lon="-2.31495">
        <ele>54.799999237061</ele>
        <time>2022-03-13T08:16:32.000Z</time>
      </trkpt>
      <trkpt lat="47.24965" lon="-2.31488">
        <ele>54.799999237061</ele>
        <time>2022-03-13T08:16:33.000Z</time>
      </trkpt>
      <trkpt lat="47.24964" lon="-2.31455">
        <ele>54.799999237061</ele>
        <time>2022-03-13T08:16:38.000Z</time>
      </trkpt>
      <trkpt lat="47.24956" lon="-2.3141">
        <ele>54.799999237061</ele>
        <time>2022-03-13T08:16:45.000Z</time>
      </trkpt>
      <trkpt lat="47.24942" lon="-2.31355">
        <ele>54.799999237061</ele>
        <time>2022-03-13T08:16:54.000Z</time>
      </trkpt>
      <trkpt lat="47.24928" lon="-2.31309">
        <ele>54.799999237061</ele>
        <time>2022-03-13T08:17:02.000Z</time>
      </trkpt>
      <trkpt lat="47.24922" lon="-2.31284">
        <ele>54.799999237061</ele>
        <time>2022-03-13T08:17:08.000Z</time>
      </trkpt>
      <trkpt lat="47.24915" lon="-2.31258">
        <ele>54.799999237061</ele>
        <time>2022-03-13T08:17:13.000Z</time>
      </trkpt>
      <trkpt lat="47.24902" lon="-2.3121">
        <ele>54.799999237061</ele>
        <time>2022-03-13T08:17:21.000Z</time>
      </trkpt>
      <trkpt lat="47.24885" lon="-2.31154">
        <ele>54.799999237061</ele>
        <time>2022-03-13T08:17:30.000Z</time>
      </trkpt>
      <trkpt lat="47.24879" lon="-2.31135">
        <ele>54.799999237061</ele>
        <time>2022-03-13T08:17:33.000Z</time>
      </trkpt>
      <trkpt lat="47.24873" lon="-2.31114">
        <ele>54.799999237061</ele>
        <time>2022-03-13T08:17:36.000Z</time>
      </trkpt>
      <trkpt lat="47.24858" lon="-2.31067">
        <ele>54.799999237061</ele>
        <time>2022-03-13T08:17:43.000Z</time>
      </trkpt>
      <trkpt lat="47.24845" lon="-2.31031">
        <ele>54.799999237061</ele>
        <time>2022-03-13T08:17:49.000Z</time>
      </trkpt>
      <trkpt lat="47.24832" lon="-2.30997">
        <ele>54.799999237061</ele>
        <time>2022-03-13T08:17:55.000Z</time>
      </trkpt>
      <trkpt lat="47.2483" lon="-2.30992">
        <ele>55.200000762939</ele>
        <time>2022-03-13T08:17:56.000Z</time>
      </trkpt>
      <trkpt lat="47.24827" lon="-2.30987">
        <ele>55.599998474121</ele>
        <time>2022-03-13T08:17:57.000Z</time>
      </trkpt>
      <trkpt lat="47.24826" lon="-2.30981">
        <ele>56</ele>
        <time>2022-03-13T08:17:58.000Z</time>
      </trkpt>
      <trkpt lat="47.24824" lon="-2.30976">
        <ele>56.400001525879</ele>
        <time>2022-03-13T08:17:59.000Z</time>
      </trkpt>
      <trkpt lat="47.24822" lon="-2.30972">
        <ele>56.799999237061</ele>
        <time>2022-03-13T08:18:00.000Z</time>
      </trkpt>
      <trkpt lat="47.24817" lon="-2.30966">
        <ele>56.799999237061</ele>
        <time>2022-03-13T08:18:02.000Z</time>
      </trkpt>
      <trkpt lat="47.24811" lon="-2.30965">
        <ele>56.799999237061</ele>
        <time>2022-03-13T08:18:04.000Z</time>
      </trkpt>
      <trkpt lat="47.24807" lon="-2.30966">
        <ele>56.799999237061</ele>
        <time>2022-03-13T08:18:05.000Z</time>
      </trkpt>
      <trkpt lat="47.24799" lon="-2.30972">
        <ele>56.799999237061</ele>
        <time>2022-03-13T08:18:07.000Z</time>
      </trkpt>
      <trkpt lat="47.24787" lon="-2.30979">
        <ele>56.799999237061</ele>
        <time>2022-03-13T08:18:09.000Z</time>
      </trkpt>
      <trkpt lat="47.24756" lon="-2.30994">
        <ele>56.400001525879</ele>
        <time>2022-03-13T08:18:14.000Z</time>
      </trkpt>
      <trkpt lat="47.2475" lon="-2.30997">
        <ele>56</ele>
        <time>2022-03-13T08:18:15.000Z</time>
      </trkpt>
      <trkpt lat="47.24744" lon="-2.31001">
        <ele>55.599998474121</ele>
        <time>2022-03-13T08:18:16.000Z</time>
      </trkpt>
      <trkpt lat="47.24738" lon="-2.31006">
        <ele>55.200000762939</ele>
        <time>2022-03-13T08:18:17.000Z</time>
      </trkpt>
      <trkpt lat="47.24732" lon="-2.31011">
        <ele>54.799999237061</ele>
        <time>2022-03-13T08:18:18.000Z</time>
      </trkpt>
      <trkpt lat="47.24727" lon="-2.31018">
        <ele>54.799999237061</ele>
        <time>2022-03-13T08:18:19.000Z</time>
      </trkpt>
      <trkpt lat="47.24718" lon="-2.31033">
        <ele>54.400001525879</ele>
        <time>2022-03-13T08:18:21.000Z</time>
      </trkpt>
      <trkpt lat="47.24714" lon="-2.31041">
        <ele>54</ele>
        <time>2022-03-13T08:18:22.000Z</time>
      </trkpt>
      <trkpt lat="47.24709" lon="-2.31048">
        <ele>53.400001525879</ele>
        <time>2022-03-13T08:18:23.000Z</time>
      </trkpt>
      <trkpt lat="47.24705" lon="-2.31056">
        <ele>53</ele>
        <time>2022-03-13T08:18:24.000Z</time>
      </trkpt>
      <trkpt lat="47.24701" lon="-2.31063">
        <ele>52.599998474121</ele>
        <time>2022-03-13T08:18:25.000Z</time>
      </trkpt>
      <trkpt lat="47.2469" lon="-2.31083">
        <ele>52.599998474121</ele>
        <time>2022-03-13T08:18:28.000Z</time>
      </trkpt>
      <trkpt lat="47.24666" lon="-2.31129">
        <ele>52.599998474121</ele>
        <time>2022-03-13T08:18:35.000Z</time>
      </trkpt>
      <trkpt lat="47.24643" lon="-2.31164">
        <ele>52.599998474121</ele>
        <time>2022-03-13T08:18:41.000Z</time>
      </trkpt>
      <trkpt lat="47.24614" lon="-2.31195">
        <ele>52.599998474121</ele>
        <time>2022-03-13T08:18:47.000Z</time>
      </trkpt>
      <trkpt lat="47.24589" lon="-2.31218">
        <ele>52.599998474121</ele>
        <time>2022-03-13T08:18:52.000Z</time>
      </trkpt>
      <trkpt lat="47.24584" lon="-2.31223">
        <ele>52.599998474121</ele>
        <time>2022-03-13T08:18:53.000Z</time>
      </trkpt>
      <trkpt lat="47.2458" lon="-2.31228">
        <ele>52.599998474121</ele>
        <time>2022-03-13T08:18:54.000Z</time>
      </trkpt>
      <trkpt lat="47.24562" lon="-2.31248">
        <ele>52.599998474121</ele>
        <time>2022-03-13T08:18:58.000Z</time>
      </trkpt>
      <trkpt lat="47.24535" lon="-2.31276">
        <ele>52.599998474121</ele>
        <time>2022-03-13T08:19:04.000Z</time>
      </trkpt>
      <trkpt lat="47.24509" lon="-2.31302">
        <ele>52.200000762939</ele>
        <time>2022-03-13T08:19:09.000Z</time>
      </trkpt>
      <trkpt lat="47.24504" lon="-2.31307">
        <ele>51.799999237061</ele>
        <time>2022-03-13T08:19:10.000Z</time>
      </trkpt>
      <trkpt lat="47.24499" lon="-2.31311">
        <ele>51.200000762939</ele>
        <time>2022-03-13T08:19:11.000Z</time>
      </trkpt>
      <trkpt lat="47.24494" lon="-2.31314">
        <ele>50.799999237061</ele>
        <time>2022-03-13T08:19:12.000Z</time>
      </trkpt>
      <trkpt lat="47.2449" lon="-2.31317">
        <ele>50.200000762939</ele>
        <time>2022-03-13T08:19:13.000Z</time>
      </trkpt>
      <trkpt lat="47.24486" lon="-2.31314">
        <ele>49.799999237061</ele>
        <time>2022-03-13T08:19:14.000Z</time>
      </trkpt>
      <trkpt lat="47.24483" lon="-2.3131">
        <ele>48.599998474121</ele>
        <time>2022-03-13T08:19:15.000Z</time>
      </trkpt>
      <trkpt lat="47.2448" lon="-2.31305">
        <ele>48.200000762939</ele>
        <time>2022-03-13T08:19:16.000Z</time>
      </trkpt>
      <trkpt lat="47.24477" lon="-2.31299">
        <ele>48.200000762939</ele>
        <time>2022-03-13T08:19:17.000Z</time>
      </trkpt>
      <trkpt lat="47.24475" lon="-2.31291">
        <ele>47.599998474121</ele>
        <time>2022-03-13T08:19:18.000Z</time>
      </trkpt>
      <trkpt lat="47.24473" lon="-2.31284">
        <ele>47.200000762939</ele>
        <time>2022-03-13T08:19:19.000Z</time>
      </trkpt>
      <trkpt lat="47.2447" lon="-2.31276">
        <ele>46.799999237061</ele>
        <time>2022-03-13T08:19:20.000Z</time>
      </trkpt>
      <trkpt lat="47.24467" lon="-2.3127">
        <ele>46.400001525879</ele>
        <time>2022-03-13T08:19:21.000Z</time>
      </trkpt>
      <trkpt lat="47.24464" lon="-2.31263">
        <ele>46</ele>
        <time>2022-03-13T08:19:22.000Z</time>
      </trkpt>
      <trkpt lat="47.24456" lon="-2.31237">
        <ele>46</ele>
        <time>2022-03-13T08:19:26.000Z</time>
      </trkpt>
      <trkpt lat="47.24455" lon="-2.31232">
        <ele>46</ele>
        <time>2022-03-13T08:19:27.000Z</time>
      </trkpt>
      <trkpt lat="47.24449" lon="-2.31222">
        <ele>45.599998474121</ele>
        <time>2022-03-13T08:19:30.000Z</time>
      </trkpt>
      <trkpt lat="47.24447" lon="-2.31219">
        <ele>45.200000762939</ele>
        <time>2022-03-13T08:19:31.000Z</time>
      </trkpt>
      <trkpt lat="47.24445" lon="-2.3122">
        <ele>44.799999237061</ele>
        <time>2022-03-13T08:19:32.000Z</time>
      </trkpt>
      <trkpt lat="47.24443" lon="-2.31221">
        <ele>43.799999237061</ele>
        <time>2022-03-13T08:19:33.000Z</time>
      </trkpt>
      <trkpt lat="47.2444" lon="-2.31223">
        <ele>43.200000762939</ele>
        <time>2022-03-13T08:19:34.000Z</time>
      </trkpt>
      <trkpt lat="47.24436" lon="-2.31221">
        <ele>42.799999237061</ele>
        <time>2022-03-13T08:19:35.000Z</time>
      </trkpt>
      <trkpt lat="47.24433" lon="-2.31218">
        <ele>42.200000762939</ele>
        <time>2022-03-13T08:19:36.000Z</time>
      </trkpt>
      <trkpt lat="47.24432" lon="-2.31215">
        <ele>41.799999237061</ele>
        <time>2022-03-13T08:19:37.000Z</time>
      </trkpt>
      <trkpt lat="47.24429" lon="-2.31208">
        <ele>41.799999237061</ele>
        <time>2022-03-13T08:19:39.000Z</time>
      </trkpt>
      <trkpt lat="47.24423" lon="-2.31199">
        <ele>41.799999237061</ele>
        <time>2022-03-13T08:19:42.000Z</time>
      </trkpt>
      <trkpt lat="47.24421" lon="-2.31194">
        <ele>41.799999237061</ele>
        <time>2022-03-13T08:19:44.000Z</time>
      </trkpt>
      <trkpt lat="47.24418" lon="-2.31189">
        <ele>42.200000762939</ele>
        <time>2022-03-13T08:19:46.000Z</time>
      </trkpt>
      <trkpt lat="47.24416" lon="-2.31185">
        <ele>42.599998474121</ele>
        <time>2022-03-13T08:19:47.000Z</time>
      </trkpt>
      <trkpt lat="47.24414" lon="-2.31182">
        <ele>43</ele>
        <time>2022-03-13T08:19:48.000Z</time>
      </trkpt>
      <trkpt lat="47.2441" lon="-2.31179">
        <ele>43.400001525879</ele>
        <time>2022-03-13T08:19:49.000Z</time>
      </trkpt>
      <trkpt lat="47.24407" lon="-2.31176">
        <ele>43.799999237061</ele>
        <time>2022-03-13T08:19:50.000Z</time>
      </trkpt>
      <trkpt lat="47.24401" lon="-2.3117">
        <ele>43.799999237061</ele>
        <time>2022-03-13T08:19:52.000Z</time>
      </trkpt>
      <trkpt lat="47.24384" lon="-2.3115">
        <ele>43.799999237061</ele>
        <time>2022-03-13T08:19:57.000Z</time>
      </trkpt>
      <trkpt lat="47.24364" lon="-2.31126">
        <ele>43.799999237061</ele>
        <time>2022-03-13T08:20:03.000Z</time>
      </trkpt>
      <trkpt lat="47.24357" lon="-2.31101">
        <ele>43.799999237061</ele>
        <time>2022-03-13T08:20:08.000Z</time>
      </trkpt>
      <trkpt lat="47.24348" lon="-2.31072">
        <ele>43.799999237061</ele>
        <time>2022-03-13T08:20:13.000Z</time>
      </trkpt>
      <trkpt lat="47.24329" lon="-2.31037">
        <ele>43.799999237061</ele>
        <time>2022-03-13T08:20:20.000Z</time>
      </trkpt>
      <trkpt lat="47.2432" lon="-2.31035">
        <ele>43.799999237061</ele>
        <time>2022-03-13T08:20:22.000Z</time>
      </trkpt>
      <trkpt lat="47.24308" lon="-2.31034">
        <ele>43.799999237061</ele>
        <time>2022-03-13T08:20:24.000Z</time>
      </trkpt>
      <trkpt lat="47.24285" lon="-2.31032">
        <ele>43.799999237061</ele>
        <time>2022-03-13T08:20:28.000Z</time>
      </trkpt>
      <trkpt lat="47.24281" lon="-2.31028">
        <ele>43.799999237061</ele>
        <time>2022-03-13T08:20:29.000Z</time>
      </trkpt>
      <trkpt lat="47.2428" lon="-2.31022">
        <ele>43.400001525879</ele>
        <time>2022-03-13T08:20:30.000Z</time>
      </trkpt>
      <trkpt lat="47.24281" lon="-2.31017">
        <ele>43</ele>
        <time>2022-03-13T08:20:31.000Z</time>
      </trkpt>
      <trkpt lat="47.24281" lon="-2.31011">
        <ele>42.599998474121</ele>
        <time>2022-03-13T08:20:32.000Z</time>
      </trkpt>
      <trkpt lat="47.24281" lon="-2.31005">
        <ele>42.200000762939</ele>
        <time>2022-03-13T08:20:33.000Z</time>
      </trkpt>
      <trkpt lat="47.24282" lon="-2.31">
        <ele>41.799999237061</ele>
        <time>2022-03-13T08:20:34.000Z</time>
      </trkpt>
      <trkpt lat="47.24283" lon="-2.30994">
        <ele>41.799999237061</ele>
        <time>2022-03-13T08:20:35.000Z</time>
      </trkpt>
      <trkpt lat="47.24284" lon="-2.30982">
        <ele>41.799999237061</ele>
        <time>2022-03-13T08:20:37.000Z</time>
      </trkpt>
      <trkpt lat="47.24285" lon="-2.30976">
        <ele>42.200000762939</ele>
        <time>2022-03-13T08:20:38.000Z</time>
      </trkpt>
      <trkpt lat="47.24286" lon="-2.30971">
        <ele>42.599998474121</ele>
        <time>2022-03-13T08:20:39.000Z</time>
      </trkpt>
      <trkpt lat="47.24287" lon="-2.30966">
        <ele>43</ele>
        <time>2022-03-13T08:20:40.000Z</time>
      </trkpt>
      <trkpt lat="47.24287" lon="-2.30961">
        <ele>43.599998474121</ele>
        <time>2022-03-13T08:20:41.000Z</time>
      </trkpt>
      <trkpt lat="47.24288" lon="-2.30956">
        <ele>44</ele>
        <time>2022-03-13T08:20:42.000Z</time>
      </trkpt>
      <trkpt lat="47.24288" lon="-2.30952">
        <ele>44</ele>
        <time>2022-03-13T08:20:43.000Z</time>
      </trkpt>
      <trkpt lat="47.24289" lon="-2.30942">
        <ele>44.400001525879</ele>
        <time>2022-03-13T08:20:45.000Z</time>
      </trkpt>
      <trkpt lat="47.24289" lon="-2.30937">
        <ele>44.799999237061</ele>
        <time>2022-03-13T08:20:46.000Z</time>
      </trkpt>
      <trkpt lat="47.24289" lon="-2.30932">
        <ele>45.599998474121</ele>
        <time>2022-03-13T08:20:47.000Z</time>
      </trkpt>
      <trkpt lat="47.24289" lon="-2.30928">
        <ele>46</ele>
        <time>2022-03-13T08:20:48.000Z</time>
      </trkpt>
      <trkpt lat="47.24289" lon="-2.30924">
        <ele>46</ele>
        <time>2022-03-13T08:20:49.000Z</time>
      </trkpt>
      <trkpt lat="47.24288" lon="-2.30908">
        <ele>46.400001525879</ele>
        <time>2022-03-13T08:20:52.000Z</time>
      </trkpt>
      <trkpt lat="47.24287" lon="-2.30903">
        <ele>47</ele>
        <time>2022-03-13T08:20:53.000Z</time>
      </trkpt>
      <trkpt lat="47.24286" lon="-2.30897">
        <ele>47.400001525879</ele>
        <time>2022-03-13T08:20:54.000Z</time>
      </trkpt>
      <trkpt lat="47.24286" lon="-2.30892">
        <ele>47.799999237061</ele>
        <time>2022-03-13T08:20:55.000Z</time>
      </trkpt>
      <trkpt lat="47.24286" lon="-2.30886">
        <ele>48.200000762939</ele>
        <time>2022-03-13T08:20:56.000Z</time>
      </trkpt>
      <trkpt lat="47.24284" lon="-2.30849">
        <ele>48.200000762939</ele>
        <time>2022-03-13T08:21:03.000Z</time>
      </trkpt>
      <trkpt lat="47.2429" lon="-2.30831">
        <ele>48.599998474121</ele>
        <time>2022-03-13T08:21:07.000Z</time>
      </trkpt>
      <trkpt lat="47.24292" lon="-2.30826">
        <ele>49</ele>
        <time>2022-03-13T08:21:08.000Z</time>
      </trkpt>
      <trkpt lat="47.24295" lon="-2.30822">
        <ele>49.400001525879</ele>
        <time>2022-03-13T08:21:09.000Z</time>
      </trkpt>
      <trkpt lat="47.24298" lon="-2.30819">
        <ele>49.799999237061</ele>
        <time>2022-03-13T08:21:10.000Z</time>
      </trkpt>
      <trkpt lat="47.243" lon="-2.30816">
        <ele>50.200000762939</ele>
        <time>2022-03-13T08:21:11.000Z</time>
      </trkpt>
      <trkpt lat="47.24305" lon="-2.30811">
        <ele>50.200000762939</ele>
        <time>2022-03-13T08:21:13.000Z</time>
      </trkpt>
      <trkpt lat="47.24326" lon="-2.30802">
        <ele>50.200000762939</ele>
        <time>2022-03-13T08:21:18.000Z</time>
      </trkpt>
      <trkpt lat="47.24349" lon="-2.30796">
        <ele>50.200000762939</ele>
        <time>2022-03-13T08:21:24.000Z</time>
      </trkpt>
      <trkpt lat="47.24359" lon="-2.30792">
        <ele>50.799999237061</ele>
        <time>2022-03-13T08:21:27.000Z</time>
      </trkpt>
      <trkpt lat="47.24362" lon="-2.30789">
        <ele>51.200000762939</ele>
        <time>2022-03-13T08:21:28.000Z</time>
      </trkpt>
      <trkpt lat="47.24365" lon="-2.30787">
        <ele>51.599998474121</ele>
        <time>2022-03-13T08:21:29.000Z</time>
      </trkpt>
      <trkpt lat="47.24368" lon="-2.30784">
        <ele>52</ele>
        <time>2022-03-13T08:21:30.000Z</time>
      </trkpt>
      <trkpt lat="47.24371" lon="-2.3078">
        <ele>52.400001525879</ele>
        <time>2022-03-13T08:21:31.000Z</time>
      </trkpt>
      <trkpt lat="47.24382" lon="-2.30764">
        <ele>53.200000762939</ele>
        <time>2022-03-13T08:21:36.000Z</time>
      </trkpt>
      <trkpt lat="47.24384" lon="-2.3076">
        <ele>53.599998474121</ele>
        <time>2022-03-13T08:21:37.000Z</time>
      </trkpt>
      <trkpt lat="47.24386" lon="-2.30758">
        <ele>54.200000762939</ele>
        <time>2022-03-13T08:21:38.000Z</time>
      </trkpt>
      <trkpt lat="47.24389" lon="-2.30755">
        <ele>54.599998474121</ele>
        <time>2022-03-13T08:21:39.000Z</time>
      </trkpt>
      <trkpt lat="47.244" lon="-2.30742">
        <ele>55</ele>
        <time>2022-03-13T08:21:43.000Z</time>
      </trkpt>
      <trkpt lat="47.24401" lon="-2.30736">
        <ele>55.400001525879</ele>
        <time>2022-03-13T08:21:44.000Z</time>
      </trkpt>
      <trkpt lat="47.24401" lon="-2.3073">
        <ele>55.799999237061</ele>
        <time>2022-03-13T08:21:45.000Z</time>
      </trkpt>
      <trkpt lat="47.24401" lon="-2.30724">
        <ele>56.200000762939</ele>
        <time>2022-03-13T08:21:46.000Z</time>
      </trkpt>
      <trkpt lat="47.24401" lon="-2.30718">
        <ele>56.599998474121</ele>
        <time>2022-03-13T08:21:47.000Z</time>
      </trkpt>
      <trkpt lat="47.24403" lon="-2.30705">
        <ele>56.599998474121</ele>
        <time>2022-03-13T08:21:49.000Z</time>
      </trkpt>
      <trkpt lat="47.24406" lon="-2.30691">
        <ele>56.599998474121</ele>
        <time>2022-03-13T08:21:51.000Z</time>
      </trkpt>
      <trkpt lat="47.24414" lon="-2.30664">
        <ele>56.599998474121</ele>
        <time>2022-03-13T08:21:55.000Z</time>
      </trkpt>
      <trkpt lat="47.24416" lon="-2.30651">
        <ele>56.599998474121</ele>
        <time>2022-03-13T08:21:57.000Z</time>
      </trkpt>
      <trkpt lat="47.24423" lon="-2.3063">
        <ele>56.599998474121</ele>
        <time>2022-03-13T08:22:01.000Z</time>
      </trkpt>
      <trkpt lat="47.24426" lon="-2.30625">
        <ele>56.599998474121</ele>
        <time>2022-03-13T08:22:02.000Z</time>
      </trkpt>
      <trkpt lat="47.24437" lon="-2.30613">
        <ele>56.599998474121</ele>
        <time>2022-03-13T08:22:05.000Z</time>
      </trkpt>
      <trkpt lat="47.24445" lon="-2.30607">
        <ele>56.599998474121</ele>
        <time>2022-03-13T08:22:07.000Z</time>
      </trkpt>
      <trkpt lat="47.24453" lon="-2.30599">
        <ele>56.599998474121</ele>
        <time>2022-03-13T08:22:09.000Z</time>
      </trkpt>
      <trkpt lat="47.24461" lon="-2.30589">
        <ele>56.200000762939</ele>
        <time>2022-03-13T08:22:11.000Z</time>
      </trkpt>
      <trkpt lat="47.24467" lon="-2.30579">
        <ele>55.799999237061</ele>
        <time>2022-03-13T08:22:12.000Z</time>
      </trkpt>
      <trkpt lat="47.24472" lon="-2.3057">
        <ele>55.400001525879</ele>
        <time>2022-03-13T08:22:13.000Z</time>
      </trkpt>
      <trkpt lat="47.24475" lon="-2.30563">
        <ele>55</ele>
        <time>2022-03-13T08:22:14.000Z</time>
      </trkpt>
      <trkpt lat="47.24476" lon="-2.30556">
        <ele>54.599998474121</ele>
        <time>2022-03-13T08:22:15.000Z</time>
      </trkpt>
      <trkpt lat="47.24477" lon="-2.3055">
        <ele>54.599998474121</ele>
        <time>2022-03-13T08:22:16.000Z</time>
      </trkpt>
      <trkpt lat="47.2447" lon="-2.30546">
        <ele>54</ele>
        <time>2022-03-13T08:22:19.000Z</time>
      </trkpt>
      <trkpt lat="47.24466" lon="-2.30549">
        <ele>53.599998474121</ele>
        <time>2022-03-13T08:22:20.000Z</time>
      </trkpt>
      <trkpt lat="47.24461" lon="-2.30553">
        <ele>53.200000762939</ele>
        <time>2022-03-13T08:22:21.000Z</time>
      </trkpt>
      <trkpt lat="47.24458" lon="-2.30558">
        <ele>52.799999237061</ele>
        <time>2022-03-13T08:22:22.000Z</time>
      </trkpt>
      <trkpt lat="47.24453" lon="-2.30562">
        <ele>52.400001525879</ele>
        <time>2022-03-13T08:22:23.000Z</time>
      </trkpt>
      <trkpt lat="47.24448" lon="-2.30566">
        <ele>52.400001525879</ele>
        <time>2022-03-13T08:22:24.000Z</time>
      </trkpt>
      <trkpt lat="47.24433" lon="-2.30577">
        <ele>52</ele>
        <time>2022-03-13T08:22:27.000Z</time>
      </trkpt>
      <trkpt lat="47.24427" lon="-2.3058">
        <ele>51.599998474121</ele>
        <time>2022-03-13T08:22:28.000Z</time>
      </trkpt>
      <trkpt lat="47.24422" lon="-2.30582">
        <ele>51</ele>
        <time>2022-03-13T08:22:29.000Z</time>
      </trkpt>
      <trkpt lat="47.24416" lon="-2.30583">
        <ele>50.599998474121</ele>
        <time>2022-03-13T08:22:30.000Z</time>
      </trkpt>
      <trkpt lat="47.2441" lon="-2.30582">
        <ele>50.200000762939</ele>
        <time>2022-03-13T08:22:31.000Z</time>
      </trkpt>
      <trkpt lat="47.24398" lon="-2.30577">
        <ele>50.200000762939</ele>
        <time>2022-03-13T08:22:33.000Z</time>
      </trkpt>
      <trkpt lat="47.24393" lon="-2.30573">
        <ele>50.200000762939</ele>
        <time>2022-03-13T08:22:34.000Z</time>
      </trkpt>
      <trkpt lat="47.24382" lon="-2.30563">
        <ele>49.799999237061</ele>
        <time>2022-03-13T08:22:36.000Z</time>
      </trkpt>
      <trkpt lat="47.24377" lon="-2.30558">
        <ele>49.400001525879</ele>
        <time>2022-03-13T08:22:37.000Z</time>
      </trkpt>
      <trkpt lat="47.24373" lon="-2.30552">
        <ele>49</ele>
        <time>2022-03-13T08:22:38.000Z</time>
      </trkpt>
      <trkpt lat="47.2437" lon="-2.30545">
        <ele>48.599998474121</ele>
        <time>2022-03-13T08:22:39.000Z</time>
      </trkpt>
      <trkpt lat="47.24367" lon="-2.30538">
        <ele>48.200000762939</ele>
        <time>2022-03-13T08:22:40.000Z</time>
      </trkpt>
      <trkpt lat="47.24364" lon="-2.30518">
        <ele>48.200000762939</ele>
        <time>2022-03-13T08:22:44.000Z</time>
      </trkpt>
      <trkpt lat="47.24364" lon="-2.30507">
        <ele>48.599998474121</ele>
        <time>2022-03-13T08:22:47.000Z</time>
      </trkpt>
      <trkpt lat="47.24364" lon="-2.30504">
        <ele>49</ele>
        <time>2022-03-13T08:22:48.000Z</time>
      </trkpt>
      <trkpt lat="47.24365" lon="-2.305">
        <ele>49.400001525879</ele>
        <time>2022-03-13T08:22:49.000Z</time>
      </trkpt>
      <trkpt lat="47.24366" lon="-2.30496">
        <ele>50</ele>
        <time>2022-03-13T08:22:50.000Z</time>
      </trkpt>
      <trkpt lat="47.24368" lon="-2.30491">
        <ele>50.400001525879</ele>
        <time>2022-03-13T08:22:51.000Z</time>
      </trkpt>
      <trkpt lat="47.24371" lon="-2.30481">
        <ele>50.799999237061</ele>
        <time>2022-03-13T08:22:53.000Z</time>
      </trkpt>
      <trkpt lat="47.24373" lon="-2.30476">
        <ele>51.200000762939</ele>
        <time>2022-03-13T08:22:54.000Z</time>
      </trkpt>
      <trkpt lat="47.24374" lon="-2.3047">
        <ele>51.599998474121</ele>
        <time>2022-03-13T08:22:55.000Z</time>
      </trkpt>
      <trkpt lat="47.24376" lon="-2.30465">
        <ele>52.200000762939</ele>
        <time>2022-03-13T08:22:56.000Z</time>
      </trkpt>
      <trkpt lat="47.24377" lon="-2.30459">
        <ele>52.599998474121</ele>
        <time>2022-03-13T08:22:57.000Z</time>
      </trkpt>
      <trkpt lat="47.24377" lon="-2.3045">
        <ele>52.599998474121</ele>
        <time>2022-03-13T08:22:59.000Z</time>
      </trkpt>
      <trkpt lat="47.24374" lon="-2.30447">
        <ele>52.599998474121</ele>
        <time>2022-03-13T08:23:01.000Z</time>
      </trkpt>
      <trkpt lat="47.24367" lon="-2.30448">
        <ele>53</ele>
        <time>2022-03-13T08:23:03.000Z</time>
      </trkpt>
      <trkpt lat="47.24364" lon="-2.30449">
        <ele>53.400001525879</ele>
        <time>2022-03-13T08:23:04.000Z</time>
      </trkpt>
      <trkpt lat="47.2436" lon="-2.30449">
        <ele>53.799999237061</ele>
        <time>2022-03-13T08:23:05.000Z</time>
      </trkpt>
      <trkpt lat="47.24357" lon="-2.30448">
        <ele>54.200000762939</ele>
        <time>2022-03-13T08:23:06.000Z</time>
      </trkpt>
      <trkpt lat="47.24353" lon="-2.30447">
        <ele>54.599998474121</ele>
        <time>2022-03-13T08:23:07.000Z</time>
      </trkpt>
      <trkpt lat="47.24333" lon="-2.30435">
        <ele>54.599998474121</ele>
        <time>2022-03-13T08:23:13.000Z</time>
      </trkpt>
      <trkpt lat="47.24314" lon="-2.30423">
        <ele>54.599998474121</ele>
        <time>2022-03-13T08:23:18.000Z</time>
      </trkpt>
      <trkpt lat="47.24298" lon="-2.30412">
        <ele>54.599998474121</ele>
        <time>2022-03-13T08:23:23.000Z</time>
      </trkpt>
      <trkpt lat="47.24284" lon="-2.30397">
        <ele>55</ele>
        <time>2022-03-13T08:23:28.000Z</time>
      </trkpt>
      <trkpt lat="47.24281" lon="-2.30392">
        <ele>55.400001525879</ele>
        <time>2022-03-13T08:23:29.000Z</time>
      </trkpt>
      <trkpt lat="47.24277" lon="-2.30386">
        <ele>55.799999237061</ele>
        <time>2022-03-13T08:23:30.000Z</time>
      </trkpt>
      <trkpt lat="47.24274" lon="-2.30381">
        <ele>56.200000762939</ele>
        <time>2022-03-13T08:23:31.000Z</time>
      </trkpt>
      <trkpt lat="47.24271" lon="-2.30376">
        <ele>56.599998474121</ele>
        <time>2022-03-13T08:23:32.000Z</time>
      </trkpt>
      <trkpt lat="47.24268" lon="-2.30371">
        <ele>56.599998474121</ele>
        <time>2022-03-13T08:23:33.000Z</time>
      </trkpt>
      <trkpt lat="47.24248" lon="-2.30333">
        <ele>56.599998474121</ele>
        <time>2022-03-13T08:23:40.000Z</time>
      </trkpt>
      <trkpt lat="47.24242" lon="-2.30327">
        <ele>56.599998474121</ele>
        <time>2022-03-13T08:23:41.000Z</time>
      </trkpt>
      <trkpt lat="47.24233" lon="-2.30324">
        <ele>56.599998474121</ele>
        <time>2022-03-13T08:23:43.000Z</time>
      </trkpt>
      <trkpt lat="47.24223" lon="-2.30327">
        <ele>56.599998474121</ele>
        <time>2022-03-13T08:23:45.000Z</time>
      </trkpt>
      <trkpt lat="47.24217" lon="-2.3033">
        <ele>56.599998474121</ele>
        <time>2022-03-13T08:23:46.000Z</time>
      </trkpt>
      <trkpt lat="47.24213" lon="-2.30331">
        <ele>56.200000762939</ele>
        <time>2022-03-13T08:23:47.000Z</time>
      </trkpt>
      <trkpt lat="47.24208" lon="-2.3033">
        <ele>55.599998474121</ele>
        <time>2022-03-13T08:23:48.000Z</time>
      </trkpt>
      <trkpt lat="47.24204" lon="-2.30328">
        <ele>55.200000762939</ele>
        <time>2022-03-13T08:23:49.000Z</time>
      </trkpt>
      <trkpt lat="47.242" lon="-2.30324">
        <ele>54.599998474121</ele>
        <time>2022-03-13T08:23:50.000Z</time>
      </trkpt>
      <trkpt lat="47.24198" lon="-2.30318">
        <ele>54.200000762939</ele>
        <time>2022-03-13T08:23:51.000Z</time>
      </trkpt>
      <trkpt lat="47.24197" lon="-2.30311">
        <ele>53.599998474121</ele>
        <time>2022-03-13T08:23:52.000Z</time>
      </trkpt>
      <trkpt lat="47.24196" lon="-2.30303">
        <ele>53</ele>
        <time>2022-03-13T08:23:53.000Z</time>
      </trkpt>
      <trkpt lat="47.24195" lon="-2.30295">
        <ele>52.599998474121</ele>
        <time>2022-03-13T08:23:54.000Z</time>
      </trkpt>
      <trkpt lat="47.24194" lon="-2.30287">
        <ele>52</ele>
        <time>2022-03-13T08:23:55.000Z</time>
      </trkpt>
      <trkpt lat="47.24191" lon="-2.30264">
        <ele>52</ele>
        <time>2022-03-13T08:23:58.000Z</time>
      </trkpt>
      <trkpt lat="47.24188" lon="-2.3024">
        <ele>52</ele>
        <time>2022-03-13T08:24:02.000Z</time>
      </trkpt>
      <trkpt lat="47.24183" lon="-2.3024">
        <ele>52</ele>
        <time>2022-03-13T08:24:04.000Z</time>
      </trkpt>
      <trkpt lat="47.24168" lon="-2.30242">
        <ele>52</ele>
        <time>2022-03-13T08:24:09.000Z</time>
      </trkpt>
      <trkpt lat="47.24165" lon="-2.30239">
        <ele>52</ele>
        <time>2022-03-13T08:24:10.000Z</time>
      </trkpt>
      <trkpt lat="47.24156" lon="-2.30229">
        <ele>52</ele>
        <time>2022-03-13T08:24:13.000Z</time>
      </trkpt>
      <trkpt lat="47.24145" lon="-2.30214">
        <ele>52</ele>
        <time>2022-03-13T08:24:18.000Z</time>
      </trkpt>
      <trkpt lat="47.24139" lon="-2.30193">
        <ele>52</ele>
        <time>2022-03-13T08:24:24.000Z</time>
      </trkpt>
      <trkpt lat="47.24135" lon="-2.3018">
        <ele>52.400001525879</ele>
        <time>2022-03-13T08:24:28.000Z</time>
      </trkpt>
      <trkpt lat="47.24134" lon="-2.30177">
        <ele>53</ele>
        <time>2022-03-13T08:24:29.000Z</time>
      </trkpt>
      <trkpt lat="47.24133" lon="-2.30175">
        <ele>53.799999237061</ele>
        <time>2022-03-13T08:24:30.000Z</time>
      </trkpt>
      <trkpt lat="47.24132" lon="-2.30172">
        <ele>54.400001525879</ele>
        <time>2022-03-13T08:24:31.000Z</time>
      </trkpt>
      <trkpt lat="47.24131" lon="-2.30169">
        <ele>54.799999237061</ele>
        <time>2022-03-13T08:24:32.000Z</time>
      </trkpt>
      <trkpt lat="47.2413" lon="-2.30166">
        <ele>55.400001525879</ele>
        <time>2022-03-13T08:24:33.000Z</time>
      </trkpt>
      <trkpt lat="47.24129" lon="-2.30163">
        <ele>55.799999237061</ele>
        <time>2022-03-13T08:24:34.000Z</time>
      </trkpt>
      <trkpt lat="47.24128" lon="-2.3016">
        <ele>56.400001525879</ele>
        <time>2022-03-13T08:24:35.000Z</time>
      </trkpt>
      <trkpt lat="47.24127" lon="-2.30155">
        <ele>56.400001525879</ele>
        <time>2022-03-13T08:24:37.000Z</time>
      </trkpt>
      <trkpt lat="47.24126" lon="-2.30147">
        <ele>56.400001525879</ele>
        <time>2022-03-13T08:24:41.000Z</time>
      </trkpt>
      <trkpt lat="47.24127" lon="-2.30148">
        <ele>56.400001525879</ele>
        <time>2022-03-13T08:24:45.000Z</time>
      </trkpt>
      <trkpt lat="47.24128" lon="-2.30149">
        <ele>56.400001525879</ele>
        <time>2022-03-13T08:24:46.000Z</time>
      </trkpt>
      <trkpt lat="47.24131" lon="-2.3015">
        <ele>56.400001525879</ele>
        <time>2022-03-13T08:24:49.000Z</time>
      </trkpt>
      <trkpt lat="47.24132" lon="-2.30144">
        <ele>56.400001525879</ele>
        <time>2022-03-13T08:24:52.000Z</time>
      </trkpt>
      <trkpt lat="47.24132" lon="-2.30141">
        <ele>56.400001525879</ele>
        <time>2022-03-13T08:24:53.000Z</time>
      </trkpt>
      <trkpt lat="47.24135" lon="-2.30123">
        <ele>56.400001525879</ele>
        <time>2022-03-13T08:24:59.000Z</time>
      </trkpt>
      <trkpt lat="47.24142" lon="-2.30098">
        <ele>56.400001525879</ele>
        <time>2022-03-13T08:25:05.000Z</time>
      </trkpt>
      <trkpt lat="47.24145" lon="-2.30079">
        <ele>56.400001525879</ele>
        <time>2022-03-13T08:25:12.000Z</time>
      </trkpt>
      <trkpt lat="47.24148" lon="-2.30069">
        <ele>56.799999237061</ele>
        <time>2022-03-13T08:25:17.000Z</time>
      </trkpt>
      <trkpt lat="47.24149" lon="-2.30068">
        <ele>57.200000762939</ele>
        <time>2022-03-13T08:25:18.000Z</time>
      </trkpt>
      <trkpt lat="47.2415" lon="-2.30067">
        <ele>57.599998474121</ele>
        <time>2022-03-13T08:25:19.000Z</time>
      </trkpt>
      <trkpt lat="47.24168" lon="-2.30046">
        <ele>58.599998474121</ele>
        <time>2022-03-13T08:25:42.000Z</time>
      </trkpt>
      <trkpt lat="47.24175" lon="-2.30034">
        <ele>58.599998474121</ele>
        <time>2022-03-13T08:25:45.000Z</time>
      </trkpt>
      <trkpt lat="47.24174" lon="-2.3002">
        <ele>58.599998474121</ele>
        <time>2022-03-13T08:25:49.000Z</time>
      </trkpt>
      <trkpt lat="47.24173" lon="-2.30018">
        <ele>58.599998474121</ele>
        <time>2022-03-13T08:25:50.000Z</time>
      </trkpt>
      <trkpt lat="47.24172" lon="-2.30016">
        <ele>59</ele>
        <time>2022-03-13T08:25:51.000Z</time>
      </trkpt>
      <trkpt lat="47.24172" lon="-2.30013">
        <ele>59.400001525879</ele>
        <time>2022-03-13T08:25:52.000Z</time>
      </trkpt>
      <trkpt lat="47.24172" lon="-2.3001">
        <ele>59.799999237061</ele>
        <time>2022-03-13T08:25:53.000Z</time>
      </trkpt>
      <trkpt lat="47.24172" lon="-2.30008">
        <ele>60.200000762939</ele>
        <time>2022-03-13T08:25:54.000Z</time>
      </trkpt>
      <trkpt lat="47.24172" lon="-2.30005">
        <ele>60.599998474121</ele>
        <time>2022-03-13T08:25:55.000Z</time>
      </trkpt>
      <trkpt lat="47.2417" lon="-2.30001">
        <ele>60.599998474121</ele>
        <time>2022-03-13T08:25:56.000Z</time>
      </trkpt>
      <trkpt lat="47.24162" lon="-2.29989">
        <ele>60.599998474121</ele>
        <time>2022-03-13T08:26:00.000Z</time>
      </trkpt>
      <trkpt lat="47.24155" lon="-2.29985">
        <ele>60.599998474121</ele>
        <time>2022-03-13T08:27:14.000Z</time>
      </trkpt>
      <trkpt lat="47.24152" lon="-2.29985">
        <ele>60.599998474121</ele>
        <time>2022-03-13T08:27:15.000Z</time>
      </trkpt>
      <trkpt lat="47.24137" lon="-2.29985">
        <ele>60.599998474121</ele>
        <time>2022-03-13T08:27:21.000Z</time>
      </trkpt>
      <trkpt lat="47.24114" lon="-2.29983">
        <ele>60.599998474121</ele>
        <time>2022-03-13T08:27:28.000Z</time>
      </trkpt>
      <trkpt lat="47.24092" lon="-2.2998">
        <ele>60.599998474121</ele>
        <time>2022-03-13T08:27:35.000Z</time>
      </trkpt>
      <trkpt lat="47.24076" lon="-2.29971">
        <ele>60.599998474121</ele>
        <time>2022-03-13T08:27:41.000Z</time>
      </trkpt>
      <trkpt lat="47.24068" lon="-2.29957">
        <ele>60.599998474121</ele>
        <time>2022-03-13T08:27:45.000Z</time>
      </trkpt>
      <trkpt lat="47.24058" lon="-2.29942">
        <ele>60.599998474121</ele>
        <time>2022-03-13T08:27:50.000Z</time>
      </trkpt>
      <trkpt lat="47.24058" lon="-2.29932">
        <ele>60.599998474121</ele>
        <time>2022-03-13T08:27:55.000Z</time>
      </trkpt>
      <trkpt lat="47.24053" lon="-2.29911">
        <ele>60.599998474121</ele>
        <time>2022-03-13T08:28:01.000Z</time>
      </trkpt>
      <trkpt lat="47.24047" lon="-2.29889">
        <ele>60.599998474121</ele>
        <time>2022-03-13T08:28:06.000Z</time>
      </trkpt>
      <trkpt lat="47.2405" lon="-2.29858">
        <ele>60.599998474121</ele>
        <time>2022-03-13T08:28:12.000Z</time>
      </trkpt>
      <trkpt lat="47.24053" lon="-2.29851">
        <ele>60.599998474121</ele>
        <time>2022-03-13T08:28:14.000Z</time>
      </trkpt>
      <trkpt lat="47.24058" lon="-2.29848">
        <ele>60.599998474121</ele>
        <time>2022-03-13T08:28:16.000Z</time>
      </trkpt>
      <trkpt lat="47.2406" lon="-2.29848">
        <ele>61</ele>
        <time>2022-03-13T08:28:17.000Z</time>
      </trkpt>
      <trkpt lat="47.24063" lon="-2.29848">
        <ele>61.400001525879</ele>
        <time>2022-03-13T08:28:18.000Z</time>
      </trkpt>
      <trkpt lat="47.24066" lon="-2.29848">
        <ele>61.799999237061</ele>
        <time>2022-03-13T08:28:19.000Z</time>
      </trkpt>
      <trkpt lat="47.24069" lon="-2.29849">
        <ele>62.200000762939</ele>
        <time>2022-03-13T08:28:20.000Z</time>
      </trkpt>
      <trkpt lat="47.24072" lon="-2.2985">
        <ele>62.599998474121</ele>
        <time>2022-03-13T08:28:21.000Z</time>
      </trkpt>
      <trkpt lat="47.24096" lon="-2.29857">
        <ele>62.599998474121</ele>
        <time>2022-03-13T08:28:28.000Z</time>
      </trkpt>
      <trkpt lat="47.24114" lon="-2.29852">
        <ele>62.599998474121</ele>
        <time>2022-03-13T08:28:34.000Z</time>
      </trkpt>
      <trkpt lat="47.24139" lon="-2.29849">
        <ele>62.599998474121</ele>
        <time>2022-03-13T08:28:40.000Z</time>
      </trkpt>
      <trkpt lat="47.24161" lon="-2.29854">
        <ele>62.599998474121</ele>
        <time>2022-03-13T08:28:45.000Z</time>
      </trkpt>
      <trkpt lat="47.24165" lon="-2.29857">
        <ele>62.599998474121</ele>
        <time>2022-03-13T08:28:47.000Z</time>
      </trkpt>
      <trkpt lat="47.24166" lon="-2.29857">
        <ele>62.599998474121</ele>
        <time>2022-03-13T08:28:48.000Z</time>
      </trkpt>
      <trkpt lat="47.24173" lon="-2.29877">
        <ele>62.599998474121</ele>
        <time>2022-03-13T08:28:54.000Z</time>
      </trkpt>
      <trkpt lat="47.24176" lon="-2.29887">
        <ele>62.599998474121</ele>
        <time>2022-03-13T08:28:57.000Z</time>
      </trkpt>
      <trkpt lat="47.24174" lon="-2.29894">
        <ele>62.599998474121</ele>
        <time>2022-03-13T08:28:59.000Z</time>
      </trkpt>
      <trkpt lat="47.24171" lon="-2.29903">
        <ele>62.599998474121</ele>
        <time>2022-03-13T08:29:01.000Z</time>
      </trkpt>
      <trkpt lat="47.24165" lon="-2.29918">
        <ele>62.599998474121</ele>
        <time>2022-03-13T08:29:05.000Z</time>
      </trkpt>
      <trkpt lat="47.24159" lon="-2.29943">
        <ele>62.599998474121</ele>
        <time>2022-03-13T08:29:10.000Z</time>
      </trkpt>
      <trkpt lat="47.24155" lon="-2.29969">
        <ele>62.599998474121</ele>
        <time>2022-03-13T08:29:15.000Z</time>
      </trkpt>
      <trkpt lat="47.24145" lon="-2.29977">
        <ele>62.599998474121</ele>
        <time>2022-03-13T08:29:19.000Z</time>
      </trkpt>
      <trkpt lat="47.24126" lon="-2.2998">
        <ele>62.599998474121</ele>
        <time>2022-03-13T08:29:24.000Z</time>
      </trkpt>
      <trkpt lat="47.2411" lon="-2.29977">
        <ele>62.599998474121</ele>
        <time>2022-03-13T08:29:28.000Z</time>
      </trkpt>
      <trkpt lat="47.24104" lon="-2.29963">
        <ele>62.599998474121</ele>
        <time>2022-03-13T08:29:32.000Z</time>
      </trkpt>
      <trkpt lat="47.24096" lon="-2.29947">
        <ele>62.599998474121</ele>
        <time>2022-03-13T08:29:38.000Z</time>
      </trkpt>
      <trkpt lat="47.24083" lon="-2.29947">
        <ele>62.599998474121</ele>
        <time>2022-03-13T08:29:42.000Z</time>
      </trkpt>
      <trkpt lat="47.24081" lon="-2.29947">
        <ele>62.599998474121</ele>
        <time>2022-03-13T08:29:43.000Z</time>
      </trkpt>
      <trkpt lat="47.24077" lon="-2.29939">
        <ele>62.599998474121</ele>
        <time>2022-03-13T08:29:46.000Z</time>
      </trkpt>
      <trkpt lat="47.24076" lon="-2.29936">
        <ele>62.599998474121</ele>
        <time>2022-03-13T08:29:47.000Z</time>
      </trkpt>
      <trkpt lat="47.24076" lon="-2.29905">
        <ele>62.599998474121</ele>
        <time>2022-03-13T08:29:52.000Z</time>
      </trkpt>
      <trkpt lat="47.24074" lon="-2.29886">
        <ele>62.599998474121</ele>
        <time>2022-03-13T08:29:56.000Z</time>
      </trkpt>
      <trkpt lat="47.24074" lon="-2.29851">
        <ele>62.599998474121</ele>
        <time>2022-03-13T08:30:04.000Z</time>
      </trkpt>
      <trkpt lat="47.24079" lon="-2.29816">
        <ele>62.599998474121</ele>
        <time>2022-03-13T08:30:10.000Z</time>
      </trkpt>
      <trkpt lat="47.24076" lon="-2.29777">
        <ele>62.599998474121</ele>
        <time>2022-03-13T08:30:16.000Z</time>
      </trkpt>
      <trkpt lat="47.24072" lon="-2.29745">
        <ele>62.599998474121</ele>
        <time>2022-03-13T08:30:21.000Z</time>
      </trkpt>
      <trkpt lat="47.24066" lon="-2.2971">
        <ele>62.599998474121</ele>
        <time>2022-03-13T08:30:26.000Z</time>
      </trkpt>
      <trkpt lat="47.24053" lon="-2.29665">
        <ele>62.599998474121</ele>
        <time>2022-03-13T08:30:32.000Z</time>
      </trkpt>
      <trkpt lat="47.2405" lon="-2.2965">
        <ele>62.599998474121</ele>
        <time>2022-03-13T08:30:34.000Z</time>
      </trkpt>
      <trkpt lat="47.24051" lon="-2.2963">
        <ele>62.599998474121</ele>
        <time>2022-03-13T08:30:37.000Z</time>
      </trkpt>
      <trkpt lat="47.24063" lon="-2.29616">
        <ele>62.599998474121</ele>
        <time>2022-03-13T08:30:40.000Z</time>
      </trkpt>
      <trkpt lat="47.24093" lon="-2.29597">
        <ele>62.599998474121</ele>
        <time>2022-03-13T08:30:46.000Z</time>
      </trkpt>
      <trkpt lat="47.2411" lon="-2.29582">
        <ele>62.599998474121</ele>
        <time>2022-03-13T08:30:49.000Z</time>
      </trkpt>
      <trkpt lat="47.24113" lon="-2.29575">
        <ele>62.599998474121</ele>
        <time>2022-03-13T08:30:50.000Z</time>
      </trkpt>
      <trkpt lat="47.24114" lon="-2.29551">
        <ele>62.599998474121</ele>
        <time>2022-03-13T08:30:53.000Z</time>
      </trkpt>
      <trkpt lat="47.24112" lon="-2.29542">
        <ele>62.599998474121</ele>
        <time>2022-03-13T08:30:54.000Z</time>
      </trkpt>
      <trkpt lat="47.24101" lon="-2.29506">
        <ele>62.599998474121</ele>
        <time>2022-03-13T08:30:59.000Z</time>
      </trkpt>
      <trkpt lat="47.241" lon="-2.29499">
        <ele>62.599998474121</ele>
        <time>2022-03-13T08:31:00.000Z</time>
      </trkpt>
      <trkpt lat="47.24102" lon="-2.2948">
        <ele>62.599998474121</ele>
        <time>2022-03-13T08:31:03.000Z</time>
      </trkpt>
      <trkpt lat="47.24104" lon="-2.29475">
        <ele>62.200000762939</ele>
        <time>2022-03-13T08:31:04.000Z</time>
      </trkpt>
      <trkpt lat="47.24107" lon="-2.29472">
        <ele>61.799999237061</ele>
        <time>2022-03-13T08:31:05.000Z</time>
      </trkpt>
      <trkpt lat="47.24111" lon="-2.29469">
        <ele>61</ele>
        <time>2022-03-13T08:31:06.000Z</time>
      </trkpt>
      <trkpt lat="47.24114" lon="-2.29467">
        <ele>60.599998474121</ele>
        <time>2022-03-13T08:31:07.000Z</time>
      </trkpt>
      <trkpt lat="47.24117" lon="-2.29465">
        <ele>60.599998474121</ele>
        <time>2022-03-13T08:31:08.000Z</time>
      </trkpt>
      <trkpt lat="47.24119" lon="-2.29464">
        <ele>60.599998474121</ele>
        <time>2022-03-13T08:31:10.000Z</time>
      </trkpt>
      <trkpt lat="47.24121" lon="-2.29463">
        <ele>60.599998474121</ele>
        <time>2022-03-13T08:31:12.000Z</time>
      </trkpt>
      <trkpt lat="47.24127" lon="-2.2946">
        <ele>60.599998474121</ele>
        <time>2022-03-13T08:33:43.000Z</time>
      </trkpt>
      <trkpt lat="47.24132" lon="-2.29457">
        <ele>60.599998474121</ele>
        <time>2022-03-13T08:33:45.000Z</time>
      </trkpt>
      <trkpt lat="47.24153" lon="-2.29446">
        <ele>60.599998474121</ele>
        <time>2022-03-13T08:33:51.000Z</time>
      </trkpt>
      <trkpt lat="47.24177" lon="-2.29442">
        <ele>60.599998474121</ele>
        <time>2022-03-13T08:33:56.000Z</time>
      </trkpt>
      <trkpt lat="47.24183" lon="-2.29443">
        <ele>60.599998474121</ele>
        <time>2022-03-13T08:33:57.000Z</time>
      </trkpt>
      <trkpt lat="47.24214" lon="-2.29454">
        <ele>60.599998474121</ele>
        <time>2022-03-13T08:34:03.000Z</time>
      </trkpt>
      <trkpt lat="47.24238" lon="-2.29466">
        <ele>60.599998474121</ele>
        <time>2022-03-13T08:34:08.000Z</time>
      </trkpt>
      <trkpt lat="47.24244" lon="-2.29466">
        <ele>60.200000762939</ele>
        <time>2022-03-13T08:34:09.000Z</time>
      </trkpt>
      <trkpt lat="47.24249" lon="-2.29464">
        <ele>59.799999237061</ele>
        <time>2022-03-13T08:34:10.000Z</time>
      </trkpt>
      <trkpt lat="47.24254" lon="-2.29462">
        <ele>59.400001525879</ele>
        <time>2022-03-13T08:34:11.000Z</time>
      </trkpt>
      <trkpt lat="47.24259" lon="-2.29459">
        <ele>59</ele>
        <time>2022-03-13T08:34:12.000Z</time>
      </trkpt>
      <trkpt lat="47.24265" lon="-2.29456">
        <ele>58.599998474121</ele>
        <time>2022-03-13T08:34:13.000Z</time>
      </trkpt>
      <trkpt lat="47.24295" lon="-2.29436">
        <ele>58.599998474121</ele>
        <time>2022-03-13T08:34:19.000Z</time>
      </trkpt>
      <trkpt lat="47.24301" lon="-2.29434">
        <ele>58.599998474121</ele>
        <time>2022-03-13T08:34:20.000Z</time>
      </trkpt>
      <trkpt lat="47.24324" lon="-2.2944">
        <ele>58.599998474121</ele>
        <time>2022-03-13T08:34:24.000Z</time>
      </trkpt>
      <trkpt lat="47.24334" lon="-2.29447">
        <ele>58.599998474121</ele>
        <time>2022-03-13T08:34:26.000Z</time>
      </trkpt>
      <trkpt lat="47.24338" lon="-2.29452">
        <ele>58.599998474121</ele>
        <time>2022-03-13T08:34:27.000Z</time>
      </trkpt>
      <trkpt lat="47.24346" lon="-2.29461">
        <ele>58.599998474121</ele>
        <time>2022-03-13T08:34:29.000Z</time>
      </trkpt>
      <trkpt lat="47.24355" lon="-2.29468">
        <ele>58.599998474121</ele>
        <time>2022-03-13T08:34:31.000Z</time>
      </trkpt>
      <trkpt lat="47.24364" lon="-2.29468">
        <ele>58.599998474121</ele>
        <time>2022-03-13T08:34:33.000Z</time>
      </trkpt>
      <trkpt lat="47.24382" lon="-2.29451">
        <ele>58.599998474121</ele>
        <time>2022-03-13T08:34:37.000Z</time>
      </trkpt>
      <trkpt lat="47.24391" lon="-2.29442">
        <ele>58.599998474121</ele>
        <time>2022-03-13T08:34:39.000Z</time>
      </trkpt>
      <trkpt lat="47.24406" lon="-2.29434">
        <ele>58.599998474121</ele>
        <time>2022-03-13T08:34:42.000Z</time>
      </trkpt>
      <trkpt lat="47.24422" lon="-2.29431">
        <ele>58.599998474121</ele>
        <time>2022-03-13T08:34:45.000Z</time>
      </trkpt>
      <trkpt lat="47.24428" lon="-2.29429">
        <ele>59</ele>
        <time>2022-03-13T08:34:46.000Z</time>
      </trkpt>
      <trkpt lat="47.24433" lon="-2.29429">
        <ele>59.400001525879</ele>
        <time>2022-03-13T08:34:47.000Z</time>
      </trkpt>
      <trkpt lat="47.24438" lon="-2.29428">
        <ele>60.200000762939</ele>
        <time>2022-03-13T08:34:48.000Z</time>
      </trkpt>
      <trkpt lat="47.24444" lon="-2.29428">
        <ele>60.599998474121</ele>
        <time>2022-03-13T08:34:49.000Z</time>
      </trkpt>
      <trkpt lat="47.24454" lon="-2.29427">
        <ele>60.599998474121</ele>
        <time>2022-03-13T08:34:51.000Z</time>
      </trkpt>
      <trkpt lat="47.24464" lon="-2.29426">
        <ele>60.599998474121</ele>
        <time>2022-03-13T08:34:53.000Z</time>
      </trkpt>
      <trkpt lat="47.24485" lon="-2.29424">
        <ele>61</ele>
        <time>2022-03-13T08:34:57.000Z</time>
      </trkpt>
      <trkpt lat="47.2449" lon="-2.29424">
        <ele>61.400001525879</ele>
        <time>2022-03-13T08:34:58.000Z</time>
      </trkpt>
      <trkpt lat="47.24494" lon="-2.29423">
        <ele>62</ele>
        <time>2022-03-13T08:34:59.000Z</time>
      </trkpt>
      <trkpt lat="47.24499" lon="-2.29422">
        <ele>62.400001525879</ele>
        <time>2022-03-13T08:35:00.000Z</time>
      </trkpt>
      <trkpt lat="47.24503" lon="-2.29421">
        <ele>62.799999237061</ele>
        <time>2022-03-13T08:35:01.000Z</time>
      </trkpt>
      <trkpt lat="47.24512" lon="-2.29418">
        <ele>62.799999237061</ele>
        <time>2022-03-13T08:35:03.000Z</time>
      </trkpt>
      <trkpt lat="47.2452" lon="-2.29404">
        <ele>62.799999237061</ele>
        <time>2022-03-13T08:35:06.000Z</time>
      </trkpt>
      <trkpt lat="47.24521" lon="-2.2939">
        <ele>62.799999237061</ele>
        <time>2022-03-13T08:35:08.000Z</time>
      </trkpt>
      <trkpt lat="47.24521" lon="-2.29377">
        <ele>62.799999237061</ele>
        <time>2022-03-13T08:35:10.000Z</time>
      </trkpt>
      <trkpt lat="47.24517" lon="-2.29355">
        <ele>62.799999237061</ele>
        <time>2022-03-13T08:35:13.000Z</time>
      </trkpt>
      <trkpt lat="47.24516" lon="-2.2934">
        <ele>62.799999237061</ele>
        <time>2022-03-13T08:35:15.000Z</time>
      </trkpt>
      <trkpt lat="47.24516" lon="-2.29333">
        <ele>62.799999237061</ele>
        <time>2022-03-13T08:35:16.000Z</time>
      </trkpt>
      <trkpt lat="47.24513" lon="-2.2927">
        <ele>62.799999237061</ele>
        <time>2022-03-13T08:35:23.000Z</time>
      </trkpt>
      <trkpt lat="47.24515" lon="-2.29225">
        <ele>62.799999237061</ele>
        <time>2022-03-13T08:35:28.000Z</time>
      </trkpt>
      <trkpt lat="47.24517" lon="-2.29207">
        <ele>62.799999237061</ele>
        <time>2022-03-13T08:35:30.000Z</time>
      </trkpt>
      <trkpt lat="47.2453" lon="-2.29143">
        <ele>62.799999237061</ele>
        <time>2022-03-13T08:35:37.000Z</time>
      </trkpt>
      <trkpt lat="47.24546" lon="-2.29081">
        <ele>62.799999237061</ele>
        <time>2022-03-13T08:35:44.000Z</time>
      </trkpt>
      <trkpt lat="47.24554" lon="-2.29014">
        <ele>62.799999237061</ele>
        <time>2022-03-13T08:35:51.000Z</time>
      </trkpt>
      <trkpt lat="47.24553" lon="-2.28994">
        <ele>62.799999237061</ele>
        <time>2022-03-13T08:35:53.000Z</time>
      </trkpt>
      <trkpt lat="47.24549" lon="-2.28975">
        <ele>62.799999237061</ele>
        <time>2022-03-13T08:35:55.000Z</time>
      </trkpt>
      <trkpt lat="47.24537" lon="-2.28931">
        <ele>62.400001525879</ele>
        <time>2022-03-13T08:36:00.000Z</time>
      </trkpt>
      <trkpt lat="47.24534" lon="-2.28922">
        <ele>62</ele>
        <time>2022-03-13T08:36:01.000Z</time>
      </trkpt>
      <trkpt lat="47.24531" lon="-2.28914">
        <ele>61</ele>
        <time>2022-03-13T08:36:02.000Z</time>
      </trkpt>
      <trkpt lat="47.24529" lon="-2.28907">
        <ele>60.599998474121</ele>
        <time>2022-03-13T08:36:03.000Z</time>
      </trkpt>
      <trkpt lat="47.24523" lon="-2.2889">
        <ele>60.599998474121</ele>
        <time>2022-03-13T08:36:05.000Z</time>
      </trkpt>
      <trkpt lat="47.24524" lon="-2.28873">
        <ele>60.599998474121</ele>
        <time>2022-03-13T08:36:07.000Z</time>
      </trkpt>
      <trkpt lat="47.24534" lon="-2.28852">
        <ele>60.599998474121</ele>
        <time>2022-03-13T08:36:10.000Z</time>
      </trkpt>
      <trkpt lat="47.24543" lon="-2.28843">
        <ele>60.599998474121</ele>
        <time>2022-03-13T08:36:12.000Z</time>
      </trkpt>
      <trkpt lat="47.24558" lon="-2.28828">
        <ele>60.599998474121</ele>
        <time>2022-03-13T08:36:15.000Z</time>
      </trkpt>
      <trkpt lat="47.24576" lon="-2.28808">
        <ele>60.599998474121</ele>
        <time>2022-03-13T08:36:19.000Z</time>
      </trkpt>
      <trkpt lat="47.24587" lon="-2.28799">
        <ele>60.599998474121</ele>
        <time>2022-03-13T08:36:21.000Z</time>
      </trkpt>
      <trkpt lat="47.24619" lon="-2.2877">
        <ele>60.599998474121</ele>
        <time>2022-03-13T08:36:28.000Z</time>
      </trkpt>
      <trkpt lat="47.24628" lon="-2.2876">
        <ele>60.599998474121</ele>
        <time>2022-03-13T08:36:30.000Z</time>
      </trkpt>
      <trkpt lat="47.24642" lon="-2.28736">
        <ele>60.599998474121</ele>
        <time>2022-03-13T08:36:34.000Z</time>
      </trkpt>
      <trkpt lat="47.24668" lon="-2.28703">
        <ele>60.599998474121</ele>
        <time>2022-03-13T08:36:40.000Z</time>
      </trkpt>
      <trkpt lat="47.24686" lon="-2.28683">
        <ele>60.599998474121</ele>
        <time>2022-03-13T08:36:44.000Z</time>
      </trkpt>
      <trkpt lat="47.2469" lon="-2.28677">
        <ele>60.599998474121</ele>
        <time>2022-03-13T08:36:45.000Z</time>
      </trkpt>
      <trkpt lat="47.24697" lon="-2.28666">
        <ele>60.599998474121</ele>
        <time>2022-03-13T08:36:47.000Z</time>
      </trkpt>
      <trkpt lat="47.24709" lon="-2.28651">
        <ele>60.599998474121</ele>
        <time>2022-03-13T08:36:50.000Z</time>
      </trkpt>
      <trkpt lat="47.24731" lon="-2.28627">
        <ele>60.599998474121</ele>
        <time>2022-03-13T08:36:55.000Z</time>
      </trkpt>
      <trkpt lat="47.24735" lon="-2.28621">
        <ele>60.599998474121</ele>
        <time>2022-03-13T08:36:56.000Z</time>
      </trkpt>
      <trkpt lat="47.24745" lon="-2.28594">
        <ele>60.599998474121</ele>
        <time>2022-03-13T08:37:00.000Z</time>
      </trkpt>
      <trkpt lat="47.24746" lon="-2.28586">
        <ele>60.599998474121</ele>
        <time>2022-03-13T08:37:01.000Z</time>
      </trkpt>
      <trkpt lat="47.24747" lon="-2.28578">
        <ele>60.599998474121</ele>
        <time>2022-03-13T08:37:02.000Z</time>
      </trkpt>
      <trkpt lat="47.24757" lon="-2.2856">
        <ele>60.599998474121</ele>
        <time>2022-03-13T08:37:05.000Z</time>
      </trkpt>
      <trkpt lat="47.24766" lon="-2.2855">
        <ele>60.599998474121</ele>
        <time>2022-03-13T08:37:07.000Z</time>
      </trkpt>
      <trkpt lat="47.24783" lon="-2.28531">
        <ele>60.599998474121</ele>
        <time>2022-03-13T08:37:11.000Z</time>
      </trkpt>
      <trkpt lat="47.24792" lon="-2.28521">
        <ele>61</ele>
        <time>2022-03-13T08:37:13.000Z</time>
      </trkpt>
      <trkpt lat="47.24797" lon="-2.28517">
        <ele>61.400001525879</ele>
        <time>2022-03-13T08:37:14.000Z</time>
      </trkpt>
      <trkpt lat="47.24801" lon="-2.28512">
        <ele>61.799999237061</ele>
        <time>2022-03-13T08:37:15.000Z</time>
      </trkpt>
      <trkpt lat="47.24806" lon="-2.28508">
        <ele>62.599998474121</ele>
        <time>2022-03-13T08:37:16.000Z</time>
      </trkpt>
      <trkpt lat="47.24817" lon="-2.28501">
        <ele>62.599998474121</ele>
        <time>2022-03-13T08:37:18.000Z</time>
      </trkpt>
      <trkpt lat="47.24859" lon="-2.2847">
        <ele>62.599998474121</ele>
        <time>2022-03-13T08:37:26.000Z</time>
      </trkpt>
      <trkpt lat="47.24869" lon="-2.28459">
        <ele>62.200000762939</ele>
        <time>2022-03-13T08:37:28.000Z</time>
      </trkpt>
      <trkpt lat="47.24873" lon="-2.28453">
        <ele>61.799999237061</ele>
        <time>2022-03-13T08:37:29.000Z</time>
      </trkpt>
      <trkpt lat="47.24877" lon="-2.28447">
        <ele>61.400001525879</ele>
        <time>2022-03-13T08:37:30.000Z</time>
      </trkpt>
      <trkpt lat="47.24882" lon="-2.28442">
        <ele>61</ele>
        <time>2022-03-13T08:37:31.000Z</time>
      </trkpt>
      <trkpt lat="47.24888" lon="-2.28437">
        <ele>60.599998474121</ele>
        <time>2022-03-13T08:37:32.000Z</time>
      </trkpt>
      <trkpt lat="47.24899" lon="-2.28428">
        <ele>60.599998474121</ele>
        <time>2022-03-13T08:37:34.000Z</time>
      </trkpt>
      <trkpt lat="47.24912" lon="-2.28421">
        <ele>60.200000762939</ele>
        <time>2022-03-13T08:37:36.000Z</time>
      </trkpt>
      <trkpt lat="47.24919" lon="-2.28418">
        <ele>59.799999237061</ele>
        <time>2022-03-13T08:37:37.000Z</time>
      </trkpt>
      <trkpt lat="47.24925" lon="-2.28415">
        <ele>59.400001525879</ele>
        <time>2022-03-13T08:37:38.000Z</time>
      </trkpt>
      <trkpt lat="47.24932" lon="-2.28413">
        <ele>59</ele>
        <time>2022-03-13T08:37:39.000Z</time>
      </trkpt>
      <trkpt lat="47.24938" lon="-2.28411">
        <ele>58.599998474121</ele>
        <time>2022-03-13T08:37:40.000Z</time>
      </trkpt>
      <trkpt lat="47.24951" lon="-2.28407">
        <ele>58.200000762939</ele>
        <time>2022-03-13T08:37:42.000Z</time>
      </trkpt>
      <trkpt lat="47.24958" lon="-2.28404">
        <ele>57.799999237061</ele>
        <time>2022-03-13T08:37:43.000Z</time>
      </trkpt>
      <trkpt lat="47.24964" lon="-2.28402">
        <ele>57.200000762939</ele>
        <time>2022-03-13T08:37:44.000Z</time>
      </trkpt>
      <trkpt lat="47.24971" lon="-2.28398">
        <ele>56.799999237061</ele>
        <time>2022-03-13T08:37:45.000Z</time>
      </trkpt>
      <trkpt lat="47.24977" lon="-2.28394">
        <ele>56.400001525879</ele>
        <time>2022-03-13T08:37:46.000Z</time>
      </trkpt>
      <trkpt lat="47.24983" lon="-2.28388">
        <ele>56.400001525879</ele>
        <time>2022-03-13T08:37:47.000Z</time>
      </trkpt>
      <trkpt lat="47.24991" lon="-2.28372">
        <ele>56</ele>
        <time>2022-03-13T08:37:49.000Z</time>
      </trkpt>
      <trkpt lat="47.24994" lon="-2.28363">
        <ele>55.599998474121</ele>
        <time>2022-03-13T08:37:50.000Z</time>
      </trkpt>
      <trkpt lat="47.24997" lon="-2.28354">
        <ele>55.200000762939</ele>
        <time>2022-03-13T08:37:51.000Z</time>
      </trkpt>
      <trkpt lat="47.25001" lon="-2.28347">
        <ele>54.799999237061</ele>
        <time>2022-03-13T08:37:52.000Z</time>
      </trkpt>
      <trkpt lat="47.25005" lon="-2.2834">
        <ele>54.400001525879</ele>
        <time>2022-03-13T08:37:53.000Z</time>
      </trkpt>
      <trkpt lat="47.25009" lon="-2.28335">
        <ele>54.400001525879</ele>
        <time>2022-03-13T08:37:54.000Z</time>
      </trkpt>
      <trkpt lat="47.25024" lon="-2.28321">
        <ele>54.400001525879</ele>
        <time>2022-03-13T08:37:57.000Z</time>
      </trkpt>
      <trkpt lat="47.25026" lon="-2.28315">
        <ele>54.400001525879</ele>
        <time>2022-03-13T08:37:58.000Z</time>
      </trkpt>
      <trkpt lat="47.25027" lon="-2.283">
        <ele>54.799999237061</ele>
        <time>2022-03-13T08:38:00.000Z</time>
      </trkpt>
      <trkpt lat="47.25027" lon="-2.28292">
        <ele>55.400001525879</ele>
        <time>2022-03-13T08:38:01.000Z</time>
      </trkpt>
      <trkpt lat="47.25028" lon="-2.28284">
        <ele>55.799999237061</ele>
        <time>2022-03-13T08:38:02.000Z</time>
      </trkpt>
      <trkpt lat="47.2503" lon="-2.28277">
        <ele>56.400001525879</ele>
        <time>2022-03-13T08:38:03.000Z</time>
      </trkpt>
      <trkpt lat="47.25032" lon="-2.28269">
        <ele>56.799999237061</ele>
        <time>2022-03-13T08:38:04.000Z</time>
      </trkpt>
      <trkpt lat="47.25033" lon="-2.28261">
        <ele>56.799999237061</ele>
        <time>2022-03-13T08:38:05.000Z</time>
      </trkpt>
      <trkpt lat="47.25042" lon="-2.28216">
        <ele>56.799999237061</ele>
        <time>2022-03-13T08:38:11.000Z</time>
      </trkpt>
      <trkpt lat="47.25053" lon="-2.2817">
        <ele>56.799999237061</ele>
        <time>2022-03-13T08:38:17.000Z</time>
      </trkpt>
      <trkpt lat="47.25061" lon="-2.28144">
        <ele>56.799999237061</ele>
        <time>2022-03-13T08:38:21.000Z</time>
      </trkpt>
      <trkpt lat="47.25071" lon="-2.28107">
        <ele>56.799999237061</ele>
        <time>2022-03-13T08:38:26.000Z</time>
      </trkpt>
      <trkpt lat="47.25073" lon="-2.28099">
        <ele>56.799999237061</ele>
        <time>2022-03-13T08:38:27.000Z</time>
      </trkpt>
      <trkpt lat="47.25079" lon="-2.28074">
        <ele>56.799999237061</ele>
        <time>2022-03-13T08:38:30.000Z</time>
      </trkpt>
      <trkpt lat="47.25086" lon="-2.28061">
        <ele>56.799999237061</ele>
        <time>2022-03-13T08:38:32.000Z</time>
      </trkpt>
      <trkpt lat="47.25092" lon="-2.28047">
        <ele>57.200000762939</ele>
        <time>2022-03-13T08:38:34.000Z</time>
      </trkpt>
      <trkpt lat="47.25095" lon="-2.2804">
        <ele>57.599998474121</ele>
        <time>2022-03-13T08:38:35.000Z</time>
      </trkpt>
      <trkpt lat="47.25098" lon="-2.28033">
        <ele>58</ele>
        <time>2022-03-13T08:38:36.000Z</time>
      </trkpt>
      <trkpt lat="47.251" lon="-2.28026">
        <ele>58.400001525879</ele>
        <time>2022-03-13T08:38:37.000Z</time>
      </trkpt>
      <trkpt lat="47.25103" lon="-2.2802">
        <ele>58.799999237061</ele>
        <time>2022-03-13T08:38:38.000Z</time>
      </trkpt>
      <trkpt lat="47.25117" lon="-2.27991">
        <ele>58.799999237061</ele>
        <time>2022-03-13T08:38:43.000Z</time>
      </trkpt>
      <trkpt lat="47.25134" lon="-2.27963">
        <ele>59.200000762939</ele>
        <time>2022-03-13T08:38:48.000Z</time>
      </trkpt>
      <trkpt lat="47.25138" lon="-2.27959">
        <ele>59.599998474121</ele>
        <time>2022-03-13T08:38:49.000Z</time>
      </trkpt>
      <trkpt lat="47.25142" lon="-2.27955">
        <ele>60</ele>
        <time>2022-03-13T08:38:50.000Z</time>
      </trkpt>
      <trkpt lat="47.25146" lon="-2.27951">
        <ele>60.599998474121</ele>
        <time>2022-03-13T08:38:51.000Z</time>
      </trkpt>
      <trkpt lat="47.2515" lon="-2.27947">
        <ele>61</ele>
        <time>2022-03-13T08:38:52.000Z</time>
      </trkpt>
      <trkpt lat="47.25155" lon="-2.27943">
        <ele>61</ele>
        <time>2022-03-13T08:38:53.000Z</time>
      </trkpt>
      <trkpt lat="47.25164" lon="-2.27938">
        <ele>61</ele>
        <time>2022-03-13T08:38:55.000Z</time>
      </trkpt>
      <trkpt lat="47.25177" lon="-2.27928">
        <ele>61</ele>
        <time>2022-03-13T08:38:58.000Z</time>
      </trkpt>
      <trkpt lat="47.2519" lon="-2.2792">
        <ele>61</ele>
        <time>2022-03-13T08:39:01.000Z</time>
      </trkpt>
      <trkpt lat="47.25216" lon="-2.27905">
        <ele>61</ele>
        <time>2022-03-13T08:39:07.000Z</time>
      </trkpt>
      <trkpt lat="47.25238" lon="-2.27892">
        <ele>61.400001525879</ele>
        <time>2022-03-13T08:39:12.000Z</time>
      </trkpt>
      <trkpt lat="47.25243" lon="-2.2789">
        <ele>61.799999237061</ele>
        <time>2022-03-13T08:39:13.000Z</time>
      </trkpt>
      <trkpt lat="47.25248" lon="-2.27888">
        <ele>62.200000762939</ele>
        <time>2022-03-13T08:39:14.000Z</time>
      </trkpt>
      <trkpt lat="47.25252" lon="-2.27886">
        <ele>62.599998474121</ele>
        <time>2022-03-13T08:39:15.000Z</time>
      </trkpt>
      <trkpt lat="47.25257" lon="-2.27884">
        <ele>63</ele>
        <time>2022-03-13T08:39:16.000Z</time>
      </trkpt>
      <trkpt lat="47.25282" lon="-2.27874">
        <ele>63</ele>
        <time>2022-03-13T08:39:21.000Z</time>
      </trkpt>
      <trkpt lat="47.25311" lon="-2.27868">
        <ele>63</ele>
        <time>2022-03-13T08:39:27.000Z</time>
      </trkpt>
      <trkpt lat="47.25336" lon="-2.27865">
        <ele>63.400001525879</ele>
        <time>2022-03-13T08:39:32.000Z</time>
      </trkpt>
      <trkpt lat="47.25341" lon="-2.27865">
        <ele>63.799999237061</ele>
        <time>2022-03-13T08:39:33.000Z</time>
      </trkpt>
      <trkpt lat="47.25346" lon="-2.27864">
        <ele>64.199996948242</ele>
        <time>2022-03-13T08:39:34.000Z</time>
      </trkpt>
      <trkpt lat="47.25351" lon="-2.27863">
        <ele>64.599998474121</ele>
        <time>2022-03-13T08:39:35.000Z</time>
      </trkpt>
      <trkpt lat="47.25357" lon="-2.27861">
        <ele>65</ele>
        <time>2022-03-13T08:39:36.000Z</time>
      </trkpt>
      <trkpt lat="47.25376" lon="-2.27855">
        <ele>65</ele>
        <time>2022-03-13T08:39:40.000Z</time>
      </trkpt>
      <trkpt lat="47.25404" lon="-2.27844">
        <ele>65</ele>
        <time>2022-03-13T08:39:46.000Z</time>
      </trkpt>
      <trkpt lat="47.25435" lon="-2.27824">
        <ele>65</ele>
        <time>2022-03-13T08:39:53.000Z</time>
      </trkpt>
      <trkpt lat="47.25462" lon="-2.27796">
        <ele>65</ele>
        <time>2022-03-13T08:40:00.000Z</time>
      </trkpt>
      <trkpt lat="47.25468" lon="-2.27787">
        <ele>65.400001525879</ele>
        <time>2022-03-13T08:40:02.000Z</time>
      </trkpt>
      <trkpt lat="47.25472" lon="-2.27784">
        <ele>65.800003051758</ele>
        <time>2022-03-13T08:40:03.000Z</time>
      </trkpt>
      <trkpt lat="47.25475" lon="-2.2778">
        <ele>66.199996948242</ele>
        <time>2022-03-13T08:40:04.000Z</time>
      </trkpt>
      <trkpt lat="47.25478" lon="-2.27776">
        <ele>66.599998474121</ele>
        <time>2022-03-13T08:40:05.000Z</time>
      </trkpt>
      <trkpt lat="47.25481" lon="-2.27772">
        <ele>67.199996948242</ele>
        <time>2022-03-13T08:40:06.000Z</time>
      </trkpt>
      <trkpt lat="47.25484" lon="-2.27769">
        <ele>67.199996948242</ele>
        <time>2022-03-13T08:40:07.000Z</time>
      </trkpt>
      <trkpt lat="47.255" lon="-2.27746">
        <ele>67.199996948242</ele>
        <time>2022-03-13T08:40:13.000Z</time>
      </trkpt>
      <trkpt lat="47.25498" lon="-2.27719">
        <ele>67.199996948242</ele>
        <time>2022-03-13T08:40:17.000Z</time>
      </trkpt>
      <trkpt lat="47.25495" lon="-2.27705">
        <ele>67.199996948242</ele>
        <time>2022-03-13T08:40:19.000Z</time>
      </trkpt>
      <trkpt lat="47.25493" lon="-2.27692">
        <ele>67.199996948242</ele>
        <time>2022-03-13T08:40:21.000Z</time>
      </trkpt>
      <trkpt lat="47.25491" lon="-2.27685">
        <ele>67.199996948242</ele>
        <time>2022-03-13T08:40:22.000Z</time>
      </trkpt>
      <trkpt lat="47.25489" lon="-2.27674">
        <ele>67.199996948242</ele>
        <time>2022-03-13T08:40:24.000Z</time>
      </trkpt>
      <trkpt lat="47.25485" lon="-2.27656">
        <ele>67.199996948242</ele>
        <time>2022-03-13T08:40:27.000Z</time>
      </trkpt>
      <trkpt lat="47.25478" lon="-2.27625">
        <ele>67.199996948242</ele>
        <time>2022-03-13T08:40:33.000Z</time>
      </trkpt>
      <trkpt lat="47.25464" lon="-2.27602">
        <ele>67.199996948242</ele>
        <time>2022-03-13T08:40:38.000Z</time>
      </trkpt>
      <trkpt lat="47.25457" lon="-2.27578">
        <ele>67.199996948242</ele>
        <time>2022-03-13T08:40:42.000Z</time>
      </trkpt>
      <trkpt lat="47.25456" lon="-2.27572">
        <ele>67.199996948242</ele>
        <time>2022-03-13T08:40:43.000Z</time>
      </trkpt>
      <trkpt lat="47.25452" lon="-2.27551">
        <ele>67.199996948242</ele>
        <time>2022-03-13T08:40:47.000Z</time>
      </trkpt>
      <trkpt lat="47.25444" lon="-2.27525">
        <ele>67.199996948242</ele>
        <time>2022-03-13T08:40:52.000Z</time>
      </trkpt>
      <trkpt lat="47.25438" lon="-2.27503">
        <ele>67.199996948242</ele>
        <time>2022-03-13T08:40:57.000Z</time>
      </trkpt>
      <trkpt lat="47.25426" lon="-2.27487">
        <ele>67.199996948242</ele>
        <time>2022-03-13T08:41:00.000Z</time>
      </trkpt>
      <trkpt lat="47.25423" lon="-2.27481">
        <ele>67.199996948242</ele>
        <time>2022-03-13T08:41:01.000Z</time>
      </trkpt>
      <trkpt lat="47.25407" lon="-2.27442">
        <ele>67.199996948242</ele>
        <time>2022-03-13T08:41:07.000Z</time>
      </trkpt>
      <trkpt lat="47.25399" lon="-2.27418">
        <ele>67.199996948242</ele>
        <time>2022-03-13T08:41:11.000Z</time>
      </trkpt>
      <trkpt lat="47.25396" lon="-2.27406">
        <ele>67.199996948242</ele>
        <time>2022-03-13T08:41:13.000Z</time>
      </trkpt>
      <trkpt lat="47.25391" lon="-2.27382">
        <ele>67.199996948242</ele>
        <time>2022-03-13T08:41:18.000Z</time>
      </trkpt>
      <trkpt lat="47.25382" lon="-2.27373">
        <ele>67.199996948242</ele>
        <time>2022-03-13T08:41:22.000Z</time>
      </trkpt>
      <trkpt lat="47.2537" lon="-2.2737">
        <ele>67.199996948242</ele>
        <time>2022-03-13T08:41:26.000Z</time>
      </trkpt>
      <trkpt lat="47.25365" lon="-2.27359">
        <ele>67.199996948242</ele>
        <time>2022-03-13T08:41:30.000Z</time>
      </trkpt>
      <trkpt lat="47.25365" lon="-2.27356">
        <ele>67.199996948242</ele>
        <time>2022-03-13T08:41:31.000Z</time>
      </trkpt>
      <trkpt lat="47.25364" lon="-2.27347">
        <ele>67.199996948242</ele>
        <time>2022-03-13T08:41:34.000Z</time>
      </trkpt>
      <trkpt lat="47.25358" lon="-2.27337">
        <ele>67.199996948242</ele>
        <time>2022-03-13T08:41:37.000Z</time>
      </trkpt>
      <trkpt lat="47.25352" lon="-2.27329">
        <ele>67.199996948242</ele>
        <time>2022-03-13T08:41:39.000Z</time>
      </trkpt>
      <trkpt lat="47.25345" lon="-2.27316">
        <ele>67.199996948242</ele>
        <time>2022-03-13T08:41:42.000Z</time>
      </trkpt>
      <trkpt lat="47.25341" lon="-2.27304">
        <ele>67.199996948242</ele>
        <time>2022-03-13T08:41:44.000Z</time>
      </trkpt>
      <trkpt lat="47.25334" lon="-2.27282">
        <ele>67.599998474121</ele>
        <time>2022-03-13T08:41:48.000Z</time>
      </trkpt>
      <trkpt lat="47.25331" lon="-2.27277">
        <ele>68</ele>
        <time>2022-03-13T08:41:49.000Z</time>
      </trkpt>
      <trkpt lat="47.25328" lon="-2.27272">
        <ele>68.400001525879</ele>
        <time>2022-03-13T08:41:50.000Z</time>
      </trkpt>
      <trkpt lat="47.25325" lon="-2.27268">
        <ele>68.800003051758</ele>
        <time>2022-03-13T08:41:51.000Z</time>
      </trkpt>
      <trkpt lat="47.25321" lon="-2.27263">
        <ele>69.199996948242</ele>
        <time>2022-03-13T08:41:52.000Z</time>
      </trkpt>
      <trkpt lat="47.25306" lon="-2.27241">
        <ele>69.199996948242</ele>
        <time>2022-03-13T08:41:56.000Z</time>
      </trkpt>
      <trkpt lat="47.253" lon="-2.27229">
        <ele>69.199996948242</ele>
        <time>2022-03-13T08:41:58.000Z</time>
      </trkpt>
      <trkpt lat="47.25294" lon="-2.27207">
        <ele>69.199996948242</ele>
        <time>2022-03-13T08:42:01.000Z</time>
      </trkpt>
      <trkpt lat="47.25286" lon="-2.27189">
        <ele>69.199996948242</ele>
        <time>2022-03-13T08:42:04.000Z</time>
      </trkpt>
      <trkpt lat="47.25275" lon="-2.27173">
        <ele>69.199996948242</ele>
        <time>2022-03-13T08:42:07.000Z</time>
      </trkpt>
      <trkpt lat="47.25256" lon="-2.27143">
        <ele>69.199996948242</ele>
        <time>2022-03-13T08:42:13.000Z</time>
      </trkpt>
      <trkpt lat="47.25251" lon="-2.27138">
        <ele>69.199996948242</ele>
        <time>2022-03-13T08:42:14.000Z</time>
      </trkpt>
      <trkpt lat="47.25247" lon="-2.27132">
        <ele>69.199996948242</ele>
        <time>2022-03-13T08:42:15.000Z</time>
      </trkpt>
      <trkpt lat="47.25236" lon="-2.27113">
        <ele>69.199996948242</ele>
        <time>2022-03-13T08:42:18.000Z</time>
      </trkpt>
      <trkpt lat="47.25226" lon="-2.27094">
        <ele>69.199996948242</ele>
        <time>2022-03-13T08:42:21.000Z</time>
      </trkpt>
      <trkpt lat="47.25217" lon="-2.27075">
        <ele>69.199996948242</ele>
        <time>2022-03-13T08:42:24.000Z</time>
      </trkpt>
      <trkpt lat="47.25206" lon="-2.27057">
        <ele>69.199996948242</ele>
        <time>2022-03-13T08:42:27.000Z</time>
      </trkpt>
      <trkpt lat="47.25197" lon="-2.27037">
        <ele>69.199996948242</ele>
        <time>2022-03-13T08:42:30.000Z</time>
      </trkpt>
      <trkpt lat="47.25184" lon="-2.27011">
        <ele>69.199996948242</ele>
        <time>2022-03-13T08:42:35.000Z</time>
      </trkpt>
      <trkpt lat="47.25181" lon="-2.26998">
        <ele>69.199996948242</ele>
        <time>2022-03-13T08:42:37.000Z</time>
      </trkpt>
      <trkpt lat="47.2518" lon="-2.26985">
        <ele>69.199996948242</ele>
        <time>2022-03-13T08:42:39.000Z</time>
      </trkpt>
      <trkpt lat="47.25175" lon="-2.26972">
        <ele>69.199996948242</ele>
        <time>2022-03-13T08:42:42.000Z</time>
      </trkpt>
      <trkpt lat="47.25173" lon="-2.26971">
        <ele>69.199996948242</ele>
        <time>2022-03-13T08:42:43.000Z</time>
      </trkpt>
      <trkpt lat="47.25166" lon="-2.2697">
        <ele>69.199996948242</ele>
        <time>2022-03-13T08:42:46.000Z</time>
      </trkpt>
      <trkpt lat="47.25157" lon="-2.26952">
        <ele>69.199996948242</ele>
        <time>2022-03-13T08:42:50.000Z</time>
      </trkpt>
      <trkpt lat="47.25146" lon="-2.26944">
        <ele>69.199996948242</ele>
        <time>2022-03-13T08:42:53.000Z</time>
      </trkpt>
      <trkpt lat="47.25142" lon="-2.26939">
        <ele>69.199996948242</ele>
        <time>2022-03-13T08:42:54.000Z</time>
      </trkpt>
      <trkpt lat="47.25131" lon="-2.26912">
        <ele>69.199996948242</ele>
        <time>2022-03-13T08:42:58.000Z</time>
      </trkpt>
      <trkpt lat="47.25128" lon="-2.26905">
        <ele>69.199996948242</ele>
        <time>2022-03-13T08:42:59.000Z</time>
      </trkpt>
      <trkpt lat="47.25118" lon="-2.26898">
        <ele>69.199996948242</ele>
        <time>2022-03-13T08:43:01.000Z</time>
      </trkpt>
      <trkpt lat="47.25108" lon="-2.26896">
        <ele>69.199996948242</ele>
        <time>2022-03-13T08:43:03.000Z</time>
      </trkpt>
      <trkpt lat="47.25103" lon="-2.26893">
        <ele>69.199996948242</ele>
        <time>2022-03-13T08:43:04.000Z</time>
      </trkpt>
      <trkpt lat="47.25099" lon="-2.26889">
        <ele>69.199996948242</ele>
        <time>2022-03-13T08:43:05.000Z</time>
      </trkpt>
      <trkpt lat="47.25086" lon="-2.26869">
        <ele>69.199996948242</ele>
        <time>2022-03-13T08:43:09.000Z</time>
      </trkpt>
      <trkpt lat="47.25077" lon="-2.26864">
        <ele>69.199996948242</ele>
        <time>2022-03-13T08:43:11.000Z</time>
      </trkpt>
      <trkpt lat="47.25068" lon="-2.26863">
        <ele>69.199996948242</ele>
        <time>2022-03-13T08:43:13.000Z</time>
      </trkpt>
      <trkpt lat="47.25055" lon="-2.26859">
        <ele>69.199996948242</ele>
        <time>2022-03-13T08:43:16.000Z</time>
      </trkpt>
      <trkpt lat="47.25035" lon="-2.26864">
        <ele>69.199996948242</ele>
        <time>2022-03-13T08:43:21.000Z</time>
      </trkpt>
      <trkpt lat="47.25008" lon="-2.2687">
        <ele>69.199996948242</ele>
        <time>2022-03-13T08:43:27.000Z</time>
      </trkpt>
      <trkpt lat="47.2498" lon="-2.26873">
        <ele>69.199996948242</ele>
        <time>2022-03-13T08:43:33.000Z</time>
      </trkpt>
      <trkpt lat="47.24975" lon="-2.26871">
        <ele>69.199996948242</ele>
        <time>2022-03-13T08:43:34.000Z</time>
      </trkpt>
      <trkpt lat="47.24962" lon="-2.26858">
        <ele>69.199996948242</ele>
        <time>2022-03-13T08:43:37.000Z</time>
      </trkpt>
      <trkpt lat="47.24942" lon="-2.26849">
        <ele>69.199996948242</ele>
        <time>2022-03-13T08:43:41.000Z</time>
      </trkpt>
      <trkpt lat="47.24924" lon="-2.26837">
        <ele>69.199996948242</ele>
        <time>2022-03-13T08:43:45.000Z</time>
      </trkpt>
      <trkpt lat="47.24911" lon="-2.26831">
        <ele>69.199996948242</ele>
        <time>2022-03-13T08:43:48.000Z</time>
      </trkpt>
      <trkpt lat="47.24907" lon="-2.26829">
        <ele>69.199996948242</ele>
        <time>2022-03-13T08:43:49.000Z</time>
      </trkpt>
      <trkpt lat="47.24898" lon="-2.26825">
        <ele>69.199996948242</ele>
        <time>2022-03-13T08:43:51.000Z</time>
      </trkpt>
      <trkpt lat="47.24888" lon="-2.26822">
        <ele>68.800003051758</ele>
        <time>2022-03-13T08:43:53.000Z</time>
      </trkpt>
      <trkpt lat="47.24883" lon="-2.26819">
        <ele>68.199996948242</ele>
        <time>2022-03-13T08:43:54.000Z</time>
      </trkpt>
      <trkpt lat="47.24878" lon="-2.26817">
        <ele>67.800003051758</ele>
        <time>2022-03-13T08:43:55.000Z</time>
      </trkpt>
      <trkpt lat="47.24873" lon="-2.26815">
        <ele>67.400001525879</ele>
        <time>2022-03-13T08:43:56.000Z</time>
      </trkpt>
      <trkpt lat="47.24868" lon="-2.26813">
        <ele>67</ele>
        <time>2022-03-13T08:43:57.000Z</time>
      </trkpt>
      <trkpt lat="47.24859" lon="-2.26808">
        <ele>67</ele>
        <time>2022-03-13T08:43:59.000Z</time>
      </trkpt>
      <trkpt lat="47.24846" lon="-2.26802">
        <ele>67</ele>
        <time>2022-03-13T08:44:02.000Z</time>
      </trkpt>
      <trkpt lat="47.24837" lon="-2.26804">
        <ele>67</ele>
        <time>2022-03-13T08:44:04.000Z</time>
      </trkpt>
      <trkpt lat="47.24815" lon="-2.26799">
        <ele>67</ele>
        <time>2022-03-13T08:44:08.000Z</time>
      </trkpt>
      <trkpt lat="47.24788" lon="-2.2679">
        <ele>66.599998474121</ele>
        <time>2022-03-13T08:44:13.000Z</time>
      </trkpt>
      <trkpt lat="47.24784" lon="-2.26788">
        <ele>66.199996948242</ele>
        <time>2022-03-13T08:44:14.000Z</time>
      </trkpt>
      <trkpt lat="47.2478" lon="-2.26787">
        <ele>65.800003051758</ele>
        <time>2022-03-13T08:44:15.000Z</time>
      </trkpt>
      <trkpt lat="47.24777" lon="-2.26785">
        <ele>65</ele>
        <time>2022-03-13T08:44:16.000Z</time>
      </trkpt>
      <trkpt lat="47.24769" lon="-2.26782">
        <ele>65</ele>
        <time>2022-03-13T08:44:18.000Z</time>
      </trkpt>
      <trkpt lat="47.24759" lon="-2.26781">
        <ele>65</ele>
        <time>2022-03-13T08:44:20.000Z</time>
      </trkpt>
      <trkpt lat="47.24737" lon="-2.26781">
        <ele>64.599998474121</ele>
        <time>2022-03-13T08:44:24.000Z</time>
      </trkpt>
      <trkpt lat="47.24732" lon="-2.2678">
        <ele>64.199996948242</ele>
        <time>2022-03-13T08:44:25.000Z</time>
      </trkpt>
      <trkpt lat="47.24726" lon="-2.26779">
        <ele>63.599998474121</ele>
        <time>2022-03-13T08:44:26.000Z</time>
      </trkpt>
      <trkpt lat="47.2472" lon="-2.26779">
        <ele>63.200000762939</ele>
        <time>2022-03-13T08:44:27.000Z</time>
      </trkpt>
      <trkpt lat="47.24715" lon="-2.26781">
        <ele>62.799999237061</ele>
        <time>2022-03-13T08:44:28.000Z</time>
      </trkpt>
      <trkpt lat="47.24698" lon="-2.26781">
        <ele>62.799999237061</ele>
        <time>2022-03-13T08:44:31.000Z</time>
      </trkpt>
      <trkpt lat="47.24688" lon="-2.2678">
        <ele>62.799999237061</ele>
        <time>2022-03-13T08:44:33.000Z</time>
      </trkpt>
      <trkpt lat="47.24683" lon="-2.26781">
        <ele>62.799999237061</ele>
        <time>2022-03-13T08:44:34.000Z</time>
      </trkpt>
      <trkpt lat="47.2468" lon="-2.26785">
        <ele>62.799999237061</ele>
        <time>2022-03-13T08:44:35.000Z</time>
      </trkpt>
      <trkpt lat="47.2467" lon="-2.26797">
        <ele>62.799999237061</ele>
        <time>2022-03-13T08:44:38.000Z</time>
      </trkpt>
      <trkpt lat="47.24666" lon="-2.268">
        <ele>62.799999237061</ele>
        <time>2022-03-13T08:44:39.000Z</time>
      </trkpt>
      <trkpt lat="47.24651" lon="-2.2681">
        <ele>62.799999237061</ele>
        <time>2022-03-13T08:44:42.000Z</time>
      </trkpt>
      <trkpt lat="47.24645" lon="-2.26812">
        <ele>62.400001525879</ele>
        <time>2022-03-13T08:44:43.000Z</time>
      </trkpt>
      <trkpt lat="47.24639" lon="-2.26813">
        <ele>62</ele>
        <time>2022-03-13T08:44:44.000Z</time>
      </trkpt>
      <trkpt lat="47.24633" lon="-2.26817">
        <ele>61.400001525879</ele>
        <time>2022-03-13T08:44:45.000Z</time>
      </trkpt>
      <trkpt lat="47.24627" lon="-2.26822">
        <ele>61</ele>
        <time>2022-03-13T08:44:46.000Z</time>
      </trkpt>
      <trkpt lat="47.24622" lon="-2.26825">
        <ele>60.599998474121</ele>
        <time>2022-03-13T08:44:47.000Z</time>
      </trkpt>
      <trkpt lat="47.24617" lon="-2.2683">
        <ele>60.599998474121</ele>
        <time>2022-03-13T08:44:48.000Z</time>
      </trkpt>
      <trkpt lat="47.24607" lon="-2.26839">
        <ele>60.599998474121</ele>
        <time>2022-03-13T08:44:50.000Z</time>
      </trkpt>
      <trkpt lat="47.24601" lon="-2.2684">
        <ele>60.200000762939</ele>
        <time>2022-03-13T08:44:51.000Z</time>
      </trkpt>
      <trkpt lat="47.24597" lon="-2.2684">
        <ele>59.599998474121</ele>
        <time>2022-03-13T08:44:52.000Z</time>
      </trkpt>
      <trkpt lat="47.24591" lon="-2.26839">
        <ele>59.200000762939</ele>
        <time>2022-03-13T08:44:53.000Z</time>
      </trkpt>
      <trkpt lat="47.24587" lon="-2.26839">
        <ele>58.799999237061</ele>
        <time>2022-03-13T08:44:54.000Z</time>
      </trkpt>
      <trkpt lat="47.24582" lon="-2.26843">
        <ele>58.200000762939</ele>
        <time>2022-03-13T08:44:55.000Z</time>
      </trkpt>
      <trkpt lat="47.24577" lon="-2.26846">
        <ele>58.200000762939</ele>
        <time>2022-03-13T08:44:56.000Z</time>
      </trkpt>
      <trkpt lat="47.24553" lon="-2.26868">
        <ele>58.200000762939</ele>
        <time>2022-03-13T08:45:01.000Z</time>
      </trkpt>
      <trkpt lat="47.24549" lon="-2.26872">
        <ele>57.799999237061</ele>
        <time>2022-03-13T08:45:02.000Z</time>
      </trkpt>
      <trkpt lat="47.24544" lon="-2.26877">
        <ele>57.400001525879</ele>
        <time>2022-03-13T08:45:03.000Z</time>
      </trkpt>
      <trkpt lat="47.2454" lon="-2.26882">
        <ele>57</ele>
        <time>2022-03-13T08:45:04.000Z</time>
      </trkpt>
      <trkpt lat="47.24537" lon="-2.26886">
        <ele>56.200000762939</ele>
        <time>2022-03-13T08:45:05.000Z</time>
      </trkpt>
      <trkpt lat="47.24534" lon="-2.2689">
        <ele>56.200000762939</ele>
        <time>2022-03-13T08:45:06.000Z</time>
      </trkpt>
      <trkpt lat="47.2452" lon="-2.26919">
        <ele>56.200000762939</ele>
        <time>2022-03-13T08:45:11.000Z</time>
      </trkpt>
      <trkpt lat="47.24516" lon="-2.26923">
        <ele>56.200000762939</ele>
        <time>2022-03-13T08:45:12.000Z</time>
      </trkpt>
      <trkpt lat="47.24502" lon="-2.26935">
        <ele>56.200000762939</ele>
        <time>2022-03-13T08:45:15.000Z</time>
      </trkpt>
      <trkpt lat="47.24488" lon="-2.26956">
        <ele>55.799999237061</ele>
        <time>2022-03-13T08:45:19.000Z</time>
      </trkpt>
      <trkpt lat="47.24484" lon="-2.26962">
        <ele>55.400001525879</ele>
        <time>2022-03-13T08:45:20.000Z</time>
      </trkpt>
      <trkpt lat="47.24479" lon="-2.26966">
        <ele>54.799999237061</ele>
        <time>2022-03-13T08:45:21.000Z</time>
      </trkpt>
      <trkpt lat="47.24475" lon="-2.26969">
        <ele>54.400001525879</ele>
        <time>2022-03-13T08:45:22.000Z</time>
      </trkpt>
      <trkpt lat="47.2447" lon="-2.26972">
        <ele>54</ele>
        <time>2022-03-13T08:45:23.000Z</time>
      </trkpt>
      <trkpt lat="47.24462" lon="-2.26977">
        <ele>54</ele>
        <time>2022-03-13T08:45:25.000Z</time>
      </trkpt>
      <trkpt lat="47.24447" lon="-2.26985">
        <ele>54</ele>
        <time>2022-03-13T08:45:28.000Z</time>
      </trkpt>
      <trkpt lat="47.24432" lon="-2.26995">
        <ele>54</ele>
        <time>2022-03-13T08:45:31.000Z</time>
      </trkpt>
      <trkpt lat="47.24427" lon="-2.27008">
        <ele>54</ele>
        <time>2022-03-13T08:45:33.000Z</time>
      </trkpt>
      <trkpt lat="47.24425" lon="-2.27015">
        <ele>53.599998474121</ele>
        <time>2022-03-13T08:45:34.000Z</time>
      </trkpt>
      <trkpt lat="47.24423" lon="-2.27024">
        <ele>53.200000762939</ele>
        <time>2022-03-13T08:45:35.000Z</time>
      </trkpt>
      <trkpt lat="47.24421" lon="-2.27032">
        <ele>52.799999237061</ele>
        <time>2022-03-13T08:45:36.000Z</time>
      </trkpt>
      <trkpt lat="47.24421" lon="-2.27041">
        <ele>52.400001525879</ele>
        <time>2022-03-13T08:45:37.000Z</time>
      </trkpt>
      <trkpt lat="47.24421" lon="-2.2705">
        <ele>52</ele>
        <time>2022-03-13T08:45:38.000Z</time>
      </trkpt>
      <trkpt lat="47.24421" lon="-2.27065">
        <ele>52</ele>
        <time>2022-03-13T08:45:40.000Z</time>
      </trkpt>
      <trkpt lat="47.24419" lon="-2.27072">
        <ele>52</ele>
        <time>2022-03-13T08:45:41.000Z</time>
      </trkpt>
      <trkpt lat="47.24403" lon="-2.27109">
        <ele>52</ele>
        <time>2022-03-13T08:45:46.000Z</time>
      </trkpt>
      <trkpt lat="47.24397" lon="-2.27115">
        <ele>51.599998474121</ele>
        <time>2022-03-13T08:45:47.000Z</time>
      </trkpt>
      <trkpt lat="47.24391" lon="-2.27119">
        <ele>51.200000762939</ele>
        <time>2022-03-13T08:45:48.000Z</time>
      </trkpt>
      <trkpt lat="47.24386" lon="-2.27122">
        <ele>50.799999237061</ele>
        <time>2022-03-13T08:45:49.000Z</time>
      </trkpt>
      <trkpt lat="47.24381" lon="-2.27125">
        <ele>50.200000762939</ele>
        <time>2022-03-13T08:45:50.000Z</time>
      </trkpt>
      <trkpt lat="47.24376" lon="-2.27127">
        <ele>49.799999237061</ele>
        <time>2022-03-13T08:45:51.000Z</time>
      </trkpt>
      <trkpt lat="47.2436" lon="-2.27136">
        <ele>49.799999237061</ele>
        <time>2022-03-13T08:45:54.000Z</time>
      </trkpt>
      <trkpt lat="47.24351" lon="-2.27144">
        <ele>49.799999237061</ele>
        <time>2022-03-13T08:45:56.000Z</time>
      </trkpt>
      <trkpt lat="47.24341" lon="-2.27153">
        <ele>49.799999237061</ele>
        <time>2022-03-13T08:45:58.000Z</time>
      </trkpt>
      <trkpt lat="47.24323" lon="-2.27155">
        <ele>49.799999237061</ele>
        <time>2022-03-13T08:46:01.000Z</time>
      </trkpt>
      <trkpt lat="47.24313" lon="-2.27166">
        <ele>49.799999237061</ele>
        <time>2022-03-13T08:46:04.000Z</time>
      </trkpt>
      <trkpt lat="47.24304" lon="-2.27175">
        <ele>49.799999237061</ele>
        <time>2022-03-13T08:46:06.000Z</time>
      </trkpt>
      <trkpt lat="47.24291" lon="-2.27189">
        <ele>49.799999237061</ele>
        <time>2022-03-13T08:46:09.000Z</time>
      </trkpt>
      <trkpt lat="47.24284" lon="-2.27218">
        <ele>49.799999237061</ele>
        <time>2022-03-13T08:46:12.000Z</time>
      </trkpt>
      <trkpt lat="47.24281" lon="-2.27226">
        <ele>49.799999237061</ele>
        <time>2022-03-13T08:46:13.000Z</time>
      </trkpt>
      <trkpt lat="47.24267" lon="-2.2725">
        <ele>49.400001525879</ele>
        <time>2022-03-13T08:46:16.000Z</time>
      </trkpt>
      <trkpt lat="47.24261" lon="-2.27259">
        <ele>49</ele>
        <time>2022-03-13T08:46:17.000Z</time>
      </trkpt>
      <trkpt lat="47.24256" lon="-2.27268">
        <ele>48.400001525879</ele>
        <time>2022-03-13T08:46:18.000Z</time>
      </trkpt>
      <trkpt lat="47.24249" lon="-2.27276">
        <ele>47.599998474121</ele>
        <time>2022-03-13T08:46:19.000Z</time>
      </trkpt>
      <trkpt lat="47.24237" lon="-2.27288">
        <ele>47</ele>
        <time>2022-03-13T08:46:21.000Z</time>
      </trkpt>
      <trkpt lat="47.2423" lon="-2.27293">
        <ele>46.599998474121</ele>
        <time>2022-03-13T08:46:22.000Z</time>
      </trkpt>
      <trkpt lat="47.24223" lon="-2.27298">
        <ele>46.200000762939</ele>
        <time>2022-03-13T08:46:23.000Z</time>
      </trkpt>
      <trkpt lat="47.24217" lon="-2.27303">
        <ele>45.799999237061</ele>
        <time>2022-03-13T08:46:24.000Z</time>
      </trkpt>
      <trkpt lat="47.2421" lon="-2.27307">
        <ele>45.400001525879</ele>
        <time>2022-03-13T08:46:25.000Z</time>
      </trkpt>
      <trkpt lat="47.24197" lon="-2.27315">
        <ele>45.400001525879</ele>
        <time>2022-03-13T08:46:27.000Z</time>
      </trkpt>
      <trkpt lat="47.24171" lon="-2.27327">
        <ele>45.400001525879</ele>
        <time>2022-03-13T08:46:31.000Z</time>
      </trkpt>
      <trkpt lat="47.24165" lon="-2.27329">
        <ele>45</ele>
        <time>2022-03-13T08:46:32.000Z</time>
      </trkpt>
      <trkpt lat="47.24158" lon="-2.27329">
        <ele>44.400001525879</ele>
        <time>2022-03-13T08:46:33.000Z</time>
      </trkpt>
      <trkpt lat="47.24151" lon="-2.2733">
        <ele>44</ele>
        <time>2022-03-13T08:46:34.000Z</time>
      </trkpt>
      <trkpt lat="47.24145" lon="-2.27329">
        <ele>43.599998474121</ele>
        <time>2022-03-13T08:46:35.000Z</time>
      </trkpt>
      <trkpt lat="47.24139" lon="-2.27329">
        <ele>43.200000762939</ele>
        <time>2022-03-13T08:46:36.000Z</time>
      </trkpt>
      <trkpt lat="47.24133" lon="-2.27328">
        <ele>43.200000762939</ele>
        <time>2022-03-13T08:46:37.000Z</time>
      </trkpt>
      <trkpt lat="47.24115" lon="-2.27325">
        <ele>43.200000762939</ele>
        <time>2022-03-13T08:46:40.000Z</time>
      </trkpt>
      <trkpt lat="47.24101" lon="-2.27322">
        <ele>43.200000762939</ele>
        <time>2022-03-13T08:46:43.000Z</time>
      </trkpt>
      <trkpt lat="47.24096" lon="-2.27316">
        <ele>43.200000762939</ele>
        <time>2022-03-13T08:46:46.000Z</time>
      </trkpt>
      <trkpt lat="47.24097" lon="-2.27303">
        <ele>43.200000762939</ele>
        <time>2022-03-13T08:46:50.000Z</time>
      </trkpt>
      <trkpt lat="47.24093" lon="-2.27286">
        <ele>43.200000762939</ele>
        <time>2022-03-13T08:46:54.000Z</time>
      </trkpt>
      <trkpt lat="47.24094" lon="-2.27267">
        <ele>43.200000762939</ele>
        <time>2022-03-13T08:46:57.000Z</time>
      </trkpt>
      <trkpt lat="47.24094" lon="-2.2726">
        <ele>43.599998474121</ele>
        <time>2022-03-13T08:46:58.000Z</time>
      </trkpt>
      <trkpt lat="47.24095" lon="-2.27254">
        <ele>44</ele>
        <time>2022-03-13T08:46:59.000Z</time>
      </trkpt>
      <trkpt lat="47.24095" lon="-2.27247">
        <ele>44.400001525879</ele>
        <time>2022-03-13T08:47:00.000Z</time>
      </trkpt>
      <trkpt lat="47.24095" lon="-2.2724">
        <ele>44.799999237061</ele>
        <time>2022-03-13T08:47:01.000Z</time>
      </trkpt>
      <trkpt lat="47.24095" lon="-2.27234">
        <ele>45.200000762939</ele>
        <time>2022-03-13T08:47:02.000Z</time>
      </trkpt>
      <trkpt lat="47.24095" lon="-2.27221">
        <ele>45.599998474121</ele>
        <time>2022-03-13T08:47:04.000Z</time>
      </trkpt>
      <trkpt lat="47.24095" lon="-2.27215">
        <ele>46.200000762939</ele>
        <time>2022-03-13T08:47:05.000Z</time>
      </trkpt>
      <trkpt lat="47.24096" lon="-2.27209">
        <ele>46.599998474121</ele>
        <time>2022-03-13T08:47:06.000Z</time>
      </trkpt>
      <trkpt lat="47.24096" lon="-2.27203">
        <ele>47</ele>
        <time>2022-03-13T08:47:07.000Z</time>
      </trkpt>
      <trkpt lat="47.24096" lon="-2.27197">
        <ele>47.599998474121</ele>
        <time>2022-03-13T08:47:08.000Z</time>
      </trkpt>
      <trkpt lat="47.24098" lon="-2.27166">
        <ele>47.599998474121</ele>
        <time>2022-03-13T08:47:13.000Z</time>
      </trkpt>
      <trkpt lat="47.24097" lon="-2.27155">
        <ele>48</ele>
        <time>2022-03-13T08:47:15.000Z</time>
      </trkpt>
      <trkpt lat="47.24097" lon="-2.27149">
        <ele>48.400001525879</ele>
        <time>2022-03-13T08:47:16.000Z</time>
      </trkpt>
      <trkpt lat="47.24098" lon="-2.27143">
        <ele>48.799999237061</ele>
        <time>2022-03-13T08:47:17.000Z</time>
      </trkpt>
      <trkpt lat="47.24098" lon="-2.27137">
        <ele>49.200000762939</ele>
        <time>2022-03-13T08:47:18.000Z</time>
      </trkpt>
      <trkpt lat="47.24098" lon="-2.27131">
        <ele>49.599998474121</ele>
        <time>2022-03-13T08:47:19.000Z</time>
      </trkpt>
      <trkpt lat="47.24098" lon="-2.27118">
        <ele>49.599998474121</ele>
        <time>2022-03-13T08:47:21.000Z</time>
      </trkpt>
      <trkpt lat="47.24099" lon="-2.27103">
        <ele>49.599998474121</ele>
        <time>2022-03-13T08:47:23.000Z</time>
      </trkpt>
      <trkpt lat="47.24099" lon="-2.27095">
        <ele>49.599998474121</ele>
        <time>2022-03-13T08:47:24.000Z</time>
      </trkpt>
      <trkpt lat="47.241" lon="-2.27086">
        <ele>49.599998474121</ele>
        <time>2022-03-13T08:47:25.000Z</time>
      </trkpt>
      <trkpt lat="47.24101" lon="-2.27058">
        <ele>49.599998474121</ele>
        <time>2022-03-13T08:47:28.000Z</time>
      </trkpt>
      <trkpt lat="47.241" lon="-2.27004">
        <ele>49.200000762939</ele>
        <time>2022-03-13T08:47:34.000Z</time>
      </trkpt>
      <trkpt lat="47.241" lon="-2.26997">
        <ele>48.400001525879</ele>
        <time>2022-03-13T08:47:35.000Z</time>
      </trkpt>
      <trkpt lat="47.241" lon="-2.2699">
        <ele>48</ele>
        <time>2022-03-13T08:47:36.000Z</time>
      </trkpt>
      <trkpt lat="47.24099" lon="-2.26982">
        <ele>47.599998474121</ele>
        <time>2022-03-13T08:47:37.000Z</time>
      </trkpt>
      <trkpt lat="47.24099" lon="-2.26941">
        <ele>47.599998474121</ele>
        <time>2022-03-13T08:47:43.000Z</time>
      </trkpt>
      <trkpt lat="47.24099" lon="-2.26928">
        <ele>48</ele>
        <time>2022-03-13T08:47:45.000Z</time>
      </trkpt>
      <trkpt lat="47.24099" lon="-2.26922">
        <ele>48.400001525879</ele>
        <time>2022-03-13T08:47:46.000Z</time>
      </trkpt>
      <trkpt lat="47.24099" lon="-2.26916">
        <ele>49</ele>
        <time>2022-03-13T08:47:47.000Z</time>
      </trkpt>
      <trkpt lat="47.24099" lon="-2.2691">
        <ele>49.400001525879</ele>
        <time>2022-03-13T08:47:48.000Z</time>
      </trkpt>
      <trkpt lat="47.24099" lon="-2.26904">
        <ele>49.799999237061</ele>
        <time>2022-03-13T08:47:49.000Z</time>
      </trkpt>
      <trkpt lat="47.241" lon="-2.26888">
        <ele>50.200000762939</ele>
        <time>2022-03-13T08:47:52.000Z</time>
      </trkpt>
      <trkpt lat="47.241" lon="-2.26883">
        <ele>50.599998474121</ele>
        <time>2022-03-13T08:47:53.000Z</time>
      </trkpt>
      <trkpt lat="47.241" lon="-2.26877">
        <ele>51</ele>
        <time>2022-03-13T08:47:54.000Z</time>
      </trkpt>
      <trkpt lat="47.241" lon="-2.26873">
        <ele>51.400001525879</ele>
        <time>2022-03-13T08:47:55.000Z</time>
      </trkpt>
      <trkpt lat="47.241" lon="-2.26868">
        <ele>51.799999237061</ele>
        <time>2022-03-13T08:47:56.000Z</time>
      </trkpt>
      <trkpt lat="47.24101" lon="-2.26859">
        <ele>51.799999237061</ele>
        <time>2022-03-13T08:47:58.000Z</time>
      </trkpt>
      <trkpt lat="47.24102" lon="-2.2684">
        <ele>52.200000762939</ele>
        <time>2022-03-13T08:48:04.000Z</time>
      </trkpt>
      <trkpt lat="47.241" lon="-2.26838">
        <ele>52.599998474121</ele>
        <time>2022-03-13T08:48:05.000Z</time>
      </trkpt>
      <trkpt lat="47.24098" lon="-2.26837">
        <ele>53.200000762939</ele>
        <time>2022-03-13T08:48:06.000Z</time>
      </trkpt>
      <trkpt lat="47.24096" lon="-2.26835">
        <ele>53.599998474121</ele>
        <time>2022-03-13T08:48:07.000Z</time>
      </trkpt>
      <trkpt lat="47.24093" lon="-2.26835">
        <ele>54</ele>
        <time>2022-03-13T08:48:08.000Z</time>
      </trkpt>
      <trkpt lat="47.24082" lon="-2.26837">
        <ele>54</ele>
        <time>2022-03-13T08:48:11.000Z</time>
      </trkpt>
      <trkpt lat="47.24074" lon="-2.26838">
        <ele>54</ele>
        <time>2022-03-13T08:48:13.000Z</time>
      </trkpt>
      <trkpt lat="47.24059" lon="-2.26848">
        <ele>54</ele>
        <time>2022-03-13T08:48:18.000Z</time>
      </trkpt>
      <trkpt lat="47.24058" lon="-2.26852">
        <ele>54</ele>
        <time>2022-03-13T08:48:19.000Z</time>
      </trkpt>
      <trkpt lat="47.24057" lon="-2.26866">
        <ele>54</ele>
        <time>2022-03-13T08:48:22.000Z</time>
      </trkpt>
      <trkpt lat="47.24055" lon="-2.26875">
        <ele>54</ele>
        <time>2022-03-13T08:48:24.000Z</time>
      </trkpt>
      <trkpt lat="47.24055" lon="-2.26884">
        <ele>54</ele>
        <time>2022-03-13T08:48:26.000Z</time>
      </trkpt>
      <trkpt lat="47.24053" lon="-2.269">
        <ele>54</ele>
        <time>2022-03-13T08:48:28.000Z</time>
      </trkpt>
      <trkpt lat="47.24047" lon="-2.26932">
        <ele>54</ele>
        <time>2022-03-13T08:48:32.000Z</time>
      </trkpt>
      <trkpt lat="47.24047" lon="-2.2694">
        <ele>54</ele>
        <time>2022-03-13T08:48:33.000Z</time>
      </trkpt>
      <trkpt lat="47.24047" lon="-2.26946">
        <ele>53.599998474121</ele>
        <time>2022-03-13T08:48:34.000Z</time>
      </trkpt>
      <trkpt lat="47.24047" lon="-2.26955">
        <ele>53.200000762939</ele>
        <time>2022-03-13T08:48:35.000Z</time>
      </trkpt>
      <trkpt lat="47.24047" lon="-2.26962">
        <ele>52.400001525879</ele>
        <time>2022-03-13T08:48:36.000Z</time>
      </trkpt>
      <trkpt lat="47.24047" lon="-2.26969">
        <ele>51.799999237061</ele>
        <time>2022-03-13T08:48:37.000Z</time>
      </trkpt>
      <trkpt lat="47.24047" lon="-2.26975">
        <ele>51</ele>
        <time>2022-03-13T08:48:38.000Z</time>
      </trkpt>
      <trkpt lat="47.24048" lon="-2.26981">
        <ele>50.400001525879</ele>
        <time>2022-03-13T08:48:39.000Z</time>
      </trkpt>
      <trkpt lat="47.24047" lon="-2.26987">
        <ele>49.799999237061</ele>
        <time>2022-03-13T08:48:40.000Z</time>
      </trkpt>
      <trkpt lat="47.24046" lon="-2.26991">
        <ele>49.200000762939</ele>
        <time>2022-03-13T08:48:41.000Z</time>
      </trkpt>
      <trkpt lat="47.24044" lon="-2.26995">
        <ele>48.400001525879</ele>
        <time>2022-03-13T08:48:42.000Z</time>
      </trkpt>
      <trkpt lat="47.24041" lon="-2.26997">
        <ele>47.799999237061</ele>
        <time>2022-03-13T08:48:43.000Z</time>
      </trkpt>
      <trkpt lat="47.24037" lon="-2.26997">
        <ele>47.400001525879</ele>
        <time>2022-03-13T08:48:44.000Z</time>
      </trkpt>
      <trkpt lat="47.24033" lon="-2.26994">
        <ele>46.799999237061</ele>
        <time>2022-03-13T08:48:45.000Z</time>
      </trkpt>
      <trkpt lat="47.24029" lon="-2.26991">
        <ele>46.200000762939</ele>
        <time>2022-03-13T08:48:46.000Z</time>
      </trkpt>
      <trkpt lat="47.24025" lon="-2.26988">
        <ele>45.799999237061</ele>
        <time>2022-03-13T08:48:47.000Z</time>
      </trkpt>
      <trkpt lat="47.24022" lon="-2.26984">
        <ele>45.200000762939</ele>
        <time>2022-03-13T08:48:48.000Z</time>
      </trkpt>
      <trkpt lat="47.24011" lon="-2.26971">
        <ele>45.200000762939</ele>
        <time>2022-03-13T08:48:52.000Z</time>
      </trkpt>
      <trkpt lat="47.24006" lon="-2.26965">
        <ele>45.200000762939</ele>
        <time>2022-03-13T08:48:56.000Z</time>
      </trkpt>
      <trkpt lat="47.24003" lon="-2.26949">
        <ele>45.200000762939</ele>
        <time>2022-03-13T08:49:00.000Z</time>
      </trkpt>
      <trkpt lat="47.24001" lon="-2.26941">
        <ele>45.599998474121</ele>
        <time>2022-03-13T08:49:03.000Z</time>
      </trkpt>
      <trkpt lat="47.24001" lon="-2.26938">
        <ele>46</ele>
        <time>2022-03-13T08:49:04.000Z</time>
      </trkpt>
      <trkpt lat="47.24" lon="-2.26935">
        <ele>46.400001525879</ele>
        <time>2022-03-13T08:49:05.000Z</time>
      </trkpt>
      <trkpt lat="47.24" lon="-2.26932">
        <ele>46.799999237061</ele>
        <time>2022-03-13T08:49:06.000Z</time>
      </trkpt>
      <trkpt lat="47.24" lon="-2.26929">
        <ele>47.200000762939</ele>
        <time>2022-03-13T08:49:07.000Z</time>
      </trkpt>
      <trkpt lat="47.23999" lon="-2.26913">
        <ele>47.599998474121</ele>
        <time>2022-03-13T08:49:13.000Z</time>
      </trkpt>
      <trkpt lat="47.23998" lon="-2.2691">
        <ele>48.200000762939</ele>
        <time>2022-03-13T08:49:14.000Z</time>
      </trkpt>
      <trkpt lat="47.23998" lon="-2.26907">
        <ele>48.599998474121</ele>
        <time>2022-03-13T08:49:15.000Z</time>
      </trkpt>
      <trkpt lat="47.23998" lon="-2.26903">
        <ele>49</ele>
        <time>2022-03-13T08:49:16.000Z</time>
      </trkpt>
      <trkpt lat="47.23998" lon="-2.26901">
        <ele>49.599998474121</ele>
        <time>2022-03-13T08:49:17.000Z</time>
      </trkpt>
      <trkpt lat="47.23998" lon="-2.26896">
        <ele>49.599998474121</ele>
        <time>2022-03-13T08:49:19.000Z</time>
      </trkpt>
      <trkpt lat="47.23997" lon="-2.26891">
        <ele>50</ele>
        <time>2022-03-13T08:49:21.000Z</time>
      </trkpt>
      <trkpt lat="47.23998" lon="-2.26888">
        <ele>50.400001525879</ele>
        <time>2022-03-13T08:49:22.000Z</time>
      </trkpt>
      <trkpt lat="47.23997" lon="-2.26884">
        <ele>50.799999237061</ele>
        <time>2022-03-13T08:49:23.000Z</time>
      </trkpt>
      <trkpt lat="47.23998" lon="-2.2688">
        <ele>51.200000762939</ele>
        <time>2022-03-13T08:49:24.000Z</time>
      </trkpt>
      <trkpt lat="47.23999" lon="-2.26876">
        <ele>51.599998474121</ele>
        <time>2022-03-13T08:49:25.000Z</time>
      </trkpt>
      <trkpt lat="47.24004" lon="-2.26862">
        <ele>51.599998474121</ele>
        <time>2022-03-13T08:49:30.000Z</time>
      </trkpt>
      <trkpt lat="47.24009" lon="-2.26841">
        <ele>51.599998474121</ele>
        <time>2022-03-13T08:49:36.000Z</time>
      </trkpt>
      <trkpt lat="47.2401" lon="-2.26838">
        <ele>52</ele>
        <time>2022-03-13T08:49:37.000Z</time>
      </trkpt>
      <trkpt lat="47.24011" lon="-2.26834">
        <ele>52.400001525879</ele>
        <time>2022-03-13T08:49:38.000Z</time>
      </trkpt>
      <trkpt lat="47.24011" lon="-2.26831">
        <ele>53.200000762939</ele>
        <time>2022-03-13T08:49:39.000Z</time>
      </trkpt>
      <trkpt lat="47.24011" lon="-2.26827">
        <ele>53.599998474121</ele>
        <time>2022-03-13T08:49:40.000Z</time>
      </trkpt>
      <trkpt lat="47.24011" lon="-2.26821">
        <ele>53.599998474121</ele>
        <time>2022-03-13T08:49:42.000Z</time>
      </trkpt>
      <trkpt lat="47.24006" lon="-2.26805">
        <ele>53.599998474121</ele>
        <time>2022-03-13T08:49:48.000Z</time>
      </trkpt>
      <trkpt lat="47.23995" lon="-2.26794">
        <ele>53.599998474121</ele>
        <time>2022-03-13T08:49:53.000Z</time>
      </trkpt>
      <trkpt lat="47.23974" lon="-2.26785">
        <ele>53.599998474121</ele>
        <time>2022-03-13T08:50:00.000Z</time>
      </trkpt>
      <trkpt lat="47.23954" lon="-2.26775">
        <ele>53.599998474121</ele>
        <time>2022-03-13T08:50:07.000Z</time>
      </trkpt>
      <trkpt lat="47.23948" lon="-2.26772">
        <ele>53</ele>
        <time>2022-03-13T08:50:09.000Z</time>
      </trkpt>
      <trkpt lat="47.23946" lon="-2.2677">
        <ele>52.599998474121</ele>
        <time>2022-03-13T08:50:10.000Z</time>
      </trkpt>
      <trkpt lat="47.23944" lon="-2.26768">
        <ele>52.200000762939</ele>
        <time>2022-03-13T08:50:11.000Z</time>
      </trkpt>
      <trkpt lat="47.23941" lon="-2.26766">
        <ele>51.799999237061</ele>
        <time>2022-03-13T08:50:12.000Z</time>
      </trkpt>
      <trkpt lat="47.23938" lon="-2.26764">
        <ele>51.400001525879</ele>
        <time>2022-03-13T08:50:13.000Z</time>
      </trkpt>
      <trkpt lat="47.23927" lon="-2.26753">
        <ele>50.799999237061</ele>
        <time>2022-03-13T08:50:19.000Z</time>
      </trkpt>
      <trkpt lat="47.23925" lon="-2.26752">
        <ele>50.400001525879</ele>
        <time>2022-03-13T08:50:20.000Z</time>
      </trkpt>
      <trkpt lat="47.23922" lon="-2.26752">
        <ele>50</ele>
        <time>2022-03-13T08:50:21.000Z</time>
      </trkpt>
      <trkpt lat="47.23919" lon="-2.26753">
        <ele>49.599998474121</ele>
        <time>2022-03-13T08:50:22.000Z</time>
      </trkpt>
      <trkpt lat="47.23917" lon="-2.26754">
        <ele>49.200000762939</ele>
        <time>2022-03-13T08:50:23.000Z</time>
      </trkpt>
      <trkpt lat="47.23914" lon="-2.26754">
        <ele>49.200000762939</ele>
        <time>2022-03-13T08:50:24.000Z</time>
      </trkpt>
      <trkpt lat="47.23902" lon="-2.26765">
        <ele>49.200000762939</ele>
        <time>2022-03-13T08:50:30.000Z</time>
      </trkpt>
      <trkpt lat="47.23899" lon="-2.26767">
        <ele>49.200000762939</ele>
        <time>2022-03-13T08:50:32.000Z</time>
      </trkpt>
      <trkpt lat="47.23897" lon="-2.26759">
        <ele>49.200000762939</ele>
        <time>2022-03-13T08:50:35.000Z</time>
      </trkpt>
      <trkpt lat="47.23901" lon="-2.26745">
        <ele>49.200000762939</ele>
        <time>2022-03-13T08:50:39.000Z</time>
      </trkpt>
      <trkpt lat="47.23903" lon="-2.26744">
        <ele>48.799999237061</ele>
        <time>2022-03-13T08:50:40.000Z</time>
      </trkpt>
      <trkpt lat="47.23905" lon="-2.26745">
        <ele>48.400001525879</ele>
        <time>2022-03-13T08:50:41.000Z</time>
      </trkpt>
      <trkpt lat="47.23906" lon="-2.26746">
        <ele>48</ele>
        <time>2022-03-13T08:50:42.000Z</time>
      </trkpt>
      <trkpt lat="47.23908" lon="-2.26746">
        <ele>47.599998474121</ele>
        <time>2022-03-13T08:50:43.000Z</time>
      </trkpt>
      <trkpt lat="47.2391" lon="-2.26747">
        <ele>47.200000762939</ele>
        <time>2022-03-13T08:50:44.000Z</time>
      </trkpt>
      <trkpt lat="47.23919" lon="-2.26746">
        <ele>47.200000762939</ele>
        <time>2022-03-13T08:50:50.000Z</time>
      </trkpt>
      <trkpt lat="47.23919" lon="-2.26747">
        <ele>47.200000762939</ele>
        <time>2022-03-13T08:50:52.000Z</time>
      </trkpt>
      <trkpt lat="47.23923" lon="-2.26748">
        <ele>47.200000762939</ele>
        <time>2022-03-13T08:52:23.000Z</time>
      </trkpt>
      <trkpt lat="47.23925" lon="-2.26748">
        <ele>47.200000762939</ele>
        <time>2022-03-13T08:52:24.000Z</time>
      </trkpt>
      <trkpt lat="47.23942" lon="-2.26742">
        <ele>47.200000762939</ele>
        <time>2022-03-13T08:52:30.000Z</time>
      </trkpt>
      <trkpt lat="47.2396" lon="-2.26733">
        <ele>47.200000762939</ele>
        <time>2022-03-13T08:52:36.000Z</time>
      </trkpt>
      <trkpt lat="47.23969" lon="-2.26735">
        <ele>47.599998474121</ele>
        <time>2022-03-13T08:52:39.000Z</time>
      </trkpt>
      <trkpt lat="47.23972" lon="-2.26736">
        <ele>48</ele>
        <time>2022-03-13T08:52:40.000Z</time>
      </trkpt>
      <trkpt lat="47.23975" lon="-2.26736">
        <ele>48.400001525879</ele>
        <time>2022-03-13T08:52:41.000Z</time>
      </trkpt>
      <trkpt lat="47.23978" lon="-2.26736">
        <ele>48.799999237061</ele>
        <time>2022-03-13T08:52:42.000Z</time>
      </trkpt>
      <trkpt lat="47.23981" lon="-2.26737">
        <ele>49.200000762939</ele>
        <time>2022-03-13T08:52:43.000Z</time>
      </trkpt>
      <trkpt lat="47.24001" lon="-2.26738">
        <ele>49.200000762939</ele>
        <time>2022-03-13T08:52:49.000Z</time>
      </trkpt>
      <trkpt lat="47.24008" lon="-2.26738">
        <ele>49.599998474121</ele>
        <time>2022-03-13T08:52:51.000Z</time>
      </trkpt>
      <trkpt lat="47.24012" lon="-2.26738">
        <ele>50</ele>
        <time>2022-03-13T08:52:52.000Z</time>
      </trkpt>
      <trkpt lat="47.24015" lon="-2.26737">
        <ele>50.599998474121</ele>
        <time>2022-03-13T08:52:53.000Z</time>
      </trkpt>
      <trkpt lat="47.24019" lon="-2.26737">
        <ele>51</ele>
        <time>2022-03-13T08:52:54.000Z</time>
      </trkpt>
      <trkpt lat="47.24022" lon="-2.26736">
        <ele>51.400001525879</ele>
        <time>2022-03-13T08:52:55.000Z</time>
      </trkpt>
      <trkpt lat="47.24042" lon="-2.26727">
        <ele>51.400001525879</ele>
        <time>2022-03-13T08:53:01.000Z</time>
      </trkpt>
      <trkpt lat="47.24048" lon="-2.26724">
        <ele>51.799999237061</ele>
        <time>2022-03-13T08:53:03.000Z</time>
      </trkpt>
      <trkpt lat="47.2405" lon="-2.26722">
        <ele>52.200000762939</ele>
        <time>2022-03-13T08:53:04.000Z</time>
      </trkpt>
      <trkpt lat="47.24053" lon="-2.26719">
        <ele>52.599998474121</ele>
        <time>2022-03-13T08:53:05.000Z</time>
      </trkpt>
      <trkpt lat="47.24054" lon="-2.26717">
        <ele>53</ele>
        <time>2022-03-13T08:53:06.000Z</time>
      </trkpt>
      <trkpt lat="47.24057" lon="-2.26715">
        <ele>53.400001525879</ele>
        <time>2022-03-13T08:53:07.000Z</time>
      </trkpt>
      <trkpt lat="47.24066" lon="-2.26705">
        <ele>54</ele>
        <time>2022-03-13T08:53:12.000Z</time>
      </trkpt>
      <trkpt lat="47.24067" lon="-2.26703">
        <ele>54.400001525879</ele>
        <time>2022-03-13T08:53:13.000Z</time>
      </trkpt>
      <trkpt lat="47.24069" lon="-2.267">
        <ele>54.799999237061</ele>
        <time>2022-03-13T08:53:14.000Z</time>
      </trkpt>
      <trkpt lat="47.2407" lon="-2.26698">
        <ele>55.400001525879</ele>
        <time>2022-03-13T08:53:15.000Z</time>
      </trkpt>
      <trkpt lat="47.24072" lon="-2.26695">
        <ele>55.799999237061</ele>
        <time>2022-03-13T08:53:16.000Z</time>
      </trkpt>
      <trkpt lat="47.24076" lon="-2.26686">
        <ele>55.799999237061</ele>
        <time>2022-03-13T08:53:20.000Z</time>
      </trkpt>
      <trkpt lat="47.2408" lon="-2.26677">
        <ele>56.200000762939</ele>
        <time>2022-03-13T08:53:23.000Z</time>
      </trkpt>
      <trkpt lat="47.24081" lon="-2.26673">
        <ele>56.599998474121</ele>
        <time>2022-03-13T08:53:24.000Z</time>
      </trkpt>
      <trkpt lat="47.24082" lon="-2.2667">
        <ele>57</ele>
        <time>2022-03-13T08:53:25.000Z</time>
      </trkpt>
      <trkpt lat="47.24084" lon="-2.26668">
        <ele>57.599998474121</ele>
        <time>2022-03-13T08:53:26.000Z</time>
      </trkpt>
      <trkpt lat="47.24085" lon="-2.26665">
        <ele>58</ele>
        <time>2022-03-13T08:53:27.000Z</time>
      </trkpt>
      <trkpt lat="47.24096" lon="-2.26651">
        <ele>58</ele>
        <time>2022-03-13T08:53:33.000Z</time>
      </trkpt>
      <trkpt lat="47.24102" lon="-2.26654">
        <ele>58</ele>
        <time>2022-03-13T08:53:38.000Z</time>
      </trkpt>
      <trkpt lat="47.24106" lon="-2.26652">
        <ele>58</ele>
        <time>2022-03-13T08:53:40.000Z</time>
      </trkpt>
      <trkpt lat="47.24108" lon="-2.26647">
        <ele>58</ele>
        <time>2022-03-13T08:53:42.000Z</time>
      </trkpt>
      <trkpt lat="47.24113" lon="-2.26637">
        <ele>58</ele>
        <time>2022-03-13T08:53:46.000Z</time>
      </trkpt>
      <trkpt lat="47.24115" lon="-2.26638">
        <ele>58</ele>
        <time>2022-03-13T08:53:47.000Z</time>
      </trkpt>
      <trkpt lat="47.24116" lon="-2.2664">
        <ele>58</ele>
        <time>2022-03-13T08:53:48.000Z</time>
      </trkpt>
      <trkpt lat="47.24119" lon="-2.26635">
        <ele>57.599998474121</ele>
        <time>2022-03-13T08:53:51.000Z</time>
      </trkpt>
      <trkpt lat="47.2412" lon="-2.26631">
        <ele>57.200000762939</ele>
        <time>2022-03-13T08:53:52.000Z</time>
      </trkpt>
      <trkpt lat="47.24122" lon="-2.26626">
        <ele>56.799999237061</ele>
        <time>2022-03-13T08:53:53.000Z</time>
      </trkpt>
      <trkpt lat="47.24124" lon="-2.26621">
        <ele>56.400001525879</ele>
        <time>2022-03-13T08:53:54.000Z</time>
      </trkpt>
      <trkpt lat="47.24126" lon="-2.26616">
        <ele>56</ele>
        <time>2022-03-13T08:53:55.000Z</time>
      </trkpt>
      <trkpt lat="47.24128" lon="-2.26611">
        <ele>56</ele>
        <time>2022-03-13T08:53:56.000Z</time>
      </trkpt>
      <trkpt lat="47.24138" lon="-2.26591">
        <ele>56</ele>
        <time>2022-03-13T08:54:01.000Z</time>
      </trkpt>
      <trkpt lat="47.24137" lon="-2.26588">
        <ele>55.400001525879</ele>
        <time>2022-03-13T08:54:02.000Z</time>
      </trkpt>
      <trkpt lat="47.24137" lon="-2.26585">
        <ele>55</ele>
        <time>2022-03-13T08:54:03.000Z</time>
      </trkpt>
      <trkpt lat="47.24137" lon="-2.26582">
        <ele>54.599998474121</ele>
        <time>2022-03-13T08:54:04.000Z</time>
      </trkpt>
      <trkpt lat="47.24139" lon="-2.26578">
        <ele>54.200000762939</ele>
        <time>2022-03-13T08:54:05.000Z</time>
      </trkpt>
      <trkpt lat="47.24141" lon="-2.26577">
        <ele>53.799999237061</ele>
        <time>2022-03-13T08:54:06.000Z</time>
      </trkpt>
      <trkpt lat="47.24146" lon="-2.26577">
        <ele>53.799999237061</ele>
        <time>2022-03-13T08:54:08.000Z</time>
      </trkpt>
      <trkpt lat="47.24148" lon="-2.26577">
        <ele>53.799999237061</ele>
        <time>2022-03-13T08:54:09.000Z</time>
      </trkpt>
      <trkpt lat="47.24161" lon="-2.26581">
        <ele>53.799999237061</ele>
        <time>2022-03-13T08:54:15.000Z</time>
      </trkpt>
      <trkpt lat="47.24162" lon="-2.26584">
        <ele>53.799999237061</ele>
        <time>2022-03-13T08:54:16.000Z</time>
      </trkpt>
      <trkpt lat="47.24162" lon="-2.2659">
        <ele>53.799999237061</ele>
        <time>2022-03-13T08:54:18.000Z</time>
      </trkpt>
      <trkpt lat="47.24161" lon="-2.26593">
        <ele>54.200000762939</ele>
        <time>2022-03-13T08:54:19.000Z</time>
      </trkpt>
      <trkpt lat="47.24161" lon="-2.26596">
        <ele>54.799999237061</ele>
        <time>2022-03-13T08:54:20.000Z</time>
      </trkpt>
      <trkpt lat="47.2416" lon="-2.26599">
        <ele>55.200000762939</ele>
        <time>2022-03-13T08:54:21.000Z</time>
      </trkpt>
      <trkpt lat="47.2416" lon="-2.26602">
        <ele>55.599998474121</ele>
        <time>2022-03-13T08:54:22.000Z</time>
      </trkpt>
      <trkpt lat="47.24157" lon="-2.26606">
        <ele>56.200000762939</ele>
        <time>2022-03-13T08:54:23.000Z</time>
      </trkpt>
      <trkpt lat="47.24156" lon="-2.26608">
        <ele>56.200000762939</ele>
        <time>2022-03-13T08:54:24.000Z</time>
      </trkpt>
      <trkpt lat="47.24156" lon="-2.26611">
        <ele>56.599998474121</ele>
        <time>2022-03-13T08:54:25.000Z</time>
      </trkpt>
      <trkpt lat="47.24156" lon="-2.26613">
        <ele>57</ele>
        <time>2022-03-13T08:54:26.000Z</time>
      </trkpt>
      <trkpt lat="47.24159" lon="-2.26613">
        <ele>57.400001525879</ele>
        <time>2022-03-13T08:54:27.000Z</time>
      </trkpt>
      <trkpt lat="47.24162" lon="-2.26613">
        <ele>57.799999237061</ele>
        <time>2022-03-13T08:54:28.000Z</time>
      </trkpt>
      <trkpt lat="47.24166" lon="-2.26613">
        <ele>58.200000762939</ele>
        <time>2022-03-13T08:54:29.000Z</time>
      </trkpt>
      <trkpt lat="47.2418" lon="-2.26617">
        <ele>58.200000762939</ele>
        <time>2022-03-13T08:54:33.000Z</time>
      </trkpt>
      <trkpt lat="47.24204" lon="-2.26624">
        <ele>58.200000762939</ele>
        <time>2022-03-13T08:54:40.000Z</time>
      </trkpt>
      <trkpt lat="47.24229" lon="-2.26622">
        <ele>58.200000762939</ele>
        <time>2022-03-13T08:54:47.000Z</time>
      </trkpt>
      <trkpt lat="47.24251" lon="-2.26601">
        <ele>58.200000762939</ele>
        <time>2022-03-13T08:54:53.000Z</time>
      </trkpt>
      <trkpt lat="47.24281" lon="-2.26572">
        <ele>58.200000762939</ele>
        <time>2022-03-13T08:55:00.000Z</time>
      </trkpt>
      <trkpt lat="47.2431" lon="-2.26544">
        <ele>58.200000762939</ele>
        <time>2022-03-13T08:55:06.000Z</time>
      </trkpt>
      <trkpt lat="47.24348" lon="-2.26511">
        <ele>58.200000762939</ele>
        <time>2022-03-13T08:55:13.000Z</time>
      </trkpt>
      <trkpt lat="47.24387" lon="-2.26482">
        <ele>58.200000762939</ele>
        <time>2022-03-13T08:55:20.000Z</time>
      </trkpt>
      <trkpt lat="47.24424" lon="-2.26457">
        <ele>58.200000762939</ele>
        <time>2022-03-13T08:55:27.000Z</time>
      </trkpt>
      <trkpt lat="47.24456" lon="-2.26437">
        <ele>58.200000762939</ele>
        <time>2022-03-13T08:55:33.000Z</time>
      </trkpt>
      <trkpt lat="47.2449" lon="-2.26419">
        <ele>58.200000762939</ele>
        <time>2022-03-13T08:55:40.000Z</time>
      </trkpt>
      <trkpt lat="47.24532" lon="-2.26398">
        <ele>58.200000762939</ele>
        <time>2022-03-13T08:55:48.000Z</time>
      </trkpt>
      <trkpt lat="47.24564" lon="-2.26386">
        <ele>58.200000762939</ele>
        <time>2022-03-13T08:55:54.000Z</time>
      </trkpt>
      <trkpt lat="47.24595" lon="-2.26378">
        <ele>58.200000762939</ele>
        <time>2022-03-13T08:56:00.000Z</time>
      </trkpt>
      <trkpt lat="47.24631" lon="-2.26379">
        <ele>58.200000762939</ele>
        <time>2022-03-13T08:56:06.000Z</time>
      </trkpt>
      <trkpt lat="47.24672" lon="-2.26394">
        <ele>58.200000762939</ele>
        <time>2022-03-13T08:56:13.000Z</time>
      </trkpt>
      <trkpt lat="47.24701" lon="-2.26403">
        <ele>58.799999237061</ele>
        <time>2022-03-13T08:56:18.000Z</time>
      </trkpt>
      <trkpt lat="47.24707" lon="-2.26405">
        <ele>59.200000762939</ele>
        <time>2022-03-13T08:56:19.000Z</time>
      </trkpt>
      <trkpt lat="47.24712" lon="-2.26407">
        <ele>59.599998474121</ele>
        <time>2022-03-13T08:56:20.000Z</time>
      </trkpt>
      <trkpt lat="47.24718" lon="-2.26409">
        <ele>60</ele>
        <time>2022-03-13T08:56:21.000Z</time>
      </trkpt>
      <trkpt lat="47.24723" lon="-2.26411">
        <ele>60.400001525879</ele>
        <time>2022-03-13T08:56:22.000Z</time>
      </trkpt>
      <trkpt lat="47.24751" lon="-2.26423">
        <ele>60.400001525879</ele>
        <time>2022-03-13T08:56:27.000Z</time>
      </trkpt>
      <trkpt lat="47.24755" lon="-2.26426">
        <ele>60.400001525879</ele>
        <time>2022-03-13T08:56:28.000Z</time>
      </trkpt>
      <trkpt lat="47.24769" lon="-2.26438">
        <ele>60.400001525879</ele>
        <time>2022-03-13T08:56:31.000Z</time>
      </trkpt>
      <trkpt lat="47.24774" lon="-2.26441">
        <ele>60.400001525879</ele>
        <time>2022-03-13T08:56:32.000Z</time>
      </trkpt>
      <trkpt lat="47.24803" lon="-2.26453">
        <ele>60.400001525879</ele>
        <time>2022-03-13T08:56:38.000Z</time>
      </trkpt>
      <trkpt lat="47.24839" lon="-2.26453">
        <ele>60.400001525879</ele>
        <time>2022-03-13T08:56:45.000Z</time>
      </trkpt>
      <trkpt lat="47.24873" lon="-2.26444">
        <ele>60.400001525879</ele>
        <time>2022-03-13T08:56:52.000Z</time>
      </trkpt>
      <trkpt lat="47.24893" lon="-2.26439">
        <ele>60.799999237061</ele>
        <time>2022-03-13T08:56:56.000Z</time>
      </trkpt>
      <trkpt lat="47.24897" lon="-2.26438">
        <ele>61.200000762939</ele>
        <time>2022-03-13T08:56:57.000Z</time>
      </trkpt>
      <trkpt lat="47.24902" lon="-2.26437">
        <ele>61.599998474121</ele>
        <time>2022-03-13T08:56:58.000Z</time>
      </trkpt>
      <trkpt lat="47.24906" lon="-2.26435">
        <ele>62</ele>
        <time>2022-03-13T08:56:59.000Z</time>
      </trkpt>
      <trkpt lat="47.24911" lon="-2.26434">
        <ele>62.400001525879</ele>
        <time>2022-03-13T08:57:00.000Z</time>
      </trkpt>
      <trkpt lat="47.24929" lon="-2.26426">
        <ele>62.400001525879</ele>
        <time>2022-03-13T08:57:04.000Z</time>
      </trkpt>
      <trkpt lat="47.24937" lon="-2.26423">
        <ele>62.400001525879</ele>
        <time>2022-03-13T08:57:06.000Z</time>
      </trkpt>
      <trkpt lat="47.24955" lon="-2.26424">
        <ele>62.400001525879</ele>
        <time>2022-03-13T08:57:10.000Z</time>
      </trkpt>
      <trkpt lat="47.24965" lon="-2.26414">
        <ele>62.400001525879</ele>
        <time>2022-03-13T08:57:13.000Z</time>
      </trkpt>
      <trkpt lat="47.24974" lon="-2.26393">
        <ele>62.400001525879</ele>
        <time>2022-03-13T08:57:17.000Z</time>
      </trkpt>
      <trkpt lat="47.24982" lon="-2.26385">
        <ele>62.400001525879</ele>
        <time>2022-03-13T08:57:19.000Z</time>
      </trkpt>
      <trkpt lat="47.24997" lon="-2.26374">
        <ele>62.400001525879</ele>
        <time>2022-03-13T08:57:22.000Z</time>
      </trkpt>
      <trkpt lat="47.25002" lon="-2.2637">
        <ele>62</ele>
        <time>2022-03-13T08:57:23.000Z</time>
      </trkpt>
      <trkpt lat="47.25007" lon="-2.26366">
        <ele>61.599998474121</ele>
        <time>2022-03-13T08:57:24.000Z</time>
      </trkpt>
      <trkpt lat="47.25012" lon="-2.26363">
        <ele>61.200000762939</ele>
        <time>2022-03-13T08:57:25.000Z</time>
      </trkpt>
      <trkpt lat="47.25016" lon="-2.26359">
        <ele>60.799999237061</ele>
        <time>2022-03-13T08:57:26.000Z</time>
      </trkpt>
      <trkpt lat="47.25022" lon="-2.26357">
        <ele>60.400001525879</ele>
        <time>2022-03-13T08:57:27.000Z</time>
      </trkpt>
      <trkpt lat="47.25027" lon="-2.26355">
        <ele>60.400001525879</ele>
        <time>2022-03-13T08:57:28.000Z</time>
      </trkpt>
      <trkpt lat="47.25043" lon="-2.2635">
        <ele>60.400001525879</ele>
        <time>2022-03-13T08:57:31.000Z</time>
      </trkpt>
      <trkpt lat="47.25051" lon="-2.26341">
        <ele>60.400001525879</ele>
        <time>2022-03-13T08:57:33.000Z</time>
      </trkpt>
      <trkpt lat="47.25054" lon="-2.26333">
        <ele>60</ele>
        <time>2022-03-13T08:57:34.000Z</time>
      </trkpt>
      <trkpt lat="47.25055" lon="-2.26325">
        <ele>59.599998474121</ele>
        <time>2022-03-13T08:57:35.000Z</time>
      </trkpt>
      <trkpt lat="47.25055" lon="-2.26318">
        <ele>59.200000762939</ele>
        <time>2022-03-13T08:57:36.000Z</time>
      </trkpt>
      <trkpt lat="47.25056" lon="-2.2631">
        <ele>58.799999237061</ele>
        <time>2022-03-13T08:57:37.000Z</time>
      </trkpt>
      <trkpt lat="47.25056" lon="-2.26302">
        <ele>58.400001525879</ele>
        <time>2022-03-13T08:57:38.000Z</time>
      </trkpt>
      <trkpt lat="47.25059" lon="-2.26277">
        <ele>58.400001525879</ele>
        <time>2022-03-13T08:57:41.000Z</time>
      </trkpt>
      <trkpt lat="47.25061" lon="-2.26268">
        <ele>58.400001525879</ele>
        <time>2022-03-13T08:57:42.000Z</time>
      </trkpt>
      <trkpt lat="47.25072" lon="-2.2624">
        <ele>58.400001525879</ele>
        <time>2022-03-13T08:57:46.000Z</time>
      </trkpt>
      <trkpt lat="47.25076" lon="-2.26228">
        <ele>58.400001525879</ele>
        <time>2022-03-13T08:57:48.000Z</time>
      </trkpt>
      <trkpt lat="47.25079" lon="-2.26207">
        <ele>58.400001525879</ele>
        <time>2022-03-13T08:57:51.000Z</time>
      </trkpt>
      <trkpt lat="47.25078" lon="-2.262">
        <ele>58.400001525879</ele>
        <time>2022-03-13T08:57:52.000Z</time>
      </trkpt>
      <trkpt lat="47.25078" lon="-2.26178">
        <ele>58.400001525879</ele>
        <time>2022-03-13T08:57:55.000Z</time>
      </trkpt>
      <trkpt lat="47.25078" lon="-2.26171">
        <ele>58.400001525879</ele>
        <time>2022-03-13T08:57:56.000Z</time>
      </trkpt>
      <trkpt lat="47.25077" lon="-2.26149">
        <ele>58.400001525879</ele>
        <time>2022-03-13T08:58:01.000Z</time>
      </trkpt>
      <trkpt lat="47.25065" lon="-2.26144">
        <ele>58.400001525879</ele>
        <time>2022-03-13T08:58:05.000Z</time>
      </trkpt>
      <trkpt lat="47.25062" lon="-2.2614">
        <ele>58.400001525879</ele>
        <time>2022-03-13T08:58:06.000Z</time>
      </trkpt>
      <trkpt lat="47.25059" lon="-2.26135">
        <ele>58</ele>
        <time>2022-03-13T08:58:07.000Z</time>
      </trkpt>
      <trkpt lat="47.25057" lon="-2.26128">
        <ele>57.599998474121</ele>
        <time>2022-03-13T08:58:08.000Z</time>
      </trkpt>
      <trkpt lat="47.25055" lon="-2.2612">
        <ele>57.200000762939</ele>
        <time>2022-03-13T08:58:09.000Z</time>
      </trkpt>
      <trkpt lat="47.25054" lon="-2.26112">
        <ele>56.799999237061</ele>
        <time>2022-03-13T08:58:10.000Z</time>
      </trkpt>
      <trkpt lat="47.25053" lon="-2.26103">
        <ele>56.400001525879</ele>
        <time>2022-03-13T08:58:11.000Z</time>
      </trkpt>
      <trkpt lat="47.25053" lon="-2.26087">
        <ele>56</ele>
        <time>2022-03-13T08:58:13.000Z</time>
      </trkpt>
      <trkpt lat="47.25053" lon="-2.26078">
        <ele>55.400001525879</ele>
        <time>2022-03-13T08:58:14.000Z</time>
      </trkpt>
      <trkpt lat="47.25054" lon="-2.26068">
        <ele>55</ele>
        <time>2022-03-13T08:58:15.000Z</time>
      </trkpt>
      <trkpt lat="47.25056" lon="-2.26056">
        <ele>54.599998474121</ele>
        <time>2022-03-13T08:58:16.000Z</time>
      </trkpt>
      <trkpt lat="47.25058" lon="-2.26047">
        <ele>54.200000762939</ele>
        <time>2022-03-13T08:58:17.000Z</time>
      </trkpt>
      <trkpt lat="47.25059" lon="-2.26038">
        <ele>53.200000762939</ele>
        <time>2022-03-13T08:58:18.000Z</time>
      </trkpt>
      <trkpt lat="47.25059" lon="-2.26028">
        <ele>52.799999237061</ele>
        <time>2022-03-13T08:58:19.000Z</time>
      </trkpt>
      <trkpt lat="47.25058" lon="-2.2602">
        <ele>52.400001525879</ele>
        <time>2022-03-13T08:58:20.000Z</time>
      </trkpt>
      <trkpt lat="47.25058" lon="-2.26012">
        <ele>52</ele>
        <time>2022-03-13T08:58:21.000Z</time>
      </trkpt>
      <trkpt lat="47.25058" lon="-2.26004">
        <ele>51.400001525879</ele>
        <time>2022-03-13T08:58:22.000Z</time>
      </trkpt>
      <trkpt lat="47.25058" lon="-2.25998">
        <ele>51</ele>
        <time>2022-03-13T08:58:23.000Z</time>
      </trkpt>
      <trkpt lat="47.25058" lon="-2.25993">
        <ele>50.400001525879</ele>
        <time>2022-03-13T08:58:24.000Z</time>
      </trkpt>
      <trkpt lat="47.25059" lon="-2.25989">
        <ele>50</ele>
        <time>2022-03-13T08:58:25.000Z</time>
      </trkpt>
      <trkpt lat="47.25059" lon="-2.25985">
        <ele>50</ele>
        <time>2022-03-13T08:58:26.000Z</time>
      </trkpt>
      <trkpt lat="47.2506" lon="-2.25978">
        <ele>50</ele>
        <time>2022-03-13T08:58:30.000Z</time>
      </trkpt>
      <trkpt lat="47.25059" lon="-2.25976">
        <ele>49.599998474121</ele>
        <time>2022-03-13T08:58:31.000Z</time>
      </trkpt>
      <trkpt lat="47.2506" lon="-2.25973">
        <ele>49.200000762939</ele>
        <time>2022-03-13T08:58:32.000Z</time>
      </trkpt>
      <trkpt lat="47.2506" lon="-2.2597">
        <ele>48.799999237061</ele>
        <time>2022-03-13T08:58:33.000Z</time>
      </trkpt>
      <trkpt lat="47.25059" lon="-2.25967">
        <ele>48.400001525879</ele>
        <time>2022-03-13T08:58:34.000Z</time>
      </trkpt>
      <trkpt lat="47.25059" lon="-2.25964">
        <ele>48</ele>
        <time>2022-03-13T08:58:35.000Z</time>
      </trkpt>
      <trkpt lat="47.25058" lon="-2.25962">
        <ele>48</ele>
        <time>2022-03-13T08:58:37.000Z</time>
      </trkpt>
      <trkpt lat="47.25032" lon="-2.25957">
        <ele>52.200000762939</ele>
        <time>2022-03-13T08:59:16.000Z</time>
      </trkpt>
      <trkpt lat="47.2503" lon="-2.25955">
        <ele>52.200000762939</ele>
        <time>2022-03-13T08:59:17.000Z</time>
      </trkpt>
      <trkpt lat="47.25029" lon="-2.25942">
        <ele>52.200000762939</ele>
        <time>2022-03-13T08:59:21.000Z</time>
      </trkpt>
      <trkpt lat="47.25034" lon="-2.25915">
        <ele>52.200000762939</ele>
        <time>2022-03-13T08:59:25.000Z</time>
      </trkpt>
      <trkpt lat="47.25041" lon="-2.25886">
        <ele>51.799999237061</ele>
        <time>2022-03-13T08:59:29.000Z</time>
      </trkpt>
      <trkpt lat="47.25043" lon="-2.25881">
        <ele>51.200000762939</ele>
        <time>2022-03-13T08:59:30.000Z</time>
      </trkpt>
      <trkpt lat="47.25046" lon="-2.25878">
        <ele>50.799999237061</ele>
        <time>2022-03-13T08:59:31.000Z</time>
      </trkpt>
      <trkpt lat="47.25049" lon="-2.25875">
        <ele>49.799999237061</ele>
        <time>2022-03-13T08:59:32.000Z</time>
      </trkpt>
      <trkpt lat="47.25055" lon="-2.25875">
        <ele>49.799999237061</ele>
        <time>2022-03-13T08:59:34.000Z</time>
      </trkpt>
      <trkpt lat="47.25057" lon="-2.25885">
        <ele>49.400001525879</ele>
        <time>2022-03-13T08:59:37.000Z</time>
      </trkpt>
      <trkpt lat="47.25057" lon="-2.25889">
        <ele>49</ele>
        <time>2022-03-13T08:59:38.000Z</time>
      </trkpt>
      <trkpt lat="47.25056" lon="-2.25892">
        <ele>48.599998474121</ele>
        <time>2022-03-13T08:59:39.000Z</time>
      </trkpt>
      <trkpt lat="47.25056" lon="-2.25895">
        <ele>48.200000762939</ele>
        <time>2022-03-13T08:59:40.000Z</time>
      </trkpt>
      <trkpt lat="47.25056" lon="-2.25899">
        <ele>47.799999237061</ele>
        <time>2022-03-13T08:59:41.000Z</time>
      </trkpt>
      <trkpt lat="47.25055" lon="-2.25902">
        <ele>47.799999237061</ele>
        <time>2022-03-13T08:59:42.000Z</time>
      </trkpt>
      <trkpt lat="47.25057" lon="-2.25912">
        <ele>47.799999237061</ele>
        <time>2022-03-13T08:59:45.000Z</time>
      </trkpt>
      <trkpt lat="47.25059" lon="-2.25914">
        <ele>47.799999237061</ele>
        <time>2022-03-13T08:59:46.000Z</time>
      </trkpt>
      <trkpt lat="47.25063" lon="-2.25912">
        <ele>47.799999237061</ele>
        <time>2022-03-13T08:59:49.000Z</time>
      </trkpt>
      <trkpt lat="47.25068" lon="-2.25892">
        <ele>47.200000762939</ele>
        <time>2022-03-13T08:59:53.000Z</time>
      </trkpt>
      <trkpt lat="47.25069" lon="-2.25885">
        <ele>46.799999237061</ele>
        <time>2022-03-13T08:59:54.000Z</time>
      </trkpt>
      <trkpt lat="47.2507" lon="-2.25878">
        <ele>46.400001525879</ele>
        <time>2022-03-13T08:59:55.000Z</time>
      </trkpt>
      <trkpt lat="47.25072" lon="-2.25869">
        <ele>45.599998474121</ele>
        <time>2022-03-13T08:59:56.000Z</time>
      </trkpt>
      <trkpt lat="47.25077" lon="-2.25845">
        <ele>45.599998474121</ele>
        <time>2022-03-13T08:59:59.000Z</time>
      </trkpt>
      <trkpt lat="47.25079" lon="-2.25837">
        <ele>45.200000762939</ele>
        <time>2022-03-13T09:00:00.000Z</time>
      </trkpt>
      <trkpt lat="47.25081" lon="-2.25829">
        <ele>44.799999237061</ele>
        <time>2022-03-13T09:00:01.000Z</time>
      </trkpt>
      <trkpt lat="47.25083" lon="-2.25822">
        <ele>44.400001525879</ele>
        <time>2022-03-13T09:00:02.000Z</time>
      </trkpt>
      <trkpt lat="47.25086" lon="-2.25816">
        <ele>44</ele>
        <time>2022-03-13T09:00:03.000Z</time>
      </trkpt>
      <trkpt lat="47.25087" lon="-2.2581">
        <ele>43.599998474121</ele>
        <time>2022-03-13T09:00:04.000Z</time>
      </trkpt>
      <trkpt lat="47.25088" lon="-2.25797">
        <ele>43.200000762939</ele>
        <time>2022-03-13T09:00:06.000Z</time>
      </trkpt>
      <trkpt lat="47.25087" lon="-2.25791">
        <ele>42.799999237061</ele>
        <time>2022-03-13T09:00:07.000Z</time>
      </trkpt>
      <trkpt lat="47.25087" lon="-2.25783">
        <ele>42.400001525879</ele>
        <time>2022-03-13T09:00:08.000Z</time>
      </trkpt>
      <trkpt lat="47.25087" lon="-2.25774">
        <ele>42</ele>
        <time>2022-03-13T09:00:09.000Z</time>
      </trkpt>
      <trkpt lat="47.25086" lon="-2.25766">
        <ele>41.599998474121</ele>
        <time>2022-03-13T09:00:10.000Z</time>
      </trkpt>
      <trkpt lat="47.25085" lon="-2.25757">
        <ele>41.599998474121</ele>
        <time>2022-03-13T09:00:11.000Z</time>
      </trkpt>
      <trkpt lat="47.25086" lon="-2.25736">
        <ele>41.599998474121</ele>
        <time>2022-03-13T09:00:13.000Z</time>
      </trkpt>
      <trkpt lat="47.25089" lon="-2.25715">
        <ele>41</ele>
        <time>2022-03-13T09:00:15.000Z</time>
      </trkpt>
      <trkpt lat="47.25089" lon="-2.25708">
        <ele>40.599998474121</ele>
        <time>2022-03-13T09:00:16.000Z</time>
      </trkpt>
      <trkpt lat="47.25089" lon="-2.25701">
        <ele>40.200000762939</ele>
        <time>2022-03-13T09:00:17.000Z</time>
      </trkpt>
      <trkpt lat="47.2509" lon="-2.25696">
        <ele>39.599998474121</ele>
        <time>2022-03-13T09:00:18.000Z</time>
      </trkpt>
      <trkpt lat="47.25091" lon="-2.25693">
        <ele>39.200000762939</ele>
        <time>2022-03-13T09:00:19.000Z</time>
      </trkpt>
      <trkpt lat="47.25091" lon="-2.25691">
        <ele>38.799999237061</ele>
        <time>2022-03-13T09:00:20.000Z</time>
      </trkpt>
      <trkpt lat="47.25093" lon="-2.25685">
        <ele>37</ele>
        <time>2022-03-13T09:00:21.000Z</time>
      </trkpt>
      <trkpt lat="47.25093" lon="-2.25685">
        <ele>37</ele>
        <time>2022-03-13T09:00:24.000Z</time>
      </trkpt>
      <trkpt lat="47.25091" lon="-2.25675">
        <ele>37</ele>
        <time>2022-03-13T09:00:27.000Z</time>
      </trkpt>
      <trkpt lat="47.25092" lon="-2.2566">
        <ele>37</ele>
        <time>2022-03-13T09:00:32.000Z</time>
      </trkpt>
      <trkpt lat="47.25092" lon="-2.25657">
        <ele>37</ele>
        <time>2022-03-13T09:00:34.000Z</time>
      </trkpt>
      <trkpt lat="47.25093" lon="-2.2565">
        <ele>37</ele>
        <time>2022-03-13T09:00:38.000Z</time>
      </trkpt>
      <trkpt lat="47.25093" lon="-2.25648">
        <ele>36.599998474121</ele>
        <time>2022-03-13T09:00:39.000Z</time>
      </trkpt>
      <trkpt lat="47.25093" lon="-2.25645">
        <ele>36.200000762939</ele>
        <time>2022-03-13T09:00:40.000Z</time>
      </trkpt>
      <trkpt lat="47.25093" lon="-2.25642">
        <ele>35.599998474121</ele>
        <time>2022-03-13T09:00:41.000Z</time>
      </trkpt>
      <trkpt lat="47.25093" lon="-2.25639">
        <ele>35.200000762939</ele>
        <time>2022-03-13T09:00:42.000Z</time>
      </trkpt>
      <trkpt lat="47.25093" lon="-2.25638">
        <ele>34.799999237061</ele>
        <time>2022-03-13T09:00:43.000Z</time>
      </trkpt>
      <trkpt lat="47.25093" lon="-2.25638">
        <ele>34.799999237061</ele>
        <time>2022-03-13T09:00:45.000Z</time>
      </trkpt>
      <trkpt lat="47.25092" lon="-2.25635">
        <ele>34.799999237061</ele>
        <time>2022-03-13T09:00:50.000Z</time>
      </trkpt>
      <trkpt lat="47.25091" lon="-2.25632">
        <ele>34.799999237061</ele>
        <time>2022-03-13T09:00:51.000Z</time>
      </trkpt>
      <trkpt lat="47.25086" lon="-2.25614">
        <ele>34.799999237061</ele>
        <time>2022-03-13T09:00:54.000Z</time>
      </trkpt>
      <trkpt lat="47.25085" lon="-2.25611">
        <ele>34.799999237061</ele>
        <time>2022-03-13T09:00:55.000Z</time>
      </trkpt>
      <trkpt lat="47.25085" lon="-2.25609">
        <ele>34.799999237061</ele>
        <time>2022-03-13T09:00:56.000Z</time>
      </trkpt>
      <trkpt lat="47.25085" lon="-2.25607">
        <ele>34.799999237061</ele>
        <time>2022-03-13T09:00:57.000Z</time>
      </trkpt>
      <trkpt lat="47.25085" lon="-2.25603">
        <ele>34.799999237061</ele>
        <time>2022-03-13T09:01:00.000Z</time>
      </trkpt>
      <trkpt lat="47.25086" lon="-2.25598">
        <ele>34.799999237061</ele>
        <time>2022-03-13T09:01:14.000Z</time>
      </trkpt>
      <trkpt lat="47.25087" lon="-2.25598">
        <ele>34.799999237061</ele>
        <time>2022-03-13T09:01:16.000Z</time>
      </trkpt>
      <trkpt lat="47.25086" lon="-2.25599">
        <ele>34.799999237061</ele>
        <time>2022-03-13T09:01:39.000Z</time>
      </trkpt>
      <trkpt lat="47.25085" lon="-2.25601">
        <ele>34.799999237061</ele>
        <time>2022-03-13T09:01:40.000Z</time>
      </trkpt>
      <trkpt lat="47.25089" lon="-2.25616">
        <ele>34.799999237061</ele>
        <time>2022-03-13T09:01:44.000Z</time>
      </trkpt>
      <trkpt lat="47.25093" lon="-2.25634">
        <ele>34.799999237061</ele>
        <time>2022-03-13T09:01:47.000Z</time>
      </trkpt>
      <trkpt lat="47.25093" lon="-2.2564">
        <ele>34.799999237061</ele>
        <time>2022-03-13T09:01:48.000Z</time>
      </trkpt>
      <trkpt lat="47.25085" lon="-2.25662">
        <ele>34.799999237061</ele>
        <time>2022-03-13T09:01:53.000Z</time>
      </trkpt>
      <trkpt lat="47.25078" lon="-2.25673">
        <ele>35.200000762939</ele>
        <time>2022-03-13T09:01:57.000Z</time>
      </trkpt>
      <trkpt lat="47.25076" lon="-2.25675">
        <ele>35.599998474121</ele>
        <time>2022-03-13T09:01:58.000Z</time>
      </trkpt>
      <trkpt lat="47.25074" lon="-2.25676">
        <ele>36</ele>
        <time>2022-03-13T09:01:59.000Z</time>
      </trkpt>
      <trkpt lat="47.25073" lon="-2.25677">
        <ele>36.400001525879</ele>
        <time>2022-03-13T09:02:00.000Z</time>
      </trkpt>
      <trkpt lat="47.25071" lon="-2.25679">
        <ele>36.799999237061</ele>
        <time>2022-03-13T09:02:01.000Z</time>
      </trkpt>
      <trkpt lat="47.2507" lon="-2.2568">
        <ele>37.400001525879</ele>
        <time>2022-03-13T09:02:02.000Z</time>
      </trkpt>
      <trkpt lat="47.25069" lon="-2.25682">
        <ele>37.799999237061</ele>
        <time>2022-03-13T09:02:03.000Z</time>
      </trkpt>
      <trkpt lat="47.25067" lon="-2.25685">
        <ele>38.200000762939</ele>
        <time>2022-03-13T09:02:04.000Z</time>
      </trkpt>
      <trkpt lat="47.25066" lon="-2.25688">
        <ele>38.799999237061</ele>
        <time>2022-03-13T09:02:05.000Z</time>
      </trkpt>
      <trkpt lat="47.25066" lon="-2.25692">
        <ele>39.200000762939</ele>
        <time>2022-03-13T09:02:06.000Z</time>
      </trkpt>
      <trkpt lat="47.25066" lon="-2.257">
        <ele>39.200000762939</ele>
        <time>2022-03-13T09:02:08.000Z</time>
      </trkpt>
      <trkpt lat="47.25065" lon="-2.25733">
        <ele>39.599998474121</ele>
        <time>2022-03-13T09:02:15.000Z</time>
      </trkpt>
      <trkpt lat="47.25066" lon="-2.25738">
        <ele>40</ele>
        <time>2022-03-13T09:02:16.000Z</time>
      </trkpt>
      <trkpt lat="47.25066" lon="-2.25743">
        <ele>40.400001525879</ele>
        <time>2022-03-13T09:02:17.000Z</time>
      </trkpt>
      <trkpt lat="47.25066" lon="-2.25748">
        <ele>40.799999237061</ele>
        <time>2022-03-13T09:02:18.000Z</time>
      </trkpt>
      <trkpt lat="47.25066" lon="-2.25753">
        <ele>41.200000762939</ele>
        <time>2022-03-13T09:02:19.000Z</time>
      </trkpt>
      <trkpt lat="47.25066" lon="-2.25766">
        <ele>41.200000762939</ele>
        <time>2022-03-13T09:02:22.000Z</time>
      </trkpt>
      <trkpt lat="47.25065" lon="-2.25784">
        <ele>42</ele>
        <time>2022-03-13T09:02:26.000Z</time>
      </trkpt>
      <trkpt lat="47.25065" lon="-2.25789">
        <ele>42.400001525879</ele>
        <time>2022-03-13T09:02:27.000Z</time>
      </trkpt>
      <trkpt lat="47.25065" lon="-2.25793">
        <ele>42.799999237061</ele>
        <time>2022-03-13T09:02:28.000Z</time>
      </trkpt>
      <trkpt lat="47.25065" lon="-2.25797">
        <ele>43.200000762939</ele>
        <time>2022-03-13T09:02:29.000Z</time>
      </trkpt>
      <trkpt lat="47.25063" lon="-2.25823">
        <ele>43.200000762939</ele>
        <time>2022-03-13T09:02:35.000Z</time>
      </trkpt>
      <trkpt lat="47.25062" lon="-2.2583">
        <ele>43.599998474121</ele>
        <time>2022-03-13T09:02:37.000Z</time>
      </trkpt>
      <trkpt lat="47.2506" lon="-2.25834">
        <ele>44</ele>
        <time>2022-03-13T09:02:38.000Z</time>
      </trkpt>
      <trkpt lat="47.25059" lon="-2.25838">
        <ele>44.400001525879</ele>
        <time>2022-03-13T09:02:39.000Z</time>
      </trkpt>
      <trkpt lat="47.25058" lon="-2.25841">
        <ele>44.799999237061</ele>
        <time>2022-03-13T09:02:40.000Z</time>
      </trkpt>
      <trkpt lat="47.25057" lon="-2.25844">
        <ele>45.200000762939</ele>
        <time>2022-03-13T09:02:41.000Z</time>
      </trkpt>
      <trkpt lat="47.25053" lon="-2.25854">
        <ele>45.799999237061</ele>
        <time>2022-03-13T09:02:44.000Z</time>
      </trkpt>
      <trkpt lat="47.25052" lon="-2.25857">
        <ele>46.200000762939</ele>
        <time>2022-03-13T09:02:45.000Z</time>
      </trkpt>
      <trkpt lat="47.2505" lon="-2.25861">
        <ele>46.599998474121</ele>
        <time>2022-03-13T09:02:46.000Z</time>
      </trkpt>
      <trkpt lat="47.25048" lon="-2.25864">
        <ele>47</ele>
        <time>2022-03-13T09:02:47.000Z</time>
      </trkpt>
      <trkpt lat="47.25046" lon="-2.25868">
        <ele>47.400001525879</ele>
        <time>2022-03-13T09:02:48.000Z</time>
      </trkpt>
      <trkpt lat="47.25039" lon="-2.25882">
        <ele>47.799999237061</ele>
        <time>2022-03-13T09:02:52.000Z</time>
      </trkpt>
      <trkpt lat="47.25038" lon="-2.25886">
        <ele>48.200000762939</ele>
        <time>2022-03-13T09:02:53.000Z</time>
      </trkpt>
      <trkpt lat="47.25038" lon="-2.2589">
        <ele>48.799999237061</ele>
        <time>2022-03-13T09:02:54.000Z</time>
      </trkpt>
      <trkpt lat="47.25037" lon="-2.25894">
        <ele>49.200000762939</ele>
        <time>2022-03-13T09:02:55.000Z</time>
      </trkpt>
      <trkpt lat="47.25036" lon="-2.25898">
        <ele>49.599998474121</ele>
        <time>2022-03-13T09:02:56.000Z</time>
      </trkpt>
      <trkpt lat="47.25034" lon="-2.25906">
        <ele>49.599998474121</ele>
        <time>2022-03-13T09:02:58.000Z</time>
      </trkpt>
      <trkpt lat="47.2503" lon="-2.25924">
        <ele>50</ele>
        <time>2022-03-13T09:03:03.000Z</time>
      </trkpt>
      <trkpt lat="47.2503" lon="-2.25927">
        <ele>50.400001525879</ele>
        <time>2022-03-13T09:03:04.000Z</time>
      </trkpt>
      <trkpt lat="47.25029" lon="-2.2593">
        <ele>50.799999237061</ele>
        <time>2022-03-13T09:03:05.000Z</time>
      </trkpt>
      <trkpt lat="47.25028" lon="-2.25934">
        <ele>51.200000762939</ele>
        <time>2022-03-13T09:03:06.000Z</time>
      </trkpt>
      <trkpt lat="47.25027" lon="-2.25937">
        <ele>51.599998474121</ele>
        <time>2022-03-13T09:03:07.000Z</time>
      </trkpt>
      <trkpt lat="47.25027" lon="-2.25946">
        <ele>51.599998474121</ele>
        <time>2022-03-13T09:03:10.000Z</time>
      </trkpt>
      <trkpt lat="47.25028" lon="-2.25948">
        <ele>51.599998474121</ele>
        <time>2022-03-13T09:03:11.000Z</time>
      </trkpt>
      <trkpt lat="47.25033" lon="-2.25952">
        <ele>51.599998474121</ele>
        <time>2022-03-13T09:03:16.000Z</time>
      </trkpt>
      <trkpt lat="47.2504" lon="-2.25948">
        <ele>51.599998474121</ele>
        <time>2022-03-13T09:03:21.000Z</time>
      </trkpt>
      <trkpt lat="47.25044" lon="-2.25949">
        <ele>51.599998474121</ele>
        <time>2022-03-13T09:03:23.000Z</time>
      </trkpt>
      <trkpt lat="47.25046" lon="-2.2595">
        <ele>51.200000762939</ele>
        <time>2022-03-13T09:03:24.000Z</time>
      </trkpt>
      <trkpt lat="47.25048" lon="-2.25951">
        <ele>50.799999237061</ele>
        <time>2022-03-13T09:03:25.000Z</time>
      </trkpt>
      <trkpt lat="47.2505" lon="-2.25953">
        <ele>50.400001525879</ele>
        <time>2022-03-13T09:03:26.000Z</time>
      </trkpt>
      <trkpt lat="47.25051" lon="-2.25955">
        <ele>50</ele>
        <time>2022-03-13T09:03:27.000Z</time>
      </trkpt>
      <trkpt lat="47.25053" lon="-2.25958">
        <ele>49.599998474121</ele>
        <time>2022-03-13T09:03:28.000Z</time>
      </trkpt>
      <trkpt lat="47.25054" lon="-2.25962">
        <ele>49.599998474121</ele>
        <time>2022-03-13T09:03:29.000Z</time>
      </trkpt>
      <trkpt lat="47.25053" lon="-2.25966">
        <ele>49.599998474121</ele>
        <time>2022-03-13T09:03:30.000Z</time>
      </trkpt>
      <trkpt lat="47.25053" lon="-2.25982">
        <ele>49.599998474121</ele>
        <time>2022-03-13T09:03:33.000Z</time>
      </trkpt>
      <trkpt lat="47.25057" lon="-2.26008">
        <ele>49.599998474121</ele>
        <time>2022-03-13T09:03:38.000Z</time>
      </trkpt>
      <trkpt lat="47.25059" lon="-2.2603">
        <ele>49.599998474121</ele>
        <time>2022-03-13T09:03:43.000Z</time>
      </trkpt>
      <trkpt lat="47.25058" lon="-2.26034">
        <ele>50</ele>
        <time>2022-03-13T09:03:44.000Z</time>
      </trkpt>
      <trkpt lat="47.25058" lon="-2.26037">
        <ele>50.400001525879</ele>
        <time>2022-03-13T09:03:45.000Z</time>
      </trkpt>
      <trkpt lat="47.25058" lon="-2.26041">
        <ele>50.799999237061</ele>
        <time>2022-03-13T09:03:46.000Z</time>
      </trkpt>
      <trkpt lat="47.25057" lon="-2.26045">
        <ele>51.200000762939</ele>
        <time>2022-03-13T09:03:47.000Z</time>
      </trkpt>
      <trkpt lat="47.25057" lon="-2.26049">
        <ele>51.599998474121</ele>
        <time>2022-03-13T09:03:48.000Z</time>
      </trkpt>
      <trkpt lat="47.25056" lon="-2.26054">
        <ele>51.599998474121</ele>
        <time>2022-03-13T09:03:49.000Z</time>
      </trkpt>
      <trkpt lat="47.25051" lon="-2.26081">
        <ele>51.599998474121</ele>
        <time>2022-03-13T09:03:55.000Z</time>
      </trkpt>
      <trkpt lat="47.25051" lon="-2.26084">
        <ele>52</ele>
        <time>2022-03-13T09:03:56.000Z</time>
      </trkpt>
      <trkpt lat="47.2505" lon="-2.26088">
        <ele>52.599998474121</ele>
        <time>2022-03-13T09:03:57.000Z</time>
      </trkpt>
      <trkpt lat="47.2505" lon="-2.26092">
        <ele>53</ele>
        <time>2022-03-13T09:03:58.000Z</time>
      </trkpt>
      <trkpt lat="47.2505" lon="-2.26097">
        <ele>53.400001525879</ele>
        <time>2022-03-13T09:03:59.000Z</time>
      </trkpt>
      <trkpt lat="47.25051" lon="-2.26101">
        <ele>53.799999237061</ele>
        <time>2022-03-13T09:04:00.000Z</time>
      </trkpt>
      <trkpt lat="47.25052" lon="-2.26105">
        <ele>53.799999237061</ele>
        <time>2022-03-13T09:04:01.000Z</time>
      </trkpt>
      <trkpt lat="47.25055" lon="-2.26124">
        <ele>54.599998474121</ele>
        <time>2022-03-13T09:04:05.000Z</time>
      </trkpt>
      <trkpt lat="47.25056" lon="-2.26128">
        <ele>55</ele>
        <time>2022-03-13T09:04:06.000Z</time>
      </trkpt>
      <trkpt lat="47.25057" lon="-2.26133">
        <ele>55.599998474121</ele>
        <time>2022-03-13T09:04:07.000Z</time>
      </trkpt>
      <trkpt lat="47.25059" lon="-2.26136">
        <ele>56</ele>
        <time>2022-03-13T09:04:08.000Z</time>
      </trkpt>
      <trkpt lat="47.25065" lon="-2.2614">
        <ele>56</ele>
        <time>2022-03-13T09:04:10.000Z</time>
      </trkpt>
      <trkpt lat="47.2507" lon="-2.26141">
        <ele>56.400001525879</ele>
        <time>2022-03-13T09:04:12.000Z</time>
      </trkpt>
      <trkpt lat="47.25073" lon="-2.2614">
        <ele>57</ele>
        <time>2022-03-13T09:04:13.000Z</time>
      </trkpt>
      <trkpt lat="47.25075" lon="-2.26138">
        <ele>57.400001525879</ele>
        <time>2022-03-13T09:04:14.000Z</time>
      </trkpt>
      <trkpt lat="47.25077" lon="-2.26134">
        <ele>58</ele>
        <time>2022-03-13T09:04:15.000Z</time>
      </trkpt>
      <trkpt lat="47.25078" lon="-2.2613">
        <ele>58.400001525879</ele>
        <time>2022-03-13T09:04:16.000Z</time>
      </trkpt>
      <trkpt lat="47.2508" lon="-2.26118">
        <ele>58.400001525879</ele>
        <time>2022-03-13T09:04:19.000Z</time>
      </trkpt>
      <trkpt lat="47.25087" lon="-2.26086">
        <ele>58.400001525879</ele>
        <time>2022-03-13T09:04:26.000Z</time>
      </trkpt>
      <trkpt lat="47.25093" lon="-2.26049">
        <ele>58.400001525879</ele>
        <time>2022-03-13T09:04:32.000Z</time>
      </trkpt>
      <trkpt lat="47.25097" lon="-2.26034">
        <ele>58.400001525879</ele>
        <time>2022-03-13T09:04:34.000Z</time>
      </trkpt>
      <trkpt lat="47.25101" lon="-2.26009">
        <ele>58.400001525879</ele>
        <time>2022-03-13T09:04:37.000Z</time>
      </trkpt>
      <trkpt lat="47.25103" lon="-2.26001">
        <ele>58</ele>
        <time>2022-03-13T09:04:38.000Z</time>
      </trkpt>
      <trkpt lat="47.25105" lon="-2.25992">
        <ele>57.599998474121</ele>
        <time>2022-03-13T09:04:39.000Z</time>
      </trkpt>
      <trkpt lat="47.25107" lon="-2.25984">
        <ele>57.200000762939</ele>
        <time>2022-03-13T09:04:40.000Z</time>
      </trkpt>
      <trkpt lat="47.25109" lon="-2.25976">
        <ele>56.799999237061</ele>
        <time>2022-03-13T09:04:41.000Z</time>
      </trkpt>
      <trkpt lat="47.25111" lon="-2.25968">
        <ele>56.400001525879</ele>
        <time>2022-03-13T09:04:42.000Z</time>
      </trkpt>
      <trkpt lat="47.25114" lon="-2.25961">
        <ele>56.400001525879</ele>
        <time>2022-03-13T09:04:43.000Z</time>
      </trkpt>
      <trkpt lat="47.25119" lon="-2.25949">
        <ele>56.400001525879</ele>
        <time>2022-03-13T09:04:45.000Z</time>
      </trkpt>
      <trkpt lat="47.2513" lon="-2.25935">
        <ele>56.400001525879</ele>
        <time>2022-03-13T09:04:48.000Z</time>
      </trkpt>
      <trkpt lat="47.2514" lon="-2.25921">
        <ele>56.400001525879</ele>
        <time>2022-03-13T09:04:51.000Z</time>
      </trkpt>
      <trkpt lat="47.25147" lon="-2.25916">
        <ele>56.400001525879</ele>
        <time>2022-03-13T09:04:53.000Z</time>
      </trkpt>
      <trkpt lat="47.25161" lon="-2.25917">
        <ele>56.400001525879</ele>
        <time>2022-03-13T09:04:56.000Z</time>
      </trkpt>
      <trkpt lat="47.25166" lon="-2.25916">
        <ele>56.400001525879</ele>
        <time>2022-03-13T09:04:57.000Z</time>
      </trkpt>
      <trkpt lat="47.25172" lon="-2.25914">
        <ele>56.400001525879</ele>
        <time>2022-03-13T09:04:59.000Z</time>
      </trkpt>
      <trkpt lat="47.25184" lon="-2.25917">
        <ele>56.400001525879</ele>
        <time>2022-03-13T09:05:03.000Z</time>
      </trkpt>
      <trkpt lat="47.25186" lon="-2.25919">
        <ele>56.799999237061</ele>
        <time>2022-03-13T09:05:04.000Z</time>
      </trkpt>
      <trkpt lat="47.25189" lon="-2.25922">
        <ele>57.200000762939</ele>
        <time>2022-03-13T09:05:05.000Z</time>
      </trkpt>
      <trkpt lat="47.25192" lon="-2.25924">
        <ele>57.599998474121</ele>
        <time>2022-03-13T09:05:06.000Z</time>
      </trkpt>
      <trkpt lat="47.25195" lon="-2.25925">
        <ele>58</ele>
        <time>2022-03-13T09:05:07.000Z</time>
      </trkpt>
      <trkpt lat="47.25197" lon="-2.25927">
        <ele>58.400001525879</ele>
        <time>2022-03-13T09:05:08.000Z</time>
      </trkpt>
      <trkpt lat="47.25206" lon="-2.25934">
        <ele>58.400001525879</ele>
        <time>2022-03-13T09:05:12.000Z</time>
      </trkpt>
      <trkpt lat="47.25224" lon="-2.25956">
        <ele>58.400001525879</ele>
        <time>2022-03-13T09:05:19.000Z</time>
      </trkpt>
      <trkpt lat="47.25235" lon="-2.25981">
        <ele>58.400001525879</ele>
        <time>2022-03-13T09:05:25.000Z</time>
      </trkpt>
      <trkpt lat="47.25247" lon="-2.26006">
        <ele>58.400001525879</ele>
        <time>2022-03-13T09:05:31.000Z</time>
      </trkpt>
      <trkpt lat="47.25253" lon="-2.26021">
        <ele>58.400001525879</ele>
        <time>2022-03-13T09:05:35.000Z</time>
      </trkpt>
      <trkpt lat="47.25256" lon="-2.26021">
        <ele>58.400001525879</ele>
        <time>2022-03-13T09:05:36.000Z</time>
      </trkpt>
      <trkpt lat="47.25265" lon="-2.26021">
        <ele>58.400001525879</ele>
        <time>2022-03-13T09:05:39.000Z</time>
      </trkpt>
      <trkpt lat="47.25271" lon="-2.26022">
        <ele>58.400001525879</ele>
        <time>2022-03-13T09:05:41.000Z</time>
      </trkpt>
      <trkpt lat="47.25285" lon="-2.26026">
        <ele>58.400001525879</ele>
        <time>2022-03-13T09:05:46.000Z</time>
      </trkpt>
      <trkpt lat="47.25293" lon="-2.26026">
        <ele>58.400001525879</ele>
        <time>2022-03-13T09:05:49.000Z</time>
      </trkpt>
      <trkpt lat="47.25297" lon="-2.26027">
        <ele>58.400001525879</ele>
        <time>2022-03-13T09:05:50.000Z</time>
      </trkpt>
      <trkpt lat="47.25309" lon="-2.26033">
        <ele>58.400001525879</ele>
        <time>2022-03-13T09:05:55.000Z</time>
      </trkpt>
      <trkpt lat="47.25329" lon="-2.26037">
        <ele>58.400001525879</ele>
        <time>2022-03-13T09:06:02.000Z</time>
      </trkpt>
      <trkpt lat="47.25339" lon="-2.26033">
        <ele>58</ele>
        <time>2022-03-13T09:06:05.000Z</time>
      </trkpt>
      <trkpt lat="47.25342" lon="-2.26032">
        <ele>57.400001525879</ele>
        <time>2022-03-13T09:06:06.000Z</time>
      </trkpt>
      <trkpt lat="47.25345" lon="-2.2603">
        <ele>57</ele>
        <time>2022-03-13T09:06:07.000Z</time>
      </trkpt>
      <trkpt lat="47.25347" lon="-2.26028">
        <ele>56.599998474121</ele>
        <time>2022-03-13T09:06:08.000Z</time>
      </trkpt>
      <trkpt lat="47.25349" lon="-2.26025">
        <ele>56.200000762939</ele>
        <time>2022-03-13T09:06:09.000Z</time>
      </trkpt>
      <trkpt lat="47.25357" lon="-2.26006">
        <ele>55.799999237061</ele>
        <time>2022-03-13T09:06:13.000Z</time>
      </trkpt>
      <trkpt lat="47.25358" lon="-2.26002">
        <ele>55.200000762939</ele>
        <time>2022-03-13T09:06:14.000Z</time>
      </trkpt>
      <trkpt lat="47.25358" lon="-2.25998">
        <ele>54.799999237061</ele>
        <time>2022-03-13T09:06:15.000Z</time>
      </trkpt>
      <trkpt lat="47.25359" lon="-2.25995">
        <ele>54.400001525879</ele>
        <time>2022-03-13T09:06:16.000Z</time>
      </trkpt>
      <trkpt lat="47.25359" lon="-2.25993">
        <ele>53.799999237061</ele>
        <time>2022-03-13T09:06:17.000Z</time>
      </trkpt>
      <trkpt lat="47.2536" lon="-2.25992">
        <ele>53.799999237061</ele>
        <time>2022-03-13T09:06:18.000Z</time>
      </trkpt>
      <trkpt lat="47.25362" lon="-2.25985">
        <ele>53.799999237061</ele>
        <time>2022-03-13T09:06:22.000Z</time>
      </trkpt>
      <trkpt lat="47.25363" lon="-2.25981">
        <ele>53.400001525879</ele>
        <time>2022-03-13T09:06:24.000Z</time>
      </trkpt>
      <trkpt lat="47.25363" lon="-2.25978">
        <ele>53</ele>
        <time>2022-03-13T09:06:25.000Z</time>
      </trkpt>
      <trkpt lat="47.25363" lon="-2.25976">
        <ele>52.599998474121</ele>
        <time>2022-03-13T09:06:26.000Z</time>
      </trkpt>
      <trkpt lat="47.25363" lon="-2.25973">
        <ele>52.200000762939</ele>
        <time>2022-03-13T09:06:27.000Z</time>
      </trkpt>
      <trkpt lat="47.25364" lon="-2.25969">
        <ele>51.799999237061</ele>
        <time>2022-03-13T09:06:28.000Z</time>
      </trkpt>
      <trkpt lat="47.25365" lon="-2.25962">
        <ele>51.799999237061</ele>
        <time>2022-03-13T09:06:30.000Z</time>
      </trkpt>
      <trkpt lat="47.25366" lon="-2.25958">
        <ele>51.400001525879</ele>
        <time>2022-03-13T09:06:31.000Z</time>
      </trkpt>
      <trkpt lat="47.25367" lon="-2.25954">
        <ele>51</ele>
        <time>2022-03-13T09:06:32.000Z</time>
      </trkpt>
      <trkpt lat="47.25367" lon="-2.25951">
        <ele>50.200000762939</ele>
        <time>2022-03-13T09:06:33.000Z</time>
      </trkpt>
      <trkpt lat="47.25367" lon="-2.25947">
        <ele>49.799999237061</ele>
        <time>2022-03-13T09:06:34.000Z</time>
      </trkpt>
      <trkpt lat="47.25367" lon="-2.25939">
        <ele>49.799999237061</ele>
        <time>2022-03-13T09:06:36.000Z</time>
      </trkpt>
      <trkpt lat="47.25369" lon="-2.25919">
        <ele>49.799999237061</ele>
        <time>2022-03-13T09:06:42.000Z</time>
      </trkpt>
      <trkpt lat="47.25366" lon="-2.25899">
        <ele>49.799999237061</ele>
        <time>2022-03-13T09:06:47.000Z</time>
      </trkpt>
      <trkpt lat="47.25364" lon="-2.25886">
        <ele>49.799999237061</ele>
        <time>2022-03-13T09:06:52.000Z</time>
      </trkpt>
      <trkpt lat="47.25364" lon="-2.25883">
        <ele>50.200000762939</ele>
        <time>2022-03-13T09:06:53.000Z</time>
      </trkpt>
      <trkpt lat="47.25363" lon="-2.2588">
        <ele>50.599998474121</ele>
        <time>2022-03-13T09:06:54.000Z</time>
      </trkpt>
      <trkpt lat="47.25362" lon="-2.25877">
        <ele>51</ele>
        <time>2022-03-13T09:06:55.000Z</time>
      </trkpt>
      <trkpt lat="47.25362" lon="-2.25875">
        <ele>51.400001525879</ele>
        <time>2022-03-13T09:06:56.000Z</time>
      </trkpt>
      <trkpt lat="47.25362" lon="-2.25873">
        <ele>51.799999237061</ele>
        <time>2022-03-13T09:06:57.000Z</time>
      </trkpt>
      <trkpt lat="47.25363" lon="-2.25871">
        <ele>51.799999237061</ele>
        <time>2022-03-13T09:06:58.000Z</time>
      </trkpt>
      <trkpt lat="47.25361" lon="-2.25865">
        <ele>51.799999237061</ele>
        <time>2022-03-13T09:07:01.000Z</time>
      </trkpt>
      <trkpt lat="47.25357" lon="-2.25857">
        <ele>51.400001525879</ele>
        <time>2022-03-13T09:07:04.000Z</time>
      </trkpt>
      <trkpt lat="47.25355" lon="-2.25854">
        <ele>51</ele>
        <time>2022-03-13T09:07:05.000Z</time>
      </trkpt>
      <trkpt lat="47.25354" lon="-2.25851">
        <ele>50.400001525879</ele>
        <time>2022-03-13T09:07:06.000Z</time>
      </trkpt>
      <trkpt lat="47.25353" lon="-2.25847">
        <ele>50</ele>
        <time>2022-03-13T09:07:07.000Z</time>
      </trkpt>
      <trkpt lat="47.25352" lon="-2.25843">
        <ele>49.599998474121</ele>
        <time>2022-03-13T09:07:08.000Z</time>
      </trkpt>
      <trkpt lat="47.25351" lon="-2.25841">
        <ele>49</ele>
        <time>2022-03-13T09:07:09.000Z</time>
      </trkpt>
      <trkpt lat="47.25351" lon="-2.25839">
        <ele>48.599998474121</ele>
        <time>2022-03-13T09:07:10.000Z</time>
      </trkpt>
      <trkpt lat="47.2535" lon="-2.25837">
        <ele>48</ele>
        <time>2022-03-13T09:07:11.000Z</time>
      </trkpt>
      <trkpt lat="47.25352" lon="-2.25834">
        <ele>47.599998474121</ele>
        <time>2022-03-13T09:07:12.000Z</time>
      </trkpt>
      <trkpt lat="47.25353" lon="-2.25831">
        <ele>47.200000762939</ele>
        <time>2022-03-13T09:07:13.000Z</time>
      </trkpt>
      <trkpt lat="47.25354" lon="-2.25828">
        <ele>47.200000762939</ele>
        <time>2022-03-13T09:07:14.000Z</time>
      </trkpt>
      <trkpt lat="47.25354" lon="-2.25824">
        <ele>46.599998474121</ele>
        <time>2022-03-13T09:07:15.000Z</time>
      </trkpt>
      <trkpt lat="47.25354" lon="-2.25819">
        <ele>46.200000762939</ele>
        <time>2022-03-13T09:07:16.000Z</time>
      </trkpt>
      <trkpt lat="47.25354" lon="-2.25816">
        <ele>45.799999237061</ele>
        <time>2022-03-13T09:07:17.000Z</time>
      </trkpt>
      <trkpt lat="47.25353" lon="-2.25812">
        <ele>45.400001525879</ele>
        <time>2022-03-13T09:07:18.000Z</time>
      </trkpt>
      <trkpt lat="47.25353" lon="-2.25807">
        <ele>45</ele>
        <time>2022-03-13T09:07:19.000Z</time>
      </trkpt>
      <trkpt lat="47.25352" lon="-2.25804">
        <ele>45</ele>
        <time>2022-03-13T09:07:20.000Z</time>
      </trkpt>
      <trkpt lat="47.25349" lon="-2.25788">
        <ele>45.400001525879</ele>
        <time>2022-03-13T09:07:26.000Z</time>
      </trkpt>
      <trkpt lat="47.25349" lon="-2.25786">
        <ele>45.799999237061</ele>
        <time>2022-03-13T09:07:27.000Z</time>
      </trkpt>
      <trkpt lat="47.25349" lon="-2.25784">
        <ele>46.200000762939</ele>
        <time>2022-03-13T09:07:28.000Z</time>
      </trkpt>
      <trkpt lat="47.2535" lon="-2.25781">
        <ele>46.599998474121</ele>
        <time>2022-03-13T09:07:29.000Z</time>
      </trkpt>
      <trkpt lat="47.25351" lon="-2.25779">
        <ele>47</ele>
        <time>2022-03-13T09:07:30.000Z</time>
      </trkpt>
      <trkpt lat="47.25352" lon="-2.25771">
        <ele>47</ele>
        <time>2022-03-13T09:07:33.000Z</time>
      </trkpt>
      <trkpt lat="47.25349" lon="-2.25749">
        <ele>47</ele>
        <time>2022-03-13T09:07:38.000Z</time>
      </trkpt>
      <trkpt lat="47.25349" lon="-2.25731">
        <ele>47</ele>
        <time>2022-03-13T09:07:42.000Z</time>
      </trkpt>
      <trkpt lat="47.25349" lon="-2.25725">
        <ele>47</ele>
        <time>2022-03-13T09:07:43.000Z</time>
      </trkpt>
      <trkpt lat="47.25348" lon="-2.25692">
        <ele>47</ele>
        <time>2022-03-13T09:07:49.000Z</time>
      </trkpt>
      <trkpt lat="47.25346" lon="-2.25662">
        <ele>47</ele>
        <time>2022-03-13T09:07:54.000Z</time>
      </trkpt>
      <trkpt lat="47.25342" lon="-2.25633">
        <ele>47</ele>
        <time>2022-03-13T09:07:59.000Z</time>
      </trkpt>
      <trkpt lat="47.25336" lon="-2.25605">
        <ele>47</ele>
        <time>2022-03-13T09:08:04.000Z</time>
      </trkpt>
      <trkpt lat="47.2533" lon="-2.25578">
        <ele>47</ele>
        <time>2022-03-13T09:08:09.000Z</time>
      </trkpt>
      <trkpt lat="47.25326" lon="-2.25541">
        <ele>47</ele>
        <time>2022-03-13T09:08:15.000Z</time>
      </trkpt>
      <trkpt lat="47.25323" lon="-2.25526">
        <ele>46.599998474121</ele>
        <time>2022-03-13T09:08:18.000Z</time>
      </trkpt>
      <trkpt lat="47.25322" lon="-2.25521">
        <ele>46.200000762939</ele>
        <time>2022-03-13T09:08:19.000Z</time>
      </trkpt>
      <trkpt lat="47.25321" lon="-2.25515">
        <ele>45.799999237061</ele>
        <time>2022-03-13T09:08:20.000Z</time>
      </trkpt>
      <trkpt lat="47.2532" lon="-2.2551">
        <ele>45.400001525879</ele>
        <time>2022-03-13T09:08:21.000Z</time>
      </trkpt>
      <trkpt lat="47.2532" lon="-2.25502">
        <ele>44.799999237061</ele>
        <time>2022-03-13T09:08:22.000Z</time>
      </trkpt>
      <trkpt lat="47.25318" lon="-2.25487">
        <ele>44.400001525879</ele>
        <time>2022-03-13T09:08:24.000Z</time>
      </trkpt>
      <trkpt lat="47.25318" lon="-2.2548">
        <ele>43.799999237061</ele>
        <time>2022-03-13T09:08:25.000Z</time>
      </trkpt>
      <trkpt lat="47.25319" lon="-2.2547">
        <ele>43.400001525879</ele>
        <time>2022-03-13T09:08:26.000Z</time>
      </trkpt>
      <trkpt lat="47.2532" lon="-2.25461">
        <ele>42.799999237061</ele>
        <time>2022-03-13T09:08:27.000Z</time>
      </trkpt>
      <trkpt lat="47.2532" lon="-2.25453">
        <ele>42.200000762939</ele>
        <time>2022-03-13T09:08:28.000Z</time>
      </trkpt>
      <trkpt lat="47.25324" lon="-2.25441">
        <ele>41.599998474121</ele>
        <time>2022-03-13T09:08:29.000Z</time>
      </trkpt>
      <trkpt lat="47.25325" lon="-2.25435">
        <ele>41</ele>
        <time>2022-03-13T09:08:30.000Z</time>
      </trkpt>
      <trkpt lat="47.25327" lon="-2.25431">
        <ele>40.400001525879</ele>
        <time>2022-03-13T09:08:31.000Z</time>
      </trkpt>
      <trkpt lat="47.25328" lon="-2.25426">
        <ele>39.799999237061</ele>
        <time>2022-03-13T09:08:32.000Z</time>
      </trkpt>
      <trkpt lat="47.2533" lon="-2.25423">
        <ele>39.200000762939</ele>
        <time>2022-03-13T09:08:33.000Z</time>
      </trkpt>
      <trkpt lat="47.25331" lon="-2.25421">
        <ele>38.599998474121</ele>
        <time>2022-03-13T09:08:34.000Z</time>
      </trkpt>
      <trkpt lat="47.25334" lon="-2.2542">
        <ele>38</ele>
        <time>2022-03-13T09:08:35.000Z</time>
      </trkpt>
      <trkpt lat="47.25336" lon="-2.25421">
        <ele>37.400001525879</ele>
        <time>2022-03-13T09:08:36.000Z</time>
      </trkpt>
      <trkpt lat="47.25337" lon="-2.25423">
        <ele>36.400001525879</ele>
        <time>2022-03-13T09:08:37.000Z</time>
      </trkpt>
      <trkpt lat="47.25338" lon="-2.25425">
        <ele>36</ele>
        <time>2022-03-13T09:08:38.000Z</time>
      </trkpt>
      <trkpt lat="47.25339" lon="-2.25428">
        <ele>35.599998474121</ele>
        <time>2022-03-13T09:08:39.000Z</time>
      </trkpt>
      <trkpt lat="47.25339" lon="-2.25427">
        <ele>35</ele>
        <time>2022-03-13T09:08:40.000Z</time>
      </trkpt>
      <trkpt lat="47.25339" lon="-2.25427">
        <ele>35</ele>
        <time>2022-03-13T09:08:41.000Z</time>
      </trkpt>
      <trkpt lat="47.2534" lon="-2.25432">
        <ele>35</ele>
        <time>2022-03-13T09:09:18.000Z</time>
      </trkpt>
      <trkpt lat="47.2534" lon="-2.25435">
        <ele>35</ele>
        <time>2022-03-13T09:09:19.000Z</time>
      </trkpt>
      <trkpt lat="47.25341" lon="-2.2544">
        <ele>35</ele>
        <time>2022-03-13T09:09:21.000Z</time>
      </trkpt>
      <trkpt lat="47.25343" lon="-2.25447">
        <ele>35</ele>
        <time>2022-03-13T09:09:23.000Z</time>
      </trkpt>
      <trkpt lat="47.25348" lon="-2.25455">
        <ele>35</ele>
        <time>2022-03-13T09:09:26.000Z</time>
      </trkpt>
      <trkpt lat="47.25361" lon="-2.25468">
        <ele>35</ele>
        <time>2022-03-13T09:09:32.000Z</time>
      </trkpt>
      <trkpt lat="47.25379" lon="-2.25488">
        <ele>35</ele>
        <time>2022-03-13T09:09:37.000Z</time>
      </trkpt>
      <trkpt lat="47.25396" lon="-2.25496">
        <ele>35</ele>
        <time>2022-03-13T09:09:42.000Z</time>
      </trkpt>
      <trkpt lat="47.25405" lon="-2.25506">
        <ele>35.400001525879</ele>
        <time>2022-03-13T09:09:46.000Z</time>
      </trkpt>
      <trkpt lat="47.25408" lon="-2.25508">
        <ele>35.799999237061</ele>
        <time>2022-03-13T09:09:47.000Z</time>
      </trkpt>
      <trkpt lat="47.2541" lon="-2.2551">
        <ele>36.200000762939</ele>
        <time>2022-03-13T09:09:48.000Z</time>
      </trkpt>
      <trkpt lat="47.25413" lon="-2.25512">
        <ele>36.599998474121</ele>
        <time>2022-03-13T09:09:49.000Z</time>
      </trkpt>
      <trkpt lat="47.25415" lon="-2.25514">
        <ele>37</ele>
        <time>2022-03-13T09:09:50.000Z</time>
      </trkpt>
      <trkpt lat="47.25426" lon="-2.25521">
        <ele>37</ele>
        <time>2022-03-13T09:09:55.000Z</time>
      </trkpt>
      <trkpt lat="47.25428" lon="-2.25522">
        <ele>37.400001525879</ele>
        <time>2022-03-13T09:09:56.000Z</time>
      </trkpt>
      <trkpt lat="47.2543" lon="-2.25524">
        <ele>38</ele>
        <time>2022-03-13T09:09:57.000Z</time>
      </trkpt>
      <trkpt lat="47.25432" lon="-2.25527">
        <ele>38.400001525879</ele>
        <time>2022-03-13T09:09:58.000Z</time>
      </trkpt>
      <trkpt lat="47.25433" lon="-2.2553">
        <ele>38.799999237061</ele>
        <time>2022-03-13T09:09:59.000Z</time>
      </trkpt>
      <trkpt lat="47.25435" lon="-2.25533">
        <ele>39.200000762939</ele>
        <time>2022-03-13T09:10:00.000Z</time>
      </trkpt>
      <trkpt lat="47.25441" lon="-2.25539">
        <ele>39.599998474121</ele>
        <time>2022-03-13T09:10:03.000Z</time>
      </trkpt>
      <trkpt lat="47.25443" lon="-2.25541">
        <ele>40</ele>
        <time>2022-03-13T09:10:04.000Z</time>
      </trkpt>
      <trkpt lat="47.25446" lon="-2.25545">
        <ele>40.400001525879</ele>
        <time>2022-03-13T09:10:05.000Z</time>
      </trkpt>
      <trkpt lat="47.25448" lon="-2.25549">
        <ele>40.799999237061</ele>
        <time>2022-03-13T09:10:06.000Z</time>
      </trkpt>
      <trkpt lat="47.2545" lon="-2.25554">
        <ele>41.200000762939</ele>
        <time>2022-03-13T09:10:07.000Z</time>
      </trkpt>
      <trkpt lat="47.25455" lon="-2.2557">
        <ele>41.200000762939</ele>
        <time>2022-03-13T09:10:11.000Z</time>
      </trkpt>
      <trkpt lat="47.25456" lon="-2.25574">
        <ele>41.599998474121</ele>
        <time>2022-03-13T09:10:12.000Z</time>
      </trkpt>
      <trkpt lat="47.25458" lon="-2.25577">
        <ele>42</ele>
        <time>2022-03-13T09:10:13.000Z</time>
      </trkpt>
      <trkpt lat="47.25459" lon="-2.25581">
        <ele>42.400001525879</ele>
        <time>2022-03-13T09:10:14.000Z</time>
      </trkpt>
      <trkpt lat="47.2546" lon="-2.25585">
        <ele>42.799999237061</ele>
        <time>2022-03-13T09:10:15.000Z</time>
      </trkpt>
      <trkpt lat="47.2546" lon="-2.25588">
        <ele>43.400001525879</ele>
        <time>2022-03-13T09:10:16.000Z</time>
      </trkpt>
      <trkpt lat="47.25461" lon="-2.2561">
        <ele>43.400001525879</ele>
        <time>2022-03-13T09:10:22.000Z</time>
      </trkpt>
      <trkpt lat="47.25465" lon="-2.25629">
        <ele>43.400001525879</ele>
        <time>2022-03-13T09:10:28.000Z</time>
      </trkpt>
      <trkpt lat="47.2547" lon="-2.25643">
        <ele>43.400001525879</ele>
        <time>2022-03-13T09:10:33.000Z</time>
      </trkpt>
      <trkpt lat="47.25471" lon="-2.25648">
        <ele>43.400001525879</ele>
        <time>2022-03-13T09:10:35.000Z</time>
      </trkpt>
      <trkpt lat="47.25469" lon="-2.25654">
        <ele>43.400001525879</ele>
        <time>2022-03-13T09:10:37.000Z</time>
      </trkpt>
      <trkpt lat="47.25463" lon="-2.25663">
        <ele>43.400001525879</ele>
        <time>2022-03-13T09:10:40.000Z</time>
      </trkpt>
      <trkpt lat="47.25461" lon="-2.25665">
        <ele>43.400001525879</ele>
        <time>2022-03-13T09:10:41.000Z</time>
      </trkpt>
      <trkpt lat="47.25458" lon="-2.25665">
        <ele>43.400001525879</ele>
        <time>2022-03-13T09:10:42.000Z</time>
      </trkpt>
      <trkpt lat="47.2545" lon="-2.25667">
        <ele>43.400001525879</ele>
        <time>2022-03-13T09:10:46.000Z</time>
      </trkpt>
      <trkpt lat="47.2544" lon="-2.25665">
        <ele>42.799999237061</ele>
        <time>2022-03-13T09:10:48.000Z</time>
      </trkpt>
      <trkpt lat="47.25435" lon="-2.25663">
        <ele>42.400001525879</ele>
        <time>2022-03-13T09:10:49.000Z</time>
      </trkpt>
      <trkpt lat="47.25431" lon="-2.25659">
        <ele>42</ele>
        <time>2022-03-13T09:10:50.000Z</time>
      </trkpt>
      <trkpt lat="47.25427" lon="-2.25657">
        <ele>41.599998474121</ele>
        <time>2022-03-13T09:10:51.000Z</time>
      </trkpt>
      <trkpt lat="47.25423" lon="-2.25657">
        <ele>41.200000762939</ele>
        <time>2022-03-13T09:10:52.000Z</time>
      </trkpt>
      <trkpt lat="47.25419" lon="-2.25658">
        <ele>41.200000762939</ele>
        <time>2022-03-13T09:10:53.000Z</time>
      </trkpt>
      <trkpt lat="47.25406" lon="-2.25669">
        <ele>41.200000762939</ele>
        <time>2022-03-13T09:10:56.000Z</time>
      </trkpt>
      <trkpt lat="47.25401" lon="-2.25671">
        <ele>41.200000762939</ele>
        <time>2022-03-13T09:10:57.000Z</time>
      </trkpt>
      <trkpt lat="47.25397" lon="-2.25675">
        <ele>41.200000762939</ele>
        <time>2022-03-13T09:10:58.000Z</time>
      </trkpt>
      <trkpt lat="47.25394" lon="-2.2568">
        <ele>40.599998474121</ele>
        <time>2022-03-13T09:10:59.000Z</time>
      </trkpt>
      <trkpt lat="47.25393" lon="-2.25684">
        <ele>40.200000762939</ele>
        <time>2022-03-13T09:11:00.000Z</time>
      </trkpt>
      <trkpt lat="47.25393" lon="-2.25688">
        <ele>39.799999237061</ele>
        <time>2022-03-13T09:11:01.000Z</time>
      </trkpt>
      <trkpt lat="47.25393" lon="-2.25692">
        <ele>39.400001525879</ele>
        <time>2022-03-13T09:11:02.000Z</time>
      </trkpt>
      <trkpt lat="47.25394" lon="-2.25694">
        <ele>38.799999237061</ele>
        <time>2022-03-13T09:11:03.000Z</time>
      </trkpt>
      <trkpt lat="47.25403" lon="-2.25693">
        <ele>38.799999237061</ele>
        <time>2022-03-13T09:11:06.000Z</time>
      </trkpt>
      <trkpt lat="47.25419" lon="-2.2569">
        <ele>38.799999237061</ele>
        <time>2022-03-13T09:11:12.000Z</time>
      </trkpt>
      <trkpt lat="47.2543" lon="-2.25686">
        <ele>38.799999237061</ele>
        <time>2022-03-13T09:11:17.000Z</time>
      </trkpt>
      <trkpt lat="47.25435" lon="-2.25688">
        <ele>39.400001525879</ele>
        <time>2022-03-13T09:11:19.000Z</time>
      </trkpt>
      <trkpt lat="47.25438" lon="-2.25689">
        <ele>39.799999237061</ele>
        <time>2022-03-13T09:11:20.000Z</time>
      </trkpt>
      <trkpt lat="47.25441" lon="-2.25692">
        <ele>40.200000762939</ele>
        <time>2022-03-13T09:11:21.000Z</time>
      </trkpt>
      <trkpt lat="47.25443" lon="-2.25695">
        <ele>40.599998474121</ele>
        <time>2022-03-13T09:11:22.000Z</time>
      </trkpt>
      <trkpt lat="47.25445" lon="-2.25696">
        <ele>41</ele>
        <time>2022-03-13T09:11:23.000Z</time>
      </trkpt>
      <trkpt lat="47.2545" lon="-2.25702">
        <ele>41.400001525879</ele>
        <time>2022-03-13T09:11:26.000Z</time>
      </trkpt>
      <trkpt lat="47.25451" lon="-2.25705">
        <ele>41.799999237061</ele>
        <time>2022-03-13T09:11:27.000Z</time>
      </trkpt>
      <trkpt lat="47.25452" lon="-2.25708">
        <ele>42.200000762939</ele>
        <time>2022-03-13T09:11:28.000Z</time>
      </trkpt>
      <trkpt lat="47.25453" lon="-2.25711">
        <ele>42.599998474121</ele>
        <time>2022-03-13T09:11:29.000Z</time>
      </trkpt>
      <trkpt lat="47.25454" lon="-2.25714">
        <ele>43</ele>
        <time>2022-03-13T09:11:30.000Z</time>
      </trkpt>
      <trkpt lat="47.25456" lon="-2.25722">
        <ele>43.599998474121</ele>
        <time>2022-03-13T09:11:33.000Z</time>
      </trkpt>
      <trkpt lat="47.25457" lon="-2.25725">
        <ele>44</ele>
        <time>2022-03-13T09:11:34.000Z</time>
      </trkpt>
      <trkpt lat="47.25458" lon="-2.25728">
        <ele>44.400001525879</ele>
        <time>2022-03-13T09:11:35.000Z</time>
      </trkpt>
      <trkpt lat="47.25458" lon="-2.25731">
        <ele>45</ele>
        <time>2022-03-13T09:11:36.000Z</time>
      </trkpt>
      <trkpt lat="47.25458" lon="-2.25735">
        <ele>45.400001525879</ele>
        <time>2022-03-13T09:11:37.000Z</time>
      </trkpt>
      <trkpt lat="47.25459" lon="-2.25753">
        <ele>45.799999237061</ele>
        <time>2022-03-13T09:11:42.000Z</time>
      </trkpt>
      <trkpt lat="47.25459" lon="-2.25756">
        <ele>46.200000762939</ele>
        <time>2022-03-13T09:11:43.000Z</time>
      </trkpt>
      <trkpt lat="47.25459" lon="-2.25758">
        <ele>46.599998474121</ele>
        <time>2022-03-13T09:11:44.000Z</time>
      </trkpt>
      <trkpt lat="47.25459" lon="-2.2576">
        <ele>47</ele>
        <time>2022-03-13T09:11:45.000Z</time>
      </trkpt>
      <trkpt lat="47.25459" lon="-2.25762">
        <ele>47.599998474121</ele>
        <time>2022-03-13T09:11:46.000Z</time>
      </trkpt>
      <trkpt lat="47.2546" lon="-2.25767">
        <ele>47.599998474121</ele>
        <time>2022-03-13T09:11:49.000Z</time>
      </trkpt>
      <trkpt lat="47.2546" lon="-2.25768">
        <ele>47.599998474121</ele>
        <time>2022-03-13T09:11:50.000Z</time>
      </trkpt>
      <trkpt lat="47.25463" lon="-2.25808">
        <ele>49.599998474121</ele>
        <time>2022-03-13T09:13:03.000Z</time>
      </trkpt>
      <trkpt lat="47.2546" lon="-2.25808">
        <ele>49.599998474121</ele>
        <time>2022-03-13T09:13:05.000Z</time>
      </trkpt>
      <trkpt lat="47.25452" lon="-2.2581">
        <ele>49.200000762939</ele>
        <time>2022-03-13T09:13:09.000Z</time>
      </trkpt>
      <trkpt lat="47.25451" lon="-2.25812">
        <ele>48.799999237061</ele>
        <time>2022-03-13T09:13:10.000Z</time>
      </trkpt>
      <trkpt lat="47.2545" lon="-2.25814">
        <ele>48.200000762939</ele>
        <time>2022-03-13T09:13:11.000Z</time>
      </trkpt>
      <trkpt lat="47.2545" lon="-2.25816">
        <ele>47.799999237061</ele>
        <time>2022-03-13T09:13:12.000Z</time>
      </trkpt>
      <trkpt lat="47.2545" lon="-2.25818">
        <ele>47.400001525879</ele>
        <time>2022-03-13T09:13:13.000Z</time>
      </trkpt>
      <trkpt lat="47.25447" lon="-2.25829">
        <ele>47.400001525879</ele>
        <time>2022-03-13T09:13:16.000Z</time>
      </trkpt>
      <trkpt lat="47.25437" lon="-2.25863">
        <ele>47.400001525879</ele>
        <time>2022-03-13T09:13:22.000Z</time>
      </trkpt>
      <trkpt lat="47.25434" lon="-2.25869">
        <ele>46.799999237061</ele>
        <time>2022-03-13T09:13:23.000Z</time>
      </trkpt>
      <trkpt lat="47.25432" lon="-2.25873">
        <ele>46.400001525879</ele>
        <time>2022-03-13T09:13:24.000Z</time>
      </trkpt>
      <trkpt lat="47.2543" lon="-2.25877">
        <ele>46</ele>
        <time>2022-03-13T09:13:25.000Z</time>
      </trkpt>
      <trkpt lat="47.25429" lon="-2.25881">
        <ele>45.599998474121</ele>
        <time>2022-03-13T09:13:26.000Z</time>
      </trkpt>
      <trkpt lat="47.25429" lon="-2.25883">
        <ele>45.200000762939</ele>
        <time>2022-03-13T09:13:27.000Z</time>
      </trkpt>
      <trkpt lat="47.25429" lon="-2.25888">
        <ele>45.200000762939</ele>
        <time>2022-03-13T09:13:28.000Z</time>
      </trkpt>
      <trkpt lat="47.25431" lon="-2.25905">
        <ele>45.200000762939</ele>
        <time>2022-03-13T09:13:32.000Z</time>
      </trkpt>
      <trkpt lat="47.25431" lon="-2.25918">
        <ele>45.200000762939</ele>
        <time>2022-03-13T09:13:36.000Z</time>
      </trkpt>
      <trkpt lat="47.2543" lon="-2.2592">
        <ele>45.200000762939</ele>
        <time>2022-03-13T09:13:37.000Z</time>
      </trkpt>
      <trkpt lat="47.25423" lon="-2.25935">
        <ele>45.200000762939</ele>
        <time>2022-03-13T09:13:41.000Z</time>
      </trkpt>
      <trkpt lat="47.25421" lon="-2.25939">
        <ele>45.200000762939</ele>
        <time>2022-03-13T09:13:42.000Z</time>
      </trkpt>
      <trkpt lat="47.25411" lon="-2.2595">
        <ele>44.799999237061</ele>
        <time>2022-03-13T09:13:46.000Z</time>
      </trkpt>
      <trkpt lat="47.2541" lon="-2.25953">
        <ele>44.400001525879</ele>
        <time>2022-03-13T09:13:47.000Z</time>
      </trkpt>
      <trkpt lat="47.25409" lon="-2.25957">
        <ele>44</ele>
        <time>2022-03-13T09:13:48.000Z</time>
      </trkpt>
      <trkpt lat="47.25407" lon="-2.25962">
        <ele>43.599998474121</ele>
        <time>2022-03-13T09:13:49.000Z</time>
      </trkpt>
      <trkpt lat="47.25404" lon="-2.25966">
        <ele>43.200000762939</ele>
        <time>2022-03-13T09:13:50.000Z</time>
      </trkpt>
      <trkpt lat="47.25397" lon="-2.25985">
        <ele>43.200000762939</ele>
        <time>2022-03-13T09:13:54.000Z</time>
      </trkpt>
      <trkpt lat="47.25395" lon="-2.25986">
        <ele>43.200000762939</ele>
        <time>2022-03-13T09:13:55.000Z</time>
      </trkpt>
      <trkpt lat="47.25391" lon="-2.25992">
        <ele>44</ele>
        <time>2022-03-13T09:13:58.000Z</time>
      </trkpt>
      <trkpt lat="47.25391" lon="-2.25995">
        <ele>44.400001525879</ele>
        <time>2022-03-13T09:13:59.000Z</time>
      </trkpt>
      <trkpt lat="47.25391" lon="-2.25999">
        <ele>44.799999237061</ele>
        <time>2022-03-13T09:14:00.000Z</time>
      </trkpt>
      <trkpt lat="47.25391" lon="-2.26004">
        <ele>45.200000762939</ele>
        <time>2022-03-13T09:14:01.000Z</time>
      </trkpt>
      <trkpt lat="47.25391" lon="-2.26008">
        <ele>45.599998474121</ele>
        <time>2022-03-13T09:14:02.000Z</time>
      </trkpt>
      <trkpt lat="47.2539" lon="-2.26011">
        <ele>46.200000762939</ele>
        <time>2022-03-13T09:14:03.000Z</time>
      </trkpt>
      <trkpt lat="47.2539" lon="-2.26013">
        <ele>46.599998474121</ele>
        <time>2022-03-13T09:14:04.000Z</time>
      </trkpt>
      <trkpt lat="47.25389" lon="-2.26015">
        <ele>47</ele>
        <time>2022-03-13T09:14:05.000Z</time>
      </trkpt>
      <trkpt lat="47.25389" lon="-2.26017">
        <ele>47.400001525879</ele>
        <time>2022-03-13T09:14:06.000Z</time>
      </trkpt>
      <trkpt lat="47.25389" lon="-2.2602">
        <ele>48</ele>
        <time>2022-03-13T09:14:07.000Z</time>
      </trkpt>
      <trkpt lat="47.25388" lon="-2.26023">
        <ele>48.400001525879</ele>
        <time>2022-03-13T09:14:08.000Z</time>
      </trkpt>
      <trkpt lat="47.25387" lon="-2.26026">
        <ele>48.799999237061</ele>
        <time>2022-03-13T09:14:09.000Z</time>
      </trkpt>
      <trkpt lat="47.25386" lon="-2.2603">
        <ele>49.400001525879</ele>
        <time>2022-03-13T09:14:10.000Z</time>
      </trkpt>
      <trkpt lat="47.25386" lon="-2.26034">
        <ele>49.799999237061</ele>
        <time>2022-03-13T09:14:11.000Z</time>
      </trkpt>
      <trkpt lat="47.25385" lon="-2.26047">
        <ele>49.799999237061</ele>
        <time>2022-03-13T09:14:15.000Z</time>
      </trkpt>
      <trkpt lat="47.25385" lon="-2.26069">
        <ele>49.799999237061</ele>
        <time>2022-03-13T09:14:20.000Z</time>
      </trkpt>
      <trkpt lat="47.25387" lon="-2.26087">
        <ele>49.799999237061</ele>
        <time>2022-03-13T09:14:24.000Z</time>
      </trkpt>
      <trkpt lat="47.25386" lon="-2.26091">
        <ele>49.799999237061</ele>
        <time>2022-03-13T09:14:25.000Z</time>
      </trkpt>
      <trkpt lat="47.25381" lon="-2.26098">
        <ele>49.799999237061</ele>
        <time>2022-03-13T09:14:28.000Z</time>
      </trkpt>
      <trkpt lat="47.25379" lon="-2.26099">
        <ele>50.200000762939</ele>
        <time>2022-03-13T09:14:29.000Z</time>
      </trkpt>
      <trkpt lat="47.25378" lon="-2.26101">
        <ele>50.799999237061</ele>
        <time>2022-03-13T09:14:30.000Z</time>
      </trkpt>
      <trkpt lat="47.25377" lon="-2.26103">
        <ele>51.200000762939</ele>
        <time>2022-03-13T09:14:31.000Z</time>
      </trkpt>
      <trkpt lat="47.25376" lon="-2.26107">
        <ele>51.599998474121</ele>
        <time>2022-03-13T09:14:32.000Z</time>
      </trkpt>
      <trkpt lat="47.25376" lon="-2.26112">
        <ele>52</ele>
        <time>2022-03-13T09:14:33.000Z</time>
      </trkpt>
      <trkpt lat="47.25372" lon="-2.26126">
        <ele>52</ele>
        <time>2022-03-13T09:14:36.000Z</time>
      </trkpt>
      <trkpt lat="47.2537" lon="-2.26135">
        <ele>52.599998474121</ele>
        <time>2022-03-13T09:14:38.000Z</time>
      </trkpt>
      <trkpt lat="47.2537" lon="-2.26141">
        <ele>53</ele>
        <time>2022-03-13T09:14:39.000Z</time>
      </trkpt>
      <trkpt lat="47.2537" lon="-2.26145">
        <ele>53.400001525879</ele>
        <time>2022-03-13T09:14:40.000Z</time>
      </trkpt>
      <trkpt lat="47.2537" lon="-2.26148">
        <ele>53.799999237061</ele>
        <time>2022-03-13T09:14:41.000Z</time>
      </trkpt>
      <trkpt lat="47.2537" lon="-2.26151">
        <ele>54.200000762939</ele>
        <time>2022-03-13T09:14:42.000Z</time>
      </trkpt>
      <trkpt lat="47.25369" lon="-2.26157">
        <ele>54.200000762939</ele>
        <time>2022-03-13T09:14:44.000Z</time>
      </trkpt>
      <trkpt lat="47.25372" lon="-2.2617">
        <ele>55</ele>
        <time>2022-03-13T09:14:48.000Z</time>
      </trkpt>
      <trkpt lat="47.25372" lon="-2.26173">
        <ele>55.599998474121</ele>
        <time>2022-03-13T09:14:49.000Z</time>
      </trkpt>
      <trkpt lat="47.25373" lon="-2.26177">
        <ele>56</ele>
        <time>2022-03-13T09:14:50.000Z</time>
      </trkpt>
      <trkpt lat="47.25374" lon="-2.26181">
        <ele>56.400001525879</ele>
        <time>2022-03-13T09:14:51.000Z</time>
      </trkpt>
      <trkpt lat="47.25378" lon="-2.26193">
        <ele>56.400001525879</ele>
        <time>2022-03-13T09:14:54.000Z</time>
      </trkpt>
      <trkpt lat="47.25388" lon="-2.26215">
        <ele>56.400001525879</ele>
        <time>2022-03-13T09:15:00.000Z</time>
      </trkpt>
      <trkpt lat="47.25391" lon="-2.26236">
        <ele>56.400001525879</ele>
        <time>2022-03-13T09:15:05.000Z</time>
      </trkpt>
      <trkpt lat="47.25389" lon="-2.26247">
        <ele>56.799999237061</ele>
        <time>2022-03-13T09:15:09.000Z</time>
      </trkpt>
      <trkpt lat="47.25388" lon="-2.26251">
        <ele>57.400001525879</ele>
        <time>2022-03-13T09:15:10.000Z</time>
      </trkpt>
      <trkpt lat="47.25388" lon="-2.26255">
        <ele>57.799999237061</ele>
        <time>2022-03-13T09:15:11.000Z</time>
      </trkpt>
      <trkpt lat="47.25387" lon="-2.26259">
        <ele>58.400001525879</ele>
        <time>2022-03-13T09:15:12.000Z</time>
      </trkpt>
      <trkpt lat="47.25388" lon="-2.26262">
        <ele>58.799999237061</ele>
        <time>2022-03-13T09:15:13.000Z</time>
      </trkpt>
      <trkpt lat="47.25392" lon="-2.26277">
        <ele>58.799999237061</ele>
        <time>2022-03-13T09:15:17.000Z</time>
      </trkpt>
      <trkpt lat="47.25395" lon="-2.26299">
        <ele>58.799999237061</ele>
        <time>2022-03-13T09:15:22.000Z</time>
      </trkpt>
      <trkpt lat="47.25397" lon="-2.26305">
        <ele>58.799999237061</ele>
        <time>2022-03-13T09:15:24.000Z</time>
      </trkpt>
      <trkpt lat="47.254" lon="-2.26313">
        <ele>58.799999237061</ele>
        <time>2022-03-13T09:15:26.000Z</time>
      </trkpt>
      <trkpt lat="47.25404" lon="-2.26336">
        <ele>58.799999237061</ele>
        <time>2022-03-13T09:15:31.000Z</time>
      </trkpt>
      <trkpt lat="47.25406" lon="-2.26344">
        <ele>58.799999237061</ele>
        <time>2022-03-13T09:15:33.000Z</time>
      </trkpt>
      <trkpt lat="47.25411" lon="-2.26349">
        <ele>58.799999237061</ele>
        <time>2022-03-13T09:15:35.000Z</time>
      </trkpt>
      <trkpt lat="47.25413" lon="-2.26354">
        <ele>58.799999237061</ele>
        <time>2022-03-13T09:15:36.000Z</time>
      </trkpt>
      <trkpt lat="47.25413" lon="-2.26368">
        <ele>58.799999237061</ele>
        <time>2022-03-13T09:15:38.000Z</time>
      </trkpt>
      <trkpt lat="47.25409" lon="-2.26384">
        <ele>58.799999237061</ele>
        <time>2022-03-13T09:15:41.000Z</time>
      </trkpt>
      <trkpt lat="47.25404" lon="-2.26408">
        <ele>58.799999237061</ele>
        <time>2022-03-13T09:15:46.000Z</time>
      </trkpt>
      <trkpt lat="47.25404" lon="-2.26418">
        <ele>59.200000762939</ele>
        <time>2022-03-13T09:15:49.000Z</time>
      </trkpt>
      <trkpt lat="47.25404" lon="-2.26421">
        <ele>59.599998474121</ele>
        <time>2022-03-13T09:15:50.000Z</time>
      </trkpt>
      <trkpt lat="47.25404" lon="-2.26425">
        <ele>60.200000762939</ele>
        <time>2022-03-13T09:15:51.000Z</time>
      </trkpt>
      <trkpt lat="47.25404" lon="-2.2643">
        <ele>60.599998474121</ele>
        <time>2022-03-13T09:15:52.000Z</time>
      </trkpt>
      <trkpt lat="47.25404" lon="-2.26436">
        <ele>61</ele>
        <time>2022-03-13T09:15:53.000Z</time>
      </trkpt>
      <trkpt lat="47.25406" lon="-2.2645">
        <ele>61</ele>
        <time>2022-03-13T09:15:56.000Z</time>
      </trkpt>
      <trkpt lat="47.25413" lon="-2.26477">
        <ele>61</ele>
        <time>2022-03-13T09:16:02.000Z</time>
      </trkpt>
      <trkpt lat="47.25415" lon="-2.2649">
        <ele>61.400001525879</ele>
        <time>2022-03-13T09:16:05.000Z</time>
      </trkpt>
      <trkpt lat="47.25415" lon="-2.26495">
        <ele>61.799999237061</ele>
        <time>2022-03-13T09:16:06.000Z</time>
      </trkpt>
      <trkpt lat="47.25417" lon="-2.26498">
        <ele>62.200000762939</ele>
        <time>2022-03-13T09:16:07.000Z</time>
      </trkpt>
      <trkpt lat="47.25418" lon="-2.26502">
        <ele>62.599998474121</ele>
        <time>2022-03-13T09:16:08.000Z</time>
      </trkpt>
      <trkpt lat="47.25419" lon="-2.26506">
        <ele>63</ele>
        <time>2022-03-13T09:16:09.000Z</time>
      </trkpt>
      <trkpt lat="47.25426" lon="-2.26518">
        <ele>63</ele>
        <time>2022-03-13T09:16:12.000Z</time>
      </trkpt>
      <trkpt lat="47.2543" lon="-2.2652">
        <ele>63</ele>
        <time>2022-03-13T09:16:13.000Z</time>
      </trkpt>
      <trkpt lat="47.2544" lon="-2.26515">
        <ele>63</ele>
        <time>2022-03-13T09:16:16.000Z</time>
      </trkpt>
      <trkpt lat="47.2546" lon="-2.26514">
        <ele>63</ele>
        <time>2022-03-13T09:16:22.000Z</time>
      </trkpt>
      <trkpt lat="47.25476" lon="-2.26532">
        <ele>63</ele>
        <time>2022-03-13T09:16:27.000Z</time>
      </trkpt>
      <trkpt lat="47.25485" lon="-2.26557">
        <ele>63</ele>
        <time>2022-03-13T09:16:32.000Z</time>
      </trkpt>
      <trkpt lat="47.25488" lon="-2.26579">
        <ele>63</ele>
        <time>2022-03-13T09:16:36.000Z</time>
      </trkpt>
      <trkpt lat="47.25488" lon="-2.2659">
        <ele>63</ele>
        <time>2022-03-13T09:16:38.000Z</time>
      </trkpt>
      <trkpt lat="47.25487" lon="-2.26639">
        <ele>63</ele>
        <time>2022-03-13T09:16:45.000Z</time>
      </trkpt>
      <trkpt lat="47.25486" lon="-2.26676">
        <ele>63</ele>
        <time>2022-03-13T09:16:51.000Z</time>
      </trkpt>
      <trkpt lat="47.25479" lon="-2.26699">
        <ele>63</ele>
        <time>2022-03-13T09:16:56.000Z</time>
      </trkpt>
      <trkpt lat="47.25477" lon="-2.26718">
        <ele>63.599998474121</ele>
        <time>2022-03-13T09:17:00.000Z</time>
      </trkpt>
      <trkpt lat="47.25478" lon="-2.26723">
        <ele>64</ele>
        <time>2022-03-13T09:17:01.000Z</time>
      </trkpt>
      <trkpt lat="47.25478" lon="-2.26728">
        <ele>64.400001525879</ele>
        <time>2022-03-13T09:17:02.000Z</time>
      </trkpt>
      <trkpt lat="47.25479" lon="-2.26734">
        <ele>64.800003051758</ele>
        <time>2022-03-13T09:17:03.000Z</time>
      </trkpt>
      <trkpt lat="47.2548" lon="-2.26739">
        <ele>65.199996948242</ele>
        <time>2022-03-13T09:17:04.000Z</time>
      </trkpt>
      <trkpt lat="47.25485" lon="-2.26748">
        <ele>65.199996948242</ele>
        <time>2022-03-13T09:17:06.000Z</time>
      </trkpt>
      <trkpt lat="47.25502" lon="-2.26777">
        <ele>65.599998474121</ele>
        <time>2022-03-13T09:17:12.000Z</time>
      </trkpt>
      <trkpt lat="47.25505" lon="-2.26782">
        <ele>66</ele>
        <time>2022-03-13T09:17:13.000Z</time>
      </trkpt>
      <trkpt lat="47.25508" lon="-2.26786">
        <ele>66.599998474121</ele>
        <time>2022-03-13T09:17:14.000Z</time>
      </trkpt>
      <trkpt lat="47.25511" lon="-2.26791">
        <ele>67</ele>
        <time>2022-03-13T09:17:15.000Z</time>
      </trkpt>
      <trkpt lat="47.25514" lon="-2.26795">
        <ele>67.400001525879</ele>
        <time>2022-03-13T09:17:16.000Z</time>
      </trkpt>
      <trkpt lat="47.25524" lon="-2.26808">
        <ele>67.400001525879</ele>
        <time>2022-03-13T09:17:19.000Z</time>
      </trkpt>
      <trkpt lat="47.25551" lon="-2.26836">
        <ele>67.400001525879</ele>
        <time>2022-03-13T09:17:27.000Z</time>
      </trkpt>
      <trkpt lat="47.25554" lon="-2.26839">
        <ele>67.800003051758</ele>
        <time>2022-03-13T09:17:28.000Z</time>
      </trkpt>
      <trkpt lat="47.25557" lon="-2.26841">
        <ele>68.199996948242</ele>
        <time>2022-03-13T09:17:29.000Z</time>
      </trkpt>
      <trkpt lat="47.25561" lon="-2.26843">
        <ele>68.599998474121</ele>
        <time>2022-03-13T09:17:30.000Z</time>
      </trkpt>
      <trkpt lat="47.25563" lon="-2.26846">
        <ele>69</ele>
        <time>2022-03-13T09:17:31.000Z</time>
      </trkpt>
      <trkpt lat="47.25567" lon="-2.26849">
        <ele>69.400001525879</ele>
        <time>2022-03-13T09:17:32.000Z</time>
      </trkpt>
      <trkpt lat="47.25574" lon="-2.26855">
        <ele>69.400001525879</ele>
        <time>2022-03-13T09:17:34.000Z</time>
      </trkpt>
      <trkpt lat="47.25589" lon="-2.26862">
        <ele>69.800003051758</ele>
        <time>2022-03-13T09:17:38.000Z</time>
      </trkpt>
      <trkpt lat="47.25593" lon="-2.26864">
        <ele>70.400001525879</ele>
        <time>2022-03-13T09:17:39.000Z</time>
      </trkpt>
      <trkpt lat="47.25597" lon="-2.26866">
        <ele>70.800003051758</ele>
        <time>2022-03-13T09:17:40.000Z</time>
      </trkpt>
      <trkpt lat="47.25601" lon="-2.26867">
        <ele>71.800003051758</ele>
        <time>2022-03-13T09:17:41.000Z</time>
      </trkpt>
      <trkpt lat="47.25615" lon="-2.26871">
        <ele>71.800003051758</ele>
        <time>2022-03-13T09:17:45.000Z</time>
      </trkpt>
      <trkpt lat="47.25621" lon="-2.26875">
        <ele>72.199996948242</ele>
        <time>2022-03-13T09:17:47.000Z</time>
      </trkpt>
      <trkpt lat="47.25625" lon="-2.26875">
        <ele>72.599998474121</ele>
        <time>2022-03-13T09:17:48.000Z</time>
      </trkpt>
      <trkpt lat="47.25629" lon="-2.26874">
        <ele>73</ele>
        <time>2022-03-13T09:17:49.000Z</time>
      </trkpt>
      <trkpt lat="47.25631" lon="-2.26871">
        <ele>73.400001525879</ele>
        <time>2022-03-13T09:17:50.000Z</time>
      </trkpt>
      <trkpt lat="47.25634" lon="-2.26867">
        <ele>74</ele>
        <time>2022-03-13T09:17:51.000Z</time>
      </trkpt>
      <trkpt lat="47.25644" lon="-2.26845">
        <ele>74</ele>
        <time>2022-03-13T09:17:55.000Z</time>
      </trkpt>
      <trkpt lat="47.25653" lon="-2.26831">
        <ele>74</ele>
        <time>2022-03-13T09:17:58.000Z</time>
      </trkpt>
      <trkpt lat="47.25659" lon="-2.26824">
        <ele>74</ele>
        <time>2022-03-13T09:18:00.000Z</time>
      </trkpt>
      <trkpt lat="47.25663" lon="-2.26821">
        <ele>74</ele>
        <time>2022-03-13T09:18:01.000Z</time>
      </trkpt>
      <trkpt lat="47.25683" lon="-2.26815">
        <ele>74</ele>
        <time>2022-03-13T09:18:06.000Z</time>
      </trkpt>
      <trkpt lat="47.25687" lon="-2.26816">
        <ele>74</ele>
        <time>2022-03-13T09:18:07.000Z</time>
      </trkpt>
      <trkpt lat="47.25703" lon="-2.26818">
        <ele>74</ele>
        <time>2022-03-13T09:18:11.000Z</time>
      </trkpt>
      <trkpt lat="47.25714" lon="-2.26825">
        <ele>74</ele>
        <time>2022-03-13T09:18:14.000Z</time>
      </trkpt>
      <trkpt lat="47.25722" lon="-2.26833">
        <ele>74</ele>
        <time>2022-03-13T09:18:16.000Z</time>
      </trkpt>
      <trkpt lat="47.25733" lon="-2.26845">
        <ele>74</ele>
        <time>2022-03-13T09:18:19.000Z</time>
      </trkpt>
      <trkpt lat="47.25738" lon="-2.26855">
        <ele>74</ele>
        <time>2022-03-13T09:18:21.000Z</time>
      </trkpt>
      <trkpt lat="47.25748" lon="-2.26884">
        <ele>74</ele>
        <time>2022-03-13T09:18:28.000Z</time>
      </trkpt>
      <trkpt lat="47.25751" lon="-2.26897">
        <ele>74</ele>
        <time>2022-03-13T09:18:33.000Z</time>
      </trkpt>
      <trkpt lat="47.25753" lon="-2.26897">
        <ele>74</ele>
        <time>2022-03-13T09:18:36.000Z</time>
      </trkpt>
      <trkpt lat="47.25758" lon="-2.269">
        <ele>74</ele>
        <time>2022-03-13T09:20:31.000Z</time>
      </trkpt>
      <trkpt lat="47.25765" lon="-2.26899">
        <ele>74</ele>
        <time>2022-03-13T09:20:34.000Z</time>
      </trkpt>
      <trkpt lat="47.2577" lon="-2.26896">
        <ele>74</ele>
        <time>2022-03-13T09:20:36.000Z</time>
      </trkpt>
      <trkpt lat="47.25792" lon="-2.26888">
        <ele>74</ele>
        <time>2022-03-13T09:20:42.000Z</time>
      </trkpt>
      <trkpt lat="47.25799" lon="-2.26884">
        <ele>74</ele>
        <time>2022-03-13T09:20:44.000Z</time>
      </trkpt>
      <trkpt lat="47.25814" lon="-2.26875">
        <ele>74</ele>
        <time>2022-03-13T09:20:48.000Z</time>
      </trkpt>
      <trkpt lat="47.25818" lon="-2.26873">
        <ele>74</ele>
        <time>2022-03-13T09:20:49.000Z</time>
      </trkpt>
      <trkpt lat="47.25827" lon="-2.26868">
        <ele>74</ele>
        <time>2022-03-13T09:20:51.000Z</time>
      </trkpt>
      <trkpt lat="47.25842" lon="-2.26862">
        <ele>73.599998474121</ele>
        <time>2022-03-13T09:20:54.000Z</time>
      </trkpt>
      <trkpt lat="47.25846" lon="-2.2686">
        <ele>73</ele>
        <time>2022-03-13T09:20:55.000Z</time>
      </trkpt>
      <trkpt lat="47.25851" lon="-2.26857">
        <ele>72.599998474121</ele>
        <time>2022-03-13T09:20:56.000Z</time>
      </trkpt>
      <trkpt lat="47.25857" lon="-2.26857">
        <ele>72.199996948242</ele>
        <time>2022-03-13T09:20:57.000Z</time>
      </trkpt>
      <trkpt lat="47.25862" lon="-2.26854">
        <ele>71.800003051758</ele>
        <time>2022-03-13T09:20:58.000Z</time>
      </trkpt>
      <trkpt lat="47.25867" lon="-2.26852">
        <ele>71.800003051758</ele>
        <time>2022-03-13T09:20:59.000Z</time>
      </trkpt>
      <trkpt lat="47.25906" lon="-2.26833">
        <ele>71.400001525879</ele>
        <time>2022-03-13T09:21:06.000Z</time>
      </trkpt>
      <trkpt lat="47.25911" lon="-2.2683">
        <ele>71</ele>
        <time>2022-03-13T09:21:07.000Z</time>
      </trkpt>
      <trkpt lat="47.25917" lon="-2.26826">
        <ele>70.599998474121</ele>
        <time>2022-03-13T09:21:08.000Z</time>
      </trkpt>
      <trkpt lat="47.25923" lon="-2.26823">
        <ele>70.199996948242</ele>
        <time>2022-03-13T09:21:09.000Z</time>
      </trkpt>
      <trkpt lat="47.25929" lon="-2.2682">
        <ele>69.800003051758</ele>
        <time>2022-03-13T09:21:10.000Z</time>
      </trkpt>
      <trkpt lat="47.25934" lon="-2.26819">
        <ele>69.800003051758</ele>
        <time>2022-03-13T09:21:11.000Z</time>
      </trkpt>
      <trkpt lat="47.2594" lon="-2.26818">
        <ele>69.800003051758</ele>
        <time>2022-03-13T09:21:12.000Z</time>
      </trkpt>
      <trkpt lat="47.25973" lon="-2.2681">
        <ele>69.800003051758</ele>
        <time>2022-03-13T09:21:17.000Z</time>
      </trkpt>
      <trkpt lat="47.25984" lon="-2.2681">
        <ele>69.400001525879</ele>
        <time>2022-03-13T09:21:19.000Z</time>
      </trkpt>
      <trkpt lat="47.25987" lon="-2.26814">
        <ele>69</ele>
        <time>2022-03-13T09:21:20.000Z</time>
      </trkpt>
      <trkpt lat="47.25988" lon="-2.2682">
        <ele>68.599998474121</ele>
        <time>2022-03-13T09:21:21.000Z</time>
      </trkpt>
      <trkpt lat="47.25989" lon="-2.26827">
        <ele>68.199996948242</ele>
        <time>2022-03-13T09:21:22.000Z</time>
      </trkpt>
      <trkpt lat="47.2599" lon="-2.26833">
        <ele>67.800003051758</ele>
        <time>2022-03-13T09:21:23.000Z</time>
      </trkpt>
      <trkpt lat="47.25993" lon="-2.26877">
        <ele>67.800003051758</ele>
        <time>2022-03-13T09:21:29.000Z</time>
      </trkpt>
      <trkpt lat="47.25996" lon="-2.26892">
        <ele>67.800003051758</ele>
        <time>2022-03-13T09:21:31.000Z</time>
      </trkpt>
      <trkpt lat="47.26001" lon="-2.26905">
        <ele>67.800003051758</ele>
        <time>2022-03-13T09:21:33.000Z</time>
      </trkpt>
      <trkpt lat="47.26009" lon="-2.26917">
        <ele>67.800003051758</ele>
        <time>2022-03-13T09:21:35.000Z</time>
      </trkpt>
      <trkpt lat="47.26019" lon="-2.26932">
        <ele>67.800003051758</ele>
        <time>2022-03-13T09:21:38.000Z</time>
      </trkpt>
      <trkpt lat="47.26035" lon="-2.26951">
        <ele>67.800003051758</ele>
        <time>2022-03-13T09:21:42.000Z</time>
      </trkpt>
      <trkpt lat="47.26042" lon="-2.2696">
        <ele>67.800003051758</ele>
        <time>2022-03-13T09:21:44.000Z</time>
      </trkpt>
      <trkpt lat="47.26048" lon="-2.26965">
        <ele>67.800003051758</ele>
        <time>2022-03-13T09:21:45.000Z</time>
      </trkpt>
      <trkpt lat="47.26055" lon="-2.26977">
        <ele>67.800003051758</ele>
        <time>2022-03-13T09:21:47.000Z</time>
      </trkpt>
      <trkpt lat="47.26061" lon="-2.26989">
        <ele>67.800003051758</ele>
        <time>2022-03-13T09:21:49.000Z</time>
      </trkpt>
      <trkpt lat="47.26063" lon="-2.26997">
        <ele>67.800003051758</ele>
        <time>2022-03-13T09:21:50.000Z</time>
      </trkpt>
      <trkpt lat="47.26069" lon="-2.27012">
        <ele>67.800003051758</ele>
        <time>2022-03-13T09:21:52.000Z</time>
      </trkpt>
      <trkpt lat="47.26084" lon="-2.27066">
        <ele>67.800003051758</ele>
        <time>2022-03-13T09:21:59.000Z</time>
      </trkpt>
      <trkpt lat="47.26088" lon="-2.2709">
        <ele>67.800003051758</ele>
        <time>2022-03-13T09:22:02.000Z</time>
      </trkpt>
      <trkpt lat="47.26091" lon="-2.27114">
        <ele>67.800003051758</ele>
        <time>2022-03-13T09:22:05.000Z</time>
      </trkpt>
      <trkpt lat="47.26097" lon="-2.27138">
        <ele>67.800003051758</ele>
        <time>2022-03-13T09:22:08.000Z</time>
      </trkpt>
      <trkpt lat="47.26106" lon="-2.27167">
        <ele>67.800003051758</ele>
        <time>2022-03-13T09:22:12.000Z</time>
      </trkpt>
      <trkpt lat="47.26116" lon="-2.27194">
        <ele>67.800003051758</ele>
        <time>2022-03-13T09:22:16.000Z</time>
      </trkpt>
      <trkpt lat="47.26123" lon="-2.27213">
        <ele>67.800003051758</ele>
        <time>2022-03-13T09:22:19.000Z</time>
      </trkpt>
      <trkpt lat="47.26126" lon="-2.27219">
        <ele>67.800003051758</ele>
        <time>2022-03-13T09:22:20.000Z</time>
      </trkpt>
      <trkpt lat="47.26135" lon="-2.27243">
        <ele>67.800003051758</ele>
        <time>2022-03-13T09:22:24.000Z</time>
      </trkpt>
      <trkpt lat="47.26137" lon="-2.2725">
        <ele>67.800003051758</ele>
        <time>2022-03-13T09:22:25.000Z</time>
      </trkpt>
      <trkpt lat="47.26143" lon="-2.27281">
        <ele>67.800003051758</ele>
        <time>2022-03-13T09:22:29.000Z</time>
      </trkpt>
      <trkpt lat="47.26152" lon="-2.27316">
        <ele>67.800003051758</ele>
        <time>2022-03-13T09:22:35.000Z</time>
      </trkpt>
      <trkpt lat="47.26165" lon="-2.27317">
        <ele>67.800003051758</ele>
        <time>2022-03-13T09:22:38.000Z</time>
      </trkpt>
      <trkpt lat="47.26175" lon="-2.27316">
        <ele>67.800003051758</ele>
        <time>2022-03-13T09:22:40.000Z</time>
      </trkpt>
      <trkpt lat="47.26196" lon="-2.27312">
        <ele>67.800003051758</ele>
        <time>2022-03-13T09:22:44.000Z</time>
      </trkpt>
      <trkpt lat="47.2623" lon="-2.27316">
        <ele>67.800003051758</ele>
        <time>2022-03-13T09:22:50.000Z</time>
      </trkpt>
      <trkpt lat="47.26235" lon="-2.27315">
        <ele>67.800003051758</ele>
        <time>2022-03-13T09:22:51.000Z</time>
      </trkpt>
      <trkpt lat="47.26251" lon="-2.2732">
        <ele>67.800003051758</ele>
        <time>2022-03-13T09:22:54.000Z</time>
      </trkpt>
      <trkpt lat="47.26257" lon="-2.2732">
        <ele>67.800003051758</ele>
        <time>2022-03-13T09:22:55.000Z</time>
      </trkpt>
      <trkpt lat="47.26281" lon="-2.27322">
        <ele>67.800003051758</ele>
        <time>2022-03-13T09:22:59.000Z</time>
      </trkpt>
      <trkpt lat="47.26321" lon="-2.27326">
        <ele>67.800003051758</ele>
        <time>2022-03-13T09:23:06.000Z</time>
      </trkpt>
      <trkpt lat="47.26356" lon="-2.27328">
        <ele>67.800003051758</ele>
        <time>2022-03-13T09:23:12.000Z</time>
      </trkpt>
      <trkpt lat="47.26388" lon="-2.27328">
        <ele>67.400001525879</ele>
        <time>2022-03-13T09:23:18.000Z</time>
      </trkpt>
      <trkpt lat="47.26395" lon="-2.27328">
        <ele>67</ele>
        <time>2022-03-13T09:23:19.000Z</time>
      </trkpt>
      <trkpt lat="47.264" lon="-2.27327">
        <ele>66.400001525879</ele>
        <time>2022-03-13T09:23:20.000Z</time>
      </trkpt>
      <trkpt lat="47.26406" lon="-2.27328">
        <ele>66</ele>
        <time>2022-03-13T09:23:21.000Z</time>
      </trkpt>
      <trkpt lat="47.26412" lon="-2.2733">
        <ele>65.599998474121</ele>
        <time>2022-03-13T09:23:22.000Z</time>
      </trkpt>
      <trkpt lat="47.26417" lon="-2.27332">
        <ele>65.599998474121</ele>
        <time>2022-03-13T09:23:23.000Z</time>
      </trkpt>
      <trkpt lat="47.2643" lon="-2.27345">
        <ele>65.599998474121</ele>
        <time>2022-03-13T09:23:27.000Z</time>
      </trkpt>
      <trkpt lat="47.2644" lon="-2.27371">
        <ele>65.599998474121</ele>
        <time>2022-03-13T09:23:32.000Z</time>
      </trkpt>
      <trkpt lat="47.26446" lon="-2.27392">
        <ele>65.199996948242</ele>
        <time>2022-03-13T09:23:36.000Z</time>
      </trkpt>
      <trkpt lat="47.26448" lon="-2.27398">
        <ele>64.800003051758</ele>
        <time>2022-03-13T09:23:37.000Z</time>
      </trkpt>
      <trkpt lat="47.2645" lon="-2.27405">
        <ele>64.400001525879</ele>
        <time>2022-03-13T09:23:38.000Z</time>
      </trkpt>
      <trkpt lat="47.26452" lon="-2.27412">
        <ele>64</ele>
        <time>2022-03-13T09:23:39.000Z</time>
      </trkpt>
      <trkpt lat="47.26455" lon="-2.2742">
        <ele>63.599998474121</ele>
        <time>2022-03-13T09:23:40.000Z</time>
      </trkpt>
      <trkpt lat="47.2646" lon="-2.27433">
        <ele>63.599998474121</ele>
        <time>2022-03-13T09:23:42.000Z</time>
      </trkpt>
      <trkpt lat="47.26466" lon="-2.27455">
        <ele>63.599998474121</ele>
        <time>2022-03-13T09:23:45.000Z</time>
      </trkpt>
      <trkpt lat="47.26468" lon="-2.27463">
        <ele>63.599998474121</ele>
        <time>2022-03-13T09:23:46.000Z</time>
      </trkpt>
      <trkpt lat="47.26477" lon="-2.27493">
        <ele>63.599998474121</ele>
        <time>2022-03-13T09:23:50.000Z</time>
      </trkpt>
      <trkpt lat="47.2648" lon="-2.275">
        <ele>63.599998474121</ele>
        <time>2022-03-13T09:23:51.000Z</time>
      </trkpt>
      <trkpt lat="47.26481" lon="-2.27508">
        <ele>63.599998474121</ele>
        <time>2022-03-13T09:23:52.000Z</time>
      </trkpt>
      <trkpt lat="47.26483" lon="-2.27516">
        <ele>63.200000762939</ele>
        <time>2022-03-13T09:23:53.000Z</time>
      </trkpt>
      <trkpt lat="47.26485" lon="-2.27524">
        <ele>62.799999237061</ele>
        <time>2022-03-13T09:23:54.000Z</time>
      </trkpt>
      <trkpt lat="47.26486" lon="-2.27532">
        <ele>62.400001525879</ele>
        <time>2022-03-13T09:23:55.000Z</time>
      </trkpt>
      <trkpt lat="47.26487" lon="-2.27539">
        <ele>62</ele>
        <time>2022-03-13T09:23:56.000Z</time>
      </trkpt>
      <trkpt lat="47.26488" lon="-2.27547">
        <ele>61.599998474121</ele>
        <time>2022-03-13T09:23:57.000Z</time>
      </trkpt>
      <trkpt lat="47.26495" lon="-2.27575">
        <ele>61.599998474121</ele>
        <time>2022-03-13T09:24:01.000Z</time>
      </trkpt>
      <trkpt lat="47.26498" lon="-2.27578">
        <ele>61.599998474121</ele>
        <time>2022-03-13T09:24:02.000Z</time>
      </trkpt>
      <trkpt lat="47.26503" lon="-2.27579">
        <ele>61</ele>
        <time>2022-03-13T09:24:03.000Z</time>
      </trkpt>
      <trkpt lat="47.26504" lon="-2.27576">
        <ele>60.599998474121</ele>
        <time>2022-03-13T09:24:04.000Z</time>
      </trkpt>
      <trkpt lat="47.26508" lon="-2.27574">
        <ele>60.200000762939</ele>
        <time>2022-03-13T09:24:05.000Z</time>
      </trkpt>
      <trkpt lat="47.26512" lon="-2.27573">
        <ele>59.799999237061</ele>
        <time>2022-03-13T09:24:06.000Z</time>
      </trkpt>
      <trkpt lat="47.26516" lon="-2.27572">
        <ele>59.400001525879</ele>
        <time>2022-03-13T09:24:07.000Z</time>
      </trkpt>
      <trkpt lat="47.26529" lon="-2.27576">
        <ele>59.400001525879</ele>
        <time>2022-03-13T09:24:09.000Z</time>
      </trkpt>
      <trkpt lat="47.26536" lon="-2.27578">
        <ele>59.400001525879</ele>
        <time>2022-03-13T09:24:10.000Z</time>
      </trkpt>
      <trkpt lat="47.2655" lon="-2.27579">
        <ele>59.400001525879</ele>
        <time>2022-03-13T09:24:12.000Z</time>
      </trkpt>
      <trkpt lat="47.26563" lon="-2.27578">
        <ele>59.400001525879</ele>
        <time>2022-03-13T09:24:14.000Z</time>
      </trkpt>
      <trkpt lat="47.26576" lon="-2.2758">
        <ele>59.400001525879</ele>
        <time>2022-03-13T09:24:16.000Z</time>
      </trkpt>
      <trkpt lat="47.2659" lon="-2.27584">
        <ele>59.400001525879</ele>
        <time>2022-03-13T09:24:18.000Z</time>
      </trkpt>
      <trkpt lat="47.26596" lon="-2.27588">
        <ele>59.400001525879</ele>
        <time>2022-03-13T09:24:19.000Z</time>
      </trkpt>
      <trkpt lat="47.26619" lon="-2.27601">
        <ele>59.400001525879</ele>
        <time>2022-03-13T09:24:23.000Z</time>
      </trkpt>
      <trkpt lat="47.26652" lon="-2.27619">
        <ele>59.400001525879</ele>
        <time>2022-03-13T09:24:29.000Z</time>
      </trkpt>
      <trkpt lat="47.26673" lon="-2.27628">
        <ele>59.400001525879</ele>
        <time>2022-03-13T09:24:33.000Z</time>
      </trkpt>
      <trkpt lat="47.2669" lon="-2.27634">
        <ele>59.400001525879</ele>
        <time>2022-03-13T09:24:36.000Z</time>
      </trkpt>
      <trkpt lat="47.26701" lon="-2.27641">
        <ele>59.400001525879</ele>
        <time>2022-03-13T09:24:38.000Z</time>
      </trkpt>
      <trkpt lat="47.26713" lon="-2.27645">
        <ele>59.400001525879</ele>
        <time>2022-03-13T09:24:40.000Z</time>
      </trkpt>
      <trkpt lat="47.26725" lon="-2.27646">
        <ele>59.400001525879</ele>
        <time>2022-03-13T09:24:42.000Z</time>
      </trkpt>
      <trkpt lat="47.26742" lon="-2.27652">
        <ele>59.400001525879</ele>
        <time>2022-03-13T09:24:45.000Z</time>
      </trkpt>
      <trkpt lat="47.26748" lon="-2.27653">
        <ele>59.400001525879</ele>
        <time>2022-03-13T09:24:46.000Z</time>
      </trkpt>
      <trkpt lat="47.26762" lon="-2.27647">
        <ele>59.400001525879</ele>
        <time>2022-03-13T09:24:49.000Z</time>
      </trkpt>
      <trkpt lat="47.26762" lon="-2.27634">
        <ele>59.400001525879</ele>
        <time>2022-03-13T09:24:51.000Z</time>
      </trkpt>
      <trkpt lat="47.26759" lon="-2.27612">
        <ele>59.400001525879</ele>
        <time>2022-03-13T09:24:54.000Z</time>
      </trkpt>
      <trkpt lat="47.26758" lon="-2.27604">
        <ele>59.400001525879</ele>
        <time>2022-03-13T09:24:55.000Z</time>
      </trkpt>
      <trkpt lat="47.26753" lon="-2.27556">
        <ele>59.400001525879</ele>
        <time>2022-03-13T09:25:01.000Z</time>
      </trkpt>
      <trkpt lat="47.26752" lon="-2.27501">
        <ele>59.799999237061</ele>
        <time>2022-03-13T09:25:08.000Z</time>
      </trkpt>
      <trkpt lat="47.26752" lon="-2.27494">
        <ele>60.200000762939</ele>
        <time>2022-03-13T09:25:09.000Z</time>
      </trkpt>
      <trkpt lat="47.26753" lon="-2.27486">
        <ele>60.599998474121</ele>
        <time>2022-03-13T09:25:10.000Z</time>
      </trkpt>
      <trkpt lat="47.26753" lon="-2.27479">
        <ele>61</ele>
        <time>2022-03-13T09:25:11.000Z</time>
      </trkpt>
      <trkpt lat="47.26753" lon="-2.27471">
        <ele>61.400001525879</ele>
        <time>2022-03-13T09:25:12.000Z</time>
      </trkpt>
      <trkpt lat="47.26753" lon="-2.27447">
        <ele>61.400001525879</ele>
        <time>2022-03-13T09:25:15.000Z</time>
      </trkpt>
      <trkpt lat="47.26755" lon="-2.27421">
        <ele>61.400001525879</ele>
        <time>2022-03-13T09:25:19.000Z</time>
      </trkpt>
      <trkpt lat="47.26764" lon="-2.27412">
        <ele>61.400001525879</ele>
        <time>2022-03-13T09:25:22.000Z</time>
      </trkpt>
      <trkpt lat="47.26776" lon="-2.27412">
        <ele>61.400001525879</ele>
        <time>2022-03-13T09:25:25.000Z</time>
      </trkpt>
      <trkpt lat="47.26781" lon="-2.27411">
        <ele>61.400001525879</ele>
        <time>2022-03-13T09:25:26.000Z</time>
      </trkpt>
      <trkpt lat="47.26801" lon="-2.2741">
        <ele>61.400001525879</ele>
        <time>2022-03-13T09:25:30.000Z</time>
      </trkpt>
      <trkpt lat="47.26806" lon="-2.2741">
        <ele>61</ele>
        <time>2022-03-13T09:25:31.000Z</time>
      </trkpt>
      <trkpt lat="47.26811" lon="-2.27411">
        <ele>60.599998474121</ele>
        <time>2022-03-13T09:25:32.000Z</time>
      </trkpt>
      <trkpt lat="47.26815" lon="-2.2741">
        <ele>60.200000762939</ele>
        <time>2022-03-13T09:25:33.000Z</time>
      </trkpt>
      <trkpt lat="47.26821" lon="-2.2741">
        <ele>59.599998474121</ele>
        <time>2022-03-13T09:25:34.000Z</time>
      </trkpt>
      <trkpt lat="47.26826" lon="-2.27409">
        <ele>59.200000762939</ele>
        <time>2022-03-13T09:25:35.000Z</time>
      </trkpt>
      <trkpt lat="47.26835" lon="-2.27407">
        <ele>59.200000762939</ele>
        <time>2022-03-13T09:25:37.000Z</time>
      </trkpt>
      <trkpt lat="47.2684" lon="-2.27405">
        <ele>59.200000762939</ele>
        <time>2022-03-13T09:25:38.000Z</time>
      </trkpt>
      <trkpt lat="47.26865" lon="-2.27394">
        <ele>58.799999237061</ele>
        <time>2022-03-13T09:25:43.000Z</time>
      </trkpt>
      <trkpt lat="47.26869" lon="-2.27392">
        <ele>58.400001525879</ele>
        <time>2022-03-13T09:25:44.000Z</time>
      </trkpt>
      <trkpt lat="47.26873" lon="-2.2739">
        <ele>58</ele>
        <time>2022-03-13T09:25:45.000Z</time>
      </trkpt>
      <trkpt lat="47.26878" lon="-2.27389">
        <ele>57.599998474121</ele>
        <time>2022-03-13T09:25:46.000Z</time>
      </trkpt>
      <trkpt lat="47.26882" lon="-2.27387">
        <ele>57.200000762939</ele>
        <time>2022-03-13T09:25:47.000Z</time>
      </trkpt>
      <trkpt lat="47.26894" lon="-2.2738">
        <ele>56.799999237061</ele>
        <time>2022-03-13T09:25:50.000Z</time>
      </trkpt>
      <trkpt lat="47.26898" lon="-2.27379">
        <ele>56.200000762939</ele>
        <time>2022-03-13T09:25:51.000Z</time>
      </trkpt>
      <trkpt lat="47.26901" lon="-2.27377">
        <ele>55.799999237061</ele>
        <time>2022-03-13T09:25:52.000Z</time>
      </trkpt>
      <trkpt lat="47.26903" lon="-2.27373">
        <ele>55.400001525879</ele>
        <time>2022-03-13T09:25:53.000Z</time>
      </trkpt>
      <trkpt lat="47.26905" lon="-2.2737">
        <ele>55</ele>
        <time>2022-03-13T09:25:54.000Z</time>
      </trkpt>
      <trkpt lat="47.26907" lon="-2.27366">
        <ele>55</ele>
        <time>2022-03-13T09:25:55.000Z</time>
      </trkpt>
      <trkpt lat="47.26911" lon="-2.27352">
        <ele>55</ele>
        <time>2022-03-13T09:25:59.000Z</time>
      </trkpt>
      <trkpt lat="47.26915" lon="-2.27334">
        <ele>55</ele>
        <time>2022-03-13T09:26:05.000Z</time>
      </trkpt>
      <trkpt lat="47.26921" lon="-2.2732">
        <ele>55</ele>
        <time>2022-03-13T09:26:11.000Z</time>
      </trkpt>
      <trkpt lat="47.26924" lon="-2.27307">
        <ele>55</ele>
        <time>2022-03-13T09:26:17.000Z</time>
      </trkpt>
      <trkpt lat="47.26924" lon="-2.27303">
        <ele>55</ele>
        <time>2022-03-13T09:26:18.000Z</time>
      </trkpt>
      <trkpt lat="47.26927" lon="-2.27285">
        <ele>55</ele>
        <time>2022-03-13T09:26:22.000Z</time>
      </trkpt>
      <trkpt lat="47.26929" lon="-2.27274">
        <ele>55</ele>
        <time>2022-03-13T09:26:25.000Z</time>
      </trkpt>
      <trkpt lat="47.26932" lon="-2.2727">
        <ele>55</ele>
        <time>2022-03-13T09:26:27.000Z</time>
      </trkpt>
      <trkpt lat="47.26936" lon="-2.27268">
        <ele>55</ele>
        <time>2022-03-13T09:26:28.000Z</time>
      </trkpt>
      <trkpt lat="47.26951" lon="-2.27258">
        <ele>55</ele>
        <time>2022-03-13T09:26:34.000Z</time>
      </trkpt>
      <trkpt lat="47.26952" lon="-2.27256">
        <ele>55</ele>
        <time>2022-03-13T09:26:35.000Z</time>
      </trkpt>
      <trkpt lat="47.26956" lon="-2.27245">
        <ele>55</ele>
        <time>2022-03-13T09:26:38.000Z</time>
      </trkpt>
      <trkpt lat="47.26958" lon="-2.27242">
        <ele>55</ele>
        <time>2022-03-13T09:26:39.000Z</time>
      </trkpt>
      <trkpt lat="47.26962" lon="-2.27218">
        <ele>55</ele>
        <time>2022-03-13T09:26:45.000Z</time>
      </trkpt>
      <trkpt lat="47.26962" lon="-2.27215">
        <ele>55</ele>
        <time>2022-03-13T09:26:46.000Z</time>
      </trkpt>
      <trkpt lat="47.26958" lon="-2.27207">
        <ele>55</ele>
        <time>2022-03-13T09:26:50.000Z</time>
      </trkpt>
      <trkpt lat="47.26962" lon="-2.27203">
        <ele>55</ele>
        <time>2022-03-13T09:26:52.000Z</time>
      </trkpt>
      <trkpt lat="47.26965" lon="-2.27201">
        <ele>55</ele>
        <time>2022-03-13T09:26:53.000Z</time>
      </trkpt>
      <trkpt lat="47.2697" lon="-2.27194">
        <ele>55</ele>
        <time>2022-03-13T09:26:58.000Z</time>
      </trkpt>
      <trkpt lat="47.26975" lon="-2.27188">
        <ele>55</ele>
        <time>2022-03-13T09:27:06.000Z</time>
      </trkpt>
      <trkpt lat="47.2698" lon="-2.2719">
        <ele>55</ele>
        <time>2022-03-13T09:27:08.000Z</time>
      </trkpt>
      <trkpt lat="47.26983" lon="-2.27186">
        <ele>55</ele>
        <time>2022-03-13T09:27:11.000Z</time>
      </trkpt>
      <trkpt lat="47.26984" lon="-2.27182">
        <ele>55</ele>
        <time>2022-03-13T09:27:13.000Z</time>
      </trkpt>
      <trkpt lat="47.2699" lon="-2.27176">
        <ele>55</ele>
        <time>2022-03-13T09:27:17.000Z</time>
      </trkpt>
      <trkpt lat="47.26994" lon="-2.27172">
        <ele>55</ele>
        <time>2022-03-13T09:27:19.000Z</time>
      </trkpt>
      <trkpt lat="47.26995" lon="-2.27172">
        <ele>55</ele>
        <time>2022-03-13T09:27:20.000Z</time>
      </trkpt>
      <trkpt lat="47.26999" lon="-2.27174">
        <ele>54.599998474121</ele>
        <time>2022-03-13T09:27:25.000Z</time>
      </trkpt>
      <trkpt lat="47.27001" lon="-2.27176">
        <ele>54.200000762939</ele>
        <time>2022-03-13T09:27:26.000Z</time>
      </trkpt>
      <trkpt lat="47.27002" lon="-2.27178">
        <ele>53.799999237061</ele>
        <time>2022-03-13T09:27:27.000Z</time>
      </trkpt>
      <trkpt lat="47.27003" lon="-2.27178">
        <ele>53.200000762939</ele>
        <time>2022-03-13T09:27:28.000Z</time>
      </trkpt>
      <trkpt lat="47.27003" lon="-2.27178">
        <ele>52.799999237061</ele>
        <time>2022-03-13T09:27:29.000Z</time>
      </trkpt>
      <trkpt lat="47.27005" lon="-2.27176">
        <ele>52.799999237061</ele>
        <time>2022-03-13T09:27:30.000Z</time>
      </trkpt>
      <trkpt lat="47.27005" lon="-2.27175">
        <ele>52.799999237061</ele>
        <time>2022-03-13T09:27:32.000Z</time>
      </trkpt>
      <trkpt lat="47.27019" lon="-2.27163">
        <ele>52.400001525879</ele>
        <time>2022-03-13T09:27:44.000Z</time>
      </trkpt>
      <trkpt lat="47.27021" lon="-2.27159">
        <ele>52</ele>
        <time>2022-03-13T09:27:45.000Z</time>
      </trkpt>
      <trkpt lat="47.27022" lon="-2.27156">
        <ele>51.599998474121</ele>
        <time>2022-03-13T09:27:46.000Z</time>
      </trkpt>
      <trkpt lat="47.27023" lon="-2.27153">
        <ele>51.200000762939</ele>
        <time>2022-03-13T09:27:47.000Z</time>
      </trkpt>
      <trkpt lat="47.27023" lon="-2.2715">
        <ele>50.799999237061</ele>
        <time>2022-03-13T09:27:48.000Z</time>
      </trkpt>
      <trkpt lat="47.27022" lon="-2.27145">
        <ele>50.799999237061</ele>
        <time>2022-03-13T09:27:50.000Z</time>
      </trkpt>
      <trkpt lat="47.27021" lon="-2.27142">
        <ele>50.799999237061</ele>
        <time>2022-03-13T09:27:51.000Z</time>
      </trkpt>
      <trkpt lat="47.27015" lon="-2.27117">
        <ele>51.200000762939</ele>
        <time>2022-03-13T09:27:56.000Z</time>
      </trkpt>
      <trkpt lat="47.27014" lon="-2.27113">
        <ele>51.599998474121</ele>
        <time>2022-03-13T09:27:57.000Z</time>
      </trkpt>
      <trkpt lat="47.27012" lon="-2.27109">
        <ele>52</ele>
        <time>2022-03-13T09:27:58.000Z</time>
      </trkpt>
      <trkpt lat="47.27011" lon="-2.27104">
        <ele>52.799999237061</ele>
        <time>2022-03-13T09:27:59.000Z</time>
      </trkpt>
      <trkpt lat="47.27009" lon="-2.27089">
        <ele>52.799999237061</ele>
        <time>2022-03-13T09:28:02.000Z</time>
      </trkpt>
      <trkpt lat="47.27005" lon="-2.27064">
        <ele>52.799999237061</ele>
        <time>2022-03-13T09:28:08.000Z</time>
      </trkpt>
      <trkpt lat="47.26998" lon="-2.27048">
        <ele>52.799999237061</ele>
        <time>2022-03-13T09:28:14.000Z</time>
      </trkpt>
      <trkpt lat="47.26989" lon="-2.27033">
        <ele>52.799999237061</ele>
        <time>2022-03-13T09:28:23.000Z</time>
      </trkpt>
      <trkpt lat="47.26982" lon="-2.27022">
        <ele>52.799999237061</ele>
        <time>2022-03-13T09:28:28.000Z</time>
      </trkpt>
      <trkpt lat="47.26971" lon="-2.27013">
        <ele>52.799999237061</ele>
        <time>2022-03-13T09:28:34.000Z</time>
      </trkpt>
      <trkpt lat="47.26968" lon="-2.27008">
        <ele>52.799999237061</ele>
        <time>2022-03-13T09:28:36.000Z</time>
      </trkpt>
      <trkpt lat="47.26965" lon="-2.27">
        <ele>52.799999237061</ele>
        <time>2022-03-13T09:28:38.000Z</time>
      </trkpt>
      <trkpt lat="47.26965" lon="-2.2699">
        <ele>52.799999237061</ele>
        <time>2022-03-13T09:28:40.000Z</time>
      </trkpt>
      <trkpt lat="47.26966" lon="-2.2698">
        <ele>52.799999237061</ele>
        <time>2022-03-13T09:28:42.000Z</time>
      </trkpt>
      <trkpt lat="47.26972" lon="-2.26942">
        <ele>52.799999237061</ele>
        <time>2022-03-13T09:28:47.000Z</time>
      </trkpt>
      <trkpt lat="47.26973" lon="-2.26935">
        <ele>52</ele>
        <time>2022-03-13T09:28:48.000Z</time>
      </trkpt>
      <trkpt lat="47.26973" lon="-2.26927">
        <ele>51.599998474121</ele>
        <time>2022-03-13T09:28:49.000Z</time>
      </trkpt>
      <trkpt lat="47.26972" lon="-2.2692">
        <ele>51</ele>
        <time>2022-03-13T09:28:50.000Z</time>
      </trkpt>
      <trkpt lat="47.26972" lon="-2.26913">
        <ele>50.599998474121</ele>
        <time>2022-03-13T09:28:51.000Z</time>
      </trkpt>
      <trkpt lat="47.26971" lon="-2.26906">
        <ele>50.599998474121</ele>
        <time>2022-03-13T09:28:52.000Z</time>
      </trkpt>
      <trkpt lat="47.26962" lon="-2.26865">
        <ele>50.599998474121</ele>
        <time>2022-03-13T09:28:58.000Z</time>
      </trkpt>
      <trkpt lat="47.26959" lon="-2.26835">
        <ele>50.599998474121</ele>
        <time>2022-03-13T09:29:04.000Z</time>
      </trkpt>
      <trkpt lat="47.26969" lon="-2.26812">
        <ele>50.599998474121</ele>
        <time>2022-03-13T09:29:11.000Z</time>
      </trkpt>
      <trkpt lat="47.26975" lon="-2.26806">
        <ele>50.200000762939</ele>
        <time>2022-03-13T09:29:13.000Z</time>
      </trkpt>
      <trkpt lat="47.26978" lon="-2.26804">
        <ele>49.400001525879</ele>
        <time>2022-03-13T09:29:14.000Z</time>
      </trkpt>
      <trkpt lat="47.2698" lon="-2.26801">
        <ele>49</ele>
        <time>2022-03-13T09:29:15.000Z</time>
      </trkpt>
      <trkpt lat="47.26982" lon="-2.26798">
        <ele>48.599998474121</ele>
        <time>2022-03-13T09:29:16.000Z</time>
      </trkpt>
      <trkpt lat="47.2699" lon="-2.2679">
        <ele>48.599998474121</ele>
        <time>2022-03-13T09:29:20.000Z</time>
      </trkpt>
      <trkpt lat="47.27003" lon="-2.26781">
        <ele>48.599998474121</ele>
        <time>2022-03-13T09:29:27.000Z</time>
      </trkpt>
      <trkpt lat="47.27006" lon="-2.26778">
        <ele>48.599998474121</ele>
        <time>2022-03-13T09:29:30.000Z</time>
      </trkpt>
      <trkpt lat="47.2701" lon="-2.26776">
        <ele>48.599998474121</ele>
        <time>2022-03-13T09:29:33.000Z</time>
      </trkpt>
      <trkpt lat="47.27012" lon="-2.26773">
        <ele>48.599998474121</ele>
        <time>2022-03-13T09:29:35.000Z</time>
      </trkpt>
      <trkpt lat="47.27018" lon="-2.26763">
        <ele>48.599998474121</ele>
        <time>2022-03-13T09:29:40.000Z</time>
      </trkpt>
      <trkpt lat="47.27024" lon="-2.26758">
        <ele>48.599998474121</ele>
        <time>2022-03-13T09:29:43.000Z</time>
      </trkpt>
      <trkpt lat="47.27027" lon="-2.26755">
        <ele>48.599998474121</ele>
        <time>2022-03-13T09:29:45.000Z</time>
      </trkpt>
      <trkpt lat="47.27035" lon="-2.26748">
        <ele>48.599998474121</ele>
        <time>2022-03-13T09:29:51.000Z</time>
      </trkpt>
      <trkpt lat="47.27039" lon="-2.26733">
        <ele>48.599998474121</ele>
        <time>2022-03-13T09:29:55.000Z</time>
      </trkpt>
      <trkpt lat="47.2704" lon="-2.26706">
        <ele>48.599998474121</ele>
        <time>2022-03-13T09:30:01.000Z</time>
      </trkpt>
      <trkpt lat="47.27039" lon="-2.26679">
        <ele>48.599998474121</ele>
        <time>2022-03-13T09:30:07.000Z</time>
      </trkpt>
      <trkpt lat="47.27041" lon="-2.26654">
        <ele>48.599998474121</ele>
        <time>2022-03-13T09:30:12.000Z</time>
      </trkpt>
      <trkpt lat="47.2704" lon="-2.26649">
        <ele>48.599998474121</ele>
        <time>2022-03-13T09:30:13.000Z</time>
      </trkpt>
      <trkpt lat="47.27033" lon="-2.26638">
        <ele>48.599998474121</ele>
        <time>2022-03-13T09:30:16.000Z</time>
      </trkpt>
      <trkpt lat="47.27019" lon="-2.26619">
        <ele>48.599998474121</ele>
        <time>2022-03-13T09:30:22.000Z</time>
      </trkpt>
      <trkpt lat="47.26996" lon="-2.26586">
        <ele>48.599998474121</ele>
        <time>2022-03-13T09:30:30.000Z</time>
      </trkpt>
      <trkpt lat="47.26982" lon="-2.26555">
        <ele>48.599998474121</ele>
        <time>2022-03-13T09:30:36.000Z</time>
      </trkpt>
      <trkpt lat="47.26979" lon="-2.26543">
        <ele>49</ele>
        <time>2022-03-13T09:30:38.000Z</time>
      </trkpt>
      <trkpt lat="47.26977" lon="-2.26538">
        <ele>49.400001525879</ele>
        <time>2022-03-13T09:30:39.000Z</time>
      </trkpt>
      <trkpt lat="47.26975" lon="-2.26533">
        <ele>49.799999237061</ele>
        <time>2022-03-13T09:30:40.000Z</time>
      </trkpt>
      <trkpt lat="47.26973" lon="-2.26529">
        <ele>50.200000762939</ele>
        <time>2022-03-13T09:30:41.000Z</time>
      </trkpt>
      <trkpt lat="47.26972" lon="-2.26524">
        <ele>50.599998474121</ele>
        <time>2022-03-13T09:30:42.000Z</time>
      </trkpt>
      <trkpt lat="47.2697" lon="-2.26508">
        <ele>50.599998474121</ele>
        <time>2022-03-13T09:30:46.000Z</time>
      </trkpt>
      <trkpt lat="47.26972" lon="-2.26503">
        <ele>50.599998474121</ele>
        <time>2022-03-13T09:30:47.000Z</time>
      </trkpt>
      <trkpt lat="47.26977" lon="-2.26494">
        <ele>50.599998474121</ele>
        <time>2022-03-13T09:30:49.000Z</time>
      </trkpt>
      <trkpt lat="47.26983" lon="-2.26485">
        <ele>50.599998474121</ele>
        <time>2022-03-13T09:30:51.000Z</time>
      </trkpt>
      <trkpt lat="47.26987" lon="-2.2648">
        <ele>51</ele>
        <time>2022-03-13T09:30:52.000Z</time>
      </trkpt>
      <trkpt lat="47.26991" lon="-2.26475">
        <ele>51.799999237061</ele>
        <time>2022-03-13T09:30:53.000Z</time>
      </trkpt>
      <trkpt lat="47.26994" lon="-2.2647">
        <ele>52.200000762939</ele>
        <time>2022-03-13T09:30:54.000Z</time>
      </trkpt>
      <trkpt lat="47.26998" lon="-2.26464">
        <ele>52.599998474121</ele>
        <time>2022-03-13T09:30:55.000Z</time>
      </trkpt>
      <trkpt lat="47.2701" lon="-2.26448">
        <ele>52.599998474121</ele>
        <time>2022-03-13T09:30:58.000Z</time>
      </trkpt>
      <trkpt lat="47.27033" lon="-2.26415">
        <ele>52.599998474121</ele>
        <time>2022-03-13T09:31:04.000Z</time>
      </trkpt>
      <trkpt lat="47.27058" lon="-2.26381">
        <ele>52.599998474121</ele>
        <time>2022-03-13T09:31:10.000Z</time>
      </trkpt>
      <trkpt lat="47.27062" lon="-2.26375">
        <ele>52.599998474121</ele>
        <time>2022-03-13T09:31:11.000Z</time>
      </trkpt>
      <trkpt lat="47.27081" lon="-2.26343">
        <ele>52.599998474121</ele>
        <time>2022-03-13T09:31:16.000Z</time>
      </trkpt>
      <trkpt lat="47.2709" lon="-2.26331">
        <ele>52.599998474121</ele>
        <time>2022-03-13T09:31:18.000Z</time>
      </trkpt>
      <trkpt lat="47.27118" lon="-2.26292">
        <ele>52.599998474121</ele>
        <time>2022-03-13T09:31:24.000Z</time>
      </trkpt>
      <trkpt lat="47.27141" lon="-2.26257">
        <ele>52.599998474121</ele>
        <time>2022-03-13T09:31:29.000Z</time>
      </trkpt>
      <trkpt lat="47.27151" lon="-2.26243">
        <ele>52.599998474121</ele>
        <time>2022-03-13T09:31:31.000Z</time>
      </trkpt>
      <trkpt lat="47.2718" lon="-2.26211">
        <ele>52.200000762939</ele>
        <time>2022-03-13T09:31:36.000Z</time>
      </trkpt>
      <trkpt lat="47.27186" lon="-2.26205">
        <ele>51.799999237061</ele>
        <time>2022-03-13T09:31:37.000Z</time>
      </trkpt>
      <trkpt lat="47.27193" lon="-2.26199">
        <ele>51.400001525879</ele>
        <time>2022-03-13T09:31:38.000Z</time>
      </trkpt>
      <trkpt lat="47.27199" lon="-2.26194">
        <ele>51</ele>
        <time>2022-03-13T09:31:39.000Z</time>
      </trkpt>
      <trkpt lat="47.27205" lon="-2.26188">
        <ele>50.599998474121</ele>
        <time>2022-03-13T09:31:40.000Z</time>
      </trkpt>
      <trkpt lat="47.27237" lon="-2.26167">
        <ele>50.599998474121</ele>
        <time>2022-03-13T09:31:45.000Z</time>
      </trkpt>
      <trkpt lat="47.27249" lon="-2.2616">
        <ele>50.200000762939</ele>
        <time>2022-03-13T09:31:47.000Z</time>
      </trkpt>
      <trkpt lat="47.27255" lon="-2.26158">
        <ele>49.799999237061</ele>
        <time>2022-03-13T09:31:48.000Z</time>
      </trkpt>
      <trkpt lat="47.27261" lon="-2.26155">
        <ele>49.400001525879</ele>
        <time>2022-03-13T09:31:49.000Z</time>
      </trkpt>
      <trkpt lat="47.27267" lon="-2.26152">
        <ele>49</ele>
        <time>2022-03-13T09:31:50.000Z</time>
      </trkpt>
      <trkpt lat="47.27273" lon="-2.26149">
        <ele>48.599998474121</ele>
        <time>2022-03-13T09:31:51.000Z</time>
      </trkpt>
      <trkpt lat="47.27285" lon="-2.26144">
        <ele>48.599998474121</ele>
        <time>2022-03-13T09:31:53.000Z</time>
      </trkpt>
      <trkpt lat="47.27308" lon="-2.26136">
        <ele>48.599998474121</ele>
        <time>2022-03-13T09:31:57.000Z</time>
      </trkpt>
      <trkpt lat="47.27348" lon="-2.26124">
        <ele>48.599998474121</ele>
        <time>2022-03-13T09:32:05.000Z</time>
      </trkpt>
      <trkpt lat="47.27362" lon="-2.26132">
        <ele>48.599998474121</ele>
        <time>2022-03-13T09:32:08.000Z</time>
      </trkpt>
      <trkpt lat="47.27374" lon="-2.26149">
        <ele>48.599998474121</ele>
        <time>2022-03-13T09:32:11.000Z</time>
      </trkpt>
      <trkpt lat="47.27382" lon="-2.26162">
        <ele>48.599998474121</ele>
        <time>2022-03-13T09:32:13.000Z</time>
      </trkpt>
      <trkpt lat="47.27409" lon="-2.26207">
        <ele>48.599998474121</ele>
        <time>2022-03-13T09:32:20.000Z</time>
      </trkpt>
      <trkpt lat="47.2744" lon="-2.2625">
        <ele>48.599998474121</ele>
        <time>2022-03-13T09:32:27.000Z</time>
      </trkpt>
      <trkpt lat="47.2745" lon="-2.26261">
        <ele>48</ele>
        <time>2022-03-13T09:32:29.000Z</time>
      </trkpt>
      <trkpt lat="47.27456" lon="-2.26265">
        <ele>47.599998474121</ele>
        <time>2022-03-13T09:32:30.000Z</time>
      </trkpt>
      <trkpt lat="47.27462" lon="-2.2627">
        <ele>47.200000762939</ele>
        <time>2022-03-13T09:32:31.000Z</time>
      </trkpt>
      <trkpt lat="47.27469" lon="-2.26274">
        <ele>46.400001525879</ele>
        <time>2022-03-13T09:32:32.000Z</time>
      </trkpt>
      <trkpt lat="47.27502" lon="-2.26286">
        <ele>46.400001525879</ele>
        <time>2022-03-13T09:32:37.000Z</time>
      </trkpt>
      <trkpt lat="47.27515" lon="-2.26287">
        <ele>46.400001525879</ele>
        <time>2022-03-13T09:32:39.000Z</time>
      </trkpt>
      <trkpt lat="47.27527" lon="-2.26285">
        <ele>45.799999237061</ele>
        <time>2022-03-13T09:32:41.000Z</time>
      </trkpt>
      <trkpt lat="47.27533" lon="-2.26285">
        <ele>45.400001525879</ele>
        <time>2022-03-13T09:32:42.000Z</time>
      </trkpt>
      <trkpt lat="47.27538" lon="-2.26284">
        <ele>45</ele>
        <time>2022-03-13T09:32:43.000Z</time>
      </trkpt>
      <trkpt lat="47.27544" lon="-2.26283">
        <ele>44.400001525879</ele>
        <time>2022-03-13T09:32:44.000Z</time>
      </trkpt>
      <trkpt lat="47.27549" lon="-2.26281">
        <ele>44</ele>
        <time>2022-03-13T09:32:45.000Z</time>
      </trkpt>
      <trkpt lat="47.27568" lon="-2.26279">
        <ele>44</ele>
        <time>2022-03-13T09:32:48.000Z</time>
      </trkpt>
      <trkpt lat="47.27604" lon="-2.26284">
        <ele>44</ele>
        <time>2022-03-13T09:32:53.000Z</time>
      </trkpt>
      <trkpt lat="47.27611" lon="-2.26287">
        <ele>44</ele>
        <time>2022-03-13T09:32:54.000Z</time>
      </trkpt>
      <trkpt lat="47.2763" lon="-2.263">
        <ele>44</ele>
        <time>2022-03-13T09:32:57.000Z</time>
      </trkpt>
      <trkpt lat="47.27636" lon="-2.26306">
        <ele>44</ele>
        <time>2022-03-13T09:32:58.000Z</time>
      </trkpt>
      <trkpt lat="47.27649" lon="-2.26325">
        <ele>44</ele>
        <time>2022-03-13T09:33:01.000Z</time>
      </trkpt>
      <trkpt lat="47.27653" lon="-2.26331">
        <ele>44</ele>
        <time>2022-03-13T09:33:02.000Z</time>
      </trkpt>
      <trkpt lat="47.27656" lon="-2.26334">
        <ele>44</ele>
        <time>2022-03-13T09:33:03.000Z</time>
      </trkpt>
      <trkpt lat="47.27659" lon="-2.26334">
        <ele>43.599998474121</ele>
        <time>2022-03-13T09:33:04.000Z</time>
      </trkpt>
      <trkpt lat="47.27662" lon="-2.26332">
        <ele>43.200000762939</ele>
        <time>2022-03-13T09:33:05.000Z</time>
      </trkpt>
      <trkpt lat="47.27664" lon="-2.26327">
        <ele>42.799999237061</ele>
        <time>2022-03-13T09:33:06.000Z</time>
      </trkpt>
      <trkpt lat="47.27663" lon="-2.26321">
        <ele>42.400001525879</ele>
        <time>2022-03-13T09:33:07.000Z</time>
      </trkpt>
      <trkpt lat="47.27663" lon="-2.26316">
        <ele>41.799999237061</ele>
        <time>2022-03-13T09:33:08.000Z</time>
      </trkpt>
      <trkpt lat="47.27662" lon="-2.2631">
        <ele>41.799999237061</ele>
        <time>2022-03-13T09:33:09.000Z</time>
      </trkpt>
      <trkpt lat="47.2766" lon="-2.26293">
        <ele>41.799999237061</ele>
        <time>2022-03-13T09:33:12.000Z</time>
      </trkpt>
      <trkpt lat="47.27655" lon="-2.2627">
        <ele>41.799999237061</ele>
        <time>2022-03-13T09:33:16.000Z</time>
      </trkpt>
      <trkpt lat="47.27648" lon="-2.26252">
        <ele>41.799999237061</ele>
        <time>2022-03-13T09:33:20.000Z</time>
      </trkpt>
      <trkpt lat="47.27644" lon="-2.26244">
        <ele>41.799999237061</ele>
        <time>2022-03-13T09:33:22.000Z</time>
      </trkpt>
      <trkpt lat="47.27635" lon="-2.26229">
        <ele>41.799999237061</ele>
        <time>2022-03-13T09:33:26.000Z</time>
      </trkpt>
      <trkpt lat="47.27629" lon="-2.26208">
        <ele>41.799999237061</ele>
        <time>2022-03-13T09:33:30.000Z</time>
      </trkpt>
      <trkpt lat="47.27629" lon="-2.26202">
        <ele>42.200000762939</ele>
        <time>2022-03-13T09:33:31.000Z</time>
      </trkpt>
      <trkpt lat="47.27628" lon="-2.26197">
        <ele>42.799999237061</ele>
        <time>2022-03-13T09:33:32.000Z</time>
      </trkpt>
      <trkpt lat="47.27628" lon="-2.26193">
        <ele>43.200000762939</ele>
        <time>2022-03-13T09:33:33.000Z</time>
      </trkpt>
      <trkpt lat="47.27627" lon="-2.2619">
        <ele>43.599998474121</ele>
        <time>2022-03-13T09:33:34.000Z</time>
      </trkpt>
      <trkpt lat="47.27625" lon="-2.26187">
        <ele>44</ele>
        <time>2022-03-13T09:33:35.000Z</time>
      </trkpt>
      <trkpt lat="47.27625" lon="-2.26176">
        <ele>44</ele>
        <time>2022-03-13T09:33:39.000Z</time>
      </trkpt>
      <trkpt lat="47.27636" lon="-2.26167">
        <ele>44</ele>
        <time>2022-03-13T09:33:44.000Z</time>
      </trkpt>
      <trkpt lat="47.27641" lon="-2.26161">
        <ele>44</ele>
        <time>2022-03-13T09:33:47.000Z</time>
      </trkpt>
      <trkpt lat="47.27643" lon="-2.26159">
        <ele>44</ele>
        <time>2022-03-13T09:33:48.000Z</time>
      </trkpt>
      <trkpt lat="47.27656" lon="-2.26148">
        <ele>44</ele>
        <time>2022-03-13T09:33:54.000Z</time>
      </trkpt>
      <trkpt lat="47.27669" lon="-2.26134">
        <ele>44</ele>
        <time>2022-03-13T09:33:59.000Z</time>
      </trkpt>
      <trkpt lat="47.27686" lon="-2.26114">
        <ele>44</ele>
        <time>2022-03-13T09:34:05.000Z</time>
      </trkpt>
      <trkpt lat="47.277" lon="-2.26099">
        <ele>44</ele>
        <time>2022-03-13T09:34:10.000Z</time>
      </trkpt>
      <trkpt lat="47.27702" lon="-2.26095">
        <ele>43.200000762939</ele>
        <time>2022-03-13T09:34:11.000Z</time>
      </trkpt>
      <trkpt lat="47.27705" lon="-2.26092">
        <ele>42.799999237061</ele>
        <time>2022-03-13T09:34:12.000Z</time>
      </trkpt>
      <trkpt lat="47.27709" lon="-2.2609">
        <ele>42.400001525879</ele>
        <time>2022-03-13T09:34:13.000Z</time>
      </trkpt>
      <trkpt lat="47.27712" lon="-2.26088">
        <ele>42</ele>
        <time>2022-03-13T09:34:14.000Z</time>
      </trkpt>
      <trkpt lat="47.27716" lon="-2.26086">
        <ele>42</ele>
        <time>2022-03-13T09:34:15.000Z</time>
      </trkpt>
      <trkpt lat="47.27743" lon="-2.26082">
        <ele>42</ele>
        <time>2022-03-13T09:34:21.000Z</time>
      </trkpt>
      <trkpt lat="47.27768" lon="-2.26079">
        <ele>42</ele>
        <time>2022-03-13T09:34:27.000Z</time>
      </trkpt>
      <trkpt lat="47.27779" lon="-2.26056">
        <ele>42</ele>
        <time>2022-03-13T09:34:31.000Z</time>
      </trkpt>
      <trkpt lat="47.27794" lon="-2.26015">
        <ele>42</ele>
        <time>2022-03-13T09:34:36.000Z</time>
      </trkpt>
      <trkpt lat="47.27797" lon="-2.25999">
        <ele>42</ele>
        <time>2022-03-13T09:34:38.000Z</time>
      </trkpt>
      <trkpt lat="47.27796" lon="-2.25977">
        <ele>42</ele>
        <time>2022-03-13T09:34:41.000Z</time>
      </trkpt>
      <trkpt lat="47.27793" lon="-2.25945">
        <ele>42</ele>
        <time>2022-03-13T09:34:46.000Z</time>
      </trkpt>
      <trkpt lat="47.27782" lon="-2.25926">
        <ele>42</ele>
        <time>2022-03-13T09:34:50.000Z</time>
      </trkpt>
      <trkpt lat="47.2778" lon="-2.25921">
        <ele>42</ele>
        <time>2022-03-13T09:34:51.000Z</time>
      </trkpt>
      <trkpt lat="47.27768" lon="-2.25902">
        <ele>42</ele>
        <time>2022-03-13T09:34:55.000Z</time>
      </trkpt>
      <trkpt lat="47.27757" lon="-2.25879">
        <ele>42</ele>
        <time>2022-03-13T09:34:59.000Z</time>
      </trkpt>
      <trkpt lat="47.27751" lon="-2.25868">
        <ele>42</ele>
        <time>2022-03-13T09:35:01.000Z</time>
      </trkpt>
      <trkpt lat="47.27748" lon="-2.25863">
        <ele>42</ele>
        <time>2022-03-13T09:35:02.000Z</time>
      </trkpt>
      <trkpt lat="47.27736" lon="-2.25856">
        <ele>42</ele>
        <time>2022-03-13T09:35:05.000Z</time>
      </trkpt>
      <trkpt lat="47.27732" lon="-2.25855">
        <ele>42</ele>
        <time>2022-03-13T09:35:06.000Z</time>
      </trkpt>
      <trkpt lat="47.27719" lon="-2.25853">
        <ele>42</ele>
        <time>2022-03-13T09:35:09.000Z</time>
      </trkpt>
      <trkpt lat="47.27715" lon="-2.25852">
        <ele>42</ele>
        <time>2022-03-13T09:35:10.000Z</time>
      </trkpt>
      <trkpt lat="47.27698" lon="-2.25838">
        <ele>42</ele>
        <time>2022-03-13T09:35:15.000Z</time>
      </trkpt>
      <trkpt lat="47.27693" lon="-2.25828">
        <ele>42</ele>
        <time>2022-03-13T09:35:17.000Z</time>
      </trkpt>
      <trkpt lat="47.27686" lon="-2.25813">
        <ele>42</ele>
        <time>2022-03-13T09:35:20.000Z</time>
      </trkpt>
      <trkpt lat="47.27681" lon="-2.25803">
        <ele>42</ele>
        <time>2022-03-13T09:35:24.000Z</time>
      </trkpt>
      <trkpt lat="47.27681" lon="-2.25801">
        <ele>42</ele>
        <time>2022-03-13T09:35:25.000Z</time>
      </trkpt>
      <trkpt lat="47.27679" lon="-2.25787">
        <ele>42</ele>
        <time>2022-03-13T09:35:31.000Z</time>
      </trkpt>
      <trkpt lat="47.27672" lon="-2.25763">
        <ele>42</ele>
        <time>2022-03-13T09:35:37.000Z</time>
      </trkpt>
      <trkpt lat="47.27665" lon="-2.25737">
        <ele>42</ele>
        <time>2022-03-13T09:35:42.000Z</time>
      </trkpt>
      <trkpt lat="47.2766" lon="-2.25703">
        <ele>42</ele>
        <time>2022-03-13T09:35:48.000Z</time>
      </trkpt>
      <trkpt lat="47.27659" lon="-2.25669">
        <ele>42</ele>
        <time>2022-03-13T09:35:55.000Z</time>
      </trkpt>
      <trkpt lat="47.27657" lon="-2.25653">
        <ele>42</ele>
        <time>2022-03-13T09:35:59.000Z</time>
      </trkpt>
      <trkpt lat="47.27654" lon="-2.2565">
        <ele>42</ele>
        <time>2022-03-13T09:36:00.000Z</time>
      </trkpt>
      <trkpt lat="47.27642" lon="-2.25648">
        <ele>42</ele>
        <time>2022-03-13T09:36:03.000Z</time>
      </trkpt>
      <trkpt lat="47.27638" lon="-2.25648">
        <ele>42</ele>
        <time>2022-03-13T09:36:04.000Z</time>
      </trkpt>
      <trkpt lat="47.2762" lon="-2.25653">
        <ele>42</ele>
        <time>2022-03-13T09:36:09.000Z</time>
      </trkpt>
      <trkpt lat="47.27606" lon="-2.25657">
        <ele>42</ele>
        <time>2022-03-13T09:36:13.000Z</time>
      </trkpt>
      <trkpt lat="47.27595" lon="-2.25656">
        <ele>42</ele>
        <time>2022-03-13T09:36:17.000Z</time>
      </trkpt>
      <trkpt lat="47.27579" lon="-2.25653">
        <ele>42</ele>
        <time>2022-03-13T09:36:22.000Z</time>
      </trkpt>
      <trkpt lat="47.27569" lon="-2.25646">
        <ele>42</ele>
        <time>2022-03-13T09:36:25.000Z</time>
      </trkpt>
      <trkpt lat="47.27566" lon="-2.25617">
        <ele>42</ele>
        <time>2022-03-13T09:36:30.000Z</time>
      </trkpt>
      <trkpt lat="47.27567" lon="-2.25587">
        <ele>42</ele>
        <time>2022-03-13T09:36:34.000Z</time>
      </trkpt>
      <trkpt lat="47.27565" lon="-2.25572">
        <ele>42</ele>
        <time>2022-03-13T09:36:36.000Z</time>
      </trkpt>
      <trkpt lat="47.27552" lon="-2.25526">
        <ele>42</ele>
        <time>2022-03-13T09:36:42.000Z</time>
      </trkpt>
      <trkpt lat="47.27542" lon="-2.25505">
        <ele>42</ele>
        <time>2022-03-13T09:36:45.000Z</time>
      </trkpt>
      <trkpt lat="47.27534" lon="-2.25491">
        <ele>42</ele>
        <time>2022-03-13T09:36:47.000Z</time>
      </trkpt>
      <trkpt lat="47.27526" lon="-2.2548">
        <ele>42</ele>
        <time>2022-03-13T09:36:49.000Z</time>
      </trkpt>
      <trkpt lat="47.27518" lon="-2.25471">
        <ele>42</ele>
        <time>2022-03-13T09:36:51.000Z</time>
      </trkpt>
      <trkpt lat="47.27514" lon="-2.25466">
        <ele>42</ele>
        <time>2022-03-13T09:36:52.000Z</time>
      </trkpt>
      <trkpt lat="47.27496" lon="-2.25457">
        <ele>42</ele>
        <time>2022-03-13T09:36:56.000Z</time>
      </trkpt>
      <trkpt lat="47.27492" lon="-2.25456">
        <ele>42</ele>
        <time>2022-03-13T09:36:57.000Z</time>
      </trkpt>
      <trkpt lat="47.27488" lon="-2.25455">
        <ele>42</ele>
        <time>2022-03-13T09:36:58.000Z</time>
      </trkpt>
      <trkpt lat="47.27478" lon="-2.25457">
        <ele>42</ele>
        <time>2022-03-13T09:37:00.000Z</time>
      </trkpt>
      <trkpt lat="47.27458" lon="-2.25454">
        <ele>42</ele>
        <time>2022-03-13T09:37:04.000Z</time>
      </trkpt>
      <trkpt lat="47.27441" lon="-2.25438">
        <ele>42</ele>
        <time>2022-03-13T09:37:08.000Z</time>
      </trkpt>
      <trkpt lat="47.27439" lon="-2.25418">
        <ele>42</ele>
        <time>2022-03-13T09:37:11.000Z</time>
      </trkpt>
      <trkpt lat="47.27443" lon="-2.25404">
        <ele>42</ele>
        <time>2022-03-13T09:37:13.000Z</time>
      </trkpt>
      <trkpt lat="47.27447" lon="-2.25389">
        <ele>42</ele>
        <time>2022-03-13T09:37:15.000Z</time>
      </trkpt>
      <trkpt lat="47.27451" lon="-2.25373">
        <ele>42</ele>
        <time>2022-03-13T09:37:17.000Z</time>
      </trkpt>
      <trkpt lat="47.27454" lon="-2.25351">
        <ele>42</ele>
        <time>2022-03-13T09:37:20.000Z</time>
      </trkpt>
      <trkpt lat="47.27454" lon="-2.25344">
        <ele>42</ele>
        <time>2022-03-13T09:37:21.000Z</time>
      </trkpt>
      <trkpt lat="47.2745" lon="-2.25323">
        <ele>42</ele>
        <time>2022-03-13T09:37:24.000Z</time>
      </trkpt>
      <trkpt lat="47.27448" lon="-2.25316">
        <ele>42</ele>
        <time>2022-03-13T09:37:25.000Z</time>
      </trkpt>
      <trkpt lat="47.27442" lon="-2.25301">
        <ele>42</ele>
        <time>2022-03-13T09:37:27.000Z</time>
      </trkpt>
      <trkpt lat="47.27437" lon="-2.25286">
        <ele>42</ele>
        <time>2022-03-13T09:37:29.000Z</time>
      </trkpt>
      <trkpt lat="47.27427" lon="-2.25264">
        <ele>42</ele>
        <time>2022-03-13T09:37:32.000Z</time>
      </trkpt>
      <trkpt lat="47.2742" lon="-2.25241">
        <ele>42</ele>
        <time>2022-03-13T09:37:35.000Z</time>
      </trkpt>
      <trkpt lat="47.27399" lon="-2.25196">
        <ele>42</ele>
        <time>2022-03-13T09:37:42.000Z</time>
      </trkpt>
      <trkpt lat="47.27382" lon="-2.25152">
        <ele>42</ele>
        <time>2022-03-13T09:37:49.000Z</time>
      </trkpt>
      <trkpt lat="47.27364" lon="-2.25111">
        <ele>42</ele>
        <time>2022-03-13T09:37:55.000Z</time>
      </trkpt>
      <trkpt lat="47.27361" lon="-2.25104">
        <ele>42</ele>
        <time>2022-03-13T09:37:56.000Z</time>
      </trkpt>
      <trkpt lat="47.2735" lon="-2.25081">
        <ele>42</ele>
        <time>2022-03-13T09:38:00.000Z</time>
      </trkpt>
      <trkpt lat="47.27348" lon="-2.25076">
        <ele>42</ele>
        <time>2022-03-13T09:38:01.000Z</time>
      </trkpt>
      <trkpt lat="47.27345" lon="-2.25067">
        <ele>42</ele>
        <time>2022-03-13T09:38:04.000Z</time>
      </trkpt>
      <trkpt lat="47.27342" lon="-2.25055">
        <ele>42</ele>
        <time>2022-03-13T09:38:11.000Z</time>
      </trkpt>
      <trkpt lat="47.27339" lon="-2.25043">
        <ele>42</ele>
        <time>2022-03-13T09:47:45.000Z</time>
      </trkpt>
      <trkpt lat="47.27337" lon="-2.25036">
        <ele>42</ele>
        <time>2022-03-13T09:47:48.000Z</time>
      </trkpt>
      <trkpt lat="47.27334" lon="-2.2502">
        <ele>42</ele>
        <time>2022-03-13T09:47:54.000Z</time>
      </trkpt>
      <trkpt lat="47.27329" lon="-2.25006">
        <ele>42</ele>
        <time>2022-03-13T09:47:58.000Z</time>
      </trkpt>
      <trkpt lat="47.2733" lon="-2.25002">
        <ele>42</ele>
        <time>2022-03-13T09:47:59.000Z</time>
      </trkpt>
      <trkpt lat="47.27335" lon="-2.24985">
        <ele>42</ele>
        <time>2022-03-13T09:48:03.000Z</time>
      </trkpt>
      <trkpt lat="47.27337" lon="-2.24981">
        <ele>42</ele>
        <time>2022-03-13T09:48:04.000Z</time>
      </trkpt>
      <trkpt lat="47.27351" lon="-2.24963">
        <ele>42</ele>
        <time>2022-03-13T09:48:09.000Z</time>
      </trkpt>
      <trkpt lat="47.27363" lon="-2.24943">
        <ele>42</ele>
        <time>2022-03-13T09:48:14.000Z</time>
      </trkpt>
      <trkpt lat="47.27372" lon="-2.24929">
        <ele>42</ele>
        <time>2022-03-13T09:48:17.000Z</time>
      </trkpt>
      <trkpt lat="47.27383" lon="-2.24912">
        <ele>42</ele>
        <time>2022-03-13T09:48:21.000Z</time>
      </trkpt>
      <trkpt lat="47.27392" lon="-2.24898">
        <ele>42</ele>
        <time>2022-03-13T09:48:26.000Z</time>
      </trkpt>
      <trkpt lat="47.27402" lon="-2.2489">
        <ele>42</ele>
        <time>2022-03-13T09:48:31.000Z</time>
      </trkpt>
      <trkpt lat="47.27403" lon="-2.24888">
        <ele>42</ele>
        <time>2022-03-13T09:48:32.000Z</time>
      </trkpt>
      <trkpt lat="47.27406" lon="-2.24873">
        <ele>42</ele>
        <time>2022-03-13T09:48:38.000Z</time>
      </trkpt>
      <trkpt lat="47.27419" lon="-2.24837">
        <ele>42</ele>
        <time>2022-03-13T09:48:46.000Z</time>
      </trkpt>
      <trkpt lat="47.27439" lon="-2.24797">
        <ele>42</ele>
        <time>2022-03-13T09:48:51.000Z</time>
      </trkpt>
      <trkpt lat="47.27454" lon="-2.24784">
        <ele>42</ele>
        <time>2022-03-13T09:48:55.000Z</time>
      </trkpt>
      <trkpt lat="47.27459" lon="-2.24782">
        <ele>42.400001525879</ele>
        <time>2022-03-13T09:48:56.000Z</time>
      </trkpt>
      <trkpt lat="47.27462" lon="-2.24781">
        <ele>42.799999237061</ele>
        <time>2022-03-13T09:48:57.000Z</time>
      </trkpt>
      <trkpt lat="47.27466" lon="-2.2478">
        <ele>43.200000762939</ele>
        <time>2022-03-13T09:48:58.000Z</time>
      </trkpt>
      <trkpt lat="47.27469" lon="-2.24781">
        <ele>43.599998474121</ele>
        <time>2022-03-13T09:48:59.000Z</time>
      </trkpt>
      <trkpt lat="47.27473" lon="-2.24782">
        <ele>44</ele>
        <time>2022-03-13T09:49:00.000Z</time>
      </trkpt>
      <trkpt lat="47.27476" lon="-2.24783">
        <ele>44.400001525879</ele>
        <time>2022-03-13T09:49:01.000Z</time>
      </trkpt>
      <trkpt lat="47.27479" lon="-2.24784">
        <ele>44.799999237061</ele>
        <time>2022-03-13T09:49:02.000Z</time>
      </trkpt>
      <trkpt lat="47.27483" lon="-2.24784">
        <ele>45.400001525879</ele>
        <time>2022-03-13T09:49:03.000Z</time>
      </trkpt>
      <trkpt lat="47.27486" lon="-2.24783">
        <ele>45.799999237061</ele>
        <time>2022-03-13T09:49:04.000Z</time>
      </trkpt>
      <trkpt lat="47.2749" lon="-2.24783">
        <ele>46.200000762939</ele>
        <time>2022-03-13T09:49:05.000Z</time>
      </trkpt>
      <trkpt lat="47.27496" lon="-2.24784">
        <ele>46.200000762939</ele>
        <time>2022-03-13T09:49:07.000Z</time>
      </trkpt>
      <trkpt lat="47.27507" lon="-2.24784">
        <ele>46.599998474121</ele>
        <time>2022-03-13T09:49:10.000Z</time>
      </trkpt>
      <trkpt lat="47.2751" lon="-2.24784">
        <ele>47</ele>
        <time>2022-03-13T09:49:11.000Z</time>
      </trkpt>
      <trkpt lat="47.27514" lon="-2.24783">
        <ele>47.599998474121</ele>
        <time>2022-03-13T09:49:12.000Z</time>
      </trkpt>
      <trkpt lat="47.27518" lon="-2.24783">
        <ele>48</ele>
        <time>2022-03-13T09:49:13.000Z</time>
      </trkpt>
      <trkpt lat="47.27521" lon="-2.24783">
        <ele>48.400001525879</ele>
        <time>2022-03-13T09:49:14.000Z</time>
      </trkpt>
      <trkpt lat="47.27525" lon="-2.24783">
        <ele>48.400001525879</ele>
        <time>2022-03-13T09:49:15.000Z</time>
      </trkpt>
      <trkpt lat="47.27553" lon="-2.24783">
        <ele>48.400001525879</ele>
        <time>2022-03-13T09:49:22.000Z</time>
      </trkpt>
      <trkpt lat="47.27576" lon="-2.24783">
        <ele>48.400001525879</ele>
        <time>2022-03-13T09:49:28.000Z</time>
      </trkpt>
      <trkpt lat="47.27596" lon="-2.24785">
        <ele>48.400001525879</ele>
        <time>2022-03-13T09:49:33.000Z</time>
      </trkpt>
      <trkpt lat="47.27619" lon="-2.24782">
        <ele>48.400001525879</ele>
        <time>2022-03-13T09:49:39.000Z</time>
      </trkpt>
      <trkpt lat="47.27626" lon="-2.24782">
        <ele>48.799999237061</ele>
        <time>2022-03-13T09:49:41.000Z</time>
      </trkpt>
      <trkpt lat="47.27631" lon="-2.24783">
        <ele>49.200000762939</ele>
        <time>2022-03-13T09:49:42.000Z</time>
      </trkpt>
      <trkpt lat="47.27635" lon="-2.24783">
        <ele>49.599998474121</ele>
        <time>2022-03-13T09:49:43.000Z</time>
      </trkpt>
      <trkpt lat="47.27639" lon="-2.24784">
        <ele>50</ele>
        <time>2022-03-13T09:49:44.000Z</time>
      </trkpt>
      <trkpt lat="47.27644" lon="-2.24787">
        <ele>50.400001525879</ele>
        <time>2022-03-13T09:49:45.000Z</time>
      </trkpt>
      <trkpt lat="47.27659" lon="-2.24793">
        <ele>50.400001525879</ele>
        <time>2022-03-13T09:49:48.000Z</time>
      </trkpt>
      <trkpt lat="47.27678" lon="-2.24799">
        <ele>50.400001525879</ele>
        <time>2022-03-13T09:49:50.000Z</time>
      </trkpt>
      <trkpt lat="47.27697" lon="-2.24803">
        <ele>50.400001525879</ele>
        <time>2022-03-13T09:49:53.000Z</time>
      </trkpt>
      <trkpt lat="47.27721" lon="-2.24803">
        <ele>50.400001525879</ele>
        <time>2022-03-13T09:49:57.000Z</time>
      </trkpt>
      <trkpt lat="47.27759" lon="-2.24802">
        <ele>50.400001525879</ele>
        <time>2022-03-13T09:50:04.000Z</time>
      </trkpt>
      <trkpt lat="47.27805" lon="-2.248">
        <ele>50.400001525879</ele>
        <time>2022-03-13T09:50:13.000Z</time>
      </trkpt>
      <trkpt lat="47.27844" lon="-2.24794">
        <ele>50.400001525879</ele>
        <time>2022-03-13T09:50:21.000Z</time>
      </trkpt>
      <trkpt lat="47.27848" lon="-2.24791">
        <ele>50.400001525879</ele>
        <time>2022-03-13T09:50:22.000Z</time>
      </trkpt>
      <trkpt lat="47.27853" lon="-2.24786">
        <ele>50.400001525879</ele>
        <time>2022-03-13T09:50:24.000Z</time>
      </trkpt>
      <trkpt lat="47.27856" lon="-2.2478">
        <ele>50.400001525879</ele>
        <time>2022-03-13T09:50:26.000Z</time>
      </trkpt>
      <trkpt lat="47.27856" lon="-2.24778">
        <ele>50.400001525879</ele>
        <time>2022-03-13T09:50:27.000Z</time>
      </trkpt>
      <trkpt lat="47.27856" lon="-2.24777">
        <ele>50.400001525879</ele>
        <time>2022-03-13T09:50:28.000Z</time>
      </trkpt>
      <trkpt lat="47.27863" lon="-2.24772">
        <ele>50.400001525879</ele>
        <time>2022-03-13T09:50:33.000Z</time>
      </trkpt>
      <trkpt lat="47.27867" lon="-2.24772">
        <ele>50.400001525879</ele>
        <time>2022-03-13T09:50:35.000Z</time>
      </trkpt>
      <trkpt lat="47.27868" lon="-2.24773">
        <ele>50.400001525879</ele>
        <time>2022-03-13T09:50:36.000Z</time>
      </trkpt>
      <trkpt lat="47.27869" lon="-2.24777">
        <ele>50.400001525879</ele>
        <time>2022-03-13T09:50:38.000Z</time>
      </trkpt>
      <trkpt lat="47.27877" lon="-2.24783">
        <ele>50.400001525879</ele>
        <time>2022-03-13T09:50:42.000Z</time>
      </trkpt>
      <trkpt lat="47.27881" lon="-2.24783">
        <ele>50.400001525879</ele>
        <time>2022-03-13T09:50:44.000Z</time>
      </trkpt>
      <trkpt lat="47.27882" lon="-2.24783">
        <ele>50.400001525879</ele>
        <time>2022-03-13T09:50:46.000Z</time>
      </trkpt>
      <trkpt lat="47.27887" lon="-2.24782">
        <ele>52.200000762939</ele>
        <time>2022-03-13T09:50:51.000Z</time>
      </trkpt>
      <trkpt lat="47.27889" lon="-2.24783">
        <ele>52.599998474121</ele>
        <time>2022-03-13T09:50:52.000Z</time>
      </trkpt>
      <trkpt lat="47.27897" lon="-2.24786">
        <ele>52.599998474121</ele>
        <time>2022-03-13T09:50:56.000Z</time>
      </trkpt>
      <trkpt lat="47.27896" lon="-2.24789">
        <ele>52.599998474121</ele>
        <time>2022-03-13T09:50:57.000Z</time>
      </trkpt>
      <trkpt lat="47.27899" lon="-2.24799">
        <ele>52.599998474121</ele>
        <time>2022-03-13T09:51:02.000Z</time>
      </trkpt>
      <trkpt lat="47.279" lon="-2.248">
        <ele>52.599998474121</ele>
        <time>2022-03-13T09:51:03.000Z</time>
      </trkpt>
      <trkpt lat="47.27911" lon="-2.24806">
        <ele>52.599998474121</ele>
        <time>2022-03-13T09:51:08.000Z</time>
      </trkpt>
      <trkpt lat="47.27931" lon="-2.24815">
        <ele>52.599998474121</ele>
        <time>2022-03-13T09:51:14.000Z</time>
      </trkpt>
      <trkpt lat="47.27944" lon="-2.24821">
        <ele>52.599998474121</ele>
        <time>2022-03-13T09:51:18.000Z</time>
      </trkpt>
      <trkpt lat="47.27948" lon="-2.2482">
        <ele>52.599998474121</ele>
        <time>2022-03-13T09:51:19.000Z</time>
      </trkpt>
      <trkpt lat="47.2796" lon="-2.24822">
        <ele>52.599998474121</ele>
        <time>2022-03-13T09:51:22.000Z</time>
      </trkpt>
      <trkpt lat="47.27969" lon="-2.24824">
        <ele>52.599998474121</ele>
        <time>2022-03-13T09:51:24.000Z</time>
      </trkpt>
      <trkpt lat="47.27996" lon="-2.24829">
        <ele>52.599998474121</ele>
        <time>2022-03-13T09:51:30.000Z</time>
      </trkpt>
      <trkpt lat="47.2801" lon="-2.24833">
        <ele>52.599998474121</ele>
        <time>2022-03-13T09:51:33.000Z</time>
      </trkpt>
      <trkpt lat="47.28024" lon="-2.24836">
        <ele>52.599998474121</ele>
        <time>2022-03-13T09:51:36.000Z</time>
      </trkpt>
      <trkpt lat="47.28041" lon="-2.24839">
        <ele>52.599998474121</ele>
        <time>2022-03-13T09:51:40.000Z</time>
      </trkpt>
      <trkpt lat="47.28057" lon="-2.24842">
        <ele>52.599998474121</ele>
        <time>2022-03-13T09:51:44.000Z</time>
      </trkpt>
      <trkpt lat="47.28076" lon="-2.24841">
        <ele>52.599998474121</ele>
        <time>2022-03-13T09:51:48.000Z</time>
      </trkpt>
      <trkpt lat="47.2808" lon="-2.24841">
        <ele>52.599998474121</ele>
        <time>2022-03-13T09:51:49.000Z</time>
      </trkpt>
      <trkpt lat="47.28085" lon="-2.24841">
        <ele>52.599998474121</ele>
        <time>2022-03-13T09:51:50.000Z</time>
      </trkpt>
      <trkpt lat="47.28105" lon="-2.24848">
        <ele>52.599998474121</ele>
        <time>2022-03-13T09:51:54.000Z</time>
      </trkpt>
      <trkpt lat="47.28116" lon="-2.24851">
        <ele>52.599998474121</ele>
        <time>2022-03-13T09:51:56.000Z</time>
      </trkpt>
      <trkpt lat="47.28128" lon="-2.24853">
        <ele>52.200000762939</ele>
        <time>2022-03-13T09:51:58.000Z</time>
      </trkpt>
      <trkpt lat="47.28133" lon="-2.24854">
        <ele>51.799999237061</ele>
        <time>2022-03-13T09:51:59.000Z</time>
      </trkpt>
      <trkpt lat="47.28139" lon="-2.24854">
        <ele>51.200000762939</ele>
        <time>2022-03-13T09:52:00.000Z</time>
      </trkpt>
      <trkpt lat="47.28143" lon="-2.24853">
        <ele>50.799999237061</ele>
        <time>2022-03-13T09:52:01.000Z</time>
      </trkpt>
      <trkpt lat="47.28147" lon="-2.24851">
        <ele>50.400001525879</ele>
        <time>2022-03-13T09:52:02.000Z</time>
      </trkpt>
      <trkpt lat="47.2815" lon="-2.2485">
        <ele>50</ele>
        <time>2022-03-13T09:52:03.000Z</time>
      </trkpt>
      <trkpt lat="47.28152" lon="-2.24847">
        <ele>49.599998474121</ele>
        <time>2022-03-13T09:52:04.000Z</time>
      </trkpt>
      <trkpt lat="47.28155" lon="-2.24844">
        <ele>49.200000762939</ele>
        <time>2022-03-13T09:52:05.000Z</time>
      </trkpt>
      <trkpt lat="47.28155" lon="-2.2484">
        <ele>48.799999237061</ele>
        <time>2022-03-13T09:52:06.000Z</time>
      </trkpt>
      <trkpt lat="47.28156" lon="-2.24836">
        <ele>48.400001525879</ele>
        <time>2022-03-13T09:52:07.000Z</time>
      </trkpt>
      <trkpt lat="47.28156" lon="-2.2483">
        <ele>48.400001525879</ele>
        <time>2022-03-13T09:52:08.000Z</time>
      </trkpt>
      <trkpt lat="47.28161" lon="-2.24808">
        <ele>48.400001525879</ele>
        <time>2022-03-13T09:52:13.000Z</time>
      </trkpt>
      <trkpt lat="47.28164" lon="-2.24806">
        <ele>48.400001525879</ele>
        <time>2022-03-13T09:52:14.000Z</time>
      </trkpt>
      <trkpt lat="47.28172" lon="-2.24802">
        <ele>48.400001525879</ele>
        <time>2022-03-13T09:52:16.000Z</time>
      </trkpt>
      <trkpt lat="47.28177" lon="-2.248">
        <ele>47.799999237061</ele>
        <time>2022-03-13T09:52:17.000Z</time>
      </trkpt>
      <trkpt lat="47.28184" lon="-2.248">
        <ele>46.799999237061</ele>
        <time>2022-03-13T09:52:18.000Z</time>
      </trkpt>
      <trkpt lat="47.28191" lon="-2.248">
        <ele>46.200000762939</ele>
        <time>2022-03-13T09:52:19.000Z</time>
      </trkpt>
      <trkpt lat="47.28199" lon="-2.248">
        <ele>45.599998474121</ele>
        <time>2022-03-13T09:52:20.000Z</time>
      </trkpt>
      <trkpt lat="47.28207" lon="-2.248">
        <ele>45</ele>
        <time>2022-03-13T09:52:21.000Z</time>
      </trkpt>
      <trkpt lat="47.28215" lon="-2.248">
        <ele>44.200000762939</ele>
        <time>2022-03-13T09:52:22.000Z</time>
      </trkpt>
      <trkpt lat="47.28223" lon="-2.24799">
        <ele>43.599998474121</ele>
        <time>2022-03-13T09:52:23.000Z</time>
      </trkpt>
      <trkpt lat="47.28232" lon="-2.24799">
        <ele>43</ele>
        <time>2022-03-13T09:52:24.000Z</time>
      </trkpt>
      <trkpt lat="47.28241" lon="-2.24797">
        <ele>42.200000762939</ele>
        <time>2022-03-13T09:52:25.000Z</time>
      </trkpt>
      <trkpt lat="47.28249" lon="-2.24794">
        <ele>41.599998474121</ele>
        <time>2022-03-13T09:52:26.000Z</time>
      </trkpt>
      <trkpt lat="47.28257" lon="-2.24791">
        <ele>41.200000762939</ele>
        <time>2022-03-13T09:52:27.000Z</time>
      </trkpt>
      <trkpt lat="47.28265" lon="-2.24786">
        <ele>40.799999237061</ele>
        <time>2022-03-13T09:52:28.000Z</time>
      </trkpt>
      <trkpt lat="47.28271" lon="-2.24782">
        <ele>40.400001525879</ele>
        <time>2022-03-13T09:52:29.000Z</time>
      </trkpt>
      <trkpt lat="47.28279" lon="-2.24777">
        <ele>39.799999237061</ele>
        <time>2022-03-13T09:52:30.000Z</time>
      </trkpt>
      <trkpt lat="47.28287" lon="-2.24773">
        <ele>39.400001525879</ele>
        <time>2022-03-13T09:52:31.000Z</time>
      </trkpt>
      <trkpt lat="47.28316" lon="-2.24757">
        <ele>39</ele>
        <time>2022-03-13T09:52:35.000Z</time>
      </trkpt>
      <trkpt lat="47.28323" lon="-2.24754">
        <ele>38.599998474121</ele>
        <time>2022-03-13T09:52:36.000Z</time>
      </trkpt>
      <trkpt lat="47.2833" lon="-2.24752">
        <ele>38</ele>
        <time>2022-03-13T09:52:37.000Z</time>
      </trkpt>
      <trkpt lat="47.28336" lon="-2.24751">
        <ele>37.599998474121</ele>
        <time>2022-03-13T09:52:38.000Z</time>
      </trkpt>
      <trkpt lat="47.28342" lon="-2.24748">
        <ele>37.200000762939</ele>
        <time>2022-03-13T09:52:39.000Z</time>
      </trkpt>
      <trkpt lat="47.28345" lon="-2.24745">
        <ele>37.200000762939</ele>
        <time>2022-03-13T09:52:40.000Z</time>
      </trkpt>
      <trkpt lat="47.28356" lon="-2.2474">
        <ele>37.200000762939</ele>
        <time>2022-03-13T09:52:44.000Z</time>
      </trkpt>
      <trkpt lat="47.2836" lon="-2.2475">
        <ele>36.599998474121</ele>
        <time>2022-03-13T09:52:46.000Z</time>
      </trkpt>
      <trkpt lat="47.28361" lon="-2.24756">
        <ele>36.200000762939</ele>
        <time>2022-03-13T09:52:47.000Z</time>
      </trkpt>
      <trkpt lat="47.28362" lon="-2.24763">
        <ele>35.799999237061</ele>
        <time>2022-03-13T09:52:48.000Z</time>
      </trkpt>
      <trkpt lat="47.28366" lon="-2.24769">
        <ele>35.400001525879</ele>
        <time>2022-03-13T09:52:49.000Z</time>
      </trkpt>
      <trkpt lat="47.2837" lon="-2.24772">
        <ele>35</ele>
        <time>2022-03-13T09:52:50.000Z</time>
      </trkpt>
      <trkpt lat="47.28374" lon="-2.24773">
        <ele>35</ele>
        <time>2022-03-13T09:52:51.000Z</time>
      </trkpt>
      <trkpt lat="47.2839" lon="-2.24766">
        <ele>35</ele>
        <time>2022-03-13T09:52:54.000Z</time>
      </trkpt>
      <trkpt lat="47.28395" lon="-2.24763">
        <ele>35</ele>
        <time>2022-03-13T09:52:55.000Z</time>
      </trkpt>
      <trkpt lat="47.28406" lon="-2.24755">
        <ele>35</ele>
        <time>2022-03-13T09:52:57.000Z</time>
      </trkpt>
      <trkpt lat="47.28418" lon="-2.24745">
        <ele>35</ele>
        <time>2022-03-13T09:52:59.000Z</time>
      </trkpt>
      <trkpt lat="47.2843" lon="-2.24737">
        <ele>35</ele>
        <time>2022-03-13T09:53:01.000Z</time>
      </trkpt>
      <trkpt lat="47.28454" lon="-2.2472">
        <ele>35</ele>
        <time>2022-03-13T09:53:05.000Z</time>
      </trkpt>
      <trkpt lat="47.2846" lon="-2.24716">
        <ele>34.599998474121</ele>
        <time>2022-03-13T09:53:06.000Z</time>
      </trkpt>
      <trkpt lat="47.28466" lon="-2.24711">
        <ele>34.200000762939</ele>
        <time>2022-03-13T09:53:07.000Z</time>
      </trkpt>
      <trkpt lat="47.28471" lon="-2.24707">
        <ele>33.400001525879</ele>
        <time>2022-03-13T09:53:08.000Z</time>
      </trkpt>
      <trkpt lat="47.28477" lon="-2.24702">
        <ele>33</ele>
        <time>2022-03-13T09:53:09.000Z</time>
      </trkpt>
      <trkpt lat="47.28502" lon="-2.24687">
        <ele>33</ele>
        <time>2022-03-13T09:53:13.000Z</time>
      </trkpt>
      <trkpt lat="47.28528" lon="-2.24667">
        <ele>33</ele>
        <time>2022-03-13T09:53:18.000Z</time>
      </trkpt>
      <trkpt lat="47.28541" lon="-2.24657">
        <ele>33</ele>
        <time>2022-03-13T09:53:21.000Z</time>
      </trkpt>
      <trkpt lat="47.28548" lon="-2.24649">
        <ele>33</ele>
        <time>2022-03-13T09:53:23.000Z</time>
      </trkpt>
      <trkpt lat="47.28557" lon="-2.24642">
        <ele>33</ele>
        <time>2022-03-13T09:53:25.000Z</time>
      </trkpt>
      <trkpt lat="47.28565" lon="-2.24635">
        <ele>33</ele>
        <time>2022-03-13T09:53:27.000Z</time>
      </trkpt>
      <trkpt lat="47.28577" lon="-2.24627">
        <ele>33</ele>
        <time>2022-03-13T09:53:31.000Z</time>
      </trkpt>
      <trkpt lat="47.28587" lon="-2.24613">
        <ele>33</ele>
        <time>2022-03-13T09:53:37.000Z</time>
      </trkpt>
      <trkpt lat="47.286" lon="-2.24598">
        <ele>33</ele>
        <time>2022-03-13T09:53:41.000Z</time>
      </trkpt>
      <trkpt lat="47.28605" lon="-2.24578">
        <ele>33</ele>
        <time>2022-03-13T09:53:44.000Z</time>
      </trkpt>
      <trkpt lat="47.28608" lon="-2.24564">
        <ele>33</ele>
        <time>2022-03-13T09:53:46.000Z</time>
      </trkpt>
      <trkpt lat="47.2861" lon="-2.24557">
        <ele>33</ele>
        <time>2022-03-13T09:53:47.000Z</time>
      </trkpt>
      <trkpt lat="47.28615" lon="-2.24536">
        <ele>33</ele>
        <time>2022-03-13T09:53:50.000Z</time>
      </trkpt>
      <trkpt lat="47.28622" lon="-2.24504">
        <ele>33</ele>
        <time>2022-03-13T09:53:54.000Z</time>
      </trkpt>
      <trkpt lat="47.28624" lon="-2.24495">
        <ele>33</ele>
        <time>2022-03-13T09:53:55.000Z</time>
      </trkpt>
      <trkpt lat="47.28639" lon="-2.24442">
        <ele>33</ele>
        <time>2022-03-13T09:54:01.000Z</time>
      </trkpt>
      <trkpt lat="47.28649" lon="-2.24391">
        <ele>33</ele>
        <time>2022-03-13T09:54:07.000Z</time>
      </trkpt>
      <trkpt lat="47.28653" lon="-2.24375">
        <ele>33</ele>
        <time>2022-03-13T09:54:09.000Z</time>
      </trkpt>
      <trkpt lat="47.28661" lon="-2.2435">
        <ele>33</ele>
        <time>2022-03-13T09:54:12.000Z</time>
      </trkpt>
      <trkpt lat="47.28675" lon="-2.24297">
        <ele>33</ele>
        <time>2022-03-13T09:54:18.000Z</time>
      </trkpt>
      <trkpt lat="47.28679" lon="-2.24282">
        <ele>33</ele>
        <time>2022-03-13T09:54:20.000Z</time>
      </trkpt>
      <trkpt lat="47.28684" lon="-2.24259">
        <ele>33</ele>
        <time>2022-03-13T09:54:23.000Z</time>
      </trkpt>
      <trkpt lat="47.28684" lon="-2.24252">
        <ele>33</ele>
        <time>2022-03-13T09:54:24.000Z</time>
      </trkpt>
      <trkpt lat="47.28682" lon="-2.24232">
        <ele>33</ele>
        <time>2022-03-13T09:54:27.000Z</time>
      </trkpt>
      <trkpt lat="47.28681" lon="-2.24224">
        <ele>33</ele>
        <time>2022-03-13T09:54:28.000Z</time>
      </trkpt>
      <trkpt lat="47.28674" lon="-2.24175">
        <ele>33</ele>
        <time>2022-03-13T09:54:34.000Z</time>
      </trkpt>
      <trkpt lat="47.28668" lon="-2.24111">
        <ele>33</ele>
        <time>2022-03-13T09:54:41.000Z</time>
      </trkpt>
      <trkpt lat="47.28665" lon="-2.24055">
        <ele>33</ele>
        <time>2022-03-13T09:54:47.000Z</time>
      </trkpt>
      <trkpt lat="47.28663" lon="-2.24005">
        <ele>33</ele>
        <time>2022-03-13T09:54:52.000Z</time>
      </trkpt>
      <trkpt lat="47.28655" lon="-2.23945">
        <ele>33</ele>
        <time>2022-03-13T09:54:58.000Z</time>
      </trkpt>
      <trkpt lat="47.28647" lon="-2.23877">
        <ele>33</ele>
        <time>2022-03-13T09:55:05.000Z</time>
      </trkpt>
      <trkpt lat="47.28642" lon="-2.23838">
        <ele>33</ele>
        <time>2022-03-13T09:55:09.000Z</time>
      </trkpt>
      <trkpt lat="47.28638" lon="-2.23809">
        <ele>33</ele>
        <time>2022-03-13T09:55:12.000Z</time>
      </trkpt>
      <trkpt lat="47.28635" lon="-2.23801">
        <ele>33</ele>
        <time>2022-03-13T09:55:13.000Z</time>
      </trkpt>
      <trkpt lat="47.28632" lon="-2.23773">
        <ele>33</ele>
        <time>2022-03-13T09:55:16.000Z</time>
      </trkpt>
      <trkpt lat="47.28622" lon="-2.23697">
        <ele>33</ele>
        <time>2022-03-13T09:55:24.000Z</time>
      </trkpt>
      <trkpt lat="47.28619" lon="-2.23644">
        <ele>33</ele>
        <time>2022-03-13T09:55:30.000Z</time>
      </trkpt>
      <trkpt lat="47.28617" lon="-2.23612">
        <ele>32.599998474121</ele>
        <time>2022-03-13T09:55:34.000Z</time>
      </trkpt>
      <trkpt lat="47.28617" lon="-2.23605">
        <ele>32.200000762939</ele>
        <time>2022-03-13T09:55:35.000Z</time>
      </trkpt>
      <trkpt lat="47.28618" lon="-2.23598">
        <ele>31.799999237061</ele>
        <time>2022-03-13T09:55:36.000Z</time>
      </trkpt>
      <trkpt lat="47.2862" lon="-2.23592">
        <ele>31.200000762939</ele>
        <time>2022-03-13T09:55:37.000Z</time>
      </trkpt>
      <trkpt lat="47.28622" lon="-2.23585">
        <ele>30.799999237061</ele>
        <time>2022-03-13T09:55:38.000Z</time>
      </trkpt>
      <trkpt lat="47.28625" lon="-2.23571">
        <ele>30.799999237061</ele>
        <time>2022-03-13T09:55:40.000Z</time>
      </trkpt>
      <trkpt lat="47.28638" lon="-2.2356">
        <ele>30.799999237061</ele>
        <time>2022-03-13T09:55:43.000Z</time>
      </trkpt>
      <trkpt lat="47.28647" lon="-2.23544">
        <ele>30.799999237061</ele>
        <time>2022-03-13T09:55:46.000Z</time>
      </trkpt>
      <trkpt lat="47.28648" lon="-2.23524">
        <ele>30.799999237061</ele>
        <time>2022-03-13T09:55:49.000Z</time>
      </trkpt>
      <trkpt lat="47.28649" lon="-2.23517">
        <ele>30.799999237061</ele>
        <time>2022-03-13T09:55:50.000Z</time>
      </trkpt>
      <trkpt lat="47.28653" lon="-2.23498">
        <ele>30.799999237061</ele>
        <time>2022-03-13T09:55:53.000Z</time>
      </trkpt>
      <trkpt lat="47.28653" lon="-2.23485">
        <ele>30.799999237061</ele>
        <time>2022-03-13T09:55:55.000Z</time>
      </trkpt>
      <trkpt lat="47.28653" lon="-2.23478">
        <ele>30.799999237061</ele>
        <time>2022-03-13T09:55:56.000Z</time>
      </trkpt>
      <trkpt lat="47.28656" lon="-2.23451">
        <ele>30.799999237061</ele>
        <time>2022-03-13T09:56:00.000Z</time>
      </trkpt>
      <trkpt lat="47.2865" lon="-2.23426">
        <ele>30.799999237061</ele>
        <time>2022-03-13T09:56:04.000Z</time>
      </trkpt>
      <trkpt lat="47.28647" lon="-2.23419">
        <ele>30.799999237061</ele>
        <time>2022-03-13T09:56:05.000Z</time>
      </trkpt>
      <trkpt lat="47.28646" lon="-2.2341">
        <ele>30.799999237061</ele>
        <time>2022-03-13T09:56:06.000Z</time>
      </trkpt>
      <trkpt lat="47.28644" lon="-2.23395">
        <ele>30.799999237061</ele>
        <time>2022-03-13T09:56:08.000Z</time>
      </trkpt>
      <trkpt lat="47.28651" lon="-2.23369">
        <ele>30.799999237061</ele>
        <time>2022-03-13T09:56:12.000Z</time>
      </trkpt>
      <trkpt lat="47.28656" lon="-2.23363">
        <ele>30.799999237061</ele>
        <time>2022-03-13T09:56:14.000Z</time>
      </trkpt>
      <trkpt lat="47.28658" lon="-2.23361">
        <ele>30.799999237061</ele>
        <time>2022-03-13T09:56:16.000Z</time>
      </trkpt>
      <trkpt lat="47.28663" lon="-2.23359">
        <ele>30.799999237061</ele>
        <time>2022-03-13T09:56:21.000Z</time>
      </trkpt>
      <trkpt lat="47.28665" lon="-2.23354">
        <ele>30.799999237061</ele>
        <time>2022-03-13T09:56:23.000Z</time>
      </trkpt>
      <trkpt lat="47.28667" lon="-2.23347">
        <ele>30.799999237061</ele>
        <time>2022-03-13T09:56:25.000Z</time>
      </trkpt>
      <trkpt lat="47.2867" lon="-2.23319">
        <ele>30.799999237061</ele>
        <time>2022-03-13T09:56:32.000Z</time>
      </trkpt>
      <trkpt lat="47.28673" lon="-2.23302">
        <ele>30.799999237061</ele>
        <time>2022-03-13T09:56:38.000Z</time>
      </trkpt>
      <trkpt lat="47.28677" lon="-2.23284">
        <ele>30.799999237061</ele>
        <time>2022-03-13T09:56:43.000Z</time>
      </trkpt>
      <trkpt lat="47.28686" lon="-2.23258">
        <ele>30.799999237061</ele>
        <time>2022-03-13T09:56:49.000Z</time>
      </trkpt>
      <trkpt lat="47.28687" lon="-2.23256">
        <ele>31.39999961853</ele>
        <time>2022-03-13T09:56:50.000Z</time>
      </trkpt>
      <trkpt lat="47.28688" lon="-2.23253">
        <ele>31.799999237061</ele>
        <time>2022-03-13T09:56:51.000Z</time>
      </trkpt>
      <trkpt lat="47.28688" lon="-2.23251">
        <ele>32.200000762939</ele>
        <time>2022-03-13T09:56:52.000Z</time>
      </trkpt>
      <trkpt lat="47.28687" lon="-2.23247">
        <ele>32.799999237061</ele>
        <time>2022-03-13T09:56:53.000Z</time>
      </trkpt>
      <trkpt lat="47.28685" lon="-2.23244">
        <ele>33.200000762939</ele>
        <time>2022-03-13T09:56:54.000Z</time>
      </trkpt>
      <trkpt lat="47.28677" lon="-2.23228">
        <ele>33.200000762939</ele>
        <time>2022-03-13T09:56:57.000Z</time>
      </trkpt>
      <trkpt lat="47.28674" lon="-2.23216">
        <ele>33.200000762939</ele>
        <time>2022-03-13T09:56:58.000Z</time>
      </trkpt>
      <trkpt lat="47.28671" lon="-2.23207">
        <ele>32.799999237061</ele>
        <time>2022-03-13T09:56:59.000Z</time>
      </trkpt>
      <trkpt lat="47.28667" lon="-2.23199">
        <ele>32.200000762939</ele>
        <time>2022-03-13T09:57:00.000Z</time>
      </trkpt>
      <trkpt lat="47.28662" lon="-2.23194">
        <ele>31.799999237061</ele>
        <time>2022-03-13T09:57:01.000Z</time>
      </trkpt>
      <trkpt lat="47.28657" lon="-2.23191">
        <ele>31.200000762939</ele>
        <time>2022-03-13T09:57:02.000Z</time>
      </trkpt>
      <trkpt lat="47.28651" lon="-2.2319">
        <ele>30.60000038147</ele>
        <time>2022-03-13T09:57:03.000Z</time>
      </trkpt>
      <trkpt lat="47.28646" lon="-2.23189">
        <ele>30.60000038147</ele>
        <time>2022-03-13T09:57:04.000Z</time>
      </trkpt>
      <trkpt lat="47.28641" lon="-2.23189">
        <ele>30.60000038147</ele>
        <time>2022-03-13T09:57:05.000Z</time>
      </trkpt>
      <trkpt lat="47.28631" lon="-2.23191">
        <ele>30.60000038147</ele>
        <time>2022-03-13T09:57:07.000Z</time>
      </trkpt>
      <trkpt lat="47.28621" lon="-2.23196">
        <ele>30.60000038147</ele>
        <time>2022-03-13T09:57:09.000Z</time>
      </trkpt>
      <trkpt lat="47.28608" lon="-2.23203">
        <ele>30.60000038147</ele>
        <time>2022-03-13T09:57:12.000Z</time>
      </trkpt>
      <trkpt lat="47.28604" lon="-2.23206">
        <ele>30.60000038147</ele>
        <time>2022-03-13T09:57:13.000Z</time>
      </trkpt>
      <trkpt lat="47.28595" lon="-2.23221">
        <ele>30.60000038147</ele>
        <time>2022-03-13T09:57:16.000Z</time>
      </trkpt>
      <trkpt lat="47.28592" lon="-2.23234">
        <ele>30.60000038147</ele>
        <time>2022-03-13T09:57:18.000Z</time>
      </trkpt>
      <trkpt lat="47.28589" lon="-2.23249">
        <ele>30.60000038147</ele>
        <time>2022-03-13T09:57:20.000Z</time>
      </trkpt>
      <trkpt lat="47.28589" lon="-2.23256">
        <ele>30.60000038147</ele>
        <time>2022-03-13T09:57:21.000Z</time>
      </trkpt>
      <trkpt lat="47.28592" lon="-2.23277">
        <ele>30.60000038147</ele>
        <time>2022-03-13T09:57:24.000Z</time>
      </trkpt>
      <trkpt lat="47.28595" lon="-2.23286">
        <ele>30.60000038147</ele>
        <time>2022-03-13T09:57:25.000Z</time>
      </trkpt>
      <trkpt lat="47.28599" lon="-2.23296">
        <ele>30.60000038147</ele>
        <time>2022-03-13T09:57:27.000Z</time>
      </trkpt>
      <trkpt lat="47.28611" lon="-2.23302">
        <ele>30.60000038147</ele>
        <time>2022-03-13T09:57:30.000Z</time>
      </trkpt>
      <trkpt lat="47.28616" lon="-2.23303">
        <ele>30.60000038147</ele>
        <time>2022-03-13T09:57:31.000Z</time>
      </trkpt>
      <trkpt lat="47.28635" lon="-2.23302">
        <ele>30.60000038147</ele>
        <time>2022-03-13T09:57:36.000Z</time>
      </trkpt>
      <trkpt lat="47.28646" lon="-2.23299">
        <ele>30.200000762939</ele>
        <time>2022-03-13T09:57:40.000Z</time>
      </trkpt>
      <trkpt lat="47.28649" lon="-2.233">
        <ele>29.799999237061</ele>
        <time>2022-03-13T09:57:41.000Z</time>
      </trkpt>
      <trkpt lat="47.28651" lon="-2.233">
        <ele>29.39999961853</ele>
        <time>2022-03-13T09:57:42.000Z</time>
      </trkpt>
      <trkpt lat="47.28656" lon="-2.23301">
        <ele>29</ele>
        <time>2022-03-13T09:57:43.000Z</time>
      </trkpt>
      <trkpt lat="47.28659" lon="-2.23301">
        <ele>28.60000038147</ele>
        <time>2022-03-13T09:57:44.000Z</time>
      </trkpt>
      <trkpt lat="47.28661" lon="-2.23301">
        <ele>29.200000762939</ele>
        <time>2022-03-13T09:57:45.000Z</time>
      </trkpt>
      <trkpt lat="47.28662" lon="-2.23299">
        <ele>29.60000038147</ele>
        <time>2022-03-13T09:57:46.000Z</time>
      </trkpt>
      <trkpt lat="47.28662" lon="-2.23296">
        <ele>30</ele>
        <time>2022-03-13T09:57:47.000Z</time>
      </trkpt>
      <trkpt lat="47.28661" lon="-2.23292">
        <ele>30.60000038147</ele>
        <time>2022-03-13T09:57:48.000Z</time>
      </trkpt>
      <trkpt lat="47.28661" lon="-2.23292">
        <ele>31</ele>
        <time>2022-03-13T09:57:49.000Z</time>
      </trkpt>
      <trkpt lat="47.28656" lon="-2.23294">
        <ele>31</ele>
        <time>2022-03-13T09:57:51.000Z</time>
      </trkpt>
      <trkpt lat="47.2865" lon="-2.2331">
        <ele>31</ele>
        <time>2022-03-13T09:57:53.000Z</time>
      </trkpt>
      <trkpt lat="47.28649" lon="-2.23331">
        <ele>31</ele>
        <time>2022-03-13T09:57:56.000Z</time>
      </trkpt>
      <trkpt lat="47.28649" lon="-2.23338">
        <ele>31</ele>
        <time>2022-03-13T09:57:57.000Z</time>
      </trkpt>
      <trkpt lat="47.28642" lon="-2.23381">
        <ele>31</ele>
        <time>2022-03-13T09:58:03.000Z</time>
      </trkpt>
      <trkpt lat="47.28641" lon="-2.23389">
        <ele>31</ele>
        <time>2022-03-13T09:58:04.000Z</time>
      </trkpt>
      <trkpt lat="47.28644" lon="-2.23416">
        <ele>31</ele>
        <time>2022-03-13T09:58:08.000Z</time>
      </trkpt>
      <trkpt lat="47.28647" lon="-2.23426">
        <ele>31</ele>
        <time>2022-03-13T09:58:10.000Z</time>
      </trkpt>
      <trkpt lat="47.28653" lon="-2.23439">
        <ele>31</ele>
        <time>2022-03-13T09:58:13.000Z</time>
      </trkpt>
      <trkpt lat="47.28655" lon="-2.23459">
        <ele>31</ele>
        <time>2022-03-13T09:58:17.000Z</time>
      </trkpt>
      <trkpt lat="47.28653" lon="-2.23466">
        <ele>31</ele>
        <time>2022-03-13T09:58:18.000Z</time>
      </trkpt>
      <trkpt lat="47.28653" lon="-2.23473">
        <ele>31</ele>
        <time>2022-03-13T09:58:19.000Z</time>
      </trkpt>
      <trkpt lat="47.2865" lon="-2.23501">
        <ele>31</ele>
        <time>2022-03-13T09:58:23.000Z</time>
      </trkpt>
      <trkpt lat="47.28649" lon="-2.23526">
        <ele>31</ele>
        <time>2022-03-13T09:58:26.000Z</time>
      </trkpt>
      <trkpt lat="47.2865" lon="-2.23546">
        <ele>31</ele>
        <time>2022-03-13T09:58:28.000Z</time>
      </trkpt>
      <trkpt lat="47.28652" lon="-2.23553">
        <ele>31</ele>
        <time>2022-03-13T09:58:29.000Z</time>
      </trkpt>
      <trkpt lat="47.28657" lon="-2.23558">
        <ele>31</ele>
        <time>2022-03-13T09:58:31.000Z</time>
      </trkpt>
      <trkpt lat="47.28673" lon="-2.23567">
        <ele>31</ele>
        <time>2022-03-13T09:58:35.000Z</time>
      </trkpt>
      <trkpt lat="47.28684" lon="-2.23581">
        <ele>31</ele>
        <time>2022-03-13T09:58:38.000Z</time>
      </trkpt>
      <trkpt lat="47.28692" lon="-2.23588">
        <ele>31</ele>
        <time>2022-03-13T09:58:40.000Z</time>
      </trkpt>
      <trkpt lat="47.28707" lon="-2.23583">
        <ele>31</ele>
        <time>2022-03-13T09:58:43.000Z</time>
      </trkpt>
      <trkpt lat="47.28712" lon="-2.23581">
        <ele>31</ele>
        <time>2022-03-13T09:58:44.000Z</time>
      </trkpt>
      <trkpt lat="47.28722" lon="-2.23567">
        <ele>31</ele>
        <time>2022-03-13T09:58:48.000Z</time>
      </trkpt>
      <trkpt lat="47.28724" lon="-2.23561">
        <ele>31</ele>
        <time>2022-03-13T09:58:49.000Z</time>
      </trkpt>
      <trkpt lat="47.28731" lon="-2.23549">
        <ele>31</ele>
        <time>2022-03-13T09:58:52.000Z</time>
      </trkpt>
      <trkpt lat="47.28741" lon="-2.23533">
        <ele>31</ele>
        <time>2022-03-13T09:58:57.000Z</time>
      </trkpt>
      <trkpt lat="47.28759" lon="-2.23521">
        <ele>31</ele>
        <time>2022-03-13T09:59:03.000Z</time>
      </trkpt>
      <trkpt lat="47.28763" lon="-2.2352">
        <ele>31.39999961853</ele>
        <time>2022-03-13T09:59:04.000Z</time>
      </trkpt>
      <trkpt lat="47.28766" lon="-2.23518">
        <ele>32</ele>
        <time>2022-03-13T09:59:05.000Z</time>
      </trkpt>
      <trkpt lat="47.28769" lon="-2.23516">
        <ele>32.400001525879</ele>
        <time>2022-03-13T09:59:06.000Z</time>
      </trkpt>
      <trkpt lat="47.28772" lon="-2.23515">
        <ele>32.799999237061</ele>
        <time>2022-03-13T09:59:07.000Z</time>
      </trkpt>
      <trkpt lat="47.28776" lon="-2.23513">
        <ele>33.200000762939</ele>
        <time>2022-03-13T09:59:08.000Z</time>
      </trkpt>
      <trkpt lat="47.28796" lon="-2.23508">
        <ele>33.200000762939</ele>
        <time>2022-03-13T09:59:14.000Z</time>
      </trkpt>
      <trkpt lat="47.28803" lon="-2.23506">
        <ele>33.599998474121</ele>
        <time>2022-03-13T09:59:16.000Z</time>
      </trkpt>
      <trkpt lat="47.28805" lon="-2.23505">
        <ele>34</ele>
        <time>2022-03-13T09:59:17.000Z</time>
      </trkpt>
      <trkpt lat="47.28809" lon="-2.23505">
        <ele>35</ele>
        <time>2022-03-13T09:59:18.000Z</time>
      </trkpt>
      <trkpt lat="47.28812" lon="-2.23504">
        <ele>35.400001525879</ele>
        <time>2022-03-13T09:59:19.000Z</time>
      </trkpt>
      <trkpt lat="47.28814" lon="-2.23505">
        <ele>35.400001525879</ele>
        <time>2022-03-13T09:59:20.000Z</time>
      </trkpt>
      <trkpt lat="47.28834" lon="-2.23504">
        <ele>35.400001525879</ele>
        <time>2022-03-13T09:59:26.000Z</time>
      </trkpt>
      <trkpt lat="47.28858" lon="-2.23502">
        <ele>35.400001525879</ele>
        <time>2022-03-13T09:59:33.000Z</time>
      </trkpt>
      <trkpt lat="47.28862" lon="-2.23501">
        <ele>35.799999237061</ele>
        <time>2022-03-13T09:59:34.000Z</time>
      </trkpt>
      <trkpt lat="47.28866" lon="-2.23501">
        <ele>36.200000762939</ele>
        <time>2022-03-13T09:59:35.000Z</time>
      </trkpt>
      <trkpt lat="47.2887" lon="-2.235">
        <ele>36.599998474121</ele>
        <time>2022-03-13T09:59:36.000Z</time>
      </trkpt>
      <trkpt lat="47.28873" lon="-2.23499">
        <ele>37</ele>
        <time>2022-03-13T09:59:37.000Z</time>
      </trkpt>
      <trkpt lat="47.28878" lon="-2.235">
        <ele>37.400001525879</ele>
        <time>2022-03-13T09:59:38.000Z</time>
      </trkpt>
      <trkpt lat="47.28887" lon="-2.23501">
        <ele>37.400001525879</ele>
        <time>2022-03-13T09:59:40.000Z</time>
      </trkpt>
      <trkpt lat="47.28913" lon="-2.23498">
        <ele>37.400001525879</ele>
        <time>2022-03-13T09:59:47.000Z</time>
      </trkpt>
      <trkpt lat="47.28938" lon="-2.23491">
        <ele>37.400001525879</ele>
        <time>2022-03-13T09:59:54.000Z</time>
      </trkpt>
      <trkpt lat="47.28955" lon="-2.23488">
        <ele>37.400001525879</ele>
        <time>2022-03-13T09:59:59.000Z</time>
      </trkpt>
      <trkpt lat="47.28957" lon="-2.23483">
        <ele>37.400001525879</ele>
        <time>2022-03-13T10:00:00.000Z</time>
      </trkpt>
      <trkpt lat="47.28957" lon="-2.23474">
        <ele>37.400001525879</ele>
        <time>2022-03-13T10:00:02.000Z</time>
      </trkpt>
      <trkpt lat="47.28959" lon="-2.23454">
        <ele>37.400001525879</ele>
        <time>2022-03-13T10:00:05.000Z</time>
      </trkpt>
      <trkpt lat="47.2896" lon="-2.23447">
        <ele>37.400001525879</ele>
        <time>2022-03-13T10:00:06.000Z</time>
      </trkpt>
      <trkpt lat="47.28966" lon="-2.23386">
        <ele>37.400001525879</ele>
        <time>2022-03-13T10:00:14.000Z</time>
      </trkpt>
      <trkpt lat="47.28972" lon="-2.23325">
        <ele>37.400001525879</ele>
        <time>2022-03-13T10:00:21.000Z</time>
      </trkpt>
      <trkpt lat="47.28978" lon="-2.23264">
        <ele>37.400001525879</ele>
        <time>2022-03-13T10:00:27.000Z</time>
      </trkpt>
      <trkpt lat="47.28984" lon="-2.23196">
        <ele>37</ele>
        <time>2022-03-13T10:00:33.000Z</time>
      </trkpt>
      <trkpt lat="47.28985" lon="-2.23185">
        <ele>36.400001525879</ele>
        <time>2022-03-13T10:00:34.000Z</time>
      </trkpt>
      <trkpt lat="47.28987" lon="-2.23174">
        <ele>36</ele>
        <time>2022-03-13T10:00:35.000Z</time>
      </trkpt>
      <trkpt lat="47.28988" lon="-2.23162">
        <ele>35.599998474121</ele>
        <time>2022-03-13T10:00:36.000Z</time>
      </trkpt>
      <trkpt lat="47.2899" lon="-2.23149">
        <ele>35.200000762939</ele>
        <time>2022-03-13T10:00:37.000Z</time>
      </trkpt>
      <trkpt lat="47.28993" lon="-2.23125">
        <ele>34.799999237061</ele>
        <time>2022-03-13T10:00:39.000Z</time>
      </trkpt>
      <trkpt lat="47.28994" lon="-2.23113">
        <ele>34.200000762939</ele>
        <time>2022-03-13T10:00:40.000Z</time>
      </trkpt>
      <trkpt lat="47.28996" lon="-2.23101">
        <ele>33.799999237061</ele>
        <time>2022-03-13T10:00:41.000Z</time>
      </trkpt>
      <trkpt lat="47.28998" lon="-2.23088">
        <ele>33.400001525879</ele>
        <time>2022-03-13T10:00:42.000Z</time>
      </trkpt>
      <trkpt lat="47.29" lon="-2.23076">
        <ele>32.799999237061</ele>
        <time>2022-03-13T10:00:43.000Z</time>
      </trkpt>
      <trkpt lat="47.29007" lon="-2.23051">
        <ele>32.400001525879</ele>
        <time>2022-03-13T10:00:45.000Z</time>
      </trkpt>
      <trkpt lat="47.2901" lon="-2.23039">
        <ele>32</ele>
        <time>2022-03-13T10:00:46.000Z</time>
      </trkpt>
      <trkpt lat="47.29014" lon="-2.23028">
        <ele>31.60000038147</ele>
        <time>2022-03-13T10:00:47.000Z</time>
      </trkpt>
      <trkpt lat="47.29017" lon="-2.23016">
        <ele>31.200000762939</ele>
        <time>2022-03-13T10:00:48.000Z</time>
      </trkpt>
      <trkpt lat="47.29019" lon="-2.23007">
        <ele>30.799999237061</ele>
        <time>2022-03-13T10:00:49.000Z</time>
      </trkpt>
      <trkpt lat="47.2902" lon="-2.23001">
        <ele>30.799999237061</ele>
        <time>2022-03-13T10:00:50.000Z</time>
      </trkpt>
      <trkpt lat="47.29022" lon="-2.22999">
        <ele>30.200000762939</ele>
        <time>2022-03-13T10:00:51.000Z</time>
      </trkpt>
      <trkpt lat="47.29023" lon="-2.22997">
        <ele>29.799999237061</ele>
        <time>2022-03-13T10:00:52.000Z</time>
      </trkpt>
      <trkpt lat="47.29025" lon="-2.22992">
        <ele>29.39999961853</ele>
        <time>2022-03-13T10:00:53.000Z</time>
      </trkpt>
      <trkpt lat="47.29026" lon="-2.22987">
        <ele>29</ele>
        <time>2022-03-13T10:00:54.000Z</time>
      </trkpt>
      <trkpt lat="47.29027" lon="-2.22982">
        <ele>28.39999961853</ele>
        <time>2022-03-13T10:00:55.000Z</time>
      </trkpt>
      <trkpt lat="47.29033" lon="-2.22974">
        <ele>28.39999961853</ele>
        <time>2022-03-13T10:00:57.000Z</time>
      </trkpt>
      <trkpt lat="47.29037" lon="-2.22974">
        <ele>28.39999961853</ele>
        <time>2022-03-13T10:00:58.000Z</time>
      </trkpt>
      <trkpt lat="47.29044" lon="-2.22986">
        <ele>28.39999961853</ele>
        <time>2022-03-13T10:01:00.000Z</time>
      </trkpt>
      <trkpt lat="47.29055" lon="-2.23004">
        <ele>28.39999961853</ele>
        <time>2022-03-13T10:01:03.000Z</time>
      </trkpt>
      <trkpt lat="47.29061" lon="-2.2301">
        <ele>28.39999961853</ele>
        <time>2022-03-13T10:01:04.000Z</time>
      </trkpt>
      <trkpt lat="47.29104" lon="-2.23064">
        <ele>28.39999961853</ele>
        <time>2022-03-13T10:01:13.000Z</time>
      </trkpt>
      <trkpt lat="47.2914" lon="-2.23109">
        <ele>28.39999961853</ele>
        <time>2022-03-13T10:01:20.000Z</time>
      </trkpt>
      <trkpt lat="47.29173" lon="-2.23152">
        <ele>28.39999961853</ele>
        <time>2022-03-13T10:01:27.000Z</time>
      </trkpt>
      <trkpt lat="47.29193" lon="-2.23189">
        <ele>28.39999961853</ele>
        <time>2022-03-13T10:01:32.000Z</time>
      </trkpt>
      <trkpt lat="47.29196" lon="-2.23197">
        <ele>28.799999237061</ele>
        <time>2022-03-13T10:01:33.000Z</time>
      </trkpt>
      <trkpt lat="47.29199" lon="-2.23206">
        <ele>29.200000762939</ele>
        <time>2022-03-13T10:01:34.000Z</time>
      </trkpt>
      <trkpt lat="47.29201" lon="-2.23215">
        <ele>29.60000038147</ele>
        <time>2022-03-13T10:01:35.000Z</time>
      </trkpt>
      <trkpt lat="47.29203" lon="-2.23224">
        <ele>30</ele>
        <time>2022-03-13T10:01:36.000Z</time>
      </trkpt>
      <trkpt lat="47.29207" lon="-2.23232">
        <ele>30.39999961853</ele>
        <time>2022-03-13T10:01:37.000Z</time>
      </trkpt>
      <trkpt lat="47.29212" lon="-2.2324">
        <ele>30.39999961853</ele>
        <time>2022-03-13T10:01:38.000Z</time>
      </trkpt>
      <trkpt lat="47.29232" lon="-2.23265">
        <ele>30.39999961853</ele>
        <time>2022-03-13T10:01:42.000Z</time>
      </trkpt>
      <trkpt lat="47.29251" lon="-2.23291">
        <ele>30.39999961853</ele>
        <time>2022-03-13T10:01:46.000Z</time>
      </trkpt>
      <trkpt lat="47.29259" lon="-2.23308">
        <ele>30.39999961853</ele>
        <time>2022-03-13T10:01:48.000Z</time>
      </trkpt>
      <trkpt lat="47.29273" lon="-2.23363">
        <ele>30.39999961853</ele>
        <time>2022-03-13T10:01:54.000Z</time>
      </trkpt>
      <trkpt lat="47.29284" lon="-2.23421">
        <ele>30.39999961853</ele>
        <time>2022-03-13T10:02:00.000Z</time>
      </trkpt>
      <trkpt lat="47.29298" lon="-2.23488">
        <ele>30.39999961853</ele>
        <time>2022-03-13T10:02:07.000Z</time>
      </trkpt>
      <trkpt lat="47.29309" lon="-2.23567">
        <ele>30.39999961853</ele>
        <time>2022-03-13T10:02:15.000Z</time>
      </trkpt>
      <trkpt lat="47.29311" lon="-2.23627">
        <ele>30.39999961853</ele>
        <time>2022-03-13T10:02:21.000Z</time>
      </trkpt>
      <trkpt lat="47.29312" lon="-2.23686">
        <ele>30.39999961853</ele>
        <time>2022-03-13T10:02:27.000Z</time>
      </trkpt>
      <trkpt lat="47.29312" lon="-2.23742">
        <ele>30.39999961853</ele>
        <time>2022-03-13T10:02:33.000Z</time>
      </trkpt>
      <trkpt lat="47.29312" lon="-2.23766">
        <ele>30.39999961853</ele>
        <time>2022-03-13T10:02:36.000Z</time>
      </trkpt>
      <trkpt lat="47.29317" lon="-2.23776">
        <ele>30.39999961853</ele>
        <time>2022-03-13T10:02:38.000Z</time>
      </trkpt>
      <trkpt lat="47.29325" lon="-2.23779">
        <ele>30.39999961853</ele>
        <time>2022-03-13T10:02:40.000Z</time>
      </trkpt>
      <trkpt lat="47.2933" lon="-2.2378">
        <ele>30.39999961853</ele>
        <time>2022-03-13T10:02:41.000Z</time>
      </trkpt>
      <trkpt lat="47.29341" lon="-2.23778">
        <ele>30.39999961853</ele>
        <time>2022-03-13T10:02:44.000Z</time>
      </trkpt>
      <trkpt lat="47.29346" lon="-2.2378">
        <ele>30.39999961853</ele>
        <time>2022-03-13T10:02:45.000Z</time>
      </trkpt>
      <trkpt lat="47.29351" lon="-2.23782">
        <ele>30.39999961853</ele>
        <time>2022-03-13T10:02:46.000Z</time>
      </trkpt>
      <trkpt lat="47.29357" lon="-2.23781">
        <ele>30.39999961853</ele>
        <time>2022-03-13T10:02:47.000Z</time>
      </trkpt>
      <trkpt lat="47.29372" lon="-2.23761">
        <ele>30.39999961853</ele>
        <time>2022-03-13T10:02:51.000Z</time>
      </trkpt>
      <trkpt lat="47.29373" lon="-2.23754">
        <ele>30.39999961853</ele>
        <time>2022-03-13T10:02:52.000Z</time>
      </trkpt>
      <trkpt lat="47.29379" lon="-2.2373">
        <ele>30.39999961853</ele>
        <time>2022-03-13T10:02:55.000Z</time>
      </trkpt>
      <trkpt lat="47.29386" lon="-2.23715">
        <ele>30.39999961853</ele>
        <time>2022-03-13T10:02:57.000Z</time>
      </trkpt>
      <trkpt lat="47.29399" lon="-2.23704">
        <ele>30.39999961853</ele>
        <time>2022-03-13T10:03:00.000Z</time>
      </trkpt>
      <trkpt lat="47.29404" lon="-2.23702">
        <ele>30.39999961853</ele>
        <time>2022-03-13T10:03:01.000Z</time>
      </trkpt>
      <trkpt lat="47.29415" lon="-2.23698">
        <ele>31</ele>
        <time>2022-03-13T10:03:03.000Z</time>
      </trkpt>
      <trkpt lat="47.29419" lon="-2.23696">
        <ele>31.39999961853</ele>
        <time>2022-03-13T10:03:04.000Z</time>
      </trkpt>
      <trkpt lat="47.29424" lon="-2.23694">
        <ele>31.799999237061</ele>
        <time>2022-03-13T10:03:05.000Z</time>
      </trkpt>
      <trkpt lat="47.29429" lon="-2.23692">
        <ele>32.200000762939</ele>
        <time>2022-03-13T10:03:06.000Z</time>
      </trkpt>
      <trkpt lat="47.29434" lon="-2.23691">
        <ele>32.799999237061</ele>
        <time>2022-03-13T10:03:07.000Z</time>
      </trkpt>
      <trkpt lat="47.29439" lon="-2.23689">
        <ele>32.799999237061</ele>
        <time>2022-03-13T10:03:08.000Z</time>
      </trkpt>
      <trkpt lat="47.29449" lon="-2.23685">
        <ele>33.200000762939</ele>
        <time>2022-03-13T10:03:10.000Z</time>
      </trkpt>
      <trkpt lat="47.29454" lon="-2.23683">
        <ele>33.599998474121</ele>
        <time>2022-03-13T10:03:11.000Z</time>
      </trkpt>
      <trkpt lat="47.29459" lon="-2.23681">
        <ele>34</ele>
        <time>2022-03-13T10:03:12.000Z</time>
      </trkpt>
      <trkpt lat="47.29463" lon="-2.23679">
        <ele>34.400001525879</ele>
        <time>2022-03-13T10:03:13.000Z</time>
      </trkpt>
      <trkpt lat="47.29466" lon="-2.23676">
        <ele>34.799999237061</ele>
        <time>2022-03-13T10:03:14.000Z</time>
      </trkpt>
      <trkpt lat="47.29476" lon="-2.2367">
        <ele>34.799999237061</ele>
        <time>2022-03-13T10:03:17.000Z</time>
      </trkpt>
      <trkpt lat="47.29484" lon="-2.23664">
        <ele>34.799999237061</ele>
        <time>2022-03-13T10:03:19.000Z</time>
      </trkpt>
      <trkpt lat="47.29494" lon="-2.23657">
        <ele>34.799999237061</ele>
        <time>2022-03-13T10:03:21.000Z</time>
      </trkpt>
      <trkpt lat="47.29526" lon="-2.23645">
        <ele>34.799999237061</ele>
        <time>2022-03-13T10:03:26.000Z</time>
      </trkpt>
      <trkpt lat="47.29568" lon="-2.23646">
        <ele>34.799999237061</ele>
        <time>2022-03-13T10:03:32.000Z</time>
      </trkpt>
      <trkpt lat="47.29575" lon="-2.23647">
        <ele>34.400001525879</ele>
        <time>2022-03-13T10:03:33.000Z</time>
      </trkpt>
      <trkpt lat="47.29582" lon="-2.23649">
        <ele>34</ele>
        <time>2022-03-13T10:03:34.000Z</time>
      </trkpt>
      <trkpt lat="47.29589" lon="-2.2365">
        <ele>33.599998474121</ele>
        <time>2022-03-13T10:03:35.000Z</time>
      </trkpt>
      <trkpt lat="47.29596" lon="-2.23651">
        <ele>33.200000762939</ele>
        <time>2022-03-13T10:03:36.000Z</time>
      </trkpt>
      <trkpt lat="47.29603" lon="-2.23652">
        <ele>32.799999237061</ele>
        <time>2022-03-13T10:03:37.000Z</time>
      </trkpt>
      <trkpt lat="47.29618" lon="-2.23655">
        <ele>32.799999237061</ele>
        <time>2022-03-13T10:03:39.000Z</time>
      </trkpt>
      <trkpt lat="47.29643" lon="-2.23663">
        <ele>32.799999237061</ele>
        <time>2022-03-13T10:03:43.000Z</time>
      </trkpt>
      <trkpt lat="47.29647" lon="-2.23667">
        <ele>32.400001525879</ele>
        <time>2022-03-13T10:03:44.000Z</time>
      </trkpt>
      <trkpt lat="47.29649" lon="-2.23671">
        <ele>31.799999237061</ele>
        <time>2022-03-13T10:03:45.000Z</time>
      </trkpt>
      <trkpt lat="47.29649" lon="-2.23677">
        <ele>31.39999961853</ele>
        <time>2022-03-13T10:03:46.000Z</time>
      </trkpt>
      <trkpt lat="47.2965" lon="-2.23683">
        <ele>31</ele>
        <time>2022-03-13T10:03:47.000Z</time>
      </trkpt>
      <trkpt lat="47.2965" lon="-2.23689">
        <ele>30.60000038147</ele>
        <time>2022-03-13T10:03:48.000Z</time>
      </trkpt>
      <trkpt lat="47.2965" lon="-2.23715">
        <ele>30.60000038147</ele>
        <time>2022-03-13T10:03:52.000Z</time>
      </trkpt>
      <trkpt lat="47.2965" lon="-2.23723">
        <ele>30.60000038147</ele>
        <time>2022-03-13T10:03:53.000Z</time>
      </trkpt>
      <trkpt lat="47.29643" lon="-2.23783">
        <ele>30.60000038147</ele>
        <time>2022-03-13T10:04:01.000Z</time>
      </trkpt>
      <trkpt lat="47.29638" lon="-2.23842">
        <ele>30.60000038147</ele>
        <time>2022-03-13T10:04:08.000Z</time>
      </trkpt>
      <trkpt lat="47.29632" lon="-2.23898">
        <ele>30.60000038147</ele>
        <time>2022-03-13T10:04:15.000Z</time>
      </trkpt>
      <trkpt lat="47.29627" lon="-2.23952">
        <ele>30.60000038147</ele>
        <time>2022-03-13T10:04:22.000Z</time>
      </trkpt>
      <trkpt lat="47.29624" lon="-2.23999">
        <ele>30.60000038147</ele>
        <time>2022-03-13T10:04:28.000Z</time>
      </trkpt>
      <trkpt lat="47.29623" lon="-2.24007">
        <ele>30.60000038147</ele>
        <time>2022-03-13T10:04:29.000Z</time>
      </trkpt>
      <trkpt lat="47.29618" lon="-2.24057">
        <ele>30.60000038147</ele>
        <time>2022-03-13T10:04:36.000Z</time>
      </trkpt>
      <trkpt lat="47.2962" lon="-2.24065">
        <ele>30.60000038147</ele>
        <time>2022-03-13T10:04:38.000Z</time>
      </trkpt>
      <trkpt lat="47.29626" lon="-2.24057">
        <ele>30.60000038147</ele>
        <time>2022-03-13T10:04:41.000Z</time>
      </trkpt>
      <trkpt lat="47.29628" lon="-2.24044">
        <ele>30.60000038147</ele>
        <time>2022-03-13T10:04:43.000Z</time>
      </trkpt>
      <trkpt lat="47.29631" lon="-2.24021">
        <ele>30.60000038147</ele>
        <time>2022-03-13T10:04:46.000Z</time>
      </trkpt>
      <trkpt lat="47.29633" lon="-2.24004">
        <ele>30.60000038147</ele>
        <time>2022-03-13T10:04:48.000Z</time>
      </trkpt>
      <trkpt lat="47.29639" lon="-2.2399">
        <ele>30.60000038147</ele>
        <time>2022-03-13T10:04:50.000Z</time>
      </trkpt>
      <trkpt lat="47.29649" lon="-2.2398">
        <ele>30.60000038147</ele>
        <time>2022-03-13T10:04:52.000Z</time>
      </trkpt>
      <trkpt lat="47.2966" lon="-2.2397">
        <ele>30.200000762939</ele>
        <time>2022-03-13T10:04:54.000Z</time>
      </trkpt>
      <trkpt lat="47.29666" lon="-2.23964">
        <ele>29.799999237061</ele>
        <time>2022-03-13T10:04:55.000Z</time>
      </trkpt>
      <trkpt lat="47.29672" lon="-2.23959">
        <ele>29.39999961853</ele>
        <time>2022-03-13T10:04:56.000Z</time>
      </trkpt>
      <trkpt lat="47.29677" lon="-2.23955">
        <ele>28.799999237061</ele>
        <time>2022-03-13T10:04:57.000Z</time>
      </trkpt>
      <trkpt lat="47.29683" lon="-2.23951">
        <ele>28.39999961853</ele>
        <time>2022-03-13T10:04:58.000Z</time>
      </trkpt>
      <trkpt lat="47.29688" lon="-2.23948">
        <ele>28.39999961853</ele>
        <time>2022-03-13T10:04:59.000Z</time>
      </trkpt>
      <trkpt lat="47.29708" lon="-2.23932">
        <ele>28.39999961853</ele>
        <time>2022-03-13T10:05:03.000Z</time>
      </trkpt>
      <trkpt lat="47.29712" lon="-2.23917">
        <ele>28.39999961853</ele>
        <time>2022-03-13T10:05:05.000Z</time>
      </trkpt>
      <trkpt lat="47.29713" lon="-2.2391">
        <ele>28.39999961853</ele>
        <time>2022-03-13T10:05:06.000Z</time>
      </trkpt>
      <trkpt lat="47.29718" lon="-2.23873">
        <ele>28.39999961853</ele>
        <time>2022-03-13T10:05:11.000Z</time>
      </trkpt>
      <trkpt lat="47.2972" lon="-2.23866">
        <ele>28.39999961853</ele>
        <time>2022-03-13T10:05:12.000Z</time>
      </trkpt>
      <trkpt lat="47.29734" lon="-2.2383">
        <ele>28.39999961853</ele>
        <time>2022-03-13T10:05:17.000Z</time>
      </trkpt>
      <trkpt lat="47.29753" lon="-2.238">
        <ele>28.39999961853</ele>
        <time>2022-03-13T10:05:22.000Z</time>
      </trkpt>
      <trkpt lat="47.29776" lon="-2.23789">
        <ele>28.39999961853</ele>
        <time>2022-03-13T10:05:26.000Z</time>
      </trkpt>
      <trkpt lat="47.298" lon="-2.23794">
        <ele>28.39999961853</ele>
        <time>2022-03-13T10:05:30.000Z</time>
      </trkpt>
      <trkpt lat="47.29842" lon="-2.23826">
        <ele>28.39999961853</ele>
        <time>2022-03-13T10:05:36.000Z</time>
      </trkpt>
      <trkpt lat="47.29848" lon="-2.23829">
        <ele>28.39999961853</ele>
        <time>2022-03-13T10:05:40.000Z</time>
      </trkpt>
      <trkpt lat="47.2986" lon="-2.23828">
        <ele>28.39999961853</ele>
        <time>2022-03-13T10:05:42.000Z</time>
      </trkpt>
      <trkpt lat="47.29871" lon="-2.23825">
        <ele>28.39999961853</ele>
        <time>2022-03-13T10:05:44.000Z</time>
      </trkpt>
      <trkpt lat="47.29895" lon="-2.23821">
        <ele>28.39999961853</ele>
        <time>2022-03-13T10:05:48.000Z</time>
      </trkpt>
      <trkpt lat="47.29906" lon="-2.23822">
        <ele>28.39999961853</ele>
        <time>2022-03-13T10:05:50.000Z</time>
      </trkpt>
      <trkpt lat="47.29922" lon="-2.23826">
        <ele>28.39999961853</ele>
        <time>2022-03-13T10:05:53.000Z</time>
      </trkpt>
      <trkpt lat="47.29952" lon="-2.23839">
        <ele>28.39999961853</ele>
        <time>2022-03-13T10:05:59.000Z</time>
      </trkpt>
      <trkpt lat="47.29986" lon="-2.23863">
        <ele>28.39999961853</ele>
        <time>2022-03-13T10:06:05.000Z</time>
      </trkpt>
      <trkpt lat="47.2999" lon="-2.23868">
        <ele>28.39999961853</ele>
        <time>2022-03-13T10:06:06.000Z</time>
      </trkpt>
      <trkpt lat="47.29996" lon="-2.23881">
        <ele>28.39999961853</ele>
        <time>2022-03-13T10:06:08.000Z</time>
      </trkpt>
      <trkpt lat="47.30001" lon="-2.2391">
        <ele>28.39999961853</ele>
        <time>2022-03-13T10:06:12.000Z</time>
      </trkpt>
      <trkpt lat="47.30001" lon="-2.23918">
        <ele>28.39999961853</ele>
        <time>2022-03-13T10:06:13.000Z</time>
      </trkpt>
      <trkpt lat="47.30001" lon="-2.23941">
        <ele>28.39999961853</ele>
        <time>2022-03-13T10:06:16.000Z</time>
      </trkpt>
      <trkpt lat="47.30002" lon="-2.23956">
        <ele>28.39999961853</ele>
        <time>2022-03-13T10:06:18.000Z</time>
      </trkpt>
      <trkpt lat="47.30002" lon="-2.23964">
        <ele>28.39999961853</ele>
        <time>2022-03-13T10:06:19.000Z</time>
      </trkpt>
      <trkpt lat="47.3" lon="-2.23979">
        <ele>28.799999237061</ele>
        <time>2022-03-13T10:06:21.000Z</time>
      </trkpt>
      <trkpt lat="47.29999" lon="-2.23987">
        <ele>29.200000762939</ele>
        <time>2022-03-13T10:06:22.000Z</time>
      </trkpt>
      <trkpt lat="47.29998" lon="-2.23995">
        <ele>29.799999237061</ele>
        <time>2022-03-13T10:06:23.000Z</time>
      </trkpt>
      <trkpt lat="47.29998" lon="-2.24002">
        <ele>30.200000762939</ele>
        <time>2022-03-13T10:06:24.000Z</time>
      </trkpt>
      <trkpt lat="47.29998" lon="-2.24009">
        <ele>30.60000038147</ele>
        <time>2022-03-13T10:06:25.000Z</time>
      </trkpt>
      <trkpt lat="47.29997" lon="-2.24036">
        <ele>30.60000038147</ele>
        <time>2022-03-13T10:06:29.000Z</time>
      </trkpt>
      <trkpt lat="47.29999" lon="-2.24062">
        <ele>31</ele>
        <time>2022-03-13T10:06:33.000Z</time>
      </trkpt>
      <trkpt lat="47.3" lon="-2.24068">
        <ele>31.39999961853</ele>
        <time>2022-03-13T10:06:34.000Z</time>
      </trkpt>
      <trkpt lat="47.3" lon="-2.24075">
        <ele>31.799999237061</ele>
        <time>2022-03-13T10:06:35.000Z</time>
      </trkpt>
      <trkpt lat="47.30001" lon="-2.24081">
        <ele>32.200000762939</ele>
        <time>2022-03-13T10:06:36.000Z</time>
      </trkpt>
      <trkpt lat="47.30001" lon="-2.24087">
        <ele>32.599998474121</ele>
        <time>2022-03-13T10:06:37.000Z</time>
      </trkpt>
      <trkpt lat="47.30001" lon="-2.24093">
        <ele>32.599998474121</ele>
        <time>2022-03-13T10:06:38.000Z</time>
      </trkpt>
      <trkpt lat="47.30001" lon="-2.24113">
        <ele>33</ele>
        <time>2022-03-13T10:06:41.000Z</time>
      </trkpt>
      <trkpt lat="47.3" lon="-2.24118">
        <ele>33.400001525879</ele>
        <time>2022-03-13T10:06:42.000Z</time>
      </trkpt>
      <trkpt lat="47.29999" lon="-2.24124">
        <ele>33.799999237061</ele>
        <time>2022-03-13T10:06:43.000Z</time>
      </trkpt>
      <trkpt lat="47.29998" lon="-2.24129">
        <ele>34.400001525879</ele>
        <time>2022-03-13T10:06:44.000Z</time>
      </trkpt>
      <trkpt lat="47.29997" lon="-2.24135">
        <ele>34.799999237061</ele>
        <time>2022-03-13T10:06:45.000Z</time>
      </trkpt>
      <trkpt lat="47.29995" lon="-2.24145">
        <ele>35.200000762939</ele>
        <time>2022-03-13T10:06:47.000Z</time>
      </trkpt>
      <trkpt lat="47.29994" lon="-2.2415">
        <ele>35.599998474121</ele>
        <time>2022-03-13T10:06:48.000Z</time>
      </trkpt>
      <trkpt lat="47.29993" lon="-2.24154">
        <ele>36</ele>
        <time>2022-03-13T10:06:49.000Z</time>
      </trkpt>
      <trkpt lat="47.29992" lon="-2.24159">
        <ele>36.400001525879</ele>
        <time>2022-03-13T10:06:50.000Z</time>
      </trkpt>
      <trkpt lat="47.2999" lon="-2.24163">
        <ele>36.799999237061</ele>
        <time>2022-03-13T10:06:51.000Z</time>
      </trkpt>
      <trkpt lat="47.29986" lon="-2.24177">
        <ele>37.200000762939</ele>
        <time>2022-03-13T10:06:54.000Z</time>
      </trkpt>
      <trkpt lat="47.29984" lon="-2.24182">
        <ele>37.799999237061</ele>
        <time>2022-03-13T10:06:55.000Z</time>
      </trkpt>
      <trkpt lat="47.29982" lon="-2.24187">
        <ele>38.200000762939</ele>
        <time>2022-03-13T10:06:56.000Z</time>
      </trkpt>
      <trkpt lat="47.2998" lon="-2.24192">
        <ele>38.799999237061</ele>
        <time>2022-03-13T10:06:57.000Z</time>
      </trkpt>
      <trkpt lat="47.29979" lon="-2.24198">
        <ele>39.200000762939</ele>
        <time>2022-03-13T10:06:58.000Z</time>
      </trkpt>
      <trkpt lat="47.29966" lon="-2.24225">
        <ele>39.200000762939</ele>
        <time>2022-03-13T10:07:03.000Z</time>
      </trkpt>
      <trkpt lat="47.29947" lon="-2.24264">
        <ele>39.599998474121</ele>
        <time>2022-03-13T10:07:10.000Z</time>
      </trkpt>
      <trkpt lat="47.29944" lon="-2.2427">
        <ele>40</ele>
        <time>2022-03-13T10:07:11.000Z</time>
      </trkpt>
      <trkpt lat="47.29942" lon="-2.24275">
        <ele>40.400001525879</ele>
        <time>2022-03-13T10:07:12.000Z</time>
      </trkpt>
      <trkpt lat="47.2994" lon="-2.2428">
        <ele>40.799999237061</ele>
        <time>2022-03-13T10:07:13.000Z</time>
      </trkpt>
      <trkpt lat="47.29937" lon="-2.24286">
        <ele>41.200000762939</ele>
        <time>2022-03-13T10:07:14.000Z</time>
      </trkpt>
      <trkpt lat="47.29936" lon="-2.24296">
        <ele>41.200000762939</ele>
        <time>2022-03-13T10:07:16.000Z</time>
      </trkpt>
      <trkpt lat="47.29937" lon="-2.24301">
        <ele>41.200000762939</ele>
        <time>2022-03-13T10:07:17.000Z</time>
      </trkpt>
      <trkpt lat="47.29943" lon="-2.2431">
        <ele>41.200000762939</ele>
        <time>2022-03-13T10:07:19.000Z</time>
      </trkpt>
      <trkpt lat="47.29958" lon="-2.24326">
        <ele>41.200000762939</ele>
        <time>2022-03-13T10:07:24.000Z</time>
      </trkpt>
      <trkpt lat="47.29978" lon="-2.24348">
        <ele>41.200000762939</ele>
        <time>2022-03-13T10:07:30.000Z</time>
      </trkpt>
      <trkpt lat="47.29992" lon="-2.24358">
        <ele>41.200000762939</ele>
        <time>2022-03-13T10:07:35.000Z</time>
      </trkpt>
      <trkpt lat="47.29998" lon="-2.24348">
        <ele>41.200000762939</ele>
        <time>2022-03-13T10:07:38.000Z</time>
      </trkpt>
      <trkpt lat="47.29999" lon="-2.24343">
        <ele>41.200000762939</ele>
        <time>2022-03-13T10:07:39.000Z</time>
      </trkpt>
      <trkpt lat="47.30007" lon="-2.24316">
        <ele>41.200000762939</ele>
        <time>2022-03-13T10:07:45.000Z</time>
      </trkpt>
      <trkpt lat="47.30011" lon="-2.24307">
        <ele>41.200000762939</ele>
        <time>2022-03-13T10:07:47.000Z</time>
      </trkpt>
      <trkpt lat="47.30014" lon="-2.24295">
        <ele>41.200000762939</ele>
        <time>2022-03-13T10:07:49.000Z</time>
      </trkpt>
      <trkpt lat="47.3002" lon="-2.24274">
        <ele>41.200000762939</ele>
        <time>2022-03-13T10:07:54.000Z</time>
      </trkpt>
      <trkpt lat="47.30022" lon="-2.24265">
        <ele>41.200000762939</ele>
        <time>2022-03-13T10:07:56.000Z</time>
      </trkpt>
      <trkpt lat="47.30022" lon="-2.24255">
        <ele>41.200000762939</ele>
        <time>2022-03-13T10:07:58.000Z</time>
      </trkpt>
      <trkpt lat="47.3002" lon="-2.24233">
        <ele>41.200000762939</ele>
        <time>2022-03-13T10:08:01.000Z</time>
      </trkpt>
      <trkpt lat="47.30021" lon="-2.24225">
        <ele>41.200000762939</ele>
        <time>2022-03-13T10:08:02.000Z</time>
      </trkpt>
      <trkpt lat="47.30021" lon="-2.24217">
        <ele>40.799999237061</ele>
        <time>2022-03-13T10:08:03.000Z</time>
      </trkpt>
      <trkpt lat="47.30021" lon="-2.2421">
        <ele>40.400001525879</ele>
        <time>2022-03-13T10:08:04.000Z</time>
      </trkpt>
      <trkpt lat="47.30021" lon="-2.24203">
        <ele>40</ele>
        <time>2022-03-13T10:08:05.000Z</time>
      </trkpt>
      <trkpt lat="47.30021" lon="-2.24197">
        <ele>39.599998474121</ele>
        <time>2022-03-13T10:08:06.000Z</time>
      </trkpt>
      <trkpt lat="47.30021" lon="-2.24189">
        <ele>39.200000762939</ele>
        <time>2022-03-13T10:08:07.000Z</time>
      </trkpt>
      <trkpt lat="47.30021" lon="-2.24182">
        <ele>38.799999237061</ele>
        <time>2022-03-13T10:08:08.000Z</time>
      </trkpt>
      <trkpt lat="47.30021" lon="-2.24175">
        <ele>38.400001525879</ele>
        <time>2022-03-13T10:08:09.000Z</time>
      </trkpt>
      <trkpt lat="47.3002" lon="-2.2417">
        <ele>38</ele>
        <time>2022-03-13T10:08:10.000Z</time>
      </trkpt>
      <trkpt lat="47.30019" lon="-2.24166">
        <ele>37.400001525879</ele>
        <time>2022-03-13T10:08:11.000Z</time>
      </trkpt>
      <trkpt lat="47.30018" lon="-2.24162">
        <ele>37</ele>
        <time>2022-03-13T10:08:12.000Z</time>
      </trkpt>
      <trkpt lat="47.30018" lon="-2.24158">
        <ele>36.400001525879</ele>
        <time>2022-03-13T10:08:13.000Z</time>
      </trkpt>
      <trkpt lat="47.30019" lon="-2.24156">
        <ele>36</ele>
        <time>2022-03-13T10:08:14.000Z</time>
      </trkpt>
      <trkpt lat="47.3002" lon="-2.24153">
        <ele>35.400001525879</ele>
        <time>2022-03-13T10:08:15.000Z</time>
      </trkpt>
      <trkpt lat="47.30021" lon="-2.24151">
        <ele>35</ele>
        <time>2022-03-13T10:08:16.000Z</time>
      </trkpt>
      <trkpt lat="47.30029" lon="-2.24144">
        <ele>35</ele>
        <time>2022-03-13T10:08:20.000Z</time>
      </trkpt>
      <trkpt lat="47.30042" lon="-2.24134">
        <ele>35</ele>
        <time>2022-03-13T10:08:26.000Z</time>
      </trkpt>
      <trkpt lat="47.3005" lon="-2.24128">
        <ele>35.400001525879</ele>
        <time>2022-03-13T10:08:29.000Z</time>
      </trkpt>
      <trkpt lat="47.30053" lon="-2.24125">
        <ele>35.799999237061</ele>
        <time>2022-03-13T10:08:30.000Z</time>
      </trkpt>
      <trkpt lat="47.30057" lon="-2.24122">
        <ele>36.200000762939</ele>
        <time>2022-03-13T10:08:31.000Z</time>
      </trkpt>
      <trkpt lat="47.30061" lon="-2.24118">
        <ele>36.599998474121</ele>
        <time>2022-03-13T10:08:32.000Z</time>
      </trkpt>
      <trkpt lat="47.30065" lon="-2.24115">
        <ele>37</ele>
        <time>2022-03-13T10:08:33.000Z</time>
      </trkpt>
      <trkpt lat="47.30078" lon="-2.24107">
        <ele>37</ele>
        <time>2022-03-13T10:08:36.000Z</time>
      </trkpt>
      <trkpt lat="47.30097" lon="-2.24097">
        <ele>37</ele>
        <time>2022-03-13T10:08:40.000Z</time>
      </trkpt>
      <trkpt lat="47.30101" lon="-2.24094">
        <ele>37</ele>
        <time>2022-03-13T10:08:41.000Z</time>
      </trkpt>
      <trkpt lat="47.30123" lon="-2.2408">
        <ele>37</ele>
        <time>2022-03-13T10:08:46.000Z</time>
      </trkpt>
      <trkpt lat="47.30155" lon="-2.24066">
        <ele>37</ele>
        <time>2022-03-13T10:08:52.000Z</time>
      </trkpt>
      <trkpt lat="47.30185" lon="-2.24057">
        <ele>37</ele>
        <time>2022-03-13T10:08:57.000Z</time>
      </trkpt>
      <trkpt lat="47.30192" lon="-2.24057">
        <ele>37</ele>
        <time>2022-03-13T10:08:58.000Z</time>
      </trkpt>
      <trkpt lat="47.30239" lon="-2.2406">
        <ele>37</ele>
        <time>2022-03-13T10:09:05.000Z</time>
      </trkpt>
      <trkpt lat="47.3027" lon="-2.24062">
        <ele>37</ele>
        <time>2022-03-13T10:09:10.000Z</time>
      </trkpt>
      <trkpt lat="47.30279" lon="-2.24054">
        <ele>36.599998474121</ele>
        <time>2022-03-13T10:09:12.000Z</time>
      </trkpt>
      <trkpt lat="47.30281" lon="-2.24046">
        <ele>36.200000762939</ele>
        <time>2022-03-13T10:09:13.000Z</time>
      </trkpt>
      <trkpt lat="47.30281" lon="-2.24037">
        <ele>35.799999237061</ele>
        <time>2022-03-13T10:09:14.000Z</time>
      </trkpt>
      <trkpt lat="47.3028" lon="-2.24028">
        <ele>35.400001525879</ele>
        <time>2022-03-13T10:09:15.000Z</time>
      </trkpt>
      <trkpt lat="47.3028" lon="-2.24018">
        <ele>34.799999237061</ele>
        <time>2022-03-13T10:09:16.000Z</time>
      </trkpt>
      <trkpt lat="47.30279" lon="-2.24008">
        <ele>34.799999237061</ele>
        <time>2022-03-13T10:09:17.000Z</time>
      </trkpt>
      <trkpt lat="47.30277" lon="-2.23997">
        <ele>34.400001525879</ele>
        <time>2022-03-13T10:09:18.000Z</time>
      </trkpt>
      <trkpt lat="47.30275" lon="-2.23986">
        <ele>34</ele>
        <time>2022-03-13T10:09:19.000Z</time>
      </trkpt>
      <trkpt lat="47.30273" lon="-2.23976">
        <ele>33.599998474121</ele>
        <time>2022-03-13T10:09:20.000Z</time>
      </trkpt>
      <trkpt lat="47.30271" lon="-2.23965">
        <ele>33.200000762939</ele>
        <time>2022-03-13T10:09:21.000Z</time>
      </trkpt>
      <trkpt lat="47.30268" lon="-2.23955">
        <ele>32.799999237061</ele>
        <time>2022-03-13T10:09:22.000Z</time>
      </trkpt>
      <trkpt lat="47.30262" lon="-2.23933">
        <ele>32.799999237061</ele>
        <time>2022-03-13T10:09:24.000Z</time>
      </trkpt>
      <trkpt lat="47.30261" lon="-2.23922">
        <ele>32.400001525879</ele>
        <time>2022-03-13T10:09:25.000Z</time>
      </trkpt>
      <trkpt lat="47.30262" lon="-2.23912">
        <ele>32</ele>
        <time>2022-03-13T10:09:26.000Z</time>
      </trkpt>
      <trkpt lat="47.30265" lon="-2.23904">
        <ele>31.39999961853</ele>
        <time>2022-03-13T10:09:27.000Z</time>
      </trkpt>
      <trkpt lat="47.30269" lon="-2.23896">
        <ele>31</ele>
        <time>2022-03-13T10:09:28.000Z</time>
      </trkpt>
      <trkpt lat="47.30274" lon="-2.23891">
        <ele>30.60000038147</ele>
        <time>2022-03-13T10:09:29.000Z</time>
      </trkpt>
      <trkpt lat="47.30294" lon="-2.2388">
        <ele>30.60000038147</ele>
        <time>2022-03-13T10:09:33.000Z</time>
      </trkpt>
      <trkpt lat="47.303" lon="-2.23878">
        <ele>30.60000038147</ele>
        <time>2022-03-13T10:09:34.000Z</time>
      </trkpt>
      <trkpt lat="47.30331" lon="-2.23865">
        <ele>30.60000038147</ele>
        <time>2022-03-13T10:09:39.000Z</time>
      </trkpt>
      <trkpt lat="47.3035" lon="-2.23857">
        <ele>30.60000038147</ele>
        <time>2022-03-13T10:09:42.000Z</time>
      </trkpt>
      <trkpt lat="47.3037" lon="-2.23853">
        <ele>30.60000038147</ele>
        <time>2022-03-13T10:09:45.000Z</time>
      </trkpt>
      <trkpt lat="47.30422" lon="-2.23846">
        <ele>30.200000762939</ele>
        <time>2022-03-13T10:09:53.000Z</time>
      </trkpt>
      <trkpt lat="47.30428" lon="-2.23846">
        <ele>29.60000038147</ele>
        <time>2022-03-13T10:09:54.000Z</time>
      </trkpt>
      <trkpt lat="47.30434" lon="-2.23845">
        <ele>29.200000762939</ele>
        <time>2022-03-13T10:09:55.000Z</time>
      </trkpt>
      <trkpt lat="47.30439" lon="-2.23844">
        <ele>28.799999237061</ele>
        <time>2022-03-13T10:09:56.000Z</time>
      </trkpt>
      <trkpt lat="47.30445" lon="-2.23844">
        <ele>28.39999961853</ele>
        <time>2022-03-13T10:09:57.000Z</time>
      </trkpt>
      <trkpt lat="47.3045" lon="-2.23842">
        <ele>28.39999961853</ele>
        <time>2022-03-13T10:09:58.000Z</time>
      </trkpt>
      <trkpt lat="47.30456" lon="-2.23841">
        <ele>28.39999961853</ele>
        <time>2022-03-13T10:09:59.000Z</time>
      </trkpt>
      <trkpt lat="47.30488" lon="-2.23842">
        <ele>28.39999961853</ele>
        <time>2022-03-13T10:10:05.000Z</time>
      </trkpt>
      <trkpt lat="47.30492" lon="-2.23844">
        <ele>28.39999961853</ele>
        <time>2022-03-13T10:10:06.000Z</time>
      </trkpt>
      <trkpt lat="47.30508" lon="-2.23861">
        <ele>28.39999961853</ele>
        <time>2022-03-13T10:10:10.000Z</time>
      </trkpt>
      <trkpt lat="47.3053" lon="-2.23891">
        <ele>28.39999961853</ele>
        <time>2022-03-13T10:10:17.000Z</time>
      </trkpt>
      <trkpt lat="47.30545" lon="-2.23916">
        <ele>28.39999961853</ele>
        <time>2022-03-13T10:10:23.000Z</time>
      </trkpt>
      <trkpt lat="47.3055" lon="-2.23932">
        <ele>28.39999961853</ele>
        <time>2022-03-13T10:10:26.000Z</time>
      </trkpt>
      <trkpt lat="47.30548" lon="-2.23944">
        <ele>28.39999961853</ele>
        <time>2022-03-13T10:10:28.000Z</time>
      </trkpt>
      <trkpt lat="47.30545" lon="-2.23955">
        <ele>28.39999961853</ele>
        <time>2022-03-13T10:10:30.000Z</time>
      </trkpt>
      <trkpt lat="47.30542" lon="-2.2396">
        <ele>28.39999961853</ele>
        <time>2022-03-13T10:10:31.000Z</time>
      </trkpt>
      <trkpt lat="47.30538" lon="-2.23965">
        <ele>28.39999961853</ele>
        <time>2022-03-13T10:10:32.000Z</time>
      </trkpt>
      <trkpt lat="47.30528" lon="-2.23978">
        <ele>28.799999237061</ele>
        <time>2022-03-13T10:10:35.000Z</time>
      </trkpt>
      <trkpt lat="47.30525" lon="-2.23982">
        <ele>29.200000762939</ele>
        <time>2022-03-13T10:10:36.000Z</time>
      </trkpt>
      <trkpt lat="47.30521" lon="-2.23985">
        <ele>29.60000038147</ele>
        <time>2022-03-13T10:10:37.000Z</time>
      </trkpt>
      <trkpt lat="47.30517" lon="-2.23989">
        <ele>30</ele>
        <time>2022-03-13T10:10:38.000Z</time>
      </trkpt>
      <trkpt lat="47.30513" lon="-2.23993">
        <ele>30.39999961853</ele>
        <time>2022-03-13T10:10:39.000Z</time>
      </trkpt>
      <trkpt lat="47.30507" lon="-2.24">
        <ele>31</ele>
        <time>2022-03-13T10:10:41.000Z</time>
      </trkpt>
      <trkpt lat="47.30504" lon="-2.24005">
        <ele>31.39999961853</ele>
        <time>2022-03-13T10:10:42.000Z</time>
      </trkpt>
      <trkpt lat="47.30502" lon="-2.24008">
        <ele>31.799999237061</ele>
        <time>2022-03-13T10:10:43.000Z</time>
      </trkpt>
      <trkpt lat="47.305" lon="-2.24012">
        <ele>32.400001525879</ele>
        <time>2022-03-13T10:10:44.000Z</time>
      </trkpt>
      <trkpt lat="47.30498" lon="-2.24016">
        <ele>32.799999237061</ele>
        <time>2022-03-13T10:10:45.000Z</time>
      </trkpt>
      <trkpt lat="47.30492" lon="-2.24025">
        <ele>33.200000762939</ele>
        <time>2022-03-13T10:10:48.000Z</time>
      </trkpt>
      <trkpt lat="47.30489" lon="-2.24028">
        <ele>33.599998474121</ele>
        <time>2022-03-13T10:10:49.000Z</time>
      </trkpt>
      <trkpt lat="47.30487" lon="-2.24031">
        <ele>34</ele>
        <time>2022-03-13T10:10:50.000Z</time>
      </trkpt>
      <trkpt lat="47.30484" lon="-2.24033">
        <ele>34.400001525879</ele>
        <time>2022-03-13T10:10:51.000Z</time>
      </trkpt>
      <trkpt lat="47.30481" lon="-2.24034">
        <ele>34.799999237061</ele>
        <time>2022-03-13T10:10:52.000Z</time>
      </trkpt>
      <trkpt lat="47.30472" lon="-2.24038">
        <ele>34.799999237061</ele>
        <time>2022-03-13T10:10:56.000Z</time>
      </trkpt>
      <trkpt lat="47.30469" lon="-2.24039">
        <ele>35.200000762939</ele>
        <time>2022-03-13T10:10:57.000Z</time>
      </trkpt>
      <trkpt lat="47.30467" lon="-2.2404">
        <ele>35.799999237061</ele>
        <time>2022-03-13T10:10:58.000Z</time>
      </trkpt>
      <trkpt lat="47.30464" lon="-2.24041">
        <ele>36.200000762939</ele>
        <time>2022-03-13T10:10:59.000Z</time>
      </trkpt>
      <trkpt lat="47.30462" lon="-2.24042">
        <ele>36.599998474121</ele>
        <time>2022-03-13T10:11:00.000Z</time>
      </trkpt>
      <trkpt lat="47.30459" lon="-2.24043">
        <ele>37</ele>
        <time>2022-03-13T10:11:01.000Z</time>
      </trkpt>
      <trkpt lat="47.30453" lon="-2.24047">
        <ele>37</ele>
        <time>2022-03-13T10:11:03.000Z</time>
      </trkpt>
      <trkpt lat="47.30438" lon="-2.24061">
        <ele>37</ele>
        <time>2022-03-13T10:11:09.000Z</time>
      </trkpt>
      <trkpt lat="47.30428" lon="-2.24071">
        <ele>38</ele>
        <time>2022-03-13T10:11:13.000Z</time>
      </trkpt>
      <trkpt lat="47.30426" lon="-2.24073">
        <ele>38.400001525879</ele>
        <time>2022-03-13T10:11:14.000Z</time>
      </trkpt>
      <trkpt lat="47.30424" lon="-2.24076">
        <ele>38.799999237061</ele>
        <time>2022-03-13T10:11:15.000Z</time>
      </trkpt>
      <trkpt lat="47.30422" lon="-2.24078">
        <ele>39.200000762939</ele>
        <time>2022-03-13T10:11:16.000Z</time>
      </trkpt>
      <trkpt lat="47.30413" lon="-2.24087">
        <ele>39.200000762939</ele>
        <time>2022-03-13T10:11:20.000Z</time>
      </trkpt>
      <trkpt lat="47.30403" lon="-2.241">
        <ele>39.599998474121</ele>
        <time>2022-03-13T10:11:25.000Z</time>
      </trkpt>
      <trkpt lat="47.30401" lon="-2.24103">
        <ele>40</ele>
        <time>2022-03-13T10:11:26.000Z</time>
      </trkpt>
      <trkpt lat="47.304" lon="-2.24105">
        <ele>40.400001525879</ele>
        <time>2022-03-13T10:11:27.000Z</time>
      </trkpt>
      <trkpt lat="47.30398" lon="-2.24107">
        <ele>40.799999237061</ele>
        <time>2022-03-13T10:11:28.000Z</time>
      </trkpt>
      <trkpt lat="47.30396" lon="-2.24108">
        <ele>41.400001525879</ele>
        <time>2022-03-13T10:11:29.000Z</time>
      </trkpt>
      <trkpt lat="47.30393" lon="-2.24111">
        <ele>41.400001525879</ele>
        <time>2022-03-13T10:11:30.000Z</time>
      </trkpt>
      <trkpt lat="47.30374" lon="-2.2413">
        <ele>41.400001525879</ele>
        <time>2022-03-13T10:11:36.000Z</time>
      </trkpt>
      <trkpt lat="47.30352" lon="-2.24172">
        <ele>41.400001525879</ele>
        <time>2022-03-13T10:11:43.000Z</time>
      </trkpt>
      <trkpt lat="47.30351" lon="-2.24179">
        <ele>41.400001525879</ele>
        <time>2022-03-13T10:11:44.000Z</time>
      </trkpt>
      <trkpt lat="47.30353" lon="-2.24191">
        <ele>41.400001525879</ele>
        <time>2022-03-13T10:11:46.000Z</time>
      </trkpt>
      <trkpt lat="47.30369" lon="-2.24214">
        <ele>41.400001525879</ele>
        <time>2022-03-13T10:11:52.000Z</time>
      </trkpt>
      <trkpt lat="47.30384" lon="-2.24234">
        <ele>41.400001525879</ele>
        <time>2022-03-13T10:11:57.000Z</time>
      </trkpt>
      <trkpt lat="47.30401" lon="-2.24255">
        <ele>41.400001525879</ele>
        <time>2022-03-13T10:12:02.000Z</time>
      </trkpt>
      <trkpt lat="47.30409" lon="-2.24263">
        <ele>41.400001525879</ele>
        <time>2022-03-13T10:12:04.000Z</time>
      </trkpt>
      <trkpt lat="47.30422" lon="-2.24268">
        <ele>41.400001525879</ele>
        <time>2022-03-13T10:12:07.000Z</time>
      </trkpt>
      <trkpt lat="47.30434" lon="-2.24271">
        <ele>41.400001525879</ele>
        <time>2022-03-13T10:12:09.000Z</time>
      </trkpt>
      <trkpt lat="47.30445" lon="-2.24274">
        <ele>41.400001525879</ele>
        <time>2022-03-13T10:12:11.000Z</time>
      </trkpt>
      <trkpt lat="47.30477" lon="-2.24286">
        <ele>41.400001525879</ele>
        <time>2022-03-13T10:12:17.000Z</time>
      </trkpt>
      <trkpt lat="47.30486" lon="-2.24292">
        <ele>41.400001525879</ele>
        <time>2022-03-13T10:12:19.000Z</time>
      </trkpt>
      <trkpt lat="47.30496" lon="-2.24297">
        <ele>41.400001525879</ele>
        <time>2022-03-13T10:12:21.000Z</time>
      </trkpt>
      <trkpt lat="47.30508" lon="-2.2431">
        <ele>41.400001525879</ele>
        <time>2022-03-13T10:12:24.000Z</time>
      </trkpt>
      <trkpt lat="47.30512" lon="-2.24314">
        <ele>41.400001525879</ele>
        <time>2022-03-13T10:12:25.000Z</time>
      </trkpt>
      <trkpt lat="47.30537" lon="-2.24341">
        <ele>41.400001525879</ele>
        <time>2022-03-13T10:12:31.000Z</time>
      </trkpt>
      <trkpt lat="47.30573" lon="-2.2438">
        <ele>41.400001525879</ele>
        <time>2022-03-13T10:12:39.000Z</time>
      </trkpt>
      <trkpt lat="47.30588" lon="-2.24394">
        <ele>40.799999237061</ele>
        <time>2022-03-13T10:12:42.000Z</time>
      </trkpt>
      <trkpt lat="47.30592" lon="-2.244">
        <ele>40.400001525879</ele>
        <time>2022-03-13T10:12:43.000Z</time>
      </trkpt>
      <trkpt lat="47.30597" lon="-2.24405">
        <ele>40</ele>
        <time>2022-03-13T10:12:44.000Z</time>
      </trkpt>
      <trkpt lat="47.30601" lon="-2.24409">
        <ele>39.599998474121</ele>
        <time>2022-03-13T10:12:45.000Z</time>
      </trkpt>
      <trkpt lat="47.30605" lon="-2.24412">
        <ele>39.200000762939</ele>
        <time>2022-03-13T10:12:46.000Z</time>
      </trkpt>
      <trkpt lat="47.30624" lon="-2.24421">
        <ele>39.200000762939</ele>
        <time>2022-03-13T10:12:50.000Z</time>
      </trkpt>
      <trkpt lat="47.3063" lon="-2.2443">
        <ele>39.200000762939</ele>
        <time>2022-03-13T10:12:52.000Z</time>
      </trkpt>
      <trkpt lat="47.30632" lon="-2.24436">
        <ele>38.799999237061</ele>
        <time>2022-03-13T10:12:53.000Z</time>
      </trkpt>
      <trkpt lat="47.30632" lon="-2.24444">
        <ele>38.400001525879</ele>
        <time>2022-03-13T10:12:54.000Z</time>
      </trkpt>
      <trkpt lat="47.30631" lon="-2.24452">
        <ele>38</ele>
        <time>2022-03-13T10:12:55.000Z</time>
      </trkpt>
      <trkpt lat="47.3063" lon="-2.24461">
        <ele>37.599998474121</ele>
        <time>2022-03-13T10:12:56.000Z</time>
      </trkpt>
      <trkpt lat="47.30629" lon="-2.24471">
        <ele>37.200000762939</ele>
        <time>2022-03-13T10:12:57.000Z</time>
      </trkpt>
      <trkpt lat="47.30626" lon="-2.24492">
        <ele>36.799999237061</ele>
        <time>2022-03-13T10:12:59.000Z</time>
      </trkpt>
      <trkpt lat="47.30625" lon="-2.24503">
        <ele>36.400001525879</ele>
        <time>2022-03-13T10:13:00.000Z</time>
      </trkpt>
      <trkpt lat="47.30623" lon="-2.24515">
        <ele>36</ele>
        <time>2022-03-13T10:13:01.000Z</time>
      </trkpt>
      <trkpt lat="47.30621" lon="-2.24527">
        <ele>35.599998474121</ele>
        <time>2022-03-13T10:13:02.000Z</time>
      </trkpt>
      <trkpt lat="47.3062" lon="-2.24539">
        <ele>35.200000762939</ele>
        <time>2022-03-13T10:13:03.000Z</time>
      </trkpt>
      <trkpt lat="47.30619" lon="-2.24551">
        <ele>34.799999237061</ele>
        <time>2022-03-13T10:13:04.000Z</time>
      </trkpt>
      <trkpt lat="47.30618" lon="-2.24563">
        <ele>34.200000762939</ele>
        <time>2022-03-13T10:13:05.000Z</time>
      </trkpt>
      <trkpt lat="47.30617" lon="-2.24576">
        <ele>33.799999237061</ele>
        <time>2022-03-13T10:13:06.000Z</time>
      </trkpt>
      <trkpt lat="47.30615" lon="-2.24589">
        <ele>33.200000762939</ele>
        <time>2022-03-13T10:13:07.000Z</time>
      </trkpt>
      <trkpt lat="47.30614" lon="-2.24601">
        <ele>32.799999237061</ele>
        <time>2022-03-13T10:13:08.000Z</time>
      </trkpt>
      <trkpt lat="47.30614" lon="-2.24613">
        <ele>32.200000762939</ele>
        <time>2022-03-13T10:13:09.000Z</time>
      </trkpt>
      <trkpt lat="47.30615" lon="-2.24624">
        <ele>31.799999237061</ele>
        <time>2022-03-13T10:13:10.000Z</time>
      </trkpt>
      <trkpt lat="47.30617" lon="-2.24635">
        <ele>31.39999961853</ele>
        <time>2022-03-13T10:13:11.000Z</time>
      </trkpt>
      <trkpt lat="47.30621" lon="-2.24646">
        <ele>31</ele>
        <time>2022-03-13T10:13:12.000Z</time>
      </trkpt>
      <trkpt lat="47.30624" lon="-2.24657">
        <ele>30.39999961853</ele>
        <time>2022-03-13T10:13:13.000Z</time>
      </trkpt>
      <trkpt lat="47.30638" lon="-2.24703">
        <ele>30.39999961853</ele>
        <time>2022-03-13T10:13:18.000Z</time>
      </trkpt>
      <trkpt lat="47.30643" lon="-2.24719">
        <ele>30</ele>
        <time>2022-03-13T10:13:20.000Z</time>
      </trkpt>
      <trkpt lat="47.30646" lon="-2.24728">
        <ele>29.60000038147</ele>
        <time>2022-03-13T10:13:21.000Z</time>
      </trkpt>
      <trkpt lat="47.30648" lon="-2.24735">
        <ele>29.200000762939</ele>
        <time>2022-03-13T10:13:22.000Z</time>
      </trkpt>
      <trkpt lat="47.30651" lon="-2.24743">
        <ele>28.799999237061</ele>
        <time>2022-03-13T10:13:23.000Z</time>
      </trkpt>
      <trkpt lat="47.30653" lon="-2.24749">
        <ele>28.39999961853</ele>
        <time>2022-03-13T10:13:24.000Z</time>
      </trkpt>
      <trkpt lat="47.30662" lon="-2.24767">
        <ele>28.39999961853</ele>
        <time>2022-03-13T10:13:27.000Z</time>
      </trkpt>
      <trkpt lat="47.30668" lon="-2.24775">
        <ele>28.39999961853</ele>
        <time>2022-03-13T10:13:29.000Z</time>
      </trkpt>
      <trkpt lat="47.30681" lon="-2.24791">
        <ele>28.39999961853</ele>
        <time>2022-03-13T10:13:33.000Z</time>
      </trkpt>
      <trkpt lat="47.30686" lon="-2.24798">
        <ele>28.39999961853</ele>
        <time>2022-03-13T10:13:35.000Z</time>
      </trkpt>
      <trkpt lat="47.30697" lon="-2.24813">
        <ele>28.39999961853</ele>
        <time>2022-03-13T10:13:40.000Z</time>
      </trkpt>
      <trkpt lat="47.30705" lon="-2.24828">
        <ele>28.39999961853</ele>
        <time>2022-03-13T10:13:46.000Z</time>
      </trkpt>
      <trkpt lat="47.30707" lon="-2.24831">
        <ele>28.39999961853</ele>
        <time>2022-03-13T10:13:48.000Z</time>
      </trkpt>
      <trkpt lat="47.30708" lon="-2.24832">
        <ele>28.39999961853</ele>
        <time>2022-03-13T10:13:50.000Z</time>
      </trkpt>
      <trkpt lat="47.30708" lon="-2.24832">
        <ele>28.39999961853</ele>
        <time>2022-03-13T10:13:51.000Z</time>
      </trkpt>
      <trkpt lat="47.30708" lon="-2.2483">
        <ele>28.39999961853</ele>
        <time>2022-03-13T10:15:29.000Z</time>
      </trkpt>
      <trkpt lat="47.30707" lon="-2.24828">
        <ele>28.39999961853</ele>
        <time>2022-03-13T10:15:31.000Z</time>
      </trkpt>
      <trkpt lat="47.30706" lon="-2.24827">
        <ele>28.39999961853</ele>
        <time>2022-03-13T10:15:32.000Z</time>
      </trkpt>
      <trkpt lat="47.307" lon="-2.24818">
        <ele>28.39999961853</ele>
        <time>2022-03-13T10:15:37.000Z</time>
      </trkpt>
      <trkpt lat="47.30688" lon="-2.24802">
        <ele>28.39999961853</ele>
        <time>2022-03-13T10:15:43.000Z</time>
      </trkpt>
      <trkpt lat="47.30676" lon="-2.24788">
        <ele>28.39999961853</ele>
        <time>2022-03-13T10:15:49.000Z</time>
      </trkpt>
      <trkpt lat="47.30666" lon="-2.24777">
        <ele>28.39999961853</ele>
        <time>2022-03-13T10:15:55.000Z</time>
      </trkpt>
      <trkpt lat="47.3066" lon="-2.24771">
        <ele>28.39999961853</ele>
        <time>2022-03-13T10:15:58.000Z</time>
      </trkpt>
      <trkpt lat="47.3066" lon="-2.24765">
        <ele>28.39999961853</ele>
        <time>2022-03-13T10:16:00.000Z</time>
      </trkpt>
      <trkpt lat="47.30666" lon="-2.24767">
        <ele>28.39999961853</ele>
        <time>2022-03-13T10:16:03.000Z</time>
      </trkpt>
      <trkpt lat="47.30674" lon="-2.24777">
        <ele>28.39999961853</ele>
        <time>2022-03-13T10:16:06.000Z</time>
      </trkpt>
      <trkpt lat="47.30681" lon="-2.24785">
        <ele>28.39999961853</ele>
        <time>2022-03-13T10:16:08.000Z</time>
      </trkpt>
      <trkpt lat="47.30701" lon="-2.24814">
        <ele>28.39999961853</ele>
        <time>2022-03-13T10:16:14.000Z</time>
      </trkpt>
      <trkpt lat="47.3072" lon="-2.24851">
        <ele>28.39999961853</ele>
        <time>2022-03-13T10:16:20.000Z</time>
      </trkpt>
      <trkpt lat="47.30736" lon="-2.24875">
        <ele>28.39999961853</ele>
        <time>2022-03-13T10:16:24.000Z</time>
      </trkpt>
      <trkpt lat="47.30747" lon="-2.24884">
        <ele>28.39999961853</ele>
        <time>2022-03-13T10:16:26.000Z</time>
      </trkpt>
      <trkpt lat="47.30764" lon="-2.24893">
        <ele>28.39999961853</ele>
        <time>2022-03-13T10:16:29.000Z</time>
      </trkpt>
      <trkpt lat="47.30782" lon="-2.24901">
        <ele>28.39999961853</ele>
        <time>2022-03-13T10:16:32.000Z</time>
      </trkpt>
      <trkpt lat="47.30822" lon="-2.2492">
        <ele>28.39999961853</ele>
        <time>2022-03-13T10:16:39.000Z</time>
      </trkpt>
      <trkpt lat="47.30851" lon="-2.24934">
        <ele>28.39999961853</ele>
        <time>2022-03-13T10:16:46.000Z</time>
      </trkpt>
      <trkpt lat="47.30865" lon="-2.24953">
        <ele>28.39999961853</ele>
        <time>2022-03-13T10:16:51.000Z</time>
      </trkpt>
      <trkpt lat="47.30871" lon="-2.2497">
        <ele>28.39999961853</ele>
        <time>2022-03-13T10:16:54.000Z</time>
      </trkpt>
      <trkpt lat="47.30875" lon="-2.24983">
        <ele>28.39999961853</ele>
        <time>2022-03-13T10:16:56.000Z</time>
      </trkpt>
      <trkpt lat="47.30885" lon="-2.25027">
        <ele>28.39999961853</ele>
        <time>2022-03-13T10:17:01.000Z</time>
      </trkpt>
      <trkpt lat="47.30885" lon="-2.25035">
        <ele>28.39999961853</ele>
        <time>2022-03-13T10:17:02.000Z</time>
      </trkpt>
      <trkpt lat="47.30888" lon="-2.25076">
        <ele>28.39999961853</ele>
        <time>2022-03-13T10:17:07.000Z</time>
      </trkpt>
      <trkpt lat="47.30893" lon="-2.25125">
        <ele>28.39999961853</ele>
        <time>2022-03-13T10:17:13.000Z</time>
      </trkpt>
      <trkpt lat="47.30896" lon="-2.2515">
        <ele>28.799999237061</ele>
        <time>2022-03-13T10:17:16.000Z</time>
      </trkpt>
      <trkpt lat="47.30898" lon="-2.25159">
        <ele>29.200000762939</ele>
        <time>2022-03-13T10:17:17.000Z</time>
      </trkpt>
      <trkpt lat="47.309" lon="-2.25167">
        <ele>30</ele>
        <time>2022-03-13T10:17:18.000Z</time>
      </trkpt>
      <trkpt lat="47.30903" lon="-2.25176">
        <ele>30.39999961853</ele>
        <time>2022-03-13T10:17:19.000Z</time>
      </trkpt>
      <trkpt lat="47.30914" lon="-2.25214">
        <ele>30.39999961853</ele>
        <time>2022-03-13T10:17:24.000Z</time>
      </trkpt>
      <trkpt lat="47.30907" lon="-2.2522">
        <ele>30.39999961853</ele>
        <time>2022-03-13T10:17:26.000Z</time>
      </trkpt>
      <trkpt lat="47.30893" lon="-2.25229">
        <ele>30.799999237061</ele>
        <time>2022-03-13T10:17:29.000Z</time>
      </trkpt>
      <trkpt lat="47.30889" lon="-2.25233">
        <ele>31.200000762939</ele>
        <time>2022-03-13T10:17:30.000Z</time>
      </trkpt>
      <trkpt lat="47.30884" lon="-2.25238">
        <ele>31.60000038147</ele>
        <time>2022-03-13T10:17:31.000Z</time>
      </trkpt>
      <trkpt lat="47.30879" lon="-2.25242">
        <ele>32</ele>
        <time>2022-03-13T10:17:32.000Z</time>
      </trkpt>
      <trkpt lat="47.30875" lon="-2.25245">
        <ele>32.400001525879</ele>
        <time>2022-03-13T10:17:33.000Z</time>
      </trkpt>
      <trkpt lat="47.3087" lon="-2.25248">
        <ele>32.400001525879</ele>
        <time>2022-03-13T10:17:34.000Z</time>
      </trkpt>
      <trkpt lat="47.30851" lon="-2.25262">
        <ele>32.400001525879</ele>
        <time>2022-03-13T10:17:38.000Z</time>
      </trkpt>
      <trkpt lat="47.30845" lon="-2.25274">
        <ele>32.400001525879</ele>
        <time>2022-03-13T10:17:40.000Z</time>
      </trkpt>
      <trkpt lat="47.30843" lon="-2.25297">
        <ele>32.799999237061</ele>
        <time>2022-03-13T10:17:43.000Z</time>
      </trkpt>
      <trkpt lat="47.30843" lon="-2.25305">
        <ele>33.200000762939</ele>
        <time>2022-03-13T10:17:44.000Z</time>
      </trkpt>
      <trkpt lat="47.30844" lon="-2.25313">
        <ele>33.599998474121</ele>
        <time>2022-03-13T10:17:45.000Z</time>
      </trkpt>
      <trkpt lat="47.30844" lon="-2.25321">
        <ele>34.200000762939</ele>
        <time>2022-03-13T10:17:46.000Z</time>
      </trkpt>
      <trkpt lat="47.30844" lon="-2.25329">
        <ele>34.599998474121</ele>
        <time>2022-03-13T10:17:47.000Z</time>
      </trkpt>
      <trkpt lat="47.30848" lon="-2.25345">
        <ele>34.599998474121</ele>
        <time>2022-03-13T10:17:49.000Z</time>
      </trkpt>
      <trkpt lat="47.30856" lon="-2.25393">
        <ele>34.599998474121</ele>
        <time>2022-03-13T10:17:55.000Z</time>
      </trkpt>
      <trkpt lat="47.30853" lon="-2.25425">
        <ele>34.599998474121</ele>
        <time>2022-03-13T10:17:59.000Z</time>
      </trkpt>
      <trkpt lat="47.30853" lon="-2.25433">
        <ele>34.599998474121</ele>
        <time>2022-03-13T10:18:00.000Z</time>
      </trkpt>
      <trkpt lat="47.30855" lon="-2.25454">
        <ele>34.599998474121</ele>
        <time>2022-03-13T10:18:03.000Z</time>
      </trkpt>
      <trkpt lat="47.3086" lon="-2.25505">
        <ele>34.599998474121</ele>
        <time>2022-03-13T10:18:10.000Z</time>
      </trkpt>
      <trkpt lat="47.30861" lon="-2.25512">
        <ele>35</ele>
        <time>2022-03-13T10:18:11.000Z</time>
      </trkpt>
      <trkpt lat="47.30861" lon="-2.25519">
        <ele>35.400001525879</ele>
        <time>2022-03-13T10:18:12.000Z</time>
      </trkpt>
      <trkpt lat="47.30862" lon="-2.25527">
        <ele>35.799999237061</ele>
        <time>2022-03-13T10:18:13.000Z</time>
      </trkpt>
      <trkpt lat="47.30863" lon="-2.25534">
        <ele>36.200000762939</ele>
        <time>2022-03-13T10:18:14.000Z</time>
      </trkpt>
      <trkpt lat="47.30864" lon="-2.25542">
        <ele>36.799999237061</ele>
        <time>2022-03-13T10:18:15.000Z</time>
      </trkpt>
      <trkpt lat="47.30865" lon="-2.25549">
        <ele>36.799999237061</ele>
        <time>2022-03-13T10:18:16.000Z</time>
      </trkpt>
      <trkpt lat="47.30868" lon="-2.25588">
        <ele>36.799999237061</ele>
        <time>2022-03-13T10:18:21.000Z</time>
      </trkpt>
      <trkpt lat="47.3087" lon="-2.25603">
        <ele>36.799999237061</ele>
        <time>2022-03-13T10:18:23.000Z</time>
      </trkpt>
      <trkpt lat="47.30873" lon="-2.25656">
        <ele>36.799999237061</ele>
        <time>2022-03-13T10:18:30.000Z</time>
      </trkpt>
      <trkpt lat="47.30874" lon="-2.25721">
        <ele>36.799999237061</ele>
        <time>2022-03-13T10:18:39.000Z</time>
      </trkpt>
      <trkpt lat="47.30875" lon="-2.25728">
        <ele>37.200000762939</ele>
        <time>2022-03-13T10:18:40.000Z</time>
      </trkpt>
      <trkpt lat="47.30875" lon="-2.25735">
        <ele>37.599998474121</ele>
        <time>2022-03-13T10:18:41.000Z</time>
      </trkpt>
      <trkpt lat="47.30876" lon="-2.25743">
        <ele>38</ele>
        <time>2022-03-13T10:18:42.000Z</time>
      </trkpt>
      <trkpt lat="47.30877" lon="-2.2575">
        <ele>38.400001525879</ele>
        <time>2022-03-13T10:18:43.000Z</time>
      </trkpt>
      <trkpt lat="47.30878" lon="-2.25757">
        <ele>38.799999237061</ele>
        <time>2022-03-13T10:18:44.000Z</time>
      </trkpt>
      <trkpt lat="47.30879" lon="-2.25765">
        <ele>38.799999237061</ele>
        <time>2022-03-13T10:18:45.000Z</time>
      </trkpt>
      <trkpt lat="47.30881" lon="-2.25779">
        <ele>38.799999237061</ele>
        <time>2022-03-13T10:18:47.000Z</time>
      </trkpt>
      <trkpt lat="47.30885" lon="-2.25791">
        <ele>38.799999237061</ele>
        <time>2022-03-13T10:18:49.000Z</time>
      </trkpt>
      <trkpt lat="47.30897" lon="-2.25831">
        <ele>38.799999237061</ele>
        <time>2022-03-13T10:18:55.000Z</time>
      </trkpt>
      <trkpt lat="47.30911" lon="-2.2587">
        <ele>38.799999237061</ele>
        <time>2022-03-13T10:19:02.000Z</time>
      </trkpt>
      <trkpt lat="47.30915" lon="-2.25879">
        <ele>38.799999237061</ele>
        <time>2022-03-13T10:19:07.000Z</time>
      </trkpt>
      <trkpt lat="47.30914" lon="-2.25886">
        <ele>38.799999237061</ele>
        <time>2022-03-13T10:19:09.000Z</time>
      </trkpt>
      <trkpt lat="47.3091" lon="-2.25893">
        <ele>38.799999237061</ele>
        <time>2022-03-13T10:19:11.000Z</time>
      </trkpt>
      <trkpt lat="47.30904" lon="-2.25899">
        <ele>38.799999237061</ele>
        <time>2022-03-13T10:19:13.000Z</time>
      </trkpt>
      <trkpt lat="47.30892" lon="-2.25914">
        <ele>38.799999237061</ele>
        <time>2022-03-13T10:19:17.000Z</time>
      </trkpt>
      <trkpt lat="47.30865" lon="-2.25945">
        <ele>38.799999237061</ele>
        <time>2022-03-13T10:19:24.000Z</time>
      </trkpt>
      <trkpt lat="47.30834" lon="-2.25979">
        <ele>38.799999237061</ele>
        <time>2022-03-13T10:19:31.000Z</time>
      </trkpt>
      <trkpt lat="47.30818" lon="-2.25998">
        <ele>38.799999237061</ele>
        <time>2022-03-13T10:19:35.000Z</time>
      </trkpt>
      <trkpt lat="47.30813" lon="-2.26002">
        <ele>38.799999237061</ele>
        <time>2022-03-13T10:19:36.000Z</time>
      </trkpt>
      <trkpt lat="47.30795" lon="-2.26019">
        <ele>38.799999237061</ele>
        <time>2022-03-13T10:19:40.000Z</time>
      </trkpt>
      <trkpt lat="47.30785" lon="-2.26026">
        <ele>38.799999237061</ele>
        <time>2022-03-13T10:19:42.000Z</time>
      </trkpt>
      <trkpt lat="47.30754" lon="-2.26044">
        <ele>38.799999237061</ele>
        <time>2022-03-13T10:19:48.000Z</time>
      </trkpt>
      <trkpt lat="47.30712" lon="-2.26067">
        <ele>38.799999237061</ele>
        <time>2022-03-13T10:19:56.000Z</time>
      </trkpt>
      <trkpt lat="47.30666" lon="-2.26093">
        <ele>38.799999237061</ele>
        <time>2022-03-13T10:20:04.000Z</time>
      </trkpt>
      <trkpt lat="47.30654" lon="-2.26099">
        <ele>38.400001525879</ele>
        <time>2022-03-13T10:20:06.000Z</time>
      </trkpt>
      <trkpt lat="47.30649" lon="-2.26102">
        <ele>38</ele>
        <time>2022-03-13T10:20:07.000Z</time>
      </trkpt>
      <trkpt lat="47.30643" lon="-2.26105">
        <ele>37.599998474121</ele>
        <time>2022-03-13T10:20:08.000Z</time>
      </trkpt>
      <trkpt lat="47.30636" lon="-2.26108">
        <ele>37.200000762939</ele>
        <time>2022-03-13T10:20:09.000Z</time>
      </trkpt>
      <trkpt lat="47.30631" lon="-2.26111">
        <ele>36.799999237061</ele>
        <time>2022-03-13T10:20:10.000Z</time>
      </trkpt>
      <trkpt lat="47.30626" lon="-2.26117">
        <ele>36.799999237061</ele>
        <time>2022-03-13T10:20:11.000Z</time>
      </trkpt>
      <trkpt lat="47.3061" lon="-2.26145">
        <ele>36.799999237061</ele>
        <time>2022-03-13T10:20:15.000Z</time>
      </trkpt>
      <trkpt lat="47.30588" lon="-2.2619">
        <ele>36.799999237061</ele>
        <time>2022-03-13T10:20:21.000Z</time>
      </trkpt>
      <trkpt lat="47.30576" lon="-2.26228">
        <ele>36.799999237061</ele>
        <time>2022-03-13T10:20:26.000Z</time>
      </trkpt>
      <trkpt lat="47.30566" lon="-2.26266">
        <ele>36.799999237061</ele>
        <time>2022-03-13T10:20:31.000Z</time>
      </trkpt>
      <trkpt lat="47.30563" lon="-2.26282">
        <ele>36.799999237061</ele>
        <time>2022-03-13T10:20:33.000Z</time>
      </trkpt>
      <trkpt lat="47.30553" lon="-2.26331">
        <ele>36.799999237061</ele>
        <time>2022-03-13T10:20:39.000Z</time>
      </trkpt>
      <trkpt lat="47.30543" lon="-2.26371">
        <ele>36.799999237061</ele>
        <time>2022-03-13T10:20:44.000Z</time>
      </trkpt>
      <trkpt lat="47.30524" lon="-2.2642">
        <ele>36.799999237061</ele>
        <time>2022-03-13T10:20:51.000Z</time>
      </trkpt>
      <trkpt lat="47.30504" lon="-2.26462">
        <ele>36.799999237061</ele>
        <time>2022-03-13T10:20:57.000Z</time>
      </trkpt>
      <trkpt lat="47.30496" lon="-2.26486">
        <ele>36.799999237061</ele>
        <time>2022-03-13T10:21:01.000Z</time>
      </trkpt>
      <trkpt lat="47.3049" lon="-2.26498">
        <ele>36.799999237061</ele>
        <time>2022-03-13T10:21:03.000Z</time>
      </trkpt>
      <trkpt lat="47.30475" lon="-2.2653">
        <ele>36.799999237061</ele>
        <time>2022-03-13T10:21:08.000Z</time>
      </trkpt>
      <trkpt lat="47.30452" lon="-2.26574">
        <ele>36.799999237061</ele>
        <time>2022-03-13T10:21:15.000Z</time>
      </trkpt>
      <trkpt lat="47.30429" lon="-2.26621">
        <ele>36.799999237061</ele>
        <time>2022-03-13T10:21:22.000Z</time>
      </trkpt>
      <trkpt lat="47.30419" lon="-2.26642">
        <ele>36.799999237061</ele>
        <time>2022-03-13T10:21:25.000Z</time>
      </trkpt>
      <trkpt lat="47.30411" lon="-2.26662">
        <ele>36.799999237061</ele>
        <time>2022-03-13T10:21:28.000Z</time>
      </trkpt>
      <trkpt lat="47.30393" lon="-2.267">
        <ele>36.799999237061</ele>
        <time>2022-03-13T10:21:34.000Z</time>
      </trkpt>
      <trkpt lat="47.30384" lon="-2.26709">
        <ele>36.799999237061</ele>
        <time>2022-03-13T10:21:36.000Z</time>
      </trkpt>
      <trkpt lat="47.30377" lon="-2.26722">
        <ele>36.799999237061</ele>
        <time>2022-03-13T10:21:38.000Z</time>
      </trkpt>
      <trkpt lat="47.30371" lon="-2.26735">
        <ele>36.799999237061</ele>
        <time>2022-03-13T10:21:40.000Z</time>
      </trkpt>
      <trkpt lat="47.30361" lon="-2.26754">
        <ele>36.799999237061</ele>
        <time>2022-03-13T10:21:43.000Z</time>
      </trkpt>
      <trkpt lat="47.30358" lon="-2.26761">
        <ele>36.799999237061</ele>
        <time>2022-03-13T10:21:44.000Z</time>
      </trkpt>
      <trkpt lat="47.30351" lon="-2.26774">
        <ele>36.799999237061</ele>
        <time>2022-03-13T10:21:46.000Z</time>
      </trkpt>
      <trkpt lat="47.30349" lon="-2.2678">
        <ele>36.799999237061</ele>
        <time>2022-03-13T10:21:47.000Z</time>
      </trkpt>
      <trkpt lat="47.30351" lon="-2.26802">
        <ele>36.799999237061</ele>
        <time>2022-03-13T10:21:50.000Z</time>
      </trkpt>
      <trkpt lat="47.30352" lon="-2.26811">
        <ele>36.799999237061</ele>
        <time>2022-03-13T10:21:51.000Z</time>
      </trkpt>
      <trkpt lat="47.30353" lon="-2.26819">
        <ele>36.799999237061</ele>
        <time>2022-03-13T10:21:52.000Z</time>
      </trkpt>
      <trkpt lat="47.30356" lon="-2.26864">
        <ele>36.799999237061</ele>
        <time>2022-03-13T10:21:57.000Z</time>
      </trkpt>
      <trkpt lat="47.30364" lon="-2.26917">
        <ele>36.799999237061</ele>
        <time>2022-03-13T10:22:03.000Z</time>
      </trkpt>
      <trkpt lat="47.3037" lon="-2.26968">
        <ele>36.799999237061</ele>
        <time>2022-03-13T10:22:09.000Z</time>
      </trkpt>
      <trkpt lat="47.3037" lon="-2.26976">
        <ele>36.400001525879</ele>
        <time>2022-03-13T10:22:10.000Z</time>
      </trkpt>
      <trkpt lat="47.30371" lon="-2.26984">
        <ele>36</ele>
        <time>2022-03-13T10:22:11.000Z</time>
      </trkpt>
      <trkpt lat="47.30371" lon="-2.26991">
        <ele>35.599998474121</ele>
        <time>2022-03-13T10:22:12.000Z</time>
      </trkpt>
      <trkpt lat="47.30371" lon="-2.26998">
        <ele>34.799999237061</ele>
        <time>2022-03-13T10:22:13.000Z</time>
      </trkpt>
      <trkpt lat="47.30373" lon="-2.27017">
        <ele>34.799999237061</ele>
        <time>2022-03-13T10:22:16.000Z</time>
      </trkpt>
      <trkpt lat="47.30377" lon="-2.27054">
        <ele>34.799999237061</ele>
        <time>2022-03-13T10:22:22.000Z</time>
      </trkpt>
      <trkpt lat="47.3039" lon="-2.27061">
        <ele>34.799999237061</ele>
        <time>2022-03-13T10:22:25.000Z</time>
      </trkpt>
      <trkpt lat="47.30406" lon="-2.27082">
        <ele>34.799999237061</ele>
        <time>2022-03-13T10:22:29.000Z</time>
      </trkpt>
      <trkpt lat="47.30411" lon="-2.27105">
        <ele>34.799999237061</ele>
        <time>2022-03-13T10:22:32.000Z</time>
      </trkpt>
      <trkpt lat="47.30413" lon="-2.27113">
        <ele>34.799999237061</ele>
        <time>2022-03-13T10:22:33.000Z</time>
      </trkpt>
      <trkpt lat="47.30413" lon="-2.27119">
        <ele>34.799999237061</ele>
        <time>2022-03-13T10:22:34.000Z</time>
      </trkpt>
      <trkpt lat="47.30416" lon="-2.27144">
        <ele>34.799999237061</ele>
        <time>2022-03-13T10:22:38.000Z</time>
      </trkpt>
      <trkpt lat="47.30416" lon="-2.27153">
        <ele>34.200000762939</ele>
        <time>2022-03-13T10:22:40.000Z</time>
      </trkpt>
      <trkpt lat="47.30416" lon="-2.27156">
        <ele>33.799999237061</ele>
        <time>2022-03-13T10:22:41.000Z</time>
      </trkpt>
      <trkpt lat="47.30416" lon="-2.27159">
        <ele>33.400001525879</ele>
        <time>2022-03-13T10:22:42.000Z</time>
      </trkpt>
      <trkpt lat="47.30415" lon="-2.2716">
        <ele>33</ele>
        <time>2022-03-13T10:22:43.000Z</time>
      </trkpt>
      <trkpt lat="47.30412" lon="-2.27161">
        <ele>32.400001525879</ele>
        <time>2022-03-13T10:22:44.000Z</time>
      </trkpt>
      <trkpt lat="47.30411" lon="-2.27161">
        <ele>32.400001525879</ele>
        <time>2022-03-13T10:22:45.000Z</time>
      </trkpt>
      <trkpt lat="47.30407" lon="-2.27162">
        <ele>32.400001525879</ele>
        <time>2022-03-13T10:22:47.000Z</time>
      </trkpt>
      <trkpt lat="47.30394" lon="-2.27164">
        <ele>32.400001525879</ele>
        <time>2022-03-13T10:22:52.000Z</time>
      </trkpt>
      <trkpt lat="47.30374" lon="-2.27167">
        <ele>32.400001525879</ele>
        <time>2022-03-13T10:22:58.000Z</time>
      </trkpt>
      <trkpt lat="47.30358" lon="-2.2717">
        <ele>32.400001525879</ele>
        <time>2022-03-13T10:23:02.000Z</time>
      </trkpt>
      <trkpt lat="47.30349" lon="-2.27172">
        <ele>32.400001525879</ele>
        <time>2022-03-13T10:23:04.000Z</time>
      </trkpt>
      <trkpt lat="47.3032" lon="-2.27179">
        <ele>32.400001525879</ele>
        <time>2022-03-13T10:23:11.000Z</time>
      </trkpt>
      <trkpt lat="47.30294" lon="-2.27182">
        <ele>32.400001525879</ele>
        <time>2022-03-13T10:23:17.000Z</time>
      </trkpt>
      <trkpt lat="47.30282" lon="-2.27179">
        <ele>32.400001525879</ele>
        <time>2022-03-13T10:23:20.000Z</time>
      </trkpt>
      <trkpt lat="47.30274" lon="-2.27177">
        <ele>32.400001525879</ele>
        <time>2022-03-13T10:23:22.000Z</time>
      </trkpt>
      <trkpt lat="47.30261" lon="-2.27174">
        <ele>32.400001525879</ele>
        <time>2022-03-13T10:23:25.000Z</time>
      </trkpt>
      <trkpt lat="47.30254" lon="-2.27171">
        <ele>32.400001525879</ele>
        <time>2022-03-13T10:23:27.000Z</time>
      </trkpt>
      <trkpt lat="47.30249" lon="-2.27169">
        <ele>32.799999237061</ele>
        <time>2022-03-13T10:23:28.000Z</time>
      </trkpt>
      <trkpt lat="47.30245" lon="-2.27167">
        <ele>33.200000762939</ele>
        <time>2022-03-13T10:23:29.000Z</time>
      </trkpt>
      <trkpt lat="47.30241" lon="-2.27165">
        <ele>33.599998474121</ele>
        <time>2022-03-13T10:23:30.000Z</time>
      </trkpt>
      <trkpt lat="47.30237" lon="-2.27163">
        <ele>34</ele>
        <time>2022-03-13T10:23:31.000Z</time>
      </trkpt>
      <trkpt lat="47.30232" lon="-2.27161">
        <ele>34.599998474121</ele>
        <time>2022-03-13T10:23:32.000Z</time>
      </trkpt>
      <trkpt lat="47.30223" lon="-2.27157">
        <ele>34.599998474121</ele>
        <time>2022-03-13T10:23:34.000Z</time>
      </trkpt>
      <trkpt lat="47.30207" lon="-2.27164">
        <ele>34.599998474121</ele>
        <time>2022-03-13T10:23:37.000Z</time>
      </trkpt>
      <trkpt lat="47.30197" lon="-2.27173">
        <ele>34.599998474121</ele>
        <time>2022-03-13T10:23:39.000Z</time>
      </trkpt>
      <trkpt lat="47.30192" lon="-2.2718">
        <ele>34.599998474121</ele>
        <time>2022-03-13T10:23:40.000Z</time>
      </trkpt>
      <trkpt lat="47.30183" lon="-2.27193">
        <ele>34.599998474121</ele>
        <time>2022-03-13T10:23:42.000Z</time>
      </trkpt>
      <trkpt lat="47.30177" lon="-2.27198">
        <ele>34.599998474121</ele>
        <time>2022-03-13T10:23:43.000Z</time>
      </trkpt>
      <trkpt lat="47.30151" lon="-2.27229">
        <ele>34.599998474121</ele>
        <time>2022-03-13T10:23:48.000Z</time>
      </trkpt>
      <trkpt lat="47.30122" lon="-2.27266">
        <ele>34.599998474121</ele>
        <time>2022-03-13T10:23:54.000Z</time>
      </trkpt>
      <trkpt lat="47.30094" lon="-2.2731">
        <ele>34.599998474121</ele>
        <time>2022-03-13T10:24:00.000Z</time>
      </trkpt>
      <trkpt lat="47.3009" lon="-2.27318">
        <ele>34.599998474121</ele>
        <time>2022-03-13T10:24:01.000Z</time>
      </trkpt>
      <trkpt lat="47.3007" lon="-2.27366">
        <ele>34.599998474121</ele>
        <time>2022-03-13T10:24:07.000Z</time>
      </trkpt>
      <trkpt lat="47.30054" lon="-2.27399">
        <ele>34.599998474121</ele>
        <time>2022-03-13T10:24:12.000Z</time>
      </trkpt>
      <trkpt lat="47.3005" lon="-2.27406">
        <ele>34.599998474121</ele>
        <time>2022-03-13T10:24:13.000Z</time>
      </trkpt>
      <trkpt lat="47.30027" lon="-2.27431">
        <ele>34.599998474121</ele>
        <time>2022-03-13T10:24:18.000Z</time>
      </trkpt>
      <trkpt lat="47.30023" lon="-2.27437">
        <ele>34.599998474121</ele>
        <time>2022-03-13T10:24:19.000Z</time>
      </trkpt>
      <trkpt lat="47.30004" lon="-2.27468">
        <ele>34.599998474121</ele>
        <time>2022-03-13T10:24:24.000Z</time>
      </trkpt>
      <trkpt lat="47.30001" lon="-2.27476">
        <ele>34.599998474121</ele>
        <time>2022-03-13T10:24:25.000Z</time>
      </trkpt>
      <trkpt lat="47.2999" lon="-2.27522">
        <ele>34.599998474121</ele>
        <time>2022-03-13T10:24:31.000Z</time>
      </trkpt>
      <trkpt lat="47.29978" lon="-2.27573">
        <ele>34.599998474121</ele>
        <time>2022-03-13T10:24:38.000Z</time>
      </trkpt>
      <trkpt lat="47.2997" lon="-2.27603">
        <ele>35</ele>
        <time>2022-03-13T10:24:42.000Z</time>
      </trkpt>
      <trkpt lat="47.29968" lon="-2.27612">
        <ele>35.400001525879</ele>
        <time>2022-03-13T10:24:43.000Z</time>
      </trkpt>
      <trkpt lat="47.29966" lon="-2.2762">
        <ele>35.799999237061</ele>
        <time>2022-03-13T10:24:44.000Z</time>
      </trkpt>
      <trkpt lat="47.29965" lon="-2.27629">
        <ele>36.200000762939</ele>
        <time>2022-03-13T10:24:45.000Z</time>
      </trkpt>
      <trkpt lat="47.29964" lon="-2.27638">
        <ele>36.599998474121</ele>
        <time>2022-03-13T10:24:46.000Z</time>
      </trkpt>
      <trkpt lat="47.2996" lon="-2.27672">
        <ele>36.599998474121</ele>
        <time>2022-03-13T10:24:50.000Z</time>
      </trkpt>
      <trkpt lat="47.29959" lon="-2.2768">
        <ele>36.599998474121</ele>
        <time>2022-03-13T10:24:51.000Z</time>
      </trkpt>
      <trkpt lat="47.29956" lon="-2.2772">
        <ele>36.599998474121</ele>
        <time>2022-03-13T10:24:56.000Z</time>
      </trkpt>
      <trkpt lat="47.29951" lon="-2.2777">
        <ele>36.599998474121</ele>
        <time>2022-03-13T10:25:02.000Z</time>
      </trkpt>
      <trkpt lat="47.29948" lon="-2.27812">
        <ele>37</ele>
        <time>2022-03-13T10:25:07.000Z</time>
      </trkpt>
      <trkpt lat="47.29947" lon="-2.27821">
        <ele>37.400001525879</ele>
        <time>2022-03-13T10:25:08.000Z</time>
      </trkpt>
      <trkpt lat="47.29947" lon="-2.27829">
        <ele>38</ele>
        <time>2022-03-13T10:25:09.000Z</time>
      </trkpt>
      <trkpt lat="47.29946" lon="-2.27837">
        <ele>38.400001525879</ele>
        <time>2022-03-13T10:25:10.000Z</time>
      </trkpt>
      <trkpt lat="47.29945" lon="-2.27845">
        <ele>39</ele>
        <time>2022-03-13T10:25:11.000Z</time>
      </trkpt>
      <trkpt lat="47.29941" lon="-2.27888">
        <ele>39</ele>
        <time>2022-03-13T10:25:16.000Z</time>
      </trkpt>
      <trkpt lat="47.29936" lon="-2.27941">
        <ele>39</ele>
        <time>2022-03-13T10:25:22.000Z</time>
      </trkpt>
      <trkpt lat="47.29935" lon="-2.2799">
        <ele>39</ele>
        <time>2022-03-13T10:25:28.000Z</time>
      </trkpt>
      <trkpt lat="47.29938" lon="-2.28016">
        <ele>39</ele>
        <time>2022-03-13T10:25:31.000Z</time>
      </trkpt>
      <trkpt lat="47.29943" lon="-2.28032">
        <ele>39</ele>
        <time>2022-03-13T10:25:33.000Z</time>
      </trkpt>
      <trkpt lat="47.29953" lon="-2.28049">
        <ele>39</ele>
        <time>2022-03-13T10:25:36.000Z</time>
      </trkpt>
      <trkpt lat="47.29959" lon="-2.28049">
        <ele>39</ele>
        <time>2022-03-13T10:25:37.000Z</time>
      </trkpt>
      <trkpt lat="47.29973" lon="-2.28041">
        <ele>39</ele>
        <time>2022-03-13T10:25:40.000Z</time>
      </trkpt>
      <trkpt lat="47.29978" lon="-2.28039">
        <ele>39</ele>
        <time>2022-03-13T10:25:41.000Z</time>
      </trkpt>
      <trkpt lat="47.2999" lon="-2.28035">
        <ele>39</ele>
        <time>2022-03-13T10:25:44.000Z</time>
      </trkpt>
      <trkpt lat="47.29993" lon="-2.28038">
        <ele>39</ele>
        <time>2022-03-13T10:25:45.000Z</time>
      </trkpt>
      <trkpt lat="47.29993" lon="-2.28048">
        <ele>39</ele>
        <time>2022-03-13T10:25:47.000Z</time>
      </trkpt>
      <trkpt lat="47.29989" lon="-2.28059">
        <ele>39</ele>
        <time>2022-03-13T10:25:49.000Z</time>
      </trkpt>
      <trkpt lat="47.29986" lon="-2.28071">
        <ele>39</ele>
        <time>2022-03-13T10:25:51.000Z</time>
      </trkpt>
      <trkpt lat="47.29978" lon="-2.28108">
        <ele>39</ele>
        <time>2022-03-13T10:25:56.000Z</time>
      </trkpt>
      <trkpt lat="47.29977" lon="-2.28116">
        <ele>39</ele>
        <time>2022-03-13T10:25:57.000Z</time>
      </trkpt>
      <trkpt lat="47.29965" lon="-2.2817">
        <ele>39</ele>
        <time>2022-03-13T10:26:04.000Z</time>
      </trkpt>
      <trkpt lat="47.29959" lon="-2.28193">
        <ele>39</ele>
        <time>2022-03-13T10:26:07.000Z</time>
      </trkpt>
      <trkpt lat="47.29957" lon="-2.28208">
        <ele>39</ele>
        <time>2022-03-13T10:26:09.000Z</time>
      </trkpt>
      <trkpt lat="47.29957" lon="-2.28216">
        <ele>39</ele>
        <time>2022-03-13T10:26:10.000Z</time>
      </trkpt>
      <trkpt lat="47.29956" lon="-2.28244">
        <ele>39</ele>
        <time>2022-03-13T10:26:13.000Z</time>
      </trkpt>
      <trkpt lat="47.29956" lon="-2.28263">
        <ele>39</ele>
        <time>2022-03-13T10:26:15.000Z</time>
      </trkpt>
      <trkpt lat="47.29957" lon="-2.28291">
        <ele>39</ele>
        <time>2022-03-13T10:26:18.000Z</time>
      </trkpt>
      <trkpt lat="47.29957" lon="-2.2831">
        <ele>39</ele>
        <time>2022-03-13T10:26:20.000Z</time>
      </trkpt>
      <trkpt lat="47.29957" lon="-2.28337">
        <ele>39</ele>
        <time>2022-03-13T10:26:23.000Z</time>
      </trkpt>
      <trkpt lat="47.29956" lon="-2.28345">
        <ele>39</ele>
        <time>2022-03-13T10:26:24.000Z</time>
      </trkpt>
      <trkpt lat="47.29954" lon="-2.28381">
        <ele>39</ele>
        <time>2022-03-13T10:26:28.000Z</time>
      </trkpt>
      <trkpt lat="47.29955" lon="-2.284">
        <ele>39</ele>
        <time>2022-03-13T10:26:30.000Z</time>
      </trkpt>
      <trkpt lat="47.29951" lon="-2.28431">
        <ele>39</ele>
        <time>2022-03-13T10:26:34.000Z</time>
      </trkpt>
      <trkpt lat="47.29945" lon="-2.28457">
        <ele>39</ele>
        <time>2022-03-13T10:26:37.000Z</time>
      </trkpt>
      <trkpt lat="47.29944" lon="-2.28466">
        <ele>39</ele>
        <time>2022-03-13T10:26:38.000Z</time>
      </trkpt>
      <trkpt lat="47.29944" lon="-2.28484">
        <ele>39</ele>
        <time>2022-03-13T10:26:40.000Z</time>
      </trkpt>
      <trkpt lat="47.29944" lon="-2.28501">
        <ele>39</ele>
        <time>2022-03-13T10:26:42.000Z</time>
      </trkpt>
      <trkpt lat="47.2994" lon="-2.28515">
        <ele>39</ele>
        <time>2022-03-13T10:26:44.000Z</time>
      </trkpt>
      <trkpt lat="47.29938" lon="-2.28523">
        <ele>39</ele>
        <time>2022-03-13T10:26:45.000Z</time>
      </trkpt>
      <trkpt lat="47.29936" lon="-2.28531">
        <ele>39</ele>
        <time>2022-03-13T10:26:46.000Z</time>
      </trkpt>
      <trkpt lat="47.29935" lon="-2.28555">
        <ele>39</ele>
        <time>2022-03-13T10:26:49.000Z</time>
      </trkpt>
      <trkpt lat="47.29942" lon="-2.2858">
        <ele>39</ele>
        <time>2022-03-13T10:26:53.000Z</time>
      </trkpt>
      <trkpt lat="47.29941" lon="-2.28596">
        <ele>39</ele>
        <time>2022-03-13T10:26:55.000Z</time>
      </trkpt>
      <trkpt lat="47.2994" lon="-2.28612">
        <ele>39</ele>
        <time>2022-03-13T10:26:57.000Z</time>
      </trkpt>
      <trkpt lat="47.29935" lon="-2.28643">
        <ele>38.599998474121</ele>
        <time>2022-03-13T10:27:01.000Z</time>
      </trkpt>
      <trkpt lat="47.29934" lon="-2.28651">
        <ele>38.200000762939</ele>
        <time>2022-03-13T10:27:02.000Z</time>
      </trkpt>
      <trkpt lat="47.29932" lon="-2.28658">
        <ele>37.799999237061</ele>
        <time>2022-03-13T10:27:03.000Z</time>
      </trkpt>
      <trkpt lat="47.2993" lon="-2.28665">
        <ele>37.400001525879</ele>
        <time>2022-03-13T10:27:04.000Z</time>
      </trkpt>
      <trkpt lat="47.29928" lon="-2.28672">
        <ele>37</ele>
        <time>2022-03-13T10:27:05.000Z</time>
      </trkpt>
      <trkpt lat="47.29924" lon="-2.28685">
        <ele>37</ele>
        <time>2022-03-13T10:27:07.000Z</time>
      </trkpt>
      <trkpt lat="47.29922" lon="-2.28692">
        <ele>37</ele>
        <time>2022-03-13T10:27:08.000Z</time>
      </trkpt>
      <trkpt lat="47.29912" lon="-2.28728">
        <ele>37</ele>
        <time>2022-03-13T10:27:13.000Z</time>
      </trkpt>
      <trkpt lat="47.29906" lon="-2.2875">
        <ele>37</ele>
        <time>2022-03-13T10:27:16.000Z</time>
      </trkpt>
      <trkpt lat="47.29904" lon="-2.28764">
        <ele>37</ele>
        <time>2022-03-13T10:27:18.000Z</time>
      </trkpt>
      <trkpt lat="47.29902" lon="-2.28778">
        <ele>37</ele>
        <time>2022-03-13T10:27:20.000Z</time>
      </trkpt>
      <trkpt lat="47.29902" lon="-2.28785">
        <ele>37</ele>
        <time>2022-03-13T10:27:21.000Z</time>
      </trkpt>
      <trkpt lat="47.299" lon="-2.28792">
        <ele>37</ele>
        <time>2022-03-13T10:27:22.000Z</time>
      </trkpt>
      <trkpt lat="47.29894" lon="-2.28834">
        <ele>37</ele>
        <time>2022-03-13T10:27:28.000Z</time>
      </trkpt>
      <trkpt lat="47.29891" lon="-2.2885">
        <ele>37</ele>
        <time>2022-03-13T10:27:30.000Z</time>
      </trkpt>
      <trkpt lat="47.29888" lon="-2.28864">
        <ele>37</ele>
        <time>2022-03-13T10:27:32.000Z</time>
      </trkpt>
      <trkpt lat="47.29877" lon="-2.28901">
        <ele>37</ele>
        <time>2022-03-13T10:27:38.000Z</time>
      </trkpt>
      <trkpt lat="47.29875" lon="-2.2892">
        <ele>37</ele>
        <time>2022-03-13T10:27:41.000Z</time>
      </trkpt>
      <trkpt lat="47.29877" lon="-2.28938">
        <ele>37</ele>
        <time>2022-03-13T10:27:44.000Z</time>
      </trkpt>
      <trkpt lat="47.2988" lon="-2.28942">
        <ele>37</ele>
        <time>2022-03-13T10:27:45.000Z</time>
      </trkpt>
      <trkpt lat="47.29894" lon="-2.28949">
        <ele>37</ele>
        <time>2022-03-13T10:27:48.000Z</time>
      </trkpt>
      <trkpt lat="47.29899" lon="-2.28949">
        <ele>37</ele>
        <time>2022-03-13T10:27:49.000Z</time>
      </trkpt>
      <trkpt lat="47.2991" lon="-2.28951">
        <ele>36.400001525879</ele>
        <time>2022-03-13T10:27:51.000Z</time>
      </trkpt>
      <trkpt lat="47.29915" lon="-2.28952">
        <ele>36</ele>
        <time>2022-03-13T10:27:52.000Z</time>
      </trkpt>
      <trkpt lat="47.29921" lon="-2.28953">
        <ele>35.599998474121</ele>
        <time>2022-03-13T10:27:53.000Z</time>
      </trkpt>
      <trkpt lat="47.29925" lon="-2.28957">
        <ele>35.200000762939</ele>
        <time>2022-03-13T10:27:54.000Z</time>
      </trkpt>
      <trkpt lat="47.29928" lon="-2.28963">
        <ele>34.799999237061</ele>
        <time>2022-03-13T10:27:55.000Z</time>
      </trkpt>
      <trkpt lat="47.2993" lon="-2.28969">
        <ele>34.799999237061</ele>
        <time>2022-03-13T10:27:56.000Z</time>
      </trkpt>
      <trkpt lat="47.29933" lon="-2.28975">
        <ele>34.799999237061</ele>
        <time>2022-03-13T10:27:57.000Z</time>
      </trkpt>
      <trkpt lat="47.29942" lon="-2.28994">
        <ele>34.799999237061</ele>
        <time>2022-03-13T10:28:00.000Z</time>
      </trkpt>
      <trkpt lat="47.29945" lon="-2.29001">
        <ele>34.799999237061</ele>
        <time>2022-03-13T10:28:01.000Z</time>
      </trkpt>
      <trkpt lat="47.29965" lon="-2.29039">
        <ele>34.799999237061</ele>
        <time>2022-03-13T10:28:07.000Z</time>
      </trkpt>
      <trkpt lat="47.29983" lon="-2.29074">
        <ele>34.799999237061</ele>
        <time>2022-03-13T10:28:13.000Z</time>
      </trkpt>
      <trkpt lat="47.29996" lon="-2.29094">
        <ele>34.400001525879</ele>
        <time>2022-03-13T10:28:17.000Z</time>
      </trkpt>
      <trkpt lat="47.30001" lon="-2.29098">
        <ele>34</ele>
        <time>2022-03-13T10:28:18.000Z</time>
      </trkpt>
      <trkpt lat="47.30005" lon="-2.29103">
        <ele>33.599998474121</ele>
        <time>2022-03-13T10:28:19.000Z</time>
      </trkpt>
      <trkpt lat="47.3001" lon="-2.29107">
        <ele>33.200000762939</ele>
        <time>2022-03-13T10:28:20.000Z</time>
      </trkpt>
      <trkpt lat="47.30014" lon="-2.29111">
        <ele>32.799999237061</ele>
        <time>2022-03-13T10:28:21.000Z</time>
      </trkpt>
      <trkpt lat="47.30018" lon="-2.29115">
        <ele>32.799999237061</ele>
        <time>2022-03-13T10:28:22.000Z</time>
      </trkpt>
      <trkpt lat="47.30023" lon="-2.29118">
        <ele>32.799999237061</ele>
        <time>2022-03-13T10:28:23.000Z</time>
      </trkpt>
      <trkpt lat="47.30032" lon="-2.29125">
        <ele>32.799999237061</ele>
        <time>2022-03-13T10:28:25.000Z</time>
      </trkpt>
      <trkpt lat="47.30047" lon="-2.29132">
        <ele>32.799999237061</ele>
        <time>2022-03-13T10:28:28.000Z</time>
      </trkpt>
      <trkpt lat="47.30051" lon="-2.29135">
        <ele>32.799999237061</ele>
        <time>2022-03-13T10:28:29.000Z</time>
      </trkpt>
      <trkpt lat="47.30065" lon="-2.29151">
        <ele>32.799999237061</ele>
        <time>2022-03-13T10:28:32.000Z</time>
      </trkpt>
      <trkpt lat="47.30069" lon="-2.29158">
        <ele>32.799999237061</ele>
        <time>2022-03-13T10:28:33.000Z</time>
      </trkpt>
      <trkpt lat="47.30093" lon="-2.29195">
        <ele>32.799999237061</ele>
        <time>2022-03-13T10:28:38.000Z</time>
      </trkpt>
      <trkpt lat="47.3013" lon="-2.29252">
        <ele>32.799999237061</ele>
        <time>2022-03-13T10:28:46.000Z</time>
      </trkpt>
      <trkpt lat="47.3017" lon="-2.29316">
        <ele>32.799999237061</ele>
        <time>2022-03-13T10:28:55.000Z</time>
      </trkpt>
      <trkpt lat="47.3019" lon="-2.29346">
        <ele>32.799999237061</ele>
        <time>2022-03-13T10:29:00.000Z</time>
      </trkpt>
      <trkpt lat="47.30193" lon="-2.29351">
        <ele>32.400001525879</ele>
        <time>2022-03-13T10:29:01.000Z</time>
      </trkpt>
      <trkpt lat="47.30196" lon="-2.29357">
        <ele>32</ele>
        <time>2022-03-13T10:29:02.000Z</time>
      </trkpt>
      <trkpt lat="47.30199" lon="-2.29363">
        <ele>31.60000038147</ele>
        <time>2022-03-13T10:29:03.000Z</time>
      </trkpt>
      <trkpt lat="47.30201" lon="-2.2937">
        <ele>31</ele>
        <time>2022-03-13T10:29:04.000Z</time>
      </trkpt>
      <trkpt lat="47.30202" lon="-2.29378">
        <ele>30.60000038147</ele>
        <time>2022-03-13T10:29:05.000Z</time>
      </trkpt>
      <trkpt lat="47.30209" lon="-2.29399">
        <ele>30.60000038147</ele>
        <time>2022-03-13T10:29:08.000Z</time>
      </trkpt>
      <trkpt lat="47.30212" lon="-2.29407">
        <ele>30.60000038147</ele>
        <time>2022-03-13T10:29:09.000Z</time>
      </trkpt>
      <trkpt lat="47.30209" lon="-2.29429">
        <ele>30.60000038147</ele>
        <time>2022-03-13T10:29:12.000Z</time>
      </trkpt>
      <trkpt lat="47.30202" lon="-2.29442">
        <ele>30.60000038147</ele>
        <time>2022-03-13T10:29:14.000Z</time>
      </trkpt>
      <trkpt lat="47.3019" lon="-2.29462">
        <ele>30.60000038147</ele>
        <time>2022-03-13T10:29:17.000Z</time>
      </trkpt>
      <trkpt lat="47.30173" lon="-2.29495">
        <ele>30.60000038147</ele>
        <time>2022-03-13T10:29:22.000Z</time>
      </trkpt>
      <trkpt lat="47.30158" lon="-2.29538">
        <ele>30.60000038147</ele>
        <time>2022-03-13T10:29:28.000Z</time>
      </trkpt>
      <trkpt lat="47.30149" lon="-2.29571">
        <ele>30.60000038147</ele>
        <time>2022-03-13T10:29:32.000Z</time>
      </trkpt>
      <trkpt lat="47.30148" lon="-2.2958">
        <ele>30.60000038147</ele>
        <time>2022-03-13T10:29:33.000Z</time>
      </trkpt>
      <trkpt lat="47.30145" lon="-2.29619">
        <ele>30.60000038147</ele>
        <time>2022-03-13T10:29:38.000Z</time>
      </trkpt>
      <trkpt lat="47.3014" lon="-2.29642">
        <ele>30.60000038147</ele>
        <time>2022-03-13T10:29:42.000Z</time>
      </trkpt>
      <trkpt lat="47.30132" lon="-2.29655">
        <ele>30.60000038147</ele>
        <time>2022-03-13T10:29:46.000Z</time>
      </trkpt>
      <trkpt lat="47.30124" lon="-2.29652">
        <ele>30.60000038147</ele>
        <time>2022-03-13T10:29:50.000Z</time>
      </trkpt>
      <trkpt lat="47.30125" lon="-2.29651">
        <ele>30.60000038147</ele>
        <time>2022-03-13T10:29:51.000Z</time>
      </trkpt>
      <trkpt lat="47.30128" lon="-2.29652">
        <ele>30.60000038147</ele>
        <time>2022-03-13T10:29:53.000Z</time>
      </trkpt>
      <trkpt lat="47.30141" lon="-2.29657">
        <ele>30.60000038147</ele>
        <time>2022-03-13T10:29:59.000Z</time>
      </trkpt>
      <trkpt lat="47.30151" lon="-2.29661">
        <ele>30.60000038147</ele>
        <time>2022-03-13T10:30:04.000Z</time>
      </trkpt>
      <trkpt lat="47.30151" lon="-2.29664">
        <ele>30.60000038147</ele>
        <time>2022-03-13T10:30:05.000Z</time>
      </trkpt>
      <trkpt lat="47.30147" lon="-2.29665">
        <ele>30.60000038147</ele>
        <time>2022-03-13T10:30:08.000Z</time>
      </trkpt>
      <trkpt lat="47.30138" lon="-2.29658">
        <ele>30.60000038147</ele>
        <time>2022-03-13T10:30:13.000Z</time>
      </trkpt>
      <trkpt lat="47.30125" lon="-2.29657">
        <ele>30.60000038147</ele>
        <time>2022-03-13T10:30:17.000Z</time>
      </trkpt>
      <trkpt lat="47.30122" lon="-2.29655">
        <ele>30.60000038147</ele>
        <time>2022-03-13T10:30:18.000Z</time>
      </trkpt>
      <trkpt lat="47.30106" lon="-2.29652">
        <ele>30.60000038147</ele>
        <time>2022-03-13T10:30:22.000Z</time>
      </trkpt>
      <trkpt lat="47.30102" lon="-2.29651">
        <ele>30.60000038147</ele>
        <time>2022-03-13T10:30:23.000Z</time>
      </trkpt>
      <trkpt lat="47.30088" lon="-2.29648">
        <ele>30.60000038147</ele>
        <time>2022-03-13T10:30:26.000Z</time>
      </trkpt>
      <trkpt lat="47.30084" lon="-2.29647">
        <ele>30.60000038147</ele>
        <time>2022-03-13T10:30:27.000Z</time>
      </trkpt>
      <trkpt lat="47.30079" lon="-2.29646">
        <ele>30.60000038147</ele>
        <time>2022-03-13T10:30:28.000Z</time>
      </trkpt>
      <trkpt lat="47.30065" lon="-2.29641">
        <ele>30.60000038147</ele>
        <time>2022-03-13T10:30:31.000Z</time>
      </trkpt>
      <trkpt lat="47.30052" lon="-2.29637">
        <ele>30.60000038147</ele>
        <time>2022-03-13T10:30:34.000Z</time>
      </trkpt>
      <trkpt lat="47.30042" lon="-2.29635">
        <ele>30.60000038147</ele>
        <time>2022-03-13T10:30:36.000Z</time>
      </trkpt>
      <trkpt lat="47.30038" lon="-2.29635">
        <ele>30.60000038147</ele>
        <time>2022-03-13T10:30:37.000Z</time>
      </trkpt>
      <trkpt lat="47.30014" lon="-2.29636">
        <ele>30.60000038147</ele>
        <time>2022-03-13T10:30:42.000Z</time>
      </trkpt>
      <trkpt lat="47.30009" lon="-2.29634">
        <ele>30.60000038147</ele>
        <time>2022-03-13T10:30:43.000Z</time>
      </trkpt>
      <trkpt lat="47.29999" lon="-2.29632">
        <ele>30.60000038147</ele>
        <time>2022-03-13T10:30:45.000Z</time>
      </trkpt>
      <trkpt lat="47.29969" lon="-2.29635">
        <ele>30.60000038147</ele>
        <time>2022-03-13T10:30:51.000Z</time>
      </trkpt>
      <trkpt lat="47.29953" lon="-2.29638">
        <ele>31</ele>
        <time>2022-03-13T10:30:54.000Z</time>
      </trkpt>
      <trkpt lat="47.29949" lon="-2.2964">
        <ele>31.39999961853</ele>
        <time>2022-03-13T10:30:55.000Z</time>
      </trkpt>
      <trkpt lat="47.29944" lon="-2.29642">
        <ele>31.799999237061</ele>
        <time>2022-03-13T10:30:56.000Z</time>
      </trkpt>
      <trkpt lat="47.29939" lon="-2.29644">
        <ele>32.400001525879</ele>
        <time>2022-03-13T10:30:57.000Z</time>
      </trkpt>
      <trkpt lat="47.29934" lon="-2.29647">
        <ele>32.799999237061</ele>
        <time>2022-03-13T10:30:58.000Z</time>
      </trkpt>
      <trkpt lat="47.29914" lon="-2.29663">
        <ele>33.200000762939</ele>
        <time>2022-03-13T10:31:03.000Z</time>
      </trkpt>
      <trkpt lat="47.29913" lon="-2.29668">
        <ele>33.599998474121</ele>
        <time>2022-03-13T10:31:04.000Z</time>
      </trkpt>
      <trkpt lat="47.29913" lon="-2.29673">
        <ele>34</ele>
        <time>2022-03-13T10:31:05.000Z</time>
      </trkpt>
      <trkpt lat="47.29914" lon="-2.29679">
        <ele>34.400001525879</ele>
        <time>2022-03-13T10:31:06.000Z</time>
      </trkpt>
      <trkpt lat="47.29915" lon="-2.29684">
        <ele>34.799999237061</ele>
        <time>2022-03-13T10:31:07.000Z</time>
      </trkpt>
      <trkpt lat="47.29921" lon="-2.29705">
        <ele>34.799999237061</ele>
        <time>2022-03-13T10:31:11.000Z</time>
      </trkpt>
      <trkpt lat="47.29937" lon="-2.29745">
        <ele>34.799999237061</ele>
        <time>2022-03-13T10:31:19.000Z</time>
      </trkpt>
      <trkpt lat="47.2995" lon="-2.29781">
        <ele>34.400001525879</ele>
        <time>2022-03-13T10:31:26.000Z</time>
      </trkpt>
      <trkpt lat="47.29951" lon="-2.29785">
        <ele>34</ele>
        <time>2022-03-13T10:31:27.000Z</time>
      </trkpt>
      <trkpt lat="47.29951" lon="-2.2979">
        <ele>33.599998474121</ele>
        <time>2022-03-13T10:31:28.000Z</time>
      </trkpt>
      <trkpt lat="47.29951" lon="-2.29795">
        <ele>33.200000762939</ele>
        <time>2022-03-13T10:31:29.000Z</time>
      </trkpt>
      <trkpt lat="47.29949" lon="-2.29799">
        <ele>32.799999237061</ele>
        <time>2022-03-13T10:31:30.000Z</time>
      </trkpt>
      <trkpt lat="47.29935" lon="-2.29812">
        <ele>32.799999237061</ele>
        <time>2022-03-13T10:31:34.000Z</time>
      </trkpt>
      <trkpt lat="47.29911" lon="-2.29827">
        <ele>32.799999237061</ele>
        <time>2022-03-13T10:31:39.000Z</time>
      </trkpt>
      <trkpt lat="47.29903" lon="-2.29834">
        <ele>32.799999237061</ele>
        <time>2022-03-13T10:31:41.000Z</time>
      </trkpt>
      <trkpt lat="47.299" lon="-2.29846">
        <ele>32.799999237061</ele>
        <time>2022-03-13T10:31:43.000Z</time>
      </trkpt>
      <trkpt lat="47.29902" lon="-2.29877">
        <ele>32.799999237061</ele>
        <time>2022-03-13T10:31:47.000Z</time>
      </trkpt>
      <trkpt lat="47.29903" lon="-2.29886">
        <ele>32.799999237061</ele>
        <time>2022-03-13T10:31:48.000Z</time>
      </trkpt>
      <trkpt lat="47.29906" lon="-2.29922">
        <ele>32.799999237061</ele>
        <time>2022-03-13T10:31:52.000Z</time>
      </trkpt>
      <trkpt lat="47.29904" lon="-2.2993">
        <ele>32.799999237061</ele>
        <time>2022-03-13T10:31:53.000Z</time>
      </trkpt>
      <trkpt lat="47.29895" lon="-2.29939">
        <ele>32.799999237061</ele>
        <time>2022-03-13T10:31:55.000Z</time>
      </trkpt>
      <trkpt lat="47.2989" lon="-2.2994">
        <ele>32.799999237061</ele>
        <time>2022-03-13T10:31:56.000Z</time>
      </trkpt>
      <trkpt lat="47.29879" lon="-2.29943">
        <ele>32.799999237061</ele>
        <time>2022-03-13T10:31:58.000Z</time>
      </trkpt>
      <trkpt lat="47.29869" lon="-2.29945">
        <ele>32.799999237061</ele>
        <time>2022-03-13T10:32:00.000Z</time>
      </trkpt>
      <trkpt lat="47.29858" lon="-2.29947">
        <ele>32.799999237061</ele>
        <time>2022-03-13T10:32:02.000Z</time>
      </trkpt>
      <trkpt lat="47.29837" lon="-2.29952">
        <ele>32.799999237061</ele>
        <time>2022-03-13T10:32:06.000Z</time>
      </trkpt>
      <trkpt lat="47.29831" lon="-2.29953">
        <ele>32.799999237061</ele>
        <time>2022-03-13T10:32:07.000Z</time>
      </trkpt>
      <trkpt lat="47.29802" lon="-2.29951">
        <ele>32.799999237061</ele>
        <time>2022-03-13T10:32:12.000Z</time>
      </trkpt>
      <trkpt lat="47.29789" lon="-2.2995">
        <ele>32.799999237061</ele>
        <time>2022-03-13T10:32:14.000Z</time>
      </trkpt>
      <trkpt lat="47.29778" lon="-2.29956">
        <ele>32.799999237061</ele>
        <time>2022-03-13T10:32:16.000Z</time>
      </trkpt>
      <trkpt lat="47.29736" lon="-2.29988">
        <ele>32.799999237061</ele>
        <time>2022-03-13T10:32:24.000Z</time>
      </trkpt>
      <trkpt lat="47.29724" lon="-2.29994">
        <ele>32.799999237061</ele>
        <time>2022-03-13T10:32:26.000Z</time>
      </trkpt>
      <trkpt lat="47.29713" lon="-2.29998">
        <ele>32.799999237061</ele>
        <time>2022-03-13T10:32:28.000Z</time>
      </trkpt>
      <trkpt lat="47.29706" lon="-2.29999">
        <ele>32.799999237061</ele>
        <time>2022-03-13T10:32:29.000Z</time>
      </trkpt>
      <trkpt lat="47.29669" lon="-2.29997">
        <ele>32.799999237061</ele>
        <time>2022-03-13T10:32:35.000Z</time>
      </trkpt>
      <trkpt lat="47.29663" lon="-2.29994">
        <ele>32.799999237061</ele>
        <time>2022-03-13T10:32:36.000Z</time>
      </trkpt>
      <trkpt lat="47.29648" lon="-2.29983">
        <ele>32.799999237061</ele>
        <time>2022-03-13T10:32:39.000Z</time>
      </trkpt>
      <trkpt lat="47.29636" lon="-2.29986">
        <ele>32.799999237061</ele>
        <time>2022-03-13T10:32:42.000Z</time>
      </trkpt>
      <trkpt lat="47.29631" lon="-2.2999">
        <ele>32.799999237061</ele>
        <time>2022-03-13T10:32:43.000Z</time>
      </trkpt>
      <trkpt lat="47.29626" lon="-2.29993">
        <ele>32.799999237061</ele>
        <time>2022-03-13T10:32:44.000Z</time>
      </trkpt>
      <trkpt lat="47.29614" lon="-2.29999">
        <ele>32.799999237061</ele>
        <time>2022-03-13T10:32:46.000Z</time>
      </trkpt>
      <trkpt lat="47.29569" lon="-2.30013">
        <ele>32.799999237061</ele>
        <time>2022-03-13T10:32:53.000Z</time>
      </trkpt>
      <trkpt lat="47.29526" lon="-2.30027">
        <ele>32.799999237061</ele>
        <time>2022-03-13T10:33:00.000Z</time>
      </trkpt>
      <trkpt lat="47.29509" lon="-2.30023">
        <ele>32.799999237061</ele>
        <time>2022-03-13T10:33:03.000Z</time>
      </trkpt>
      <trkpt lat="47.29504" lon="-2.30023">
        <ele>32.799999237061</ele>
        <time>2022-03-13T10:33:04.000Z</time>
      </trkpt>
      <trkpt lat="47.29472" lon="-2.30026">
        <ele>32.799999237061</ele>
        <time>2022-03-13T10:33:10.000Z</time>
      </trkpt>
      <trkpt lat="47.29432" lon="-2.30028">
        <ele>32.799999237061</ele>
        <time>2022-03-13T10:33:17.000Z</time>
      </trkpt>
      <trkpt lat="47.29411" lon="-2.30026">
        <ele>32.799999237061</ele>
        <time>2022-03-13T10:33:21.000Z</time>
      </trkpt>
      <trkpt lat="47.29402" lon="-2.30024">
        <ele>32.799999237061</ele>
        <time>2022-03-13T10:33:23.000Z</time>
      </trkpt>
      <trkpt lat="47.29394" lon="-2.30021">
        <ele>32.799999237061</ele>
        <time>2022-03-13T10:33:25.000Z</time>
      </trkpt>
      <trkpt lat="47.29382" lon="-2.30018">
        <ele>32.799999237061</ele>
        <time>2022-03-13T10:33:28.000Z</time>
      </trkpt>
      <trkpt lat="47.29378" lon="-2.30016">
        <ele>32.799999237061</ele>
        <time>2022-03-13T10:33:29.000Z</time>
      </trkpt>
      <trkpt lat="47.29361" lon="-2.30007">
        <ele>33.200000762939</ele>
        <time>2022-03-13T10:33:34.000Z</time>
      </trkpt>
      <trkpt lat="47.29357" lon="-2.30006">
        <ele>33.599998474121</ele>
        <time>2022-03-13T10:33:35.000Z</time>
      </trkpt>
      <trkpt lat="47.29354" lon="-2.30004">
        <ele>34.200000762939</ele>
        <time>2022-03-13T10:33:36.000Z</time>
      </trkpt>
      <trkpt lat="47.29351" lon="-2.30003">
        <ele>34.599998474121</ele>
        <time>2022-03-13T10:33:37.000Z</time>
      </trkpt>
      <trkpt lat="47.29349" lon="-2.30004">
        <ele>35</ele>
        <time>2022-03-13T10:33:38.000Z</time>
      </trkpt>
      <trkpt lat="47.29347" lon="-2.30008">
        <ele>35</ele>
        <time>2022-03-13T10:33:39.000Z</time>
      </trkpt>
      <trkpt lat="47.29346" lon="-2.30018">
        <ele>35</ele>
        <time>2022-03-13T10:33:41.000Z</time>
      </trkpt>
      <trkpt lat="47.29345" lon="-2.3003">
        <ele>35</ele>
        <time>2022-03-13T10:33:43.000Z</time>
      </trkpt>
      <trkpt lat="47.2934" lon="-2.30088">
        <ele>35</ele>
        <time>2022-03-13T10:33:51.000Z</time>
      </trkpt>
      <trkpt lat="47.29337" lon="-2.30103">
        <ele>35</ele>
        <time>2022-03-13T10:33:53.000Z</time>
      </trkpt>
      <trkpt lat="47.29334" lon="-2.30116">
        <ele>35</ele>
        <time>2022-03-13T10:33:55.000Z</time>
      </trkpt>
      <trkpt lat="47.29329" lon="-2.30128">
        <ele>35</ele>
        <time>2022-03-13T10:33:57.000Z</time>
      </trkpt>
      <trkpt lat="47.29318" lon="-2.30136">
        <ele>35</ele>
        <time>2022-03-13T10:34:00.000Z</time>
      </trkpt>
      <trkpt lat="47.29308" lon="-2.30135">
        <ele>35</ele>
        <time>2022-03-13T10:34:02.000Z</time>
      </trkpt>
      <trkpt lat="47.29293" lon="-2.30136">
        <ele>35</ele>
        <time>2022-03-13T10:34:05.000Z</time>
      </trkpt>
      <trkpt lat="47.29261" lon="-2.30138">
        <ele>35</ele>
        <time>2022-03-13T10:34:11.000Z</time>
      </trkpt>
      <trkpt lat="47.29252" lon="-2.30141">
        <ele>35</ele>
        <time>2022-03-13T10:34:13.000Z</time>
      </trkpt>
      <trkpt lat="47.29234" lon="-2.30147">
        <ele>35</ele>
        <time>2022-03-13T10:34:17.000Z</time>
      </trkpt>
      <trkpt lat="47.29211" lon="-2.30157">
        <ele>35</ele>
        <time>2022-03-13T10:34:22.000Z</time>
      </trkpt>
      <trkpt lat="47.29201" lon="-2.30162">
        <ele>35</ele>
        <time>2022-03-13T10:34:24.000Z</time>
      </trkpt>
      <trkpt lat="47.29192" lon="-2.30166">
        <ele>35</ele>
        <time>2022-03-13T10:34:26.000Z</time>
      </trkpt>
      <trkpt lat="47.29174" lon="-2.30178">
        <ele>35</ele>
        <time>2022-03-13T10:34:30.000Z</time>
      </trkpt>
      <trkpt lat="47.29169" lon="-2.30181">
        <ele>35</ele>
        <time>2022-03-13T10:34:31.000Z</time>
      </trkpt>
      <trkpt lat="47.29141" lon="-2.30197">
        <ele>35</ele>
        <time>2022-03-13T10:34:37.000Z</time>
      </trkpt>
      <trkpt lat="47.29112" lon="-2.30213">
        <ele>35</ele>
        <time>2022-03-13T10:34:43.000Z</time>
      </trkpt>
      <trkpt lat="47.29108" lon="-2.30216">
        <ele>35</ele>
        <time>2022-03-13T10:34:44.000Z</time>
      </trkpt>
      <trkpt lat="47.29099" lon="-2.30222">
        <ele>35.400001525879</ele>
        <time>2022-03-13T10:34:46.000Z</time>
      </trkpt>
      <trkpt lat="47.29095" lon="-2.30225">
        <ele>35.799999237061</ele>
        <time>2022-03-13T10:34:47.000Z</time>
      </trkpt>
      <trkpt lat="47.2909" lon="-2.30228">
        <ele>36.200000762939</ele>
        <time>2022-03-13T10:34:48.000Z</time>
      </trkpt>
      <trkpt lat="47.29085" lon="-2.3023">
        <ele>36.599998474121</ele>
        <time>2022-03-13T10:34:49.000Z</time>
      </trkpt>
      <trkpt lat="47.2908" lon="-2.30232">
        <ele>37</ele>
        <time>2022-03-13T10:34:50.000Z</time>
      </trkpt>
      <trkpt lat="47.29049" lon="-2.30242">
        <ele>37</ele>
        <time>2022-03-13T10:34:56.000Z</time>
      </trkpt>
      <trkpt lat="47.29018" lon="-2.30252">
        <ele>37</ele>
        <time>2022-03-13T10:35:03.000Z</time>
      </trkpt>
      <trkpt lat="47.29015" lon="-2.30252">
        <ele>37</ele>
        <time>2022-03-13T10:35:04.000Z</time>
      </trkpt>
      <trkpt lat="47.29003" lon="-2.30256">
        <ele>37</ele>
        <time>2022-03-13T10:35:09.000Z</time>
      </trkpt>
      <trkpt lat="47.29003" lon="-2.30256">
        <ele>37</ele>
        <time>2022-03-13T10:35:10.000Z</time>
      </trkpt>
      <trkpt lat="47.29002" lon="-2.30257">
        <ele>37</ele>
        <time>2022-03-13T10:39:49.000Z</time>
      </trkpt>
      <trkpt lat="47.29" lon="-2.30257">
        <ele>37</ele>
        <time>2022-03-13T10:39:50.000Z</time>
      </trkpt>
      <trkpt lat="47.28991" lon="-2.30258">
        <ele>37</ele>
        <time>2022-03-13T10:39:57.000Z</time>
      </trkpt>
      <trkpt lat="47.28988" lon="-2.30258">
        <ele>37</ele>
        <time>2022-03-13T10:39:59.000Z</time>
      </trkpt>
      <trkpt lat="47.28982" lon="-2.30252">
        <ele>37</ele>
        <time>2022-03-13T10:40:03.000Z</time>
      </trkpt>
      <trkpt lat="47.28971" lon="-2.30236">
        <ele>37</ele>
        <time>2022-03-13T10:40:07.000Z</time>
      </trkpt>
      <trkpt lat="47.28968" lon="-2.30231">
        <ele>37.400001525879</ele>
        <time>2022-03-13T10:40:08.000Z</time>
      </trkpt>
      <trkpt lat="47.28964" lon="-2.30226">
        <ele>37.799999237061</ele>
        <time>2022-03-13T10:40:09.000Z</time>
      </trkpt>
      <trkpt lat="47.2896" lon="-2.30222">
        <ele>38.200000762939</ele>
        <time>2022-03-13T10:40:10.000Z</time>
      </trkpt>
      <trkpt lat="47.28957" lon="-2.30217">
        <ele>38.599998474121</ele>
        <time>2022-03-13T10:40:11.000Z</time>
      </trkpt>
      <trkpt lat="47.28953" lon="-2.30213">
        <ele>39</ele>
        <time>2022-03-13T10:40:12.000Z</time>
      </trkpt>
      <trkpt lat="47.28945" lon="-2.30205">
        <ele>39</ele>
        <time>2022-03-13T10:40:14.000Z</time>
      </trkpt>
      <trkpt lat="47.28913" lon="-2.3017">
        <ele>39</ele>
        <time>2022-03-13T10:40:22.000Z</time>
      </trkpt>
      <trkpt lat="47.28898" lon="-2.30152">
        <ele>39</ele>
        <time>2022-03-13T10:40:26.000Z</time>
      </trkpt>
      <trkpt lat="47.28888" lon="-2.30138">
        <ele>39.400001525879</ele>
        <time>2022-03-13T10:40:29.000Z</time>
      </trkpt>
      <trkpt lat="47.28885" lon="-2.30134">
        <ele>40</ele>
        <time>2022-03-13T10:40:30.000Z</time>
      </trkpt>
      <trkpt lat="47.28881" lon="-2.30129">
        <ele>40.400001525879</ele>
        <time>2022-03-13T10:40:31.000Z</time>
      </trkpt>
      <trkpt lat="47.28878" lon="-2.30125">
        <ele>40.799999237061</ele>
        <time>2022-03-13T10:40:32.000Z</time>
      </trkpt>
      <trkpt lat="47.28874" lon="-2.30121">
        <ele>41.200000762939</ele>
        <time>2022-03-13T10:40:33.000Z</time>
      </trkpt>
      <trkpt lat="47.28867" lon="-2.30113">
        <ele>41.200000762939</ele>
        <time>2022-03-13T10:40:35.000Z</time>
      </trkpt>
      <trkpt lat="47.2884" lon="-2.30084">
        <ele>41.200000762939</ele>
        <time>2022-03-13T10:40:42.000Z</time>
      </trkpt>
      <trkpt lat="47.28833" lon="-2.30077">
        <ele>41.200000762939</ele>
        <time>2022-03-13T10:40:44.000Z</time>
      </trkpt>
      <trkpt lat="47.28822" lon="-2.30063">
        <ele>41.200000762939</ele>
        <time>2022-03-13T10:40:47.000Z</time>
      </trkpt>
      <trkpt lat="47.28811" lon="-2.30049">
        <ele>41.599998474121</ele>
        <time>2022-03-13T10:40:50.000Z</time>
      </trkpt>
      <trkpt lat="47.28807" lon="-2.30045">
        <ele>42</ele>
        <time>2022-03-13T10:40:51.000Z</time>
      </trkpt>
      <trkpt lat="47.28804" lon="-2.30041">
        <ele>42.599998474121</ele>
        <time>2022-03-13T10:40:52.000Z</time>
      </trkpt>
      <trkpt lat="47.288" lon="-2.30037">
        <ele>43</ele>
        <time>2022-03-13T10:40:53.000Z</time>
      </trkpt>
      <trkpt lat="47.28796" lon="-2.30035">
        <ele>43.400001525879</ele>
        <time>2022-03-13T10:40:54.000Z</time>
      </trkpt>
      <trkpt lat="47.28782" lon="-2.3003">
        <ele>43.400001525879</ele>
        <time>2022-03-13T10:40:57.000Z</time>
      </trkpt>
      <trkpt lat="47.28778" lon="-2.30026">
        <ele>43.400001525879</ele>
        <time>2022-03-13T10:40:58.000Z</time>
      </trkpt>
      <trkpt lat="47.28767" lon="-2.30002">
        <ele>43.400001525879</ele>
        <time>2022-03-13T10:41:02.000Z</time>
      </trkpt>
      <trkpt lat="47.28758" lon="-2.29987">
        <ele>43.400001525879</ele>
        <time>2022-03-13T10:41:05.000Z</time>
      </trkpt>
      <trkpt lat="47.28747" lon="-2.29973">
        <ele>43.799999237061</ele>
        <time>2022-03-13T10:41:08.000Z</time>
      </trkpt>
      <trkpt lat="47.28744" lon="-2.29969">
        <ele>44.200000762939</ele>
        <time>2022-03-13T10:41:09.000Z</time>
      </trkpt>
      <trkpt lat="47.2874" lon="-2.29965">
        <ele>44.599998474121</ele>
        <time>2022-03-13T10:41:10.000Z</time>
      </trkpt>
      <trkpt lat="47.28736" lon="-2.29961">
        <ele>45</ele>
        <time>2022-03-13T10:41:11.000Z</time>
      </trkpt>
      <trkpt lat="47.28732" lon="-2.29957">
        <ele>45.400001525879</ele>
        <time>2022-03-13T10:41:12.000Z</time>
      </trkpt>
      <trkpt lat="47.28724" lon="-2.29952">
        <ele>45.400001525879</ele>
        <time>2022-03-13T10:41:14.000Z</time>
      </trkpt>
      <trkpt lat="47.28709" lon="-2.29954">
        <ele>45.400001525879</ele>
        <time>2022-03-13T10:41:18.000Z</time>
      </trkpt>
      <trkpt lat="47.287" lon="-2.2995">
        <ele>45.799999237061</ele>
        <time>2022-03-13T10:41:20.000Z</time>
      </trkpt>
      <trkpt lat="47.28695" lon="-2.29946">
        <ele>46.200000762939</ele>
        <time>2022-03-13T10:41:21.000Z</time>
      </trkpt>
      <trkpt lat="47.28692" lon="-2.2994">
        <ele>46.599998474121</ele>
        <time>2022-03-13T10:41:22.000Z</time>
      </trkpt>
      <trkpt lat="47.28689" lon="-2.29934">
        <ele>47</ele>
        <time>2022-03-13T10:41:23.000Z</time>
      </trkpt>
      <trkpt lat="47.28686" lon="-2.29928">
        <ele>47.400001525879</ele>
        <time>2022-03-13T10:41:24.000Z</time>
      </trkpt>
      <trkpt lat="47.28683" lon="-2.29922">
        <ele>47.400001525879</ele>
        <time>2022-03-13T10:41:25.000Z</time>
      </trkpt>
      <trkpt lat="47.28672" lon="-2.29916">
        <ele>47.400001525879</ele>
        <time>2022-03-13T10:41:28.000Z</time>
      </trkpt>
      <trkpt lat="47.28665" lon="-2.2991">
        <ele>47.400001525879</ele>
        <time>2022-03-13T10:41:30.000Z</time>
      </trkpt>
      <trkpt lat="47.28655" lon="-2.29899">
        <ele>47.400001525879</ele>
        <time>2022-03-13T10:41:33.000Z</time>
      </trkpt>
      <trkpt lat="47.28653" lon="-2.29894">
        <ele>47.400001525879</ele>
        <time>2022-03-13T10:41:34.000Z</time>
      </trkpt>
      <trkpt lat="47.28643" lon="-2.29867">
        <ele>47.400001525879</ele>
        <time>2022-03-13T10:41:39.000Z</time>
      </trkpt>
      <trkpt lat="47.28643" lon="-2.2986">
        <ele>47.799999237061</ele>
        <time>2022-03-13T10:41:40.000Z</time>
      </trkpt>
      <trkpt lat="47.28642" lon="-2.29855">
        <ele>48.400001525879</ele>
        <time>2022-03-13T10:41:41.000Z</time>
      </trkpt>
      <trkpt lat="47.28643" lon="-2.29848">
        <ele>48.799999237061</ele>
        <time>2022-03-13T10:41:42.000Z</time>
      </trkpt>
      <trkpt lat="47.28643" lon="-2.29842">
        <ele>49.200000762939</ele>
        <time>2022-03-13T10:41:43.000Z</time>
      </trkpt>
      <trkpt lat="47.28643" lon="-2.29836">
        <ele>49.599998474121</ele>
        <time>2022-03-13T10:41:44.000Z</time>
      </trkpt>
      <trkpt lat="47.28643" lon="-2.29823">
        <ele>49.599998474121</ele>
        <time>2022-03-13T10:41:47.000Z</time>
      </trkpt>
      <trkpt lat="47.28642" lon="-2.29797">
        <ele>49.599998474121</ele>
        <time>2022-03-13T10:41:51.000Z</time>
      </trkpt>
      <trkpt lat="47.2864" lon="-2.29785">
        <ele>49.599998474121</ele>
        <time>2022-03-13T10:41:53.000Z</time>
      </trkpt>
      <trkpt lat="47.28624" lon="-2.29739">
        <ele>49.599998474121</ele>
        <time>2022-03-13T10:42:00.000Z</time>
      </trkpt>
      <trkpt lat="47.28611" lon="-2.297">
        <ele>49.599998474121</ele>
        <time>2022-03-13T10:42:06.000Z</time>
      </trkpt>
      <trkpt lat="47.28598" lon="-2.2966">
        <ele>49.599998474121</ele>
        <time>2022-03-13T10:42:12.000Z</time>
      </trkpt>
      <trkpt lat="47.28597" lon="-2.29647">
        <ele>49.599998474121</ele>
        <time>2022-03-13T10:42:14.000Z</time>
      </trkpt>
      <trkpt lat="47.28596" lon="-2.29625">
        <ele>49.599998474121</ele>
        <time>2022-03-13T10:42:18.000Z</time>
      </trkpt>
      <trkpt lat="47.28595" lon="-2.29621">
        <ele>50</ele>
        <time>2022-03-13T10:42:19.000Z</time>
      </trkpt>
      <trkpt lat="47.28595" lon="-2.29616">
        <ele>50.400001525879</ele>
        <time>2022-03-13T10:42:20.000Z</time>
      </trkpt>
      <trkpt lat="47.28593" lon="-2.29612">
        <ele>50.799999237061</ele>
        <time>2022-03-13T10:42:21.000Z</time>
      </trkpt>
      <trkpt lat="47.28592" lon="-2.29611">
        <ele>51.200000762939</ele>
        <time>2022-03-13T10:42:22.000Z</time>
      </trkpt>
      <trkpt lat="47.2859" lon="-2.29612">
        <ele>51.599998474121</ele>
        <time>2022-03-13T10:42:23.000Z</time>
      </trkpt>
      <trkpt lat="47.2859" lon="-2.29625">
        <ele>51.599998474121</ele>
        <time>2022-03-13T10:42:26.000Z</time>
      </trkpt>
      <trkpt lat="47.28591" lon="-2.29638">
        <ele>51.599998474121</ele>
        <time>2022-03-13T10:42:28.000Z</time>
      </trkpt>
      <trkpt lat="47.28592" lon="-2.29658">
        <ele>51.599998474121</ele>
        <time>2022-03-13T10:42:31.000Z</time>
      </trkpt>
      <trkpt lat="47.2859" lon="-2.29664">
        <ele>51.599998474121</ele>
        <time>2022-03-13T10:42:32.000Z</time>
      </trkpt>
      <trkpt lat="47.28584" lon="-2.29674">
        <ele>51.599998474121</ele>
        <time>2022-03-13T10:42:34.000Z</time>
      </trkpt>
      <trkpt lat="47.28567" lon="-2.29689">
        <ele>51.599998474121</ele>
        <time>2022-03-13T10:42:38.000Z</time>
      </trkpt>
      <trkpt lat="47.28563" lon="-2.29691">
        <ele>51.599998474121</ele>
        <time>2022-03-13T10:42:39.000Z</time>
      </trkpt>
      <trkpt lat="47.28534" lon="-2.29705">
        <ele>51.599998474121</ele>
        <time>2022-03-13T10:42:45.000Z</time>
      </trkpt>
      <trkpt lat="47.28531" lon="-2.29707">
        <ele>51.200000762939</ele>
        <time>2022-03-13T10:42:46.000Z</time>
      </trkpt>
      <trkpt lat="47.28528" lon="-2.29708">
        <ele>50.400001525879</ele>
        <time>2022-03-13T10:42:47.000Z</time>
      </trkpt>
      <trkpt lat="47.28524" lon="-2.29709">
        <ele>50</ele>
        <time>2022-03-13T10:42:48.000Z</time>
      </trkpt>
      <trkpt lat="47.2852" lon="-2.29709">
        <ele>49.599998474121</ele>
        <time>2022-03-13T10:42:49.000Z</time>
      </trkpt>
      <trkpt lat="47.28507" lon="-2.29706">
        <ele>49.599998474121</ele>
        <time>2022-03-13T10:42:52.000Z</time>
      </trkpt>
      <trkpt lat="47.28499" lon="-2.29704">
        <ele>49.599998474121</ele>
        <time>2022-03-13T10:42:54.000Z</time>
      </trkpt>
      <trkpt lat="47.28469" lon="-2.29699">
        <ele>49.599998474121</ele>
        <time>2022-03-13T10:43:00.000Z</time>
      </trkpt>
      <trkpt lat="47.2844" lon="-2.29694">
        <ele>49.599998474121</ele>
        <time>2022-03-13T10:43:06.000Z</time>
      </trkpt>
      <trkpt lat="47.28438" lon="-2.29701">
        <ele>49.599998474121</ele>
        <time>2022-03-13T10:43:08.000Z</time>
      </trkpt>
      <trkpt lat="47.28441" lon="-2.29711">
        <ele>49.599998474121</ele>
        <time>2022-03-13T10:43:10.000Z</time>
      </trkpt>
      <trkpt lat="47.28443" lon="-2.29715">
        <ele>49.599998474121</ele>
        <time>2022-03-13T10:43:11.000Z</time>
      </trkpt>
      <trkpt lat="47.28457" lon="-2.29742">
        <ele>49.599998474121</ele>
        <time>2022-03-13T10:43:17.000Z</time>
      </trkpt>
      <trkpt lat="47.28458" lon="-2.29748">
        <ele>49.599998474121</ele>
        <time>2022-03-13T10:43:18.000Z</time>
      </trkpt>
      <trkpt lat="47.28462" lon="-2.29765">
        <ele>49.599998474121</ele>
        <time>2022-03-13T10:43:21.000Z</time>
      </trkpt>
      <trkpt lat="47.28463" lon="-2.29772">
        <ele>49.599998474121</ele>
        <time>2022-03-13T10:43:22.000Z</time>
      </trkpt>
      <trkpt lat="47.28464" lon="-2.29789">
        <ele>49.599998474121</ele>
        <time>2022-03-13T10:43:26.000Z</time>
      </trkpt>
      <trkpt lat="47.28467" lon="-2.29796">
        <ele>49.599998474121</ele>
        <time>2022-03-13T10:43:28.000Z</time>
      </trkpt>
      <trkpt lat="47.28469" lon="-2.29804">
        <ele>49.599998474121</ele>
        <time>2022-03-13T10:43:30.000Z</time>
      </trkpt>
      <trkpt lat="47.28469" lon="-2.29808">
        <ele>49.599998474121</ele>
        <time>2022-03-13T10:43:31.000Z</time>
      </trkpt>
      <trkpt lat="47.28473" lon="-2.29825">
        <ele>49.599998474121</ele>
        <time>2022-03-13T10:43:36.000Z</time>
      </trkpt>
      <trkpt lat="47.28474" lon="-2.29829">
        <ele>49.599998474121</ele>
        <time>2022-03-13T10:43:37.000Z</time>
      </trkpt>
      <trkpt lat="47.28475" lon="-2.29838">
        <ele>49.599998474121</ele>
        <time>2022-03-13T10:43:39.000Z</time>
      </trkpt>
      <trkpt lat="47.28477" lon="-2.29841">
        <ele>49.599998474121</ele>
        <time>2022-03-13T10:43:40.000Z</time>
      </trkpt>
      <trkpt lat="47.28486" lon="-2.29859">
        <ele>49.599998474121</ele>
        <time>2022-03-13T10:43:45.000Z</time>
      </trkpt>
      <trkpt lat="47.28495" lon="-2.29868">
        <ele>49.599998474121</ele>
        <time>2022-03-13T10:43:52.000Z</time>
      </trkpt>
      <trkpt lat="47.28496" lon="-2.29869">
        <ele>49.599998474121</ele>
        <time>2022-03-13T10:43:53.000Z</time>
      </trkpt>
      <trkpt lat="47.28503" lon="-2.29877">
        <ele>47.200000762939</ele>
        <time>2022-03-13T10:44:15.000Z</time>
      </trkpt>
      <trkpt lat="47.28506" lon="-2.2988">
        <ele>47.200000762939</ele>
        <time>2022-03-13T10:44:17.000Z</time>
      </trkpt>
      <trkpt lat="47.28511" lon="-2.29879">
        <ele>47.200000762939</ele>
        <time>2022-03-13T10:44:21.000Z</time>
      </trkpt>
      <trkpt lat="47.28521" lon="-2.2988">
        <ele>47.200000762939</ele>
        <time>2022-03-13T10:44:27.000Z</time>
      </trkpt>
      <trkpt lat="47.28533" lon="-2.29881">
        <ele>47.200000762939</ele>
        <time>2022-03-13T10:44:33.000Z</time>
      </trkpt>
      <trkpt lat="47.28544" lon="-2.29882">
        <ele>47.599998474121</ele>
        <time>2022-03-13T10:44:38.000Z</time>
      </trkpt>
      <trkpt lat="47.28546" lon="-2.29881">
        <ele>48.400001525879</ele>
        <time>2022-03-13T10:44:39.000Z</time>
      </trkpt>
      <trkpt lat="47.28548" lon="-2.2988">
        <ele>48.799999237061</ele>
        <time>2022-03-13T10:44:40.000Z</time>
      </trkpt>
      <trkpt lat="47.2855" lon="-2.29879">
        <ele>49.200000762939</ele>
        <time>2022-03-13T10:44:41.000Z</time>
      </trkpt>
      <trkpt lat="47.28555" lon="-2.2988">
        <ele>49.200000762939</ele>
        <time>2022-03-13T10:44:44.000Z</time>
      </trkpt>
      <trkpt lat="47.28559" lon="-2.29887">
        <ele>49.200000762939</ele>
        <time>2022-03-13T10:44:48.000Z</time>
      </trkpt>
      <trkpt lat="47.28557" lon="-2.29889">
        <ele>49.200000762939</ele>
        <time>2022-03-13T10:44:50.000Z</time>
      </trkpt>
      <trkpt lat="47.28552" lon="-2.29879">
        <ele>49.200000762939</ele>
        <time>2022-03-13T10:44:54.000Z</time>
      </trkpt>
      <trkpt lat="47.28547" lon="-2.29857">
        <ele>49.200000762939</ele>
        <time>2022-03-13T10:44:59.000Z</time>
      </trkpt>
      <trkpt lat="47.28539" lon="-2.29813">
        <ele>49.200000762939</ele>
        <time>2022-03-13T10:45:07.000Z</time>
      </trkpt>
      <trkpt lat="47.28529" lon="-2.29758">
        <ele>49.200000762939</ele>
        <time>2022-03-13T10:45:15.000Z</time>
      </trkpt>
      <trkpt lat="47.28521" lon="-2.2971">
        <ele>49.200000762939</ele>
        <time>2022-03-13T10:45:22.000Z</time>
      </trkpt>
      <trkpt lat="47.28513" lon="-2.29676">
        <ele>49.200000762939</ele>
        <time>2022-03-13T10:45:28.000Z</time>
      </trkpt>
      <trkpt lat="47.28509" lon="-2.29644">
        <ele>49.200000762939</ele>
        <time>2022-03-13T10:45:33.000Z</time>
      </trkpt>
      <trkpt lat="47.28508" lon="-2.29638">
        <ele>49.200000762939</ele>
        <time>2022-03-13T10:45:34.000Z</time>
      </trkpt>
      <trkpt lat="47.28514" lon="-2.29605">
        <ele>49.200000762939</ele>
        <time>2022-03-13T10:45:39.000Z</time>
      </trkpt>
      <trkpt lat="47.28528" lon="-2.29588">
        <ele>49.200000762939</ele>
        <time>2022-03-13T10:45:43.000Z</time>
      </trkpt>
      <trkpt lat="47.28549" lon="-2.29584">
        <ele>49.200000762939</ele>
        <time>2022-03-13T10:45:48.000Z</time>
      </trkpt>
      <trkpt lat="47.28554" lon="-2.29586">
        <ele>49.200000762939</ele>
        <time>2022-03-13T10:45:49.000Z</time>
      </trkpt>
      <trkpt lat="47.28575" lon="-2.29592">
        <ele>49.599998474121</ele>
        <time>2022-03-13T10:45:54.000Z</time>
      </trkpt>
      <trkpt lat="47.28579" lon="-2.29593">
        <ele>50</ele>
        <time>2022-03-13T10:45:55.000Z</time>
      </trkpt>
      <trkpt lat="47.28584" lon="-2.29593">
        <ele>50.400001525879</ele>
        <time>2022-03-13T10:45:56.000Z</time>
      </trkpt>
      <trkpt lat="47.28588" lon="-2.29591">
        <ele>51</ele>
        <time>2022-03-13T10:45:57.000Z</time>
      </trkpt>
      <trkpt lat="47.28591" lon="-2.29587">
        <ele>51.400001525879</ele>
        <time>2022-03-13T10:45:58.000Z</time>
      </trkpt>
      <trkpt lat="47.28593" lon="-2.29582">
        <ele>51.400001525879</ele>
        <time>2022-03-13T10:45:59.000Z</time>
      </trkpt>
      <trkpt lat="47.28596" lon="-2.29555">
        <ele>51.400001525879</ele>
        <time>2022-03-13T10:46:03.000Z</time>
      </trkpt>
      <trkpt lat="47.28595" lon="-2.29523">
        <ele>51.400001525879</ele>
        <time>2022-03-13T10:46:08.000Z</time>
      </trkpt>
      <trkpt lat="47.28588" lon="-2.29478">
        <ele>51.400001525879</ele>
        <time>2022-03-13T10:46:15.000Z</time>
      </trkpt>
      <trkpt lat="47.28584" lon="-2.29472">
        <ele>51.400001525879</ele>
        <time>2022-03-13T10:46:17.000Z</time>
      </trkpt>
      <trkpt lat="47.28581" lon="-2.29473">
        <ele>51.400001525879</ele>
        <time>2022-03-13T10:46:18.000Z</time>
      </trkpt>
      <trkpt lat="47.28554" lon="-2.29478">
        <ele>51.400001525879</ele>
        <time>2022-03-13T10:46:26.000Z</time>
      </trkpt>
      <trkpt lat="47.28543" lon="-2.29483">
        <ele>51.799999237061</ele>
        <time>2022-03-13T10:46:30.000Z</time>
      </trkpt>
      <trkpt lat="47.2854" lon="-2.29487">
        <ele>52.200000762939</ele>
        <time>2022-03-13T10:46:31.000Z</time>
      </trkpt>
      <trkpt lat="47.28537" lon="-2.29491">
        <ele>52.599998474121</ele>
        <time>2022-03-13T10:46:32.000Z</time>
      </trkpt>
      <trkpt lat="47.28535" lon="-2.29494">
        <ele>53</ele>
        <time>2022-03-13T10:46:33.000Z</time>
      </trkpt>
      <trkpt lat="47.28532" lon="-2.29497">
        <ele>53.400001525879</ele>
        <time>2022-03-13T10:46:34.000Z</time>
      </trkpt>
      <trkpt lat="47.2853" lon="-2.29498">
        <ele>53.400001525879</ele>
        <time>2022-03-13T10:46:35.000Z</time>
      </trkpt>
      <trkpt lat="47.28519" lon="-2.29499">
        <ele>53.400001525879</ele>
        <time>2022-03-13T10:46:38.000Z</time>
      </trkpt>
      <trkpt lat="47.28498" lon="-2.295">
        <ele>53.400001525879</ele>
        <time>2022-03-13T10:46:43.000Z</time>
      </trkpt>
      <trkpt lat="47.28464" lon="-2.29499">
        <ele>53.400001525879</ele>
        <time>2022-03-13T10:46:51.000Z</time>
      </trkpt>
      <trkpt lat="47.28434" lon="-2.29499">
        <ele>53.400001525879</ele>
        <time>2022-03-13T10:46:58.000Z</time>
      </trkpt>
      <trkpt lat="47.28425" lon="-2.29498">
        <ele>53.400001525879</ele>
        <time>2022-03-13T10:47:00.000Z</time>
      </trkpt>
      <trkpt lat="47.28411" lon="-2.2949">
        <ele>53.400001525879</ele>
        <time>2022-03-13T10:47:03.000Z</time>
      </trkpt>
      <trkpt lat="47.28408" lon="-2.29474">
        <ele>53.400001525879</ele>
        <time>2022-03-13T10:47:06.000Z</time>
      </trkpt>
      <trkpt lat="47.2841" lon="-2.29459">
        <ele>53.400001525879</ele>
        <time>2022-03-13T10:47:08.000Z</time>
      </trkpt>
      <trkpt lat="47.28413" lon="-2.29439">
        <ele>53.400001525879</ele>
        <time>2022-03-13T10:47:11.000Z</time>
      </trkpt>
      <trkpt lat="47.28412" lon="-2.29406">
        <ele>53.400001525879</ele>
        <time>2022-03-13T10:47:17.000Z</time>
      </trkpt>
      <trkpt lat="47.28411" lon="-2.2937">
        <ele>53.400001525879</ele>
        <time>2022-03-13T10:47:24.000Z</time>
      </trkpt>
      <trkpt lat="47.28417" lon="-2.29356">
        <ele>53.400001525879</ele>
        <time>2022-03-13T10:47:27.000Z</time>
      </trkpt>
      <trkpt lat="47.28421" lon="-2.29353">
        <ele>53.400001525879</ele>
        <time>2022-03-13T10:47:28.000Z</time>
      </trkpt>
      <trkpt lat="47.28446" lon="-2.29341">
        <ele>53.400001525879</ele>
        <time>2022-03-13T10:47:34.000Z</time>
      </trkpt>
      <trkpt lat="47.2848" lon="-2.29325">
        <ele>53.400001525879</ele>
        <time>2022-03-13T10:47:41.000Z</time>
      </trkpt>
      <trkpt lat="47.28483" lon="-2.29314">
        <ele>53.400001525879</ele>
        <time>2022-03-13T10:47:44.000Z</time>
      </trkpt>
      <trkpt lat="47.28475" lon="-2.29314">
        <ele>53.400001525879</ele>
        <time>2022-03-13T10:47:47.000Z</time>
      </trkpt>
      <trkpt lat="47.28468" lon="-2.29319">
        <ele>53.400001525879</ele>
        <time>2022-03-13T10:47:49.000Z</time>
      </trkpt>
      <trkpt lat="47.28458" lon="-2.29324">
        <ele>53.400001525879</ele>
        <time>2022-03-13T10:47:52.000Z</time>
      </trkpt>
      <trkpt lat="47.28446" lon="-2.29328">
        <ele>53.799999237061</ele>
        <time>2022-03-13T10:47:55.000Z</time>
      </trkpt>
      <trkpt lat="47.28443" lon="-2.29329">
        <ele>54.200000762939</ele>
        <time>2022-03-13T10:47:56.000Z</time>
      </trkpt>
      <trkpt lat="47.28439" lon="-2.2933">
        <ele>55</ele>
        <time>2022-03-13T10:47:57.000Z</time>
      </trkpt>
      <trkpt lat="47.28435" lon="-2.29331">
        <ele>55.400001525879</ele>
        <time>2022-03-13T10:47:58.000Z</time>
      </trkpt>
      <trkpt lat="47.28413" lon="-2.29342">
        <ele>55.400001525879</ele>
        <time>2022-03-13T10:48:04.000Z</time>
      </trkpt>
      <trkpt lat="47.28392" lon="-2.29356">
        <ele>55.400001525879</ele>
        <time>2022-03-13T10:48:11.000Z</time>
      </trkpt>
      <trkpt lat="47.28368" lon="-2.2937">
        <ele>55.400001525879</ele>
        <time>2022-03-13T10:48:19.000Z</time>
      </trkpt>
      <trkpt lat="47.2834" lon="-2.29396">
        <ele>55.400001525879</ele>
        <time>2022-03-13T10:48:27.000Z</time>
      </trkpt>
      <trkpt lat="47.28313" lon="-2.29425">
        <ele>55.400001525879</ele>
        <time>2022-03-13T10:48:34.000Z</time>
      </trkpt>
      <trkpt lat="47.28287" lon="-2.29448">
        <ele>55.400001525879</ele>
        <time>2022-03-13T10:48:40.000Z</time>
      </trkpt>
      <trkpt lat="47.28253" lon="-2.29471">
        <ele>55.400001525879</ele>
        <time>2022-03-13T10:48:47.000Z</time>
      </trkpt>
      <trkpt lat="47.28248" lon="-2.29474">
        <ele>55.799999237061</ele>
        <time>2022-03-13T10:48:48.000Z</time>
      </trkpt>
      <trkpt lat="47.28243" lon="-2.29478">
        <ele>56.200000762939</ele>
        <time>2022-03-13T10:48:49.000Z</time>
      </trkpt>
      <trkpt lat="47.28237" lon="-2.2948">
        <ele>56.599998474121</ele>
        <time>2022-03-13T10:48:50.000Z</time>
      </trkpt>
      <trkpt lat="47.28232" lon="-2.29483">
        <ele>57</ele>
        <time>2022-03-13T10:48:51.000Z</time>
      </trkpt>
      <trkpt lat="47.28227" lon="-2.29486">
        <ele>57.400001525879</ele>
        <time>2022-03-13T10:48:52.000Z</time>
      </trkpt>
      <trkpt lat="47.28221" lon="-2.29489">
        <ele>57.400001525879</ele>
        <time>2022-03-13T10:48:53.000Z</time>
      </trkpt>
      <trkpt lat="47.28197" lon="-2.29502">
        <ele>57.400001525879</ele>
        <time>2022-03-13T10:48:58.000Z</time>
      </trkpt>
      <trkpt lat="47.28188" lon="-2.29505">
        <ele>57.799999237061</ele>
        <time>2022-03-13T10:49:00.000Z</time>
      </trkpt>
      <trkpt lat="47.28184" lon="-2.29507">
        <ele>58.200000762939</ele>
        <time>2022-03-13T10:49:01.000Z</time>
      </trkpt>
      <trkpt lat="47.2818" lon="-2.29508">
        <ele>58.599998474121</ele>
        <time>2022-03-13T10:49:02.000Z</time>
      </trkpt>
      <trkpt lat="47.28176" lon="-2.29509">
        <ele>59</ele>
        <time>2022-03-13T10:49:03.000Z</time>
      </trkpt>
      <trkpt lat="47.28172" lon="-2.29511">
        <ele>59.400001525879</ele>
        <time>2022-03-13T10:49:04.000Z</time>
      </trkpt>
      <trkpt lat="47.28156" lon="-2.29517">
        <ele>59.400001525879</ele>
        <time>2022-03-13T10:49:08.000Z</time>
      </trkpt>
      <trkpt lat="47.28143" lon="-2.29522">
        <ele>59.400001525879</ele>
        <time>2022-03-13T10:49:11.000Z</time>
      </trkpt>
      <trkpt lat="47.28107" lon="-2.29538">
        <ele>60</ele>
        <time>2022-03-13T10:49:19.000Z</time>
      </trkpt>
      <trkpt lat="47.28102" lon="-2.2954">
        <ele>60.400001525879</ele>
        <time>2022-03-13T10:49:20.000Z</time>
      </trkpt>
      <trkpt lat="47.28097" lon="-2.29542">
        <ele>60.799999237061</ele>
        <time>2022-03-13T10:49:21.000Z</time>
      </trkpt>
      <trkpt lat="47.28093" lon="-2.29544">
        <ele>61.200000762939</ele>
        <time>2022-03-13T10:49:22.000Z</time>
      </trkpt>
      <trkpt lat="47.28088" lon="-2.29546">
        <ele>61.799999237061</ele>
        <time>2022-03-13T10:49:23.000Z</time>
      </trkpt>
      <trkpt lat="47.28073" lon="-2.29551">
        <ele>61.799999237061</ele>
        <time>2022-03-13T10:49:26.000Z</time>
      </trkpt>
      <trkpt lat="47.28034" lon="-2.2957">
        <ele>61.799999237061</ele>
        <time>2022-03-13T10:49:34.000Z</time>
      </trkpt>
      <trkpt lat="47.28" lon="-2.29583">
        <ele>61.799999237061</ele>
        <time>2022-03-13T10:49:41.000Z</time>
      </trkpt>
      <trkpt lat="47.27954" lon="-2.29594">
        <ele>61.799999237061</ele>
        <time>2022-03-13T10:49:50.000Z</time>
      </trkpt>
      <trkpt lat="47.27923" lon="-2.29595">
        <ele>61.799999237061</ele>
        <time>2022-03-13T10:49:56.000Z</time>
      </trkpt>
      <trkpt lat="47.27883" lon="-2.29591">
        <ele>61.799999237061</ele>
        <time>2022-03-13T10:50:04.000Z</time>
      </trkpt>
      <trkpt lat="47.27855" lon="-2.29592">
        <ele>61.200000762939</ele>
        <time>2022-03-13T10:50:10.000Z</time>
      </trkpt>
      <trkpt lat="47.27851" lon="-2.29591">
        <ele>60.799999237061</ele>
        <time>2022-03-13T10:50:11.000Z</time>
      </trkpt>
      <trkpt lat="47.27847" lon="-2.29591">
        <ele>60.400001525879</ele>
        <time>2022-03-13T10:50:12.000Z</time>
      </trkpt>
      <trkpt lat="47.27843" lon="-2.2959">
        <ele>60</ele>
        <time>2022-03-13T10:50:13.000Z</time>
      </trkpt>
      <trkpt lat="47.27839" lon="-2.2959">
        <ele>59.599998474121</ele>
        <time>2022-03-13T10:50:14.000Z</time>
      </trkpt>
      <trkpt lat="47.27823" lon="-2.29589">
        <ele>59.599998474121</ele>
        <time>2022-03-13T10:50:18.000Z</time>
      </trkpt>
      <trkpt lat="47.27818" lon="-2.29589">
        <ele>59.599998474121</ele>
        <time>2022-03-13T10:50:19.000Z</time>
      </trkpt>
      <trkpt lat="47.27798" lon="-2.29588">
        <ele>59.599998474121</ele>
        <time>2022-03-13T10:50:24.000Z</time>
      </trkpt>
      <trkpt lat="47.2777" lon="-2.2959">
        <ele>59.599998474121</ele>
        <time>2022-03-13T10:50:31.000Z</time>
      </trkpt>
      <trkpt lat="47.27742" lon="-2.29591">
        <ele>59.599998474121</ele>
        <time>2022-03-13T10:50:37.000Z</time>
      </trkpt>
      <trkpt lat="47.27712" lon="-2.2959">
        <ele>59.599998474121</ele>
        <time>2022-03-13T10:50:43.000Z</time>
      </trkpt>
      <trkpt lat="47.27676" lon="-2.29591">
        <ele>59.599998474121</ele>
        <time>2022-03-13T10:50:50.000Z</time>
      </trkpt>
      <trkpt lat="47.27653" lon="-2.29591">
        <ele>59</ele>
        <time>2022-03-13T10:50:54.000Z</time>
      </trkpt>
      <trkpt lat="47.27648" lon="-2.29591">
        <ele>58.599998474121</ele>
        <time>2022-03-13T10:50:55.000Z</time>
      </trkpt>
      <trkpt lat="47.27643" lon="-2.29592">
        <ele>58.200000762939</ele>
        <time>2022-03-13T10:50:56.000Z</time>
      </trkpt>
      <trkpt lat="47.27637" lon="-2.29592">
        <ele>57.799999237061</ele>
        <time>2022-03-13T10:50:57.000Z</time>
      </trkpt>
      <trkpt lat="47.27632" lon="-2.29591">
        <ele>57.400001525879</ele>
        <time>2022-03-13T10:50:58.000Z</time>
      </trkpt>
      <trkpt lat="47.27627" lon="-2.29591">
        <ele>57.400001525879</ele>
        <time>2022-03-13T10:50:59.000Z</time>
      </trkpt>
      <trkpt lat="47.27593" lon="-2.29592">
        <ele>57.400001525879</ele>
        <time>2022-03-13T10:51:05.000Z</time>
      </trkpt>
      <trkpt lat="47.27543" lon="-2.29593">
        <ele>57.400001525879</ele>
        <time>2022-03-13T10:51:14.000Z</time>
      </trkpt>
      <trkpt lat="47.27508" lon="-2.29596">
        <ele>57.400001525879</ele>
        <time>2022-03-13T10:51:20.000Z</time>
      </trkpt>
      <trkpt lat="47.27458" lon="-2.29609">
        <ele>57.400001525879</ele>
        <time>2022-03-13T10:51:29.000Z</time>
      </trkpt>
      <trkpt lat="47.27417" lon="-2.29619">
        <ele>57.400001525879</ele>
        <time>2022-03-13T10:51:36.000Z</time>
      </trkpt>
      <trkpt lat="47.27377" lon="-2.29628">
        <ele>57.400001525879</ele>
        <time>2022-03-13T10:51:43.000Z</time>
      </trkpt>
      <trkpt lat="47.27338" lon="-2.29634">
        <ele>57.400001525879</ele>
        <time>2022-03-13T10:51:50.000Z</time>
      </trkpt>
      <trkpt lat="47.27305" lon="-2.29637">
        <ele>57.400001525879</ele>
        <time>2022-03-13T10:51:56.000Z</time>
      </trkpt>
      <trkpt lat="47.27279" lon="-2.2964">
        <ele>57.400001525879</ele>
        <time>2022-03-13T10:52:02.000Z</time>
      </trkpt>
      <trkpt lat="47.27268" lon="-2.29642">
        <ele>57.400001525879</ele>
        <time>2022-03-13T10:52:05.000Z</time>
      </trkpt>
      <trkpt lat="47.27265" lon="-2.29649">
        <ele>57.400001525879</ele>
        <time>2022-03-13T10:52:07.000Z</time>
      </trkpt>
      <trkpt lat="47.27264" lon="-2.29658">
        <ele>57.400001525879</ele>
        <time>2022-03-13T10:52:09.000Z</time>
      </trkpt>
      <trkpt lat="47.27264" lon="-2.29667">
        <ele>57.400001525879</ele>
        <time>2022-03-13T10:52:11.000Z</time>
      </trkpt>
      <trkpt lat="47.2727" lon="-2.29696">
        <ele>57.400001525879</ele>
        <time>2022-03-13T10:52:17.000Z</time>
      </trkpt>
      <trkpt lat="47.2728" lon="-2.29726">
        <ele>57.400001525879</ele>
        <time>2022-03-13T10:52:24.000Z</time>
      </trkpt>
      <trkpt lat="47.2729" lon="-2.2976">
        <ele>57.400001525879</ele>
        <time>2022-03-13T10:52:30.000Z</time>
      </trkpt>
      <trkpt lat="47.27302" lon="-2.29792">
        <ele>57.400001525879</ele>
        <time>2022-03-13T10:52:35.000Z</time>
      </trkpt>
      <trkpt lat="47.27305" lon="-2.29799">
        <ele>57.400001525879</ele>
        <time>2022-03-13T10:52:36.000Z</time>
      </trkpt>
      <trkpt lat="47.27329" lon="-2.2984">
        <ele>57.400001525879</ele>
        <time>2022-03-13T10:52:43.000Z</time>
      </trkpt>
      <trkpt lat="47.27349" lon="-2.29879">
        <ele>57.400001525879</ele>
        <time>2022-03-13T10:52:49.000Z</time>
      </trkpt>
      <trkpt lat="47.2737" lon="-2.29925">
        <ele>57.400001525879</ele>
        <time>2022-03-13T10:52:56.000Z</time>
      </trkpt>
      <trkpt lat="47.2738" lon="-2.2995">
        <ele>57.400001525879</ele>
        <time>2022-03-13T10:53:00.000Z</time>
      </trkpt>
      <trkpt lat="47.27386" lon="-2.29963">
        <ele>57.400001525879</ele>
        <time>2022-03-13T10:53:02.000Z</time>
      </trkpt>
      <trkpt lat="47.27394" lon="-2.29982">
        <ele>57.400001525879</ele>
        <time>2022-03-13T10:53:05.000Z</time>
      </trkpt>
      <trkpt lat="47.27404" lon="-2.30004">
        <ele>57.400001525879</ele>
        <time>2022-03-13T10:53:08.000Z</time>
      </trkpt>
      <trkpt lat="47.27416" lon="-2.30033">
        <ele>57.400001525879</ele>
        <time>2022-03-13T10:53:12.000Z</time>
      </trkpt>
      <trkpt lat="47.27419" lon="-2.3004">
        <ele>57.400001525879</ele>
        <time>2022-03-13T10:53:13.000Z</time>
      </trkpt>
      <trkpt lat="47.27432" lon="-2.30078">
        <ele>57.400001525879</ele>
        <time>2022-03-13T10:53:18.000Z</time>
      </trkpt>
      <trkpt lat="47.27442" lon="-2.30121">
        <ele>57.400001525879</ele>
        <time>2022-03-13T10:53:24.000Z</time>
      </trkpt>
      <trkpt lat="47.27445" lon="-2.30135">
        <ele>57</ele>
        <time>2022-03-13T10:53:26.000Z</time>
      </trkpt>
      <trkpt lat="47.27446" lon="-2.30141">
        <ele>56.599998474121</ele>
        <time>2022-03-13T10:53:27.000Z</time>
      </trkpt>
      <trkpt lat="47.27447" lon="-2.30147">
        <ele>56.200000762939</ele>
        <time>2022-03-13T10:53:28.000Z</time>
      </trkpt>
      <trkpt lat="47.27449" lon="-2.30155">
        <ele>55.599998474121</ele>
        <time>2022-03-13T10:53:29.000Z</time>
      </trkpt>
      <trkpt lat="47.27451" lon="-2.30161">
        <ele>55.200000762939</ele>
        <time>2022-03-13T10:53:30.000Z</time>
      </trkpt>
      <trkpt lat="47.27455" lon="-2.30187">
        <ele>54.799999237061</ele>
        <time>2022-03-13T10:53:34.000Z</time>
      </trkpt>
      <trkpt lat="47.27455" lon="-2.30193">
        <ele>54.400001525879</ele>
        <time>2022-03-13T10:53:35.000Z</time>
      </trkpt>
      <trkpt lat="47.27455" lon="-2.30199">
        <ele>54</ele>
        <time>2022-03-13T10:53:36.000Z</time>
      </trkpt>
      <trkpt lat="47.27454" lon="-2.30204">
        <ele>53.599998474121</ele>
        <time>2022-03-13T10:53:37.000Z</time>
      </trkpt>
      <trkpt lat="47.27452" lon="-2.30207">
        <ele>53.200000762939</ele>
        <time>2022-03-13T10:53:38.000Z</time>
      </trkpt>
      <trkpt lat="47.2745" lon="-2.3021">
        <ele>53.200000762939</ele>
        <time>2022-03-13T10:53:39.000Z</time>
      </trkpt>
      <trkpt lat="47.27438" lon="-2.30217">
        <ele>53.200000762939</ele>
        <time>2022-03-13T10:53:42.000Z</time>
      </trkpt>
      <trkpt lat="47.27433" lon="-2.30219">
        <ele>53.200000762939</ele>
        <time>2022-03-13T10:53:43.000Z</time>
      </trkpt>
      <trkpt lat="47.27419" lon="-2.30228">
        <ele>53.200000762939</ele>
        <time>2022-03-13T10:53:46.000Z</time>
      </trkpt>
      <trkpt lat="47.27408" lon="-2.30234">
        <ele>53.200000762939</ele>
        <time>2022-03-13T10:53:48.000Z</time>
      </trkpt>
      <trkpt lat="47.27398" lon="-2.3024">
        <ele>53.200000762939</ele>
        <time>2022-03-13T10:53:50.000Z</time>
      </trkpt>
      <trkpt lat="47.27383" lon="-2.30245">
        <ele>53.200000762939</ele>
        <time>2022-03-13T10:53:53.000Z</time>
      </trkpt>
      <trkpt lat="47.27361" lon="-2.3025">
        <ele>53.200000762939</ele>
        <time>2022-03-13T10:53:57.000Z</time>
      </trkpt>
      <trkpt lat="47.27356" lon="-2.30251">
        <ele>53.200000762939</ele>
        <time>2022-03-13T10:53:58.000Z</time>
      </trkpt>
      <trkpt lat="47.2732" lon="-2.30256">
        <ele>53.200000762939</ele>
        <time>2022-03-13T10:54:04.000Z</time>
      </trkpt>
      <trkpt lat="47.27292" lon="-2.30257">
        <ele>52.599998474121</ele>
        <time>2022-03-13T10:54:09.000Z</time>
      </trkpt>
      <trkpt lat="47.27287" lon="-2.30257">
        <ele>52.200000762939</ele>
        <time>2022-03-13T10:54:10.000Z</time>
      </trkpt>
      <trkpt lat="47.27281" lon="-2.30258">
        <ele>51.799999237061</ele>
        <time>2022-03-13T10:54:11.000Z</time>
      </trkpt>
      <trkpt lat="47.27275" lon="-2.30259">
        <ele>51.400001525879</ele>
        <time>2022-03-13T10:54:12.000Z</time>
      </trkpt>
      <trkpt lat="47.27269" lon="-2.30261">
        <ele>50.799999237061</ele>
        <time>2022-03-13T10:54:13.000Z</time>
      </trkpt>
      <trkpt lat="47.27259" lon="-2.30265">
        <ele>50.799999237061</ele>
        <time>2022-03-13T10:54:15.000Z</time>
      </trkpt>
      <trkpt lat="47.27254" lon="-2.30265">
        <ele>50.799999237061</ele>
        <time>2022-03-13T10:54:16.000Z</time>
      </trkpt>
      <trkpt lat="47.27243" lon="-2.30265">
        <ele>50.799999237061</ele>
        <time>2022-03-13T10:54:19.000Z</time>
      </trkpt>
      <trkpt lat="47.27238" lon="-2.30262">
        <ele>50.799999237061</ele>
        <time>2022-03-13T10:54:21.000Z</time>
      </trkpt>
      <trkpt lat="47.2723" lon="-2.3026">
        <ele>50.799999237061</ele>
        <time>2022-03-13T10:54:24.000Z</time>
      </trkpt>
      <trkpt lat="47.27221" lon="-2.30258">
        <ele>50.799999237061</ele>
        <time>2022-03-13T10:54:27.000Z</time>
      </trkpt>
      <trkpt lat="47.27218" lon="-2.30255">
        <ele>50.799999237061</ele>
        <time>2022-03-13T10:54:28.000Z</time>
      </trkpt>
      <trkpt lat="47.27214" lon="-2.30254">
        <ele>50.799999237061</ele>
        <time>2022-03-13T10:54:30.000Z</time>
      </trkpt>
      <trkpt lat="47.27209" lon="-2.30254">
        <ele>50.799999237061</ele>
        <time>2022-03-13T10:54:32.000Z</time>
      </trkpt>
      <trkpt lat="47.27203" lon="-2.30258">
        <ele>50.799999237061</ele>
        <time>2022-03-13T10:54:35.000Z</time>
      </trkpt>
      <trkpt lat="47.27198" lon="-2.3026">
        <ele>50.799999237061</ele>
        <time>2022-03-13T10:54:37.000Z</time>
      </trkpt>
      <trkpt lat="47.27181" lon="-2.30256">
        <ele>50.799999237061</ele>
        <time>2022-03-13T10:54:43.000Z</time>
      </trkpt>
      <trkpt lat="47.27168" lon="-2.30246">
        <ele>50.799999237061</ele>
        <time>2022-03-13T10:54:48.000Z</time>
      </trkpt>
      <trkpt lat="47.27152" lon="-2.30249">
        <ele>50.799999237061</ele>
        <time>2022-03-13T10:54:52.000Z</time>
      </trkpt>
      <trkpt lat="47.27129" lon="-2.30255">
        <ele>50.799999237061</ele>
        <time>2022-03-13T10:54:58.000Z</time>
      </trkpt>
      <trkpt lat="47.27104" lon="-2.30264">
        <ele>50.799999237061</ele>
        <time>2022-03-13T10:55:04.000Z</time>
      </trkpt>
      <trkpt lat="47.27088" lon="-2.30277">
        <ele>51.200000762939</ele>
        <time>2022-03-13T10:55:09.000Z</time>
      </trkpt>
      <trkpt lat="47.27085" lon="-2.3028">
        <ele>51.599998474121</ele>
        <time>2022-03-13T10:55:10.000Z</time>
      </trkpt>
      <trkpt lat="47.27083" lon="-2.30284">
        <ele>52</ele>
        <time>2022-03-13T10:55:11.000Z</time>
      </trkpt>
      <trkpt lat="47.27081" lon="-2.30288">
        <ele>52.599998474121</ele>
        <time>2022-03-13T10:55:12.000Z</time>
      </trkpt>
      <trkpt lat="47.27079" lon="-2.30293">
        <ele>53</ele>
        <time>2022-03-13T10:55:13.000Z</time>
      </trkpt>
      <trkpt lat="47.27078" lon="-2.30298">
        <ele>53</ele>
        <time>2022-03-13T10:55:14.000Z</time>
      </trkpt>
      <trkpt lat="47.2707" lon="-2.30327">
        <ele>53</ele>
        <time>2022-03-13T10:55:19.000Z</time>
      </trkpt>
      <trkpt lat="47.27068" lon="-2.30335">
        <ele>53</ele>
        <time>2022-03-13T10:55:20.000Z</time>
      </trkpt>
      <trkpt lat="47.2706" lon="-2.30366">
        <ele>53</ele>
        <time>2022-03-13T10:55:24.000Z</time>
      </trkpt>
      <trkpt lat="47.27053" lon="-2.30405">
        <ele>53</ele>
        <time>2022-03-13T10:55:29.000Z</time>
      </trkpt>
      <trkpt lat="47.27047" lon="-2.30453">
        <ele>53</ele>
        <time>2022-03-13T10:55:35.000Z</time>
      </trkpt>
      <trkpt lat="47.27045" lon="-2.3046">
        <ele>53</ele>
        <time>2022-03-13T10:55:36.000Z</time>
      </trkpt>
      <trkpt lat="47.27038" lon="-2.30483">
        <ele>53</ele>
        <time>2022-03-13T10:55:39.000Z</time>
      </trkpt>
      <trkpt lat="47.27037" lon="-2.30491">
        <ele>53</ele>
        <time>2022-03-13T10:55:40.000Z</time>
      </trkpt>
      <trkpt lat="47.27029" lon="-2.30525">
        <ele>53</ele>
        <time>2022-03-13T10:55:45.000Z</time>
      </trkpt>
      <trkpt lat="47.27026" lon="-2.30532">
        <ele>53.400001525879</ele>
        <time>2022-03-13T10:55:46.000Z</time>
      </trkpt>
      <trkpt lat="47.27024" lon="-2.30538">
        <ele>53.799999237061</ele>
        <time>2022-03-13T10:55:47.000Z</time>
      </trkpt>
      <trkpt lat="47.27023" lon="-2.30545">
        <ele>54.200000762939</ele>
        <time>2022-03-13T10:55:48.000Z</time>
      </trkpt>
      <trkpt lat="47.27021" lon="-2.30552">
        <ele>54.599998474121</ele>
        <time>2022-03-13T10:55:49.000Z</time>
      </trkpt>
      <trkpt lat="47.27019" lon="-2.30558">
        <ele>55</ele>
        <time>2022-03-13T10:55:50.000Z</time>
      </trkpt>
      <trkpt lat="47.27015" lon="-2.30572">
        <ele>55</ele>
        <time>2022-03-13T10:55:52.000Z</time>
      </trkpt>
      <trkpt lat="47.27012" lon="-2.30579">
        <ele>55</ele>
        <time>2022-03-13T10:55:53.000Z</time>
      </trkpt>
      <trkpt lat="47.26999" lon="-2.306">
        <ele>55</ele>
        <time>2022-03-13T10:55:57.000Z</time>
      </trkpt>
      <trkpt lat="47.2699" lon="-2.30605">
        <ele>55</ele>
        <time>2022-03-13T10:55:59.000Z</time>
      </trkpt>
      <trkpt lat="47.2697" lon="-2.30616">
        <ele>55</ele>
        <time>2022-03-13T10:56:03.000Z</time>
      </trkpt>
      <trkpt lat="47.26956" lon="-2.30622">
        <ele>55</ele>
        <time>2022-03-13T10:56:06.000Z</time>
      </trkpt>
      <trkpt lat="47.26947" lon="-2.30626">
        <ele>55</ele>
        <time>2022-03-13T10:56:08.000Z</time>
      </trkpt>
      <trkpt lat="47.26935" lon="-2.3063">
        <ele>55</ele>
        <time>2022-03-13T10:56:11.000Z</time>
      </trkpt>
      <trkpt lat="47.26918" lon="-2.30636">
        <ele>55</ele>
        <time>2022-03-13T10:56:15.000Z</time>
      </trkpt>
      <trkpt lat="47.26903" lon="-2.30651">
        <ele>55</ele>
        <time>2022-03-13T10:56:20.000Z</time>
      </trkpt>
      <trkpt lat="47.26902" lon="-2.30655">
        <ele>55</ele>
        <time>2022-03-13T10:56:21.000Z</time>
      </trkpt>
      <trkpt lat="47.26902" lon="-2.30661">
        <ele>55</ele>
        <time>2022-03-13T10:56:23.000Z</time>
      </trkpt>
      <trkpt lat="47.26904" lon="-2.30671">
        <ele>55</ele>
        <time>2022-03-13T10:56:27.000Z</time>
      </trkpt>
      <trkpt lat="47.26906" lon="-2.30672">
        <ele>55</ele>
        <time>2022-03-13T10:56:28.000Z</time>
      </trkpt>
      <trkpt lat="47.2691" lon="-2.30682">
        <ele>55</ele>
        <time>2022-03-13T10:56:34.000Z</time>
      </trkpt>
      <trkpt lat="47.26911" lon="-2.30683">
        <ele>55</ele>
        <time>2022-03-13T10:56:36.000Z</time>
      </trkpt>
      <trkpt lat="47.26913" lon="-2.30686">
        <ele>55</ele>
        <time>2022-03-13T10:57:12.000Z</time>
      </trkpt>
      <trkpt lat="47.26914" lon="-2.30687">
        <ele>55</ele>
        <time>2022-03-13T10:57:13.000Z</time>
      </trkpt>
      <trkpt lat="47.26925" lon="-2.30703">
        <ele>55</ele>
        <time>2022-03-13T10:57:19.000Z</time>
      </trkpt>
      <trkpt lat="47.26945" lon="-2.30733">
        <ele>55</ele>
        <time>2022-03-13T10:57:25.000Z</time>
      </trkpt>
      <trkpt lat="47.26968" lon="-2.30763">
        <ele>55</ele>
        <time>2022-03-13T10:57:31.000Z</time>
      </trkpt>
      <trkpt lat="47.26971" lon="-2.30768">
        <ele>55</ele>
        <time>2022-03-13T10:57:32.000Z</time>
      </trkpt>
      <trkpt lat="47.26974" lon="-2.30773">
        <ele>54.599998474121</ele>
        <time>2022-03-13T10:57:33.000Z</time>
      </trkpt>
      <trkpt lat="47.26977" lon="-2.30778">
        <ele>54</ele>
        <time>2022-03-13T10:57:34.000Z</time>
      </trkpt>
      <trkpt lat="47.2698" lon="-2.30783">
        <ele>53.599998474121</ele>
        <time>2022-03-13T10:57:35.000Z</time>
      </trkpt>
      <trkpt lat="47.26984" lon="-2.30788">
        <ele>53.200000762939</ele>
        <time>2022-03-13T10:57:36.000Z</time>
      </trkpt>
      <trkpt lat="47.26987" lon="-2.30793">
        <ele>52.799999237061</ele>
        <time>2022-03-13T10:57:37.000Z</time>
      </trkpt>
      <trkpt lat="47.26991" lon="-2.30799">
        <ele>52.799999237061</ele>
        <time>2022-03-13T10:57:38.000Z</time>
      </trkpt>
      <trkpt lat="47.26998" lon="-2.3081">
        <ele>52.799999237061</ele>
        <time>2022-03-13T10:57:40.000Z</time>
      </trkpt>
      <trkpt lat="47.27005" lon="-2.30821">
        <ele>52.400001525879</ele>
        <time>2022-03-13T10:57:42.000Z</time>
      </trkpt>
      <trkpt lat="47.27007" lon="-2.30826">
        <ele>52</ele>
        <time>2022-03-13T10:57:43.000Z</time>
      </trkpt>
      <trkpt lat="47.2701" lon="-2.3083">
        <ele>51.599998474121</ele>
        <time>2022-03-13T10:57:44.000Z</time>
      </trkpt>
      <trkpt lat="47.27013" lon="-2.30835">
        <ele>51.200000762939</ele>
        <time>2022-03-13T10:57:45.000Z</time>
      </trkpt>
      <trkpt lat="47.27016" lon="-2.30839">
        <ele>50.799999237061</ele>
        <time>2022-03-13T10:57:46.000Z</time>
      </trkpt>
      <trkpt lat="47.27019" lon="-2.30843">
        <ele>50.799999237061</ele>
        <time>2022-03-13T10:57:47.000Z</time>
      </trkpt>
      <trkpt lat="47.27036" lon="-2.30869">
        <ele>50.799999237061</ele>
        <time>2022-03-13T10:57:52.000Z</time>
      </trkpt>
      <trkpt lat="47.27043" lon="-2.3088">
        <ele>50.799999237061</ele>
        <time>2022-03-13T10:57:54.000Z</time>
      </trkpt>
      <trkpt lat="47.27045" lon="-2.30886">
        <ele>50.400001525879</ele>
        <time>2022-03-13T10:57:55.000Z</time>
      </trkpt>
      <trkpt lat="47.27046" lon="-2.30891">
        <ele>49.799999237061</ele>
        <time>2022-03-13T10:57:56.000Z</time>
      </trkpt>
      <trkpt lat="47.27047" lon="-2.30894">
        <ele>49.400001525879</ele>
        <time>2022-03-13T10:57:57.000Z</time>
      </trkpt>
      <trkpt lat="47.27049" lon="-2.30895">
        <ele>49</ele>
        <time>2022-03-13T10:57:58.000Z</time>
      </trkpt>
      <trkpt lat="47.2705" lon="-2.30896">
        <ele>48.599998474121</ele>
        <time>2022-03-13T10:57:59.000Z</time>
      </trkpt>
      <trkpt lat="47.2705" lon="-2.30896">
        <ele>48.599998474121</ele>
        <time>2022-03-13T10:58:00.000Z</time>
      </trkpt>
      <trkpt lat="47.27051" lon="-2.30897">
        <ele>48.599998474121</ele>
        <time>2022-03-13T10:58:02.000Z</time>
      </trkpt>
      <trkpt lat="47.27051" lon="-2.30903">
        <ele>48.599998474121</ele>
        <time>2022-03-13T10:58:05.000Z</time>
      </trkpt>
      <trkpt lat="47.2705" lon="-2.30905">
        <ele>48.599998474121</ele>
        <time>2022-03-13T10:58:06.000Z</time>
      </trkpt>
      <trkpt lat="47.27052" lon="-2.3092">
        <ele>48.599998474121</ele>
        <time>2022-03-13T10:58:11.000Z</time>
      </trkpt>
      <trkpt lat="47.27055" lon="-2.30944">
        <ele>48.599998474121</ele>
        <time>2022-03-13T10:58:16.000Z</time>
      </trkpt>
      <trkpt lat="47.27057" lon="-2.30968">
        <ele>48.599998474121</ele>
        <time>2022-03-13T10:58:21.000Z</time>
      </trkpt>
      <trkpt lat="47.27059" lon="-2.30978">
        <ele>48.599998474121</ele>
        <time>2022-03-13T10:58:23.000Z</time>
      </trkpt>
      <trkpt lat="47.27058" lon="-2.30986">
        <ele>48.599998474121</ele>
        <time>2022-03-13T10:58:25.000Z</time>
      </trkpt>
      <trkpt lat="47.27051" lon="-2.30997">
        <ele>48.599998474121</ele>
        <time>2022-03-13T10:58:28.000Z</time>
      </trkpt>
      <trkpt lat="47.27048" lon="-2.31">
        <ele>48.599998474121</ele>
        <time>2022-03-13T10:58:29.000Z</time>
      </trkpt>
      <trkpt lat="47.2703" lon="-2.31023">
        <ele>48.599998474121</ele>
        <time>2022-03-13T10:58:35.000Z</time>
      </trkpt>
      <trkpt lat="47.27011" lon="-2.31044">
        <ele>48.599998474121</ele>
        <time>2022-03-13T10:58:41.000Z</time>
      </trkpt>
      <trkpt lat="47.27" lon="-2.31054">
        <ele>49</ele>
        <time>2022-03-13T10:58:44.000Z</time>
      </trkpt>
      <trkpt lat="47.26997" lon="-2.31057">
        <ele>49.599998474121</ele>
        <time>2022-03-13T10:58:45.000Z</time>
      </trkpt>
      <trkpt lat="47.26996" lon="-2.31063">
        <ele>50</ele>
        <time>2022-03-13T10:58:46.000Z</time>
      </trkpt>
      <trkpt lat="47.26995" lon="-2.31069">
        <ele>50.400001525879</ele>
        <time>2022-03-13T10:58:47.000Z</time>
      </trkpt>
      <trkpt lat="47.26996" lon="-2.31075">
        <ele>50.799999237061</ele>
        <time>2022-03-13T10:58:48.000Z</time>
      </trkpt>
      <trkpt lat="47.26996" lon="-2.31082">
        <ele>50.799999237061</ele>
        <time>2022-03-13T10:58:49.000Z</time>
      </trkpt>
      <trkpt lat="47.26996" lon="-2.31102">
        <ele>50.799999237061</ele>
        <time>2022-03-13T10:58:52.000Z</time>
      </trkpt>
      <trkpt lat="47.26995" lon="-2.31115">
        <ele>50.799999237061</ele>
        <time>2022-03-13T10:58:54.000Z</time>
      </trkpt>
      <trkpt lat="47.26994" lon="-2.31122">
        <ele>50.799999237061</ele>
        <time>2022-03-13T10:58:55.000Z</time>
      </trkpt>
      <trkpt lat="47.26991" lon="-2.3114">
        <ele>51.200000762939</ele>
        <time>2022-03-13T10:58:58.000Z</time>
      </trkpt>
      <trkpt lat="47.2699" lon="-2.31147">
        <ele>51.599998474121</ele>
        <time>2022-03-13T10:58:59.000Z</time>
      </trkpt>
      <trkpt lat="47.2699" lon="-2.31153">
        <ele>52</ele>
        <time>2022-03-13T10:59:00.000Z</time>
      </trkpt>
      <trkpt lat="47.26989" lon="-2.31159">
        <ele>52.400001525879</ele>
        <time>2022-03-13T10:59:01.000Z</time>
      </trkpt>
      <trkpt lat="47.26988" lon="-2.31165">
        <ele>52.799999237061</ele>
        <time>2022-03-13T10:59:02.000Z</time>
      </trkpt>
      <trkpt lat="47.26982" lon="-2.312">
        <ele>52.799999237061</ele>
        <time>2022-03-13T10:59:08.000Z</time>
      </trkpt>
      <trkpt lat="47.26981" lon="-2.31205">
        <ele>53.200000762939</ele>
        <time>2022-03-13T10:59:09.000Z</time>
      </trkpt>
      <trkpt lat="47.2698" lon="-2.3121">
        <ele>53.599998474121</ele>
        <time>2022-03-13T10:59:10.000Z</time>
      </trkpt>
      <trkpt lat="47.26978" lon="-2.31216">
        <ele>54</ele>
        <time>2022-03-13T10:59:11.000Z</time>
      </trkpt>
      <trkpt lat="47.26977" lon="-2.31221">
        <ele>54.400001525879</ele>
        <time>2022-03-13T10:59:12.000Z</time>
      </trkpt>
      <trkpt lat="47.26976" lon="-2.31226">
        <ele>55</ele>
        <time>2022-03-13T10:59:13.000Z</time>
      </trkpt>
      <trkpt lat="47.26975" lon="-2.31232">
        <ele>55</ele>
        <time>2022-03-13T10:59:14.000Z</time>
      </trkpt>
      <trkpt lat="47.26976" lon="-2.3127">
        <ele>55</ele>
        <time>2022-03-13T10:59:20.000Z</time>
      </trkpt>
      <trkpt lat="47.26974" lon="-2.31291">
        <ele>55.400001525879</ele>
        <time>2022-03-13T10:59:24.000Z</time>
      </trkpt>
      <trkpt lat="47.26974" lon="-2.31297">
        <ele>55.799999237061</ele>
        <time>2022-03-13T10:59:25.000Z</time>
      </trkpt>
      <trkpt lat="47.26974" lon="-2.31302">
        <ele>56.200000762939</ele>
        <time>2022-03-13T10:59:26.000Z</time>
      </trkpt>
      <trkpt lat="47.26975" lon="-2.31307">
        <ele>56.599998474121</ele>
        <time>2022-03-13T10:59:27.000Z</time>
      </trkpt>
      <trkpt lat="47.26976" lon="-2.31313">
        <ele>57</ele>
        <time>2022-03-13T10:59:28.000Z</time>
      </trkpt>
      <trkpt lat="47.26979" lon="-2.31331">
        <ele>57</ele>
        <time>2022-03-13T10:59:31.000Z</time>
      </trkpt>
      <trkpt lat="47.26981" lon="-2.31352">
        <ele>57</ele>
        <time>2022-03-13T10:59:34.000Z</time>
      </trkpt>
      <trkpt lat="47.26984" lon="-2.31394">
        <ele>57</ele>
        <time>2022-03-13T10:59:39.000Z</time>
      </trkpt>
      <trkpt lat="47.26984" lon="-2.31403">
        <ele>57</ele>
        <time>2022-03-13T10:59:40.000Z</time>
      </trkpt>
      <trkpt lat="47.26985" lon="-2.31412">
        <ele>56.400001525879</ele>
        <time>2022-03-13T10:59:41.000Z</time>
      </trkpt>
      <trkpt lat="47.26986" lon="-2.31421">
        <ele>56</ele>
        <time>2022-03-13T10:59:42.000Z</time>
      </trkpt>
      <trkpt lat="47.26986" lon="-2.3143">
        <ele>55.599998474121</ele>
        <time>2022-03-13T10:59:43.000Z</time>
      </trkpt>
      <trkpt lat="47.26986" lon="-2.31438">
        <ele>55.200000762939</ele>
        <time>2022-03-13T10:59:44.000Z</time>
      </trkpt>
      <trkpt lat="47.26987" lon="-2.31446">
        <ele>54.799999237061</ele>
        <time>2022-03-13T10:59:45.000Z</time>
      </trkpt>
      <trkpt lat="47.26989" lon="-2.31462">
        <ele>54.799999237061</ele>
        <time>2022-03-13T10:59:47.000Z</time>
      </trkpt>
      <trkpt lat="47.26991" lon="-2.31477">
        <ele>54.200000762939</ele>
        <time>2022-03-13T10:59:49.000Z</time>
      </trkpt>
      <trkpt lat="47.26993" lon="-2.31485">
        <ele>53.799999237061</ele>
        <time>2022-03-13T10:59:50.000Z</time>
      </trkpt>
      <trkpt lat="47.26994" lon="-2.31492">
        <ele>53.400001525879</ele>
        <time>2022-03-13T10:59:51.000Z</time>
      </trkpt>
      <trkpt lat="47.26996" lon="-2.31501">
        <ele>53</ele>
        <time>2022-03-13T10:59:52.000Z</time>
      </trkpt>
      <trkpt lat="47.26999" lon="-2.31511">
        <ele>52.599998474121</ele>
        <time>2022-03-13T10:59:53.000Z</time>
      </trkpt>
      <trkpt lat="47.27003" lon="-2.31529">
        <ele>52.599998474121</ele>
        <time>2022-03-13T10:59:55.000Z</time>
      </trkpt>
      <trkpt lat="47.27006" lon="-2.31539">
        <ele>52.200000762939</ele>
        <time>2022-03-13T10:59:56.000Z</time>
      </trkpt>
      <trkpt lat="47.27009" lon="-2.31547">
        <ele>51.799999237061</ele>
        <time>2022-03-13T10:59:57.000Z</time>
      </trkpt>
      <trkpt lat="47.27012" lon="-2.31556">
        <ele>51.200000762939</ele>
        <time>2022-03-13T10:59:58.000Z</time>
      </trkpt>
      <trkpt lat="47.27015" lon="-2.31563">
        <ele>50.799999237061</ele>
        <time>2022-03-13T10:59:59.000Z</time>
      </trkpt>
      <trkpt lat="47.2702" lon="-2.31571">
        <ele>50.400001525879</ele>
        <time>2022-03-13T11:00:00.000Z</time>
      </trkpt>
      <trkpt lat="47.27024" lon="-2.31577">
        <ele>50</ele>
        <time>2022-03-13T11:00:01.000Z</time>
      </trkpt>
      <trkpt lat="47.27027" lon="-2.31584">
        <ele>49.400001525879</ele>
        <time>2022-03-13T11:00:02.000Z</time>
      </trkpt>
      <trkpt lat="47.27028" lon="-2.3159">
        <ele>49</ele>
        <time>2022-03-13T11:00:03.000Z</time>
      </trkpt>
      <trkpt lat="47.27029" lon="-2.31597">
        <ele>48.400001525879</ele>
        <time>2022-03-13T11:00:04.000Z</time>
      </trkpt>
      <trkpt lat="47.27031" lon="-2.31603">
        <ele>48</ele>
        <time>2022-03-13T11:00:05.000Z</time>
      </trkpt>
      <trkpt lat="47.27032" lon="-2.3161">
        <ele>47.599998474121</ele>
        <time>2022-03-13T11:00:06.000Z</time>
      </trkpt>
      <trkpt lat="47.27034" lon="-2.31619">
        <ele>47</ele>
        <time>2022-03-13T11:00:07.000Z</time>
      </trkpt>
      <trkpt lat="47.27035" lon="-2.31629">
        <ele>46.599998474121</ele>
        <time>2022-03-13T11:00:08.000Z</time>
      </trkpt>
      <trkpt lat="47.27036" lon="-2.31639">
        <ele>46.200000762939</ele>
        <time>2022-03-13T11:00:09.000Z</time>
      </trkpt>
      <trkpt lat="47.27037" lon="-2.31648">
        <ele>45.799999237061</ele>
        <time>2022-03-13T11:00:10.000Z</time>
      </trkpt>
      <trkpt lat="47.27036" lon="-2.31667">
        <ele>45.799999237061</ele>
        <time>2022-03-13T11:00:12.000Z</time>
      </trkpt>
      <trkpt lat="47.27033" lon="-2.31685">
        <ele>45.200000762939</ele>
        <time>2022-03-13T11:00:14.000Z</time>
      </trkpt>
      <trkpt lat="47.27032" lon="-2.3169">
        <ele>44.799999237061</ele>
        <time>2022-03-13T11:00:15.000Z</time>
      </trkpt>
      <trkpt lat="47.27031" lon="-2.31695">
        <ele>44.200000762939</ele>
        <time>2022-03-13T11:00:16.000Z</time>
      </trkpt>
      <trkpt lat="47.27033" lon="-2.31699">
        <ele>43.599998474121</ele>
        <time>2022-03-13T11:00:17.000Z</time>
      </trkpt>
      <trkpt lat="47.27036" lon="-2.31703">
        <ele>43.200000762939</ele>
        <time>2022-03-13T11:00:18.000Z</time>
      </trkpt>
      <trkpt lat="47.27052" lon="-2.31716">
        <ele>43.200000762939</ele>
        <time>2022-03-13T11:00:22.000Z</time>
      </trkpt>
      <trkpt lat="47.27055" lon="-2.3172">
        <ele>43.200000762939</ele>
        <time>2022-03-13T11:00:23.000Z</time>
      </trkpt>
      <trkpt lat="47.27057" lon="-2.31732">
        <ele>42.599998474121</ele>
        <time>2022-03-13T11:00:25.000Z</time>
      </trkpt>
      <trkpt lat="47.27055" lon="-2.3174">
        <ele>42.200000762939</ele>
        <time>2022-03-13T11:00:26.000Z</time>
      </trkpt>
      <trkpt lat="47.27055" lon="-2.31747">
        <ele>41.799999237061</ele>
        <time>2022-03-13T11:00:27.000Z</time>
      </trkpt>
      <trkpt lat="47.27055" lon="-2.31754">
        <ele>41.200000762939</ele>
        <time>2022-03-13T11:00:28.000Z</time>
      </trkpt>
      <trkpt lat="47.27056" lon="-2.31762">
        <ele>40.799999237061</ele>
        <time>2022-03-13T11:00:29.000Z</time>
      </trkpt>
      <trkpt lat="47.27057" lon="-2.31768">
        <ele>40.799999237061</ele>
        <time>2022-03-13T11:00:30.000Z</time>
      </trkpt>
      <trkpt lat="47.27062" lon="-2.31805">
        <ele>40.799999237061</ele>
        <time>2022-03-13T11:00:35.000Z</time>
      </trkpt>
      <trkpt lat="47.27063" lon="-2.31811">
        <ele>40.799999237061</ele>
        <time>2022-03-13T11:00:36.000Z</time>
      </trkpt>
      <trkpt lat="47.27064" lon="-2.31825">
        <ele>40.400001525879</ele>
        <time>2022-03-13T11:00:38.000Z</time>
      </trkpt>
      <trkpt lat="47.27065" lon="-2.31831">
        <ele>40</ele>
        <time>2022-03-13T11:00:39.000Z</time>
      </trkpt>
      <trkpt lat="47.27066" lon="-2.31837">
        <ele>39.599998474121</ele>
        <time>2022-03-13T11:00:40.000Z</time>
      </trkpt>
      <trkpt lat="47.27068" lon="-2.31842">
        <ele>39.200000762939</ele>
        <time>2022-03-13T11:00:41.000Z</time>
      </trkpt>
      <trkpt lat="47.2707" lon="-2.31846">
        <ele>38.799999237061</ele>
        <time>2022-03-13T11:00:42.000Z</time>
      </trkpt>
      <trkpt lat="47.27074" lon="-2.31848">
        <ele>38.799999237061</ele>
        <time>2022-03-13T11:00:43.000Z</time>
      </trkpt>
      <trkpt lat="47.27077" lon="-2.31849">
        <ele>38.799999237061</ele>
        <time>2022-03-13T11:00:44.000Z</time>
      </trkpt>
      <trkpt lat="47.27083" lon="-2.31858">
        <ele>38.799999237061</ele>
        <time>2022-03-13T11:00:47.000Z</time>
      </trkpt>
      <trkpt lat="47.27082" lon="-2.31865">
        <ele>38.799999237061</ele>
        <time>2022-03-13T11:00:50.000Z</time>
      </trkpt>
      <trkpt lat="47.27082" lon="-2.31866">
        <ele>38.799999237061</ele>
        <time>2022-03-13T11:00:51.000Z</time>
      </trkpt>
      <trkpt lat="47.27081" lon="-2.31868">
        <ele>38.799999237061</ele>
        <time>2022-03-13T11:00:52.000Z</time>
      </trkpt>
      <trkpt lat="47.27081" lon="-2.31874">
        <ele>38.799999237061</ele>
        <time>2022-03-13T11:00:54.000Z</time>
      </trkpt>
      <trkpt lat="47.27078" lon="-2.31896">
        <ele>38.799999237061</ele>
        <time>2022-03-13T11:00:59.000Z</time>
      </trkpt>
      <trkpt lat="47.27078" lon="-2.31901">
        <ele>38.400001525879</ele>
        <time>2022-03-13T11:01:00.000Z</time>
      </trkpt>
      <trkpt lat="47.27077" lon="-2.31906">
        <ele>38</ele>
        <time>2022-03-13T11:01:01.000Z</time>
      </trkpt>
      <trkpt lat="47.27077" lon="-2.31912">
        <ele>37.599998474121</ele>
        <time>2022-03-13T11:01:02.000Z</time>
      </trkpt>
      <trkpt lat="47.27077" lon="-2.31918">
        <ele>37.200000762939</ele>
        <time>2022-03-13T11:01:03.000Z</time>
      </trkpt>
      <trkpt lat="47.27077" lon="-2.31923">
        <ele>36.799999237061</ele>
        <time>2022-03-13T11:01:04.000Z</time>
      </trkpt>
      <trkpt lat="47.27077" lon="-2.31932">
        <ele>36.799999237061</ele>
        <time>2022-03-13T11:01:06.000Z</time>
      </trkpt>
      <trkpt lat="47.27076" lon="-2.31944">
        <ele>36.799999237061</ele>
        <time>2022-03-13T11:01:10.000Z</time>
      </trkpt>
      <trkpt lat="47.27069" lon="-2.31947">
        <ele>36.799999237061</ele>
        <time>2022-03-13T11:01:12.000Z</time>
      </trkpt>
      <trkpt lat="47.27062" lon="-2.31947">
        <ele>36.799999237061</ele>
        <time>2022-03-13T11:01:14.000Z</time>
      </trkpt>
      <trkpt lat="47.27045" lon="-2.3195">
        <ele>36.799999237061</ele>
        <time>2022-03-13T11:01:20.000Z</time>
      </trkpt>
      <trkpt lat="47.27033" lon="-2.31959">
        <ele>36.799999237061</ele>
        <time>2022-03-13T11:01:25.000Z</time>
      </trkpt>
      <trkpt lat="47.27014" lon="-2.3197">
        <ele>36.799999237061</ele>
        <time>2022-03-13T11:01:31.000Z</time>
      </trkpt>
      <trkpt lat="47.27008" lon="-2.31978">
        <ele>36.799999237061</ele>
        <time>2022-03-13T11:01:33.000Z</time>
      </trkpt>
      <trkpt lat="47.27008" lon="-2.31982">
        <ele>36.799999237061</ele>
        <time>2022-03-13T11:01:34.000Z</time>
      </trkpt>
      <trkpt lat="47.27013" lon="-2.32002">
        <ele>36.799999237061</ele>
        <time>2022-03-13T11:01:38.000Z</time>
      </trkpt>
      <trkpt lat="47.27015" lon="-2.32014">
        <ele>36.799999237061</ele>
        <time>2022-03-13T11:01:40.000Z</time>
      </trkpt>
      <trkpt lat="47.27016" lon="-2.32021">
        <ele>36.799999237061</ele>
        <time>2022-03-13T11:01:41.000Z</time>
      </trkpt>
      <trkpt lat="47.27017" lon="-2.32028">
        <ele>36.799999237061</ele>
        <time>2022-03-13T11:01:42.000Z</time>
      </trkpt>
      <trkpt lat="47.2702" lon="-2.32043">
        <ele>36.799999237061</ele>
        <time>2022-03-13T11:01:44.000Z</time>
      </trkpt>
      <trkpt lat="47.2702" lon="-2.32051">
        <ele>36.200000762939</ele>
        <time>2022-03-13T11:01:45.000Z</time>
      </trkpt>
      <trkpt lat="47.27019" lon="-2.32059">
        <ele>35.799999237061</ele>
        <time>2022-03-13T11:01:46.000Z</time>
      </trkpt>
      <trkpt lat="47.27018" lon="-2.32066">
        <ele>35.400001525879</ele>
        <time>2022-03-13T11:01:47.000Z</time>
      </trkpt>
      <trkpt lat="47.27018" lon="-2.32074">
        <ele>35</ele>
        <time>2022-03-13T11:01:48.000Z</time>
      </trkpt>
      <trkpt lat="47.27017" lon="-2.32081">
        <ele>34.400001525879</ele>
        <time>2022-03-13T11:01:49.000Z</time>
      </trkpt>
      <trkpt lat="47.27012" lon="-2.32107">
        <ele>34.400001525879</ele>
        <time>2022-03-13T11:01:53.000Z</time>
      </trkpt>
      <trkpt lat="47.27009" lon="-2.32113">
        <ele>34.400001525879</ele>
        <time>2022-03-13T11:01:54.000Z</time>
      </trkpt>
      <trkpt lat="47.26999" lon="-2.32122">
        <ele>33.599998474121</ele>
        <time>2022-03-13T11:01:57.000Z</time>
      </trkpt>
      <trkpt lat="47.26995" lon="-2.32127">
        <ele>33.200000762939</ele>
        <time>2022-03-13T11:01:58.000Z</time>
      </trkpt>
      <trkpt lat="47.26993" lon="-2.32134">
        <ele>32.799999237061</ele>
        <time>2022-03-13T11:01:59.000Z</time>
      </trkpt>
      <trkpt lat="47.26993" lon="-2.3214">
        <ele>32.200000762939</ele>
        <time>2022-03-13T11:02:00.000Z</time>
      </trkpt>
      <trkpt lat="47.26995" lon="-2.32146">
        <ele>32.200000762939</ele>
        <time>2022-03-13T11:02:01.000Z</time>
      </trkpt>
      <trkpt lat="47.27004" lon="-2.32158">
        <ele>32.200000762939</ele>
        <time>2022-03-13T11:02:03.000Z</time>
      </trkpt>
      <trkpt lat="47.27008" lon="-2.32165">
        <ele>32.200000762939</ele>
        <time>2022-03-13T11:02:04.000Z</time>
      </trkpt>
      <trkpt lat="47.27016" lon="-2.32185">
        <ele>32.200000762939</ele>
        <time>2022-03-13T11:02:07.000Z</time>
      </trkpt>
      <trkpt lat="47.2702" lon="-2.322">
        <ele>32.200000762939</ele>
        <time>2022-03-13T11:02:09.000Z</time>
      </trkpt>
      <trkpt lat="47.27024" lon="-2.32223">
        <ele>32.200000762939</ele>
        <time>2022-03-13T11:02:13.000Z</time>
      </trkpt>
      <trkpt lat="47.27025" lon="-2.32254">
        <ele>32.200000762939</ele>
        <time>2022-03-13T11:02:17.000Z</time>
      </trkpt>
      <trkpt lat="47.27025" lon="-2.32262">
        <ele>32.200000762939</ele>
        <time>2022-03-13T11:02:18.000Z</time>
      </trkpt>
      <trkpt lat="47.27025" lon="-2.32303">
        <ele>32.200000762939</ele>
        <time>2022-03-13T11:02:23.000Z</time>
      </trkpt>
      <trkpt lat="47.27025" lon="-2.32317">
        <ele>32.200000762939</ele>
        <time>2022-03-13T11:02:25.000Z</time>
      </trkpt>
      <trkpt lat="47.27025" lon="-2.32343">
        <ele>32.200000762939</ele>
        <time>2022-03-13T11:02:29.000Z</time>
      </trkpt>
      <trkpt lat="47.27028" lon="-2.32383">
        <ele>32.200000762939</ele>
        <time>2022-03-13T11:02:35.000Z</time>
      </trkpt>
      <trkpt lat="47.27032" lon="-2.32432">
        <ele>32.200000762939</ele>
        <time>2022-03-13T11:02:41.000Z</time>
      </trkpt>
      <trkpt lat="47.27034" lon="-2.32471">
        <ele>32.200000762939</ele>
        <time>2022-03-13T11:02:46.000Z</time>
      </trkpt>
      <trkpt lat="47.2703" lon="-2.32489">
        <ele>32.200000762939</ele>
        <time>2022-03-13T11:02:49.000Z</time>
      </trkpt>
      <trkpt lat="47.27026" lon="-2.32493">
        <ele>32.200000762939</ele>
        <time>2022-03-13T11:02:50.000Z</time>
      </trkpt>
      <trkpt lat="47.2701" lon="-2.32498">
        <ele>32.200000762939</ele>
        <time>2022-03-13T11:02:54.000Z</time>
      </trkpt>
      <trkpt lat="47.27" lon="-2.32485">
        <ele>32.200000762939</ele>
        <time>2022-03-13T11:02:57.000Z</time>
      </trkpt>
      <trkpt lat="47.26994" lon="-2.32475">
        <ele>32.200000762939</ele>
        <time>2022-03-13T11:02:59.000Z</time>
      </trkpt>
      <trkpt lat="47.26992" lon="-2.3247">
        <ele>32.200000762939</ele>
        <time>2022-03-13T11:03:00.000Z</time>
      </trkpt>
      <trkpt lat="47.26987" lon="-2.32459">
        <ele>32.200000762939</ele>
        <time>2022-03-13T11:03:02.000Z</time>
      </trkpt>
      <trkpt lat="47.26981" lon="-2.3245">
        <ele>32.200000762939</ele>
        <time>2022-03-13T11:03:04.000Z</time>
      </trkpt>
      <trkpt lat="47.26971" lon="-2.32436">
        <ele>32.200000762939</ele>
        <time>2022-03-13T11:03:07.000Z</time>
      </trkpt>
      <trkpt lat="47.26957" lon="-2.32417">
        <ele>32.599998474121</ele>
        <time>2022-03-13T11:03:11.000Z</time>
      </trkpt>
      <trkpt lat="47.26955" lon="-2.32412">
        <ele>33.200000762939</ele>
        <time>2022-03-13T11:03:12.000Z</time>
      </trkpt>
      <trkpt lat="47.26952" lon="-2.32408">
        <ele>33.599998474121</ele>
        <time>2022-03-13T11:03:13.000Z</time>
      </trkpt>
      <trkpt lat="47.26949" lon="-2.32403">
        <ele>34</ele>
        <time>2022-03-13T11:03:14.000Z</time>
      </trkpt>
      <trkpt lat="47.26946" lon="-2.32397">
        <ele>34.400001525879</ele>
        <time>2022-03-13T11:03:15.000Z</time>
      </trkpt>
      <trkpt lat="47.2694" lon="-2.32374">
        <ele>34.400001525879</ele>
        <time>2022-03-13T11:03:19.000Z</time>
      </trkpt>
      <trkpt lat="47.26929" lon="-2.32342">
        <ele>34.400001525879</ele>
        <time>2022-03-13T11:03:25.000Z</time>
      </trkpt>
      <trkpt lat="47.26918" lon="-2.3233">
        <ele>34.400001525879</ele>
        <time>2022-03-13T11:03:30.000Z</time>
      </trkpt>
      <trkpt lat="47.26906" lon="-2.32333">
        <ele>34.799999237061</ele>
        <time>2022-03-13T11:03:35.000Z</time>
      </trkpt>
      <trkpt lat="47.26903" lon="-2.32334">
        <ele>35.599998474121</ele>
        <time>2022-03-13T11:03:36.000Z</time>
      </trkpt>
      <trkpt lat="47.26901" lon="-2.32335">
        <ele>36</ele>
        <time>2022-03-13T11:03:37.000Z</time>
      </trkpt>
      <trkpt lat="47.26898" lon="-2.32335">
        <ele>36.400001525879</ele>
        <time>2022-03-13T11:03:38.000Z</time>
      </trkpt>
      <trkpt lat="47.26889" lon="-2.32337">
        <ele>36.400001525879</ele>
        <time>2022-03-13T11:03:41.000Z</time>
      </trkpt>
      <trkpt lat="47.26873" lon="-2.3234">
        <ele>36.400001525879</ele>
        <time>2022-03-13T11:03:46.000Z</time>
      </trkpt>
      <trkpt lat="47.2687" lon="-2.32341">
        <ele>36.799999237061</ele>
        <time>2022-03-13T11:03:47.000Z</time>
      </trkpt>
      <trkpt lat="47.26867" lon="-2.32342">
        <ele>37.200000762939</ele>
        <time>2022-03-13T11:03:48.000Z</time>
      </trkpt>
      <trkpt lat="47.26863" lon="-2.32343">
        <ele>37.599998474121</ele>
        <time>2022-03-13T11:03:49.000Z</time>
      </trkpt>
      <trkpt lat="47.2686" lon="-2.32343">
        <ele>38.200000762939</ele>
        <time>2022-03-13T11:03:50.000Z</time>
      </trkpt>
      <trkpt lat="47.26856" lon="-2.32344">
        <ele>38.599998474121</ele>
        <time>2022-03-13T11:03:51.000Z</time>
      </trkpt>
      <trkpt lat="47.26853" lon="-2.32344">
        <ele>38.599998474121</ele>
        <time>2022-03-13T11:03:52.000Z</time>
      </trkpt>
      <trkpt lat="47.26833" lon="-2.32348">
        <ele>39</ele>
        <time>2022-03-13T11:03:58.000Z</time>
      </trkpt>
      <trkpt lat="47.2683" lon="-2.32349">
        <ele>39.400001525879</ele>
        <time>2022-03-13T11:03:59.000Z</time>
      </trkpt>
      <trkpt lat="47.26827" lon="-2.3235">
        <ele>39.799999237061</ele>
        <time>2022-03-13T11:04:00.000Z</time>
      </trkpt>
      <trkpt lat="47.26824" lon="-2.32351">
        <ele>40.799999237061</ele>
        <time>2022-03-13T11:04:01.000Z</time>
      </trkpt>
      <trkpt lat="47.26815" lon="-2.32352">
        <ele>41.200000762939</ele>
        <time>2022-03-13T11:04:04.000Z</time>
      </trkpt>
      <trkpt lat="47.26812" lon="-2.32353">
        <ele>41.599998474121</ele>
        <time>2022-03-13T11:04:05.000Z</time>
      </trkpt>
      <trkpt lat="47.26809" lon="-2.32354">
        <ele>42.200000762939</ele>
        <time>2022-03-13T11:04:06.000Z</time>
      </trkpt>
      <trkpt lat="47.26806" lon="-2.32356">
        <ele>42.599998474121</ele>
        <time>2022-03-13T11:04:07.000Z</time>
      </trkpt>
      <trkpt lat="47.26803" lon="-2.32356">
        <ele>43</ele>
        <time>2022-03-13T11:04:08.000Z</time>
      </trkpt>
      <trkpt lat="47.26788" lon="-2.3236">
        <ele>43.400001525879</ele>
        <time>2022-03-13T11:04:13.000Z</time>
      </trkpt>
      <trkpt lat="47.26785" lon="-2.32362">
        <ele>43.799999237061</ele>
        <time>2022-03-13T11:04:14.000Z</time>
      </trkpt>
      <trkpt lat="47.26783" lon="-2.32364">
        <ele>44.400001525879</ele>
        <time>2022-03-13T11:04:15.000Z</time>
      </trkpt>
      <trkpt lat="47.26781" lon="-2.32367">
        <ele>44.799999237061</ele>
        <time>2022-03-13T11:04:16.000Z</time>
      </trkpt>
      <trkpt lat="47.26779" lon="-2.3237">
        <ele>45.200000762939</ele>
        <time>2022-03-13T11:04:17.000Z</time>
      </trkpt>
      <trkpt lat="47.26779" lon="-2.32375">
        <ele>45.200000762939</ele>
        <time>2022-03-13T11:04:18.000Z</time>
      </trkpt>
      <trkpt lat="47.2678" lon="-2.32395">
        <ele>45.200000762939</ele>
        <time>2022-03-13T11:04:22.000Z</time>
      </trkpt>
      <trkpt lat="47.26786" lon="-2.32427">
        <ele>45.200000762939</ele>
        <time>2022-03-13T11:04:27.000Z</time>
      </trkpt>
      <trkpt lat="47.26795" lon="-2.32484">
        <ele>45.200000762939</ele>
        <time>2022-03-13T11:04:35.000Z</time>
      </trkpt>
      <trkpt lat="47.26799" lon="-2.32532">
        <ele>45.200000762939</ele>
        <time>2022-03-13T11:04:41.000Z</time>
      </trkpt>
      <trkpt lat="47.268" lon="-2.3254">
        <ele>45.200000762939</ele>
        <time>2022-03-13T11:04:42.000Z</time>
      </trkpt>
      <trkpt lat="47.26803" lon="-2.32581">
        <ele>45.200000762939</ele>
        <time>2022-03-13T11:04:47.000Z</time>
      </trkpt>
      <trkpt lat="47.26804" lon="-2.32589">
        <ele>45.200000762939</ele>
        <time>2022-03-13T11:04:48.000Z</time>
      </trkpt>
      <trkpt lat="47.26811" lon="-2.32642">
        <ele>45.200000762939</ele>
        <time>2022-03-13T11:04:55.000Z</time>
      </trkpt>
      <trkpt lat="47.26812" lon="-2.32656">
        <ele>45.200000762939</ele>
        <time>2022-03-13T11:04:57.000Z</time>
      </trkpt>
      <trkpt lat="47.26807" lon="-2.32673">
        <ele>45.200000762939</ele>
        <time>2022-03-13T11:05:00.000Z</time>
      </trkpt>
      <trkpt lat="47.26807" lon="-2.32695">
        <ele>45.200000762939</ele>
        <time>2022-03-13T11:05:03.000Z</time>
      </trkpt>
      <trkpt lat="47.26812" lon="-2.32709">
        <ele>45.200000762939</ele>
        <time>2022-03-13T11:05:05.000Z</time>
      </trkpt>
      <trkpt lat="47.26818" lon="-2.32722">
        <ele>45.200000762939</ele>
        <time>2022-03-13T11:05:07.000Z</time>
      </trkpt>
      <trkpt lat="47.26839" lon="-2.32768">
        <ele>44.599998474121</ele>
        <time>2022-03-13T11:05:13.000Z</time>
      </trkpt>
      <trkpt lat="47.26841" lon="-2.32777">
        <ele>44.200000762939</ele>
        <time>2022-03-13T11:05:14.000Z</time>
      </trkpt>
      <trkpt lat="47.26844" lon="-2.32786">
        <ele>43.799999237061</ele>
        <time>2022-03-13T11:05:15.000Z</time>
      </trkpt>
      <trkpt lat="47.26846" lon="-2.32796">
        <ele>43</ele>
        <time>2022-03-13T11:05:16.000Z</time>
      </trkpt>
      <trkpt lat="47.26849" lon="-2.32806">
        <ele>42.400001525879</ele>
        <time>2022-03-13T11:05:17.000Z</time>
      </trkpt>
      <trkpt lat="47.26851" lon="-2.32815">
        <ele>41.799999237061</ele>
        <time>2022-03-13T11:05:18.000Z</time>
      </trkpt>
      <trkpt lat="47.26854" lon="-2.32824">
        <ele>41</ele>
        <time>2022-03-13T11:05:19.000Z</time>
      </trkpt>
      <trkpt lat="47.26858" lon="-2.32833">
        <ele>40.400001525879</ele>
        <time>2022-03-13T11:05:20.000Z</time>
      </trkpt>
      <trkpt lat="47.26862" lon="-2.32842">
        <ele>39.799999237061</ele>
        <time>2022-03-13T11:05:21.000Z</time>
      </trkpt>
      <trkpt lat="47.26865" lon="-2.3285">
        <ele>39</ele>
        <time>2022-03-13T11:05:22.000Z</time>
      </trkpt>
      <trkpt lat="47.26867" lon="-2.32858">
        <ele>38</ele>
        <time>2022-03-13T11:05:23.000Z</time>
      </trkpt>
      <trkpt lat="47.26868" lon="-2.32865">
        <ele>37.200000762939</ele>
        <time>2022-03-13T11:05:24.000Z</time>
      </trkpt>
      <trkpt lat="47.26866" lon="-2.32871">
        <ele>36.400001525879</ele>
        <time>2022-03-13T11:05:25.000Z</time>
      </trkpt>
      <trkpt lat="47.26864" lon="-2.32873">
        <ele>35.799999237061</ele>
        <time>2022-03-13T11:05:26.000Z</time>
      </trkpt>
      <trkpt lat="47.26858" lon="-2.32875">
        <ele>35</ele>
        <time>2022-03-13T11:05:27.000Z</time>
      </trkpt>
      <trkpt lat="47.26853" lon="-2.32877">
        <ele>34.200000762939</ele>
        <time>2022-03-13T11:05:28.000Z</time>
      </trkpt>
      <trkpt lat="47.26848" lon="-2.32878">
        <ele>33.400001525879</ele>
        <time>2022-03-13T11:05:29.000Z</time>
      </trkpt>
      <trkpt lat="47.26838" lon="-2.32881">
        <ele>33.400001525879</ele>
        <time>2022-03-13T11:05:31.000Z</time>
      </trkpt>
      <trkpt lat="47.26832" lon="-2.32884">
        <ele>33.400001525879</ele>
        <time>2022-03-13T11:05:32.000Z</time>
      </trkpt>
      <trkpt lat="47.26812" lon="-2.32904">
        <ele>33.400001525879</ele>
        <time>2022-03-13T11:05:36.000Z</time>
      </trkpt>
      <trkpt lat="47.26807" lon="-2.32909">
        <ele>33.400001525879</ele>
        <time>2022-03-13T11:05:37.000Z</time>
      </trkpt>
      <trkpt lat="47.26784" lon="-2.32924">
        <ele>33.400001525879</ele>
        <time>2022-03-13T11:05:41.000Z</time>
      </trkpt>
      <trkpt lat="47.2678" lon="-2.32929">
        <ele>33.400001525879</ele>
        <time>2022-03-13T11:05:42.000Z</time>
      </trkpt>
      <trkpt lat="47.26768" lon="-2.32946">
        <ele>33.400001525879</ele>
        <time>2022-03-13T11:05:45.000Z</time>
      </trkpt>
      <trkpt lat="47.26742" lon="-2.32977">
        <ele>33.400001525879</ele>
        <time>2022-03-13T11:05:51.000Z</time>
      </trkpt>
      <trkpt lat="47.26739" lon="-2.32983">
        <ele>33.400001525879</ele>
        <time>2022-03-13T11:05:52.000Z</time>
      </trkpt>
      <trkpt lat="47.26734" lon="-2.33005">
        <ele>33.400001525879</ele>
        <time>2022-03-13T11:05:55.000Z</time>
      </trkpt>
      <trkpt lat="47.26734" lon="-2.33026">
        <ele>33.400001525879</ele>
        <time>2022-03-13T11:05:58.000Z</time>
      </trkpt>
      <trkpt lat="47.26734" lon="-2.33032">
        <ele>33.400001525879</ele>
        <time>2022-03-13T11:05:59.000Z</time>
      </trkpt>
      <trkpt lat="47.26726" lon="-2.3306">
        <ele>33.400001525879</ele>
        <time>2022-03-13T11:06:03.000Z</time>
      </trkpt>
      <trkpt lat="47.26723" lon="-2.33066">
        <ele>33.400001525879</ele>
        <time>2022-03-13T11:06:04.000Z</time>
      </trkpt>
      <trkpt lat="47.2671" lon="-2.33081">
        <ele>33.400001525879</ele>
        <time>2022-03-13T11:06:07.000Z</time>
      </trkpt>
      <trkpt lat="47.26706" lon="-2.33085">
        <ele>33</ele>
        <time>2022-03-13T11:06:08.000Z</time>
      </trkpt>
      <trkpt lat="47.26701" lon="-2.3309">
        <ele>32.599998474121</ele>
        <time>2022-03-13T11:06:09.000Z</time>
      </trkpt>
      <trkpt lat="47.26697" lon="-2.33094">
        <ele>32.200000762939</ele>
        <time>2022-03-13T11:06:10.000Z</time>
      </trkpt>
      <trkpt lat="47.26692" lon="-2.33098">
        <ele>31.799999237061</ele>
        <time>2022-03-13T11:06:11.000Z</time>
      </trkpt>
      <trkpt lat="47.26688" lon="-2.33102">
        <ele>31.39999961853</ele>
        <time>2022-03-13T11:06:12.000Z</time>
      </trkpt>
      <trkpt lat="47.26684" lon="-2.33106">
        <ele>31.39999961853</ele>
        <time>2022-03-13T11:06:13.000Z</time>
      </trkpt>
      <trkpt lat="47.26656" lon="-2.33132">
        <ele>31.39999961853</ele>
        <time>2022-03-13T11:06:20.000Z</time>
      </trkpt>
      <trkpt lat="47.26635" lon="-2.33147">
        <ele>31.39999961853</ele>
        <time>2022-03-13T11:06:25.000Z</time>
      </trkpt>
      <trkpt lat="47.26626" lon="-2.3315">
        <ele>31.39999961853</ele>
        <time>2022-03-13T11:06:27.000Z</time>
      </trkpt>
      <trkpt lat="47.2661" lon="-2.33153">
        <ele>31.39999961853</ele>
        <time>2022-03-13T11:06:31.000Z</time>
      </trkpt>
      <trkpt lat="47.26602" lon="-2.33168">
        <ele>31.39999961853</ele>
        <time>2022-03-13T11:06:34.000Z</time>
      </trkpt>
      <trkpt lat="47.26599" lon="-2.33173">
        <ele>31.39999961853</ele>
        <time>2022-03-13T11:06:35.000Z</time>
      </trkpt>
      <trkpt lat="47.26597" lon="-2.33179">
        <ele>31.39999961853</ele>
        <time>2022-03-13T11:06:36.000Z</time>
      </trkpt>
      <trkpt lat="47.26594" lon="-2.3319">
        <ele>31.39999961853</ele>
        <time>2022-03-13T11:06:38.000Z</time>
      </trkpt>
      <trkpt lat="47.26592" lon="-2.332">
        <ele>31.39999961853</ele>
        <time>2022-03-13T11:06:40.000Z</time>
      </trkpt>
      <trkpt lat="47.2659" lon="-2.33202">
        <ele>31.39999961853</ele>
        <time>2022-03-13T11:06:41.000Z</time>
      </trkpt>
      <trkpt lat="47.26585" lon="-2.33206">
        <ele>31.39999961853</ele>
        <time>2022-03-13T11:06:43.000Z</time>
      </trkpt>
      <trkpt lat="47.26567" lon="-2.33217">
        <ele>31.39999961853</ele>
        <time>2022-03-13T11:06:48.000Z</time>
      </trkpt>
      <trkpt lat="47.26563" lon="-2.33219">
        <ele>31.39999961853</ele>
        <time>2022-03-13T11:06:49.000Z</time>
      </trkpt>
      <trkpt lat="47.26554" lon="-2.33224">
        <ele>31.39999961853</ele>
        <time>2022-03-13T11:06:51.000Z</time>
      </trkpt>
      <trkpt lat="47.26543" lon="-2.33232">
        <ele>31.39999961853</ele>
        <time>2022-03-13T11:06:54.000Z</time>
      </trkpt>
      <trkpt lat="47.26521" lon="-2.33244">
        <ele>31.39999961853</ele>
        <time>2022-03-13T11:07:01.000Z</time>
      </trkpt>
      <trkpt lat="47.26511" lon="-2.33253">
        <ele>31.39999961853</ele>
        <time>2022-03-13T11:07:07.000Z</time>
      </trkpt>
      <trkpt lat="47.2651" lon="-2.33254">
        <ele>31.39999961853</ele>
        <time>2022-03-13T11:07:09.000Z</time>
      </trkpt>
      <trkpt lat="47.26504" lon="-2.33256">
        <ele>29.39999961853</ele>
        <time>2022-03-13T11:12:05.000Z</time>
      </trkpt>
      <trkpt lat="47.26503" lon="-2.33257">
        <ele>29.39999961853</ele>
        <time>2022-03-13T11:12:06.000Z</time>
      </trkpt>
      <trkpt lat="47.26496" lon="-2.33265">
        <ele>29.39999961853</ele>
        <time>2022-03-13T11:12:11.000Z</time>
      </trkpt>
      <trkpt lat="47.26487" lon="-2.33281">
        <ele>29.39999961853</ele>
        <time>2022-03-13T11:12:17.000Z</time>
      </trkpt>
      <trkpt lat="47.26478" lon="-2.33293">
        <ele>29.39999961853</ele>
        <time>2022-03-13T11:12:21.000Z</time>
      </trkpt>
      <trkpt lat="47.26473" lon="-2.33301">
        <ele>29.799999237061</ele>
        <time>2022-03-13T11:12:23.000Z</time>
      </trkpt>
      <trkpt lat="47.2647" lon="-2.33305">
        <ele>30.200000762939</ele>
        <time>2022-03-13T11:12:24.000Z</time>
      </trkpt>
      <trkpt lat="47.26467" lon="-2.33308">
        <ele>30.60000038147</ele>
        <time>2022-03-13T11:12:25.000Z</time>
      </trkpt>
      <trkpt lat="47.26463" lon="-2.3331">
        <ele>31</ele>
        <time>2022-03-13T11:12:26.000Z</time>
      </trkpt>
      <trkpt lat="47.26459" lon="-2.33314">
        <ele>31.39999961853</ele>
        <time>2022-03-13T11:12:27.000Z</time>
      </trkpt>
      <trkpt lat="47.26452" lon="-2.3332">
        <ele>31.39999961853</ele>
        <time>2022-03-13T11:12:29.000Z</time>
      </trkpt>
      <trkpt lat="47.26425" lon="-2.33341">
        <ele>31.39999961853</ele>
        <time>2022-03-13T11:12:36.000Z</time>
      </trkpt>
      <trkpt lat="47.26396" lon="-2.33359">
        <ele>31.39999961853</ele>
        <time>2022-03-13T11:12:43.000Z</time>
      </trkpt>
      <trkpt lat="47.26363" lon="-2.3338">
        <ele>31.39999961853</ele>
        <time>2022-03-13T11:12:51.000Z</time>
      </trkpt>
      <trkpt lat="47.26332" lon="-2.33394">
        <ele>31.39999961853</ele>
        <time>2022-03-13T11:12:58.000Z</time>
      </trkpt>
      <trkpt lat="47.2632" lon="-2.33402">
        <ele>31.39999961853</ele>
        <time>2022-03-13T11:13:01.000Z</time>
      </trkpt>
      <trkpt lat="47.26313" lon="-2.3341">
        <ele>31.39999961853</ele>
        <time>2022-03-13T11:13:03.000Z</time>
      </trkpt>
      <trkpt lat="47.26298" lon="-2.33418">
        <ele>31.39999961853</ele>
        <time>2022-03-13T11:13:08.000Z</time>
      </trkpt>
      <trkpt lat="47.26276" lon="-2.33421">
        <ele>31.39999961853</ele>
        <time>2022-03-13T11:13:14.000Z</time>
      </trkpt>
      <trkpt lat="47.26261" lon="-2.33423">
        <ele>31.39999961853</ele>
        <time>2022-03-13T11:13:19.000Z</time>
      </trkpt>
      <trkpt lat="47.26244" lon="-2.33429">
        <ele>31.39999961853</ele>
        <time>2022-03-13T11:13:24.000Z</time>
      </trkpt>
      <trkpt lat="47.26211" lon="-2.33434">
        <ele>31.39999961853</ele>
        <time>2022-03-13T11:13:32.000Z</time>
      </trkpt>
      <trkpt lat="47.26185" lon="-2.33439">
        <ele>31.39999961853</ele>
        <time>2022-03-13T11:13:39.000Z</time>
      </trkpt>
      <trkpt lat="47.26161" lon="-2.33436">
        <ele>31.39999961853</ele>
        <time>2022-03-13T11:13:45.000Z</time>
      </trkpt>
      <trkpt lat="47.26141" lon="-2.33427">
        <ele>31.39999961853</ele>
        <time>2022-03-13T11:13:51.000Z</time>
      </trkpt>
      <trkpt lat="47.26138" lon="-2.33429">
        <ele>31.39999961853</ele>
        <time>2022-03-13T11:13:52.000Z</time>
      </trkpt>
      <trkpt lat="47.26134" lon="-2.33437">
        <ele>31.39999961853</ele>
        <time>2022-03-13T11:13:54.000Z</time>
      </trkpt>
      <trkpt lat="47.26119" lon="-2.33451">
        <ele>31.39999961853</ele>
        <time>2022-03-13T11:13:59.000Z</time>
      </trkpt>
      <trkpt lat="47.26111" lon="-2.33455">
        <ele>31.39999961853</ele>
        <time>2022-03-13T11:14:01.000Z</time>
      </trkpt>
      <trkpt lat="47.26099" lon="-2.33466">
        <ele>31.39999961853</ele>
        <time>2022-03-13T11:14:04.000Z</time>
      </trkpt>
      <trkpt lat="47.26079" lon="-2.33468">
        <ele>31.39999961853</ele>
        <time>2022-03-13T11:14:08.000Z</time>
      </trkpt>
      <trkpt lat="47.2607" lon="-2.33462">
        <ele>31.39999961853</ele>
        <time>2022-03-13T11:14:10.000Z</time>
      </trkpt>
      <trkpt lat="47.26066" lon="-2.33458">
        <ele>31.39999961853</ele>
        <time>2022-03-13T11:14:11.000Z</time>
      </trkpt>
      <trkpt lat="47.26063" lon="-2.33452">
        <ele>31.39999961853</ele>
        <time>2022-03-13T11:14:12.000Z</time>
      </trkpt>
      <trkpt lat="47.26049" lon="-2.33453">
        <ele>31.39999961853</ele>
        <time>2022-03-13T11:14:15.000Z</time>
      </trkpt>
      <trkpt lat="47.26041" lon="-2.33469">
        <ele>31.39999961853</ele>
        <time>2022-03-13T11:14:18.000Z</time>
      </trkpt>
      <trkpt lat="47.26038" lon="-2.33474">
        <ele>31.39999961853</ele>
        <time>2022-03-13T11:14:19.000Z</time>
      </trkpt>
      <trkpt lat="47.26035" lon="-2.33479">
        <ele>31.39999961853</ele>
        <time>2022-03-13T11:14:20.000Z</time>
      </trkpt>
      <trkpt lat="47.26021" lon="-2.33486">
        <ele>31.39999961853</ele>
        <time>2022-03-13T11:14:23.000Z</time>
      </trkpt>
      <trkpt lat="47.26006" lon="-2.33487">
        <ele>31.39999961853</ele>
        <time>2022-03-13T11:14:26.000Z</time>
      </trkpt>
      <trkpt lat="47.25992" lon="-2.33491">
        <ele>31.39999961853</ele>
        <time>2022-03-13T11:14:29.000Z</time>
      </trkpt>
      <trkpt lat="47.25988" lon="-2.33493">
        <ele>31.39999961853</ele>
        <time>2022-03-13T11:14:30.000Z</time>
      </trkpt>
      <trkpt lat="47.25977" lon="-2.33505">
        <ele>31.39999961853</ele>
        <time>2022-03-13T11:14:33.000Z</time>
      </trkpt>
      <trkpt lat="47.25964" lon="-2.33505">
        <ele>31.39999961853</ele>
        <time>2022-03-13T11:14:36.000Z</time>
      </trkpt>
      <trkpt lat="47.25955" lon="-2.33506">
        <ele>31.39999961853</ele>
        <time>2022-03-13T11:14:38.000Z</time>
      </trkpt>
      <trkpt lat="47.25942" lon="-2.33515">
        <ele>31.39999961853</ele>
        <time>2022-03-13T11:14:41.000Z</time>
      </trkpt>
      <trkpt lat="47.25935" lon="-2.33524">
        <ele>31.39999961853</ele>
        <time>2022-03-13T11:14:43.000Z</time>
      </trkpt>
      <trkpt lat="47.25923" lon="-2.33534">
        <ele>31.39999961853</ele>
        <time>2022-03-13T11:14:46.000Z</time>
      </trkpt>
      <trkpt lat="47.25889" lon="-2.33563">
        <ele>31.39999961853</ele>
        <time>2022-03-13T11:14:55.000Z</time>
      </trkpt>
      <trkpt lat="47.25881" lon="-2.3357">
        <ele>31.799999237061</ele>
        <time>2022-03-13T11:14:57.000Z</time>
      </trkpt>
      <trkpt lat="47.25878" lon="-2.33573">
        <ele>32.200000762939</ele>
        <time>2022-03-13T11:14:58.000Z</time>
      </trkpt>
      <trkpt lat="47.25873" lon="-2.33574">
        <ele>32.799999237061</ele>
        <time>2022-03-13T11:14:59.000Z</time>
      </trkpt>
      <trkpt lat="47.25869" lon="-2.33575">
        <ele>33.200000762939</ele>
        <time>2022-03-13T11:15:00.000Z</time>
      </trkpt>
      <trkpt lat="47.25864" lon="-2.33575">
        <ele>33.599998474121</ele>
        <time>2022-03-13T11:15:01.000Z</time>
      </trkpt>
      <trkpt lat="47.2583" lon="-2.33577">
        <ele>33.599998474121</ele>
        <time>2022-03-13T11:15:09.000Z</time>
      </trkpt>
      <trkpt lat="47.25796" lon="-2.3358">
        <ele>33.599998474121</ele>
        <time>2022-03-13T11:15:17.000Z</time>
      </trkpt>
      <trkpt lat="47.25768" lon="-2.33581">
        <ele>33.599998474121</ele>
        <time>2022-03-13T11:15:23.000Z</time>
      </trkpt>
      <trkpt lat="47.2575" lon="-2.33585">
        <ele>33.599998474121</ele>
        <time>2022-03-13T11:15:27.000Z</time>
      </trkpt>
      <trkpt lat="47.2574" lon="-2.33588">
        <ele>33.599998474121</ele>
        <time>2022-03-13T11:15:29.000Z</time>
      </trkpt>
      <trkpt lat="47.25736" lon="-2.33584">
        <ele>33.599998474121</ele>
        <time>2022-03-13T11:15:30.000Z</time>
      </trkpt>
      <trkpt lat="47.25726" lon="-2.33583">
        <ele>33.599998474121</ele>
        <time>2022-03-13T11:15:32.000Z</time>
      </trkpt>
      <trkpt lat="47.25711" lon="-2.33584">
        <ele>34</ele>
        <time>2022-03-13T11:15:35.000Z</time>
      </trkpt>
      <trkpt lat="47.25706" lon="-2.33584">
        <ele>34.400001525879</ele>
        <time>2022-03-13T11:15:36.000Z</time>
      </trkpt>
      <trkpt lat="47.25702" lon="-2.33584">
        <ele>34.799999237061</ele>
        <time>2022-03-13T11:15:37.000Z</time>
      </trkpt>
      <trkpt lat="47.25697" lon="-2.33584">
        <ele>35.200000762939</ele>
        <time>2022-03-13T11:15:38.000Z</time>
      </trkpt>
      <trkpt lat="47.25692" lon="-2.33584">
        <ele>35.599998474121</ele>
        <time>2022-03-13T11:15:39.000Z</time>
      </trkpt>
      <trkpt lat="47.25678" lon="-2.33582">
        <ele>35.599998474121</ele>
        <time>2022-03-13T11:15:42.000Z</time>
      </trkpt>
      <trkpt lat="47.25663" lon="-2.33578">
        <ele>35.599998474121</ele>
        <time>2022-03-13T11:15:45.000Z</time>
      </trkpt>
      <trkpt lat="47.25645" lon="-2.3357">
        <ele>35.599998474121</ele>
        <time>2022-03-13T11:15:49.000Z</time>
      </trkpt>
      <trkpt lat="47.25631" lon="-2.33563">
        <ele>35.599998474121</ele>
        <time>2022-03-13T11:15:52.000Z</time>
      </trkpt>
      <trkpt lat="47.25593" lon="-2.33529">
        <ele>35.599998474121</ele>
        <time>2022-03-13T11:16:01.000Z</time>
      </trkpt>
      <trkpt lat="47.25567" lon="-2.33494">
        <ele>35.599998474121</ele>
        <time>2022-03-13T11:16:08.000Z</time>
      </trkpt>
      <trkpt lat="47.25546" lon="-2.33449">
        <ele>35.599998474121</ele>
        <time>2022-03-13T11:16:15.000Z</time>
      </trkpt>
      <trkpt lat="47.25534" lon="-2.33404">
        <ele>35.599998474121</ele>
        <time>2022-03-13T11:16:21.000Z</time>
      </trkpt>
      <trkpt lat="47.25531" lon="-2.33388">
        <ele>35.599998474121</ele>
        <time>2022-03-13T11:16:23.000Z</time>
      </trkpt>
      <trkpt lat="47.25522" lon="-2.33324">
        <ele>35.599998474121</ele>
        <time>2022-03-13T11:16:31.000Z</time>
      </trkpt>
      <trkpt lat="47.25513" lon="-2.33257">
        <ele>35.599998474121</ele>
        <time>2022-03-13T11:16:39.000Z</time>
      </trkpt>
      <trkpt lat="47.25503" lon="-2.33179">
        <ele>35.599998474121</ele>
        <time>2022-03-13T11:16:48.000Z</time>
      </trkpt>
      <trkpt lat="47.25495" lon="-2.33106">
        <ele>35.599998474121</ele>
        <time>2022-03-13T11:16:57.000Z</time>
      </trkpt>
      <trkpt lat="47.25493" lon="-2.33099">
        <ele>35.599998474121</ele>
        <time>2022-03-13T11:16:58.000Z</time>
      </trkpt>
      <trkpt lat="47.25486" lon="-2.33092">
        <ele>35.599998474121</ele>
        <time>2022-03-13T11:17:00.000Z</time>
      </trkpt>
      <trkpt lat="47.25471" lon="-2.331">
        <ele>35.599998474121</ele>
        <time>2022-03-13T11:17:03.000Z</time>
      </trkpt>
      <trkpt lat="47.25465" lon="-2.33102">
        <ele>35.599998474121</ele>
        <time>2022-03-13T11:17:04.000Z</time>
      </trkpt>
      <trkpt lat="47.25454" lon="-2.33106">
        <ele>35.599998474121</ele>
        <time>2022-03-13T11:17:06.000Z</time>
      </trkpt>
      <trkpt lat="47.25443" lon="-2.3311">
        <ele>35.599998474121</ele>
        <time>2022-03-13T11:17:08.000Z</time>
      </trkpt>
      <trkpt lat="47.25415" lon="-2.33121">
        <ele>35.599998474121</ele>
        <time>2022-03-13T11:17:14.000Z</time>
      </trkpt>
      <trkpt lat="47.25391" lon="-2.33133">
        <ele>35.599998474121</ele>
        <time>2022-03-13T11:17:20.000Z</time>
      </trkpt>
      <trkpt lat="47.25383" lon="-2.33133">
        <ele>35.599998474121</ele>
        <time>2022-03-13T11:17:22.000Z</time>
      </trkpt>
      <trkpt lat="47.2538" lon="-2.3313">
        <ele>35.599998474121</ele>
        <time>2022-03-13T11:17:23.000Z</time>
      </trkpt>
      <trkpt lat="47.25376" lon="-2.3312">
        <ele>35.599998474121</ele>
        <time>2022-03-13T11:17:26.000Z</time>
      </trkpt>
      <trkpt lat="47.25374" lon="-2.33117">
        <ele>35.599998474121</ele>
        <time>2022-03-13T11:17:27.000Z</time>
      </trkpt>
      <trkpt lat="47.25369" lon="-2.33108">
        <ele>35.599998474121</ele>
        <time>2022-03-13T11:17:32.000Z</time>
      </trkpt>
      <trkpt lat="47.25369" lon="-2.33106">
        <ele>35.599998474121</ele>
        <time>2022-03-13T11:23:54.000Z</time>
      </trkpt>
      <trkpt lat="47.25368" lon="-2.331">
        <ele>35.599998474121</ele>
        <time>2022-03-13T11:23:57.000Z</time>
      </trkpt>
      <trkpt lat="47.25368" lon="-2.33098">
        <ele>35.599998474121</ele>
        <time>2022-03-13T11:23:58.000Z</time>
      </trkpt>
      <trkpt lat="47.25363" lon="-2.33088">
        <ele>35.599998474121</ele>
        <time>2022-03-13T11:24:02.000Z</time>
      </trkpt>
      <trkpt lat="47.25355" lon="-2.33067">
        <ele>35.599998474121</ele>
        <time>2022-03-13T11:24:07.000Z</time>
      </trkpt>
      <trkpt lat="47.25345" lon="-2.33038">
        <ele>35.599998474121</ele>
        <time>2022-03-13T11:24:13.000Z</time>
      </trkpt>
      <trkpt lat="47.25328" lon="-2.32994">
        <ele>35.599998474121</ele>
        <time>2022-03-13T11:24:21.000Z</time>
      </trkpt>
      <trkpt lat="47.25312" lon="-2.32955">
        <ele>35.599998474121</ele>
        <time>2022-03-13T11:24:28.000Z</time>
      </trkpt>
      <trkpt lat="47.25307" lon="-2.32936">
        <ele>35.599998474121</ele>
        <time>2022-03-13T11:24:31.000Z</time>
      </trkpt>
      <trkpt lat="47.25309" lon="-2.32924">
        <ele>35.599998474121</ele>
        <time>2022-03-13T11:24:33.000Z</time>
      </trkpt>
      <trkpt lat="47.25324" lon="-2.32905">
        <ele>35.599998474121</ele>
        <time>2022-03-13T11:24:37.000Z</time>
      </trkpt>
      <trkpt lat="47.25354" lon="-2.32878">
        <ele>35.599998474121</ele>
        <time>2022-03-13T11:24:44.000Z</time>
      </trkpt>
      <trkpt lat="47.25396" lon="-2.32833">
        <ele>35.599998474121</ele>
        <time>2022-03-13T11:24:54.000Z</time>
      </trkpt>
      <trkpt lat="47.25423" lon="-2.32792">
        <ele>35.599998474121</ele>
        <time>2022-03-13T11:25:02.000Z</time>
      </trkpt>
      <trkpt lat="47.25426" lon="-2.32787">
        <ele>36.200000762939</ele>
        <time>2022-03-13T11:25:03.000Z</time>
      </trkpt>
      <trkpt lat="47.25428" lon="-2.32782">
        <ele>36.599998474121</ele>
        <time>2022-03-13T11:25:04.000Z</time>
      </trkpt>
      <trkpt lat="47.25431" lon="-2.32776">
        <ele>37</ele>
        <time>2022-03-13T11:25:05.000Z</time>
      </trkpt>
      <trkpt lat="47.25434" lon="-2.32771">
        <ele>37.400001525879</ele>
        <time>2022-03-13T11:25:06.000Z</time>
      </trkpt>
      <trkpt lat="47.25437" lon="-2.32765">
        <ele>37.799999237061</ele>
        <time>2022-03-13T11:25:07.000Z</time>
      </trkpt>
      <trkpt lat="47.25441" lon="-2.3276">
        <ele>37.799999237061</ele>
        <time>2022-03-13T11:25:08.000Z</time>
      </trkpt>
      <trkpt lat="47.25462" lon="-2.32729">
        <ele>37.799999237061</ele>
        <time>2022-03-13T11:25:14.000Z</time>
      </trkpt>
      <trkpt lat="47.25465" lon="-2.32725">
        <ele>37.799999237061</ele>
        <time>2022-03-13T11:25:15.000Z</time>
      </trkpt>
      <trkpt lat="47.25485" lon="-2.32693">
        <ele>37.799999237061</ele>
        <time>2022-03-13T11:25:21.000Z</time>
      </trkpt>
      <trkpt lat="47.25487" lon="-2.32685">
        <ele>38.200000762939</ele>
        <time>2022-03-13T11:25:22.000Z</time>
      </trkpt>
      <trkpt lat="47.25489" lon="-2.32678">
        <ele>38.599998474121</ele>
        <time>2022-03-13T11:25:23.000Z</time>
      </trkpt>
      <trkpt lat="47.25489" lon="-2.32671">
        <ele>39</ele>
        <time>2022-03-13T11:25:24.000Z</time>
      </trkpt>
      <trkpt lat="47.25489" lon="-2.32664">
        <ele>39.799999237061</ele>
        <time>2022-03-13T11:25:25.000Z</time>
      </trkpt>
      <trkpt lat="47.25488" lon="-2.3265">
        <ele>39.799999237061</ele>
        <time>2022-03-13T11:25:27.000Z</time>
      </trkpt>
      <trkpt lat="47.25483" lon="-2.32622">
        <ele>39.799999237061</ele>
        <time>2022-03-13T11:25:31.000Z</time>
      </trkpt>
      <trkpt lat="47.25475" lon="-2.32578">
        <ele>39.799999237061</ele>
        <time>2022-03-13T11:25:38.000Z</time>
      </trkpt>
      <trkpt lat="47.25475" lon="-2.32572">
        <ele>39.799999237061</ele>
        <time>2022-03-13T11:25:39.000Z</time>
      </trkpt>
      <trkpt lat="47.25483" lon="-2.32559">
        <ele>39.799999237061</ele>
        <time>2022-03-13T11:25:42.000Z</time>
      </trkpt>
      <trkpt lat="47.25486" lon="-2.32556">
        <ele>39.799999237061</ele>
        <time>2022-03-13T11:25:43.000Z</time>
      </trkpt>
      <trkpt lat="47.25508" lon="-2.32535">
        <ele>39.799999237061</ele>
        <time>2022-03-13T11:25:48.000Z</time>
      </trkpt>
      <trkpt lat="47.25537" lon="-2.32508">
        <ele>39.799999237061</ele>
        <time>2022-03-13T11:25:54.000Z</time>
      </trkpt>
      <trkpt lat="47.25553" lon="-2.32492">
        <ele>39.400001525879</ele>
        <time>2022-03-13T11:25:57.000Z</time>
      </trkpt>
      <trkpt lat="47.25559" lon="-2.32486">
        <ele>39</ele>
        <time>2022-03-13T11:25:58.000Z</time>
      </trkpt>
      <trkpt lat="47.25566" lon="-2.32481">
        <ele>38.599998474121</ele>
        <time>2022-03-13T11:25:59.000Z</time>
      </trkpt>
      <trkpt lat="47.25572" lon="-2.32475">
        <ele>38.200000762939</ele>
        <time>2022-03-13T11:26:00.000Z</time>
      </trkpt>
      <trkpt lat="47.25578" lon="-2.32469">
        <ele>37.799999237061</ele>
        <time>2022-03-13T11:26:01.000Z</time>
      </trkpt>
      <trkpt lat="47.25615" lon="-2.3243">
        <ele>37.200000762939</ele>
        <time>2022-03-13T11:26:07.000Z</time>
      </trkpt>
      <trkpt lat="47.25621" lon="-2.32423">
        <ele>36.799999237061</ele>
        <time>2022-03-13T11:26:08.000Z</time>
      </trkpt>
      <trkpt lat="47.25627" lon="-2.32416">
        <ele>36.400001525879</ele>
        <time>2022-03-13T11:26:09.000Z</time>
      </trkpt>
      <trkpt lat="47.25633" lon="-2.3241">
        <ele>35.799999237061</ele>
        <time>2022-03-13T11:26:10.000Z</time>
      </trkpt>
      <trkpt lat="47.25639" lon="-2.32406">
        <ele>35.400001525879</ele>
        <time>2022-03-13T11:26:11.000Z</time>
      </trkpt>
      <trkpt lat="47.25651" lon="-2.32402">
        <ele>35.400001525879</ele>
        <time>2022-03-13T11:26:13.000Z</time>
      </trkpt>
      <trkpt lat="47.25656" lon="-2.32401">
        <ele>35</ele>
        <time>2022-03-13T11:26:14.000Z</time>
      </trkpt>
      <trkpt lat="47.25662" lon="-2.32402">
        <ele>34.599998474121</ele>
        <time>2022-03-13T11:26:15.000Z</time>
      </trkpt>
      <trkpt lat="47.25666" lon="-2.32405">
        <ele>34.200000762939</ele>
        <time>2022-03-13T11:26:16.000Z</time>
      </trkpt>
      <trkpt lat="47.2567" lon="-2.3241">
        <ele>33.799999237061</ele>
        <time>2022-03-13T11:26:17.000Z</time>
      </trkpt>
      <trkpt lat="47.25674" lon="-2.32414">
        <ele>33.400001525879</ele>
        <time>2022-03-13T11:26:18.000Z</time>
      </trkpt>
      <trkpt lat="47.25691" lon="-2.3242">
        <ele>33.400001525879</ele>
        <time>2022-03-13T11:26:21.000Z</time>
      </trkpt>
      <trkpt lat="47.25697" lon="-2.3242">
        <ele>33.400001525879</ele>
        <time>2022-03-13T11:26:22.000Z</time>
      </trkpt>
      <trkpt lat="47.25726" lon="-2.32422">
        <ele>33.400001525879</ele>
        <time>2022-03-13T11:26:27.000Z</time>
      </trkpt>
      <trkpt lat="47.25757" lon="-2.32421">
        <ele>33.400001525879</ele>
        <time>2022-03-13T11:26:33.000Z</time>
      </trkpt>
      <trkpt lat="47.25774" lon="-2.32414">
        <ele>33.400001525879</ele>
        <time>2022-03-13T11:26:37.000Z</time>
      </trkpt>
      <trkpt lat="47.25779" lon="-2.32415">
        <ele>33.400001525879</ele>
        <time>2022-03-13T11:26:38.000Z</time>
      </trkpt>
      <trkpt lat="47.25789" lon="-2.32425">
        <ele>33.400001525879</ele>
        <time>2022-03-13T11:26:41.000Z</time>
      </trkpt>
      <trkpt lat="47.25792" lon="-2.32431">
        <ele>33.400001525879</ele>
        <time>2022-03-13T11:26:42.000Z</time>
      </trkpt>
      <trkpt lat="47.25804" lon="-2.32449">
        <ele>33.400001525879</ele>
        <time>2022-03-13T11:26:45.000Z</time>
      </trkpt>
      <trkpt lat="47.25809" lon="-2.32453">
        <ele>33.400001525879</ele>
        <time>2022-03-13T11:26:46.000Z</time>
      </trkpt>
      <trkpt lat="47.2583" lon="-2.32467">
        <ele>33.400001525879</ele>
        <time>2022-03-13T11:26:50.000Z</time>
      </trkpt>
      <trkpt lat="47.25841" lon="-2.32472">
        <ele>33.400001525879</ele>
        <time>2022-03-13T11:26:52.000Z</time>
      </trkpt>
      <trkpt lat="47.25847" lon="-2.32473">
        <ele>32.799999237061</ele>
        <time>2022-03-13T11:26:53.000Z</time>
      </trkpt>
      <trkpt lat="47.25852" lon="-2.32474">
        <ele>32.400001525879</ele>
        <time>2022-03-13T11:26:54.000Z</time>
      </trkpt>
      <trkpt lat="47.25858" lon="-2.32474">
        <ele>32</ele>
        <time>2022-03-13T11:26:55.000Z</time>
      </trkpt>
      <trkpt lat="47.25863" lon="-2.32473">
        <ele>31.60000038147</ele>
        <time>2022-03-13T11:26:56.000Z</time>
      </trkpt>
      <trkpt lat="47.25869" lon="-2.32473">
        <ele>31.200000762939</ele>
        <time>2022-03-13T11:26:57.000Z</time>
      </trkpt>
      <trkpt lat="47.2589" lon="-2.32465">
        <ele>31.200000762939</ele>
        <time>2022-03-13T11:27:01.000Z</time>
      </trkpt>
      <trkpt lat="47.25909" lon="-2.32445">
        <ele>31.200000762939</ele>
        <time>2022-03-13T11:27:05.000Z</time>
      </trkpt>
      <trkpt lat="47.25936" lon="-2.32409">
        <ele>31.200000762939</ele>
        <time>2022-03-13T11:27:11.000Z</time>
      </trkpt>
      <trkpt lat="47.25964" lon="-2.32373">
        <ele>31.200000762939</ele>
        <time>2022-03-13T11:27:17.000Z</time>
      </trkpt>
      <trkpt lat="47.25993" lon="-2.32338">
        <ele>31.200000762939</ele>
        <time>2022-03-13T11:27:23.000Z</time>
      </trkpt>
      <trkpt lat="47.26007" lon="-2.3232">
        <ele>31.200000762939</ele>
        <time>2022-03-13T11:27:26.000Z</time>
      </trkpt>
      <trkpt lat="47.26016" lon="-2.32309">
        <ele>31.200000762939</ele>
        <time>2022-03-13T11:27:28.000Z</time>
      </trkpt>
      <trkpt lat="47.26047" lon="-2.32272">
        <ele>31.200000762939</ele>
        <time>2022-03-13T11:27:35.000Z</time>
      </trkpt>
      <trkpt lat="47.26071" lon="-2.32245">
        <ele>31.200000762939</ele>
        <time>2022-03-13T11:27:40.000Z</time>
      </trkpt>
      <trkpt lat="47.26079" lon="-2.32234">
        <ele>31.200000762939</ele>
        <time>2022-03-13T11:27:42.000Z</time>
      </trkpt>
      <trkpt lat="47.26105" lon="-2.3219">
        <ele>31.200000762939</ele>
        <time>2022-03-13T11:27:49.000Z</time>
      </trkpt>
      <trkpt lat="47.26123" lon="-2.32146">
        <ele>31.200000762939</ele>
        <time>2022-03-13T11:27:55.000Z</time>
      </trkpt>
      <trkpt lat="47.26139" lon="-2.32092">
        <ele>31.200000762939</ele>
        <time>2022-03-13T11:28:02.000Z</time>
      </trkpt>
      <trkpt lat="47.26155" lon="-2.32043">
        <ele>31.200000762939</ele>
        <time>2022-03-13T11:28:09.000Z</time>
      </trkpt>
      <trkpt lat="47.26168" lon="-2.32021">
        <ele>31.200000762939</ele>
        <time>2022-03-13T11:28:14.000Z</time>
      </trkpt>
      <trkpt lat="47.26185" lon="-2.32022">
        <ele>31.200000762939</ele>
        <time>2022-03-13T11:28:19.000Z</time>
      </trkpt>
      <trkpt lat="47.26196" lon="-2.32023">
        <ele>31.200000762939</ele>
        <time>2022-03-13T11:28:24.000Z</time>
      </trkpt>
      <trkpt lat="47.26199" lon="-2.3201">
        <ele>31.200000762939</ele>
        <time>2022-03-13T11:28:28.000Z</time>
      </trkpt>
      <trkpt lat="47.26203" lon="-2.32005">
        <ele>31.200000762939</ele>
        <time>2022-03-13T11:28:31.000Z</time>
      </trkpt>
      <trkpt lat="47.26205" lon="-2.32004">
        <ele>31.200000762939</ele>
        <time>2022-03-13T11:28:32.000Z</time>
      </trkpt>
      <trkpt lat="47.26218" lon="-2.3199">
        <ele>31.200000762939</ele>
        <time>2022-03-13T11:28:38.000Z</time>
      </trkpt>
      <trkpt lat="47.26225" lon="-2.31982">
        <ele>31.200000762939</ele>
        <time>2022-03-13T11:28:42.000Z</time>
      </trkpt>
      <trkpt lat="47.26226" lon="-2.31982">
        <ele>31.200000762939</ele>
        <time>2022-03-13T11:28:43.000Z</time>
      </trkpt>
      <trkpt lat="47.26234" lon="-2.31981">
        <ele>31.200000762939</ele>
        <time>2022-03-13T11:28:48.000Z</time>
      </trkpt>
      <trkpt lat="47.26237" lon="-2.31973">
        <ele>31.200000762939</ele>
        <time>2022-03-13T11:28:51.000Z</time>
      </trkpt>
      <trkpt lat="47.2624" lon="-2.31965">
        <ele>31.200000762939</ele>
        <time>2022-03-13T11:28:53.000Z</time>
      </trkpt>
      <trkpt lat="47.26246" lon="-2.31954">
        <ele>31.200000762939</ele>
        <time>2022-03-13T11:28:57.000Z</time>
      </trkpt>
      <trkpt lat="47.26257" lon="-2.31935">
        <ele>31.200000762939</ele>
        <time>2022-03-13T11:29:03.000Z</time>
      </trkpt>
      <trkpt lat="47.26269" lon="-2.31918">
        <ele>31.200000762939</ele>
        <time>2022-03-13T11:29:09.000Z</time>
      </trkpt>
      <trkpt lat="47.26285" lon="-2.31902">
        <ele>31.200000762939</ele>
        <time>2022-03-13T11:29:15.000Z</time>
      </trkpt>
      <trkpt lat="47.26293" lon="-2.31888">
        <ele>31.200000762939</ele>
        <time>2022-03-13T11:29:21.000Z</time>
      </trkpt>
      <trkpt lat="47.26297" lon="-2.31867">
        <ele>31.200000762939</ele>
        <time>2022-03-13T11:29:26.000Z</time>
      </trkpt>
      <trkpt lat="47.263" lon="-2.31842">
        <ele>31.200000762939</ele>
        <time>2022-03-13T11:29:32.000Z</time>
      </trkpt>
      <trkpt lat="47.263" lon="-2.31834">
        <ele>31.200000762939</ele>
        <time>2022-03-13T11:29:37.000Z</time>
      </trkpt>
      <trkpt lat="47.263" lon="-2.31834">
        <ele>31.200000762939</ele>
        <time>2022-03-13T11:29:38.000Z</time>
      </trkpt>
      <trkpt lat="47.26301" lon="-2.31829">
        <ele>31.200000762939</ele>
        <time>2022-03-13T11:30:50.000Z</time>
      </trkpt>
      <trkpt lat="47.26302" lon="-2.31825">
        <ele>31.200000762939</ele>
        <time>2022-03-13T11:30:52.000Z</time>
      </trkpt>
      <trkpt lat="47.26304" lon="-2.31804">
        <ele>31.200000762939</ele>
        <time>2022-03-13T11:30:57.000Z</time>
      </trkpt>
      <trkpt lat="47.26304" lon="-2.31767">
        <ele>31.200000762939</ele>
        <time>2022-03-13T11:31:05.000Z</time>
      </trkpt>
      <trkpt lat="47.26302" lon="-2.31742">
        <ele>31.200000762939</ele>
        <time>2022-03-13T11:31:10.000Z</time>
      </trkpt>
      <trkpt lat="47.263" lon="-2.31727">
        <ele>31.200000762939</ele>
        <time>2022-03-13T11:31:14.000Z</time>
      </trkpt>
      <trkpt lat="47.26304" lon="-2.31719">
        <ele>31.200000762939</ele>
        <time>2022-03-13T11:31:16.000Z</time>
      </trkpt>
      <trkpt lat="47.26316" lon="-2.31711">
        <ele>31.200000762939</ele>
        <time>2022-03-13T11:31:20.000Z</time>
      </trkpt>
      <trkpt lat="47.2633" lon="-2.31703">
        <ele>31.60000038147</ele>
        <time>2022-03-13T11:31:25.000Z</time>
      </trkpt>
      <trkpt lat="47.26331" lon="-2.31698">
        <ele>32</ele>
        <time>2022-03-13T11:31:26.000Z</time>
      </trkpt>
      <trkpt lat="47.26333" lon="-2.31694">
        <ele>32.400001525879</ele>
        <time>2022-03-13T11:31:27.000Z</time>
      </trkpt>
      <trkpt lat="47.26335" lon="-2.31691">
        <ele>33</ele>
        <time>2022-03-13T11:31:28.000Z</time>
      </trkpt>
      <trkpt lat="47.26338" lon="-2.31688">
        <ele>33.400001525879</ele>
        <time>2022-03-13T11:31:29.000Z</time>
      </trkpt>
      <trkpt lat="47.2634" lon="-2.31686">
        <ele>33.400001525879</ele>
        <time>2022-03-13T11:31:30.000Z</time>
      </trkpt>
      <trkpt lat="47.26356" lon="-2.31678">
        <ele>33.400001525879</ele>
        <time>2022-03-13T11:31:37.000Z</time>
      </trkpt>
      <trkpt lat="47.26364" lon="-2.31675">
        <ele>33.799999237061</ele>
        <time>2022-03-13T11:31:41.000Z</time>
      </trkpt>
      <trkpt lat="47.26366" lon="-2.31674">
        <ele>34.200000762939</ele>
        <time>2022-03-13T11:31:42.000Z</time>
      </trkpt>
      <trkpt lat="47.26368" lon="-2.31673">
        <ele>34.599998474121</ele>
        <time>2022-03-13T11:31:43.000Z</time>
      </trkpt>
      <trkpt lat="47.26371" lon="-2.31672">
        <ele>35</ele>
        <time>2022-03-13T11:31:44.000Z</time>
      </trkpt>
      <trkpt lat="47.26373" lon="-2.31671">
        <ele>35.400001525879</ele>
        <time>2022-03-13T11:31:45.000Z</time>
      </trkpt>
      <trkpt lat="47.26385" lon="-2.31664">
        <ele>35.400001525879</ele>
        <time>2022-03-13T11:31:50.000Z</time>
      </trkpt>
      <trkpt lat="47.26398" lon="-2.31657">
        <ele>35.400001525879</ele>
        <time>2022-03-13T11:31:56.000Z</time>
      </trkpt>
      <trkpt lat="47.26408" lon="-2.31649">
        <ele>35.400001525879</ele>
        <time>2022-03-13T11:32:00.000Z</time>
      </trkpt>
      <trkpt lat="47.26408" lon="-2.31645">
        <ele>35.400001525879</ele>
        <time>2022-03-13T11:32:01.000Z</time>
      </trkpt>
      <trkpt lat="47.26409" lon="-2.31613">
        <ele>35.400001525879</ele>
        <time>2022-03-13T11:32:08.000Z</time>
      </trkpt>
      <trkpt lat="47.26409" lon="-2.31586">
        <ele>35.400001525879</ele>
        <time>2022-03-13T11:32:14.000Z</time>
      </trkpt>
      <trkpt lat="47.2641" lon="-2.31558">
        <ele>35.400001525879</ele>
        <time>2022-03-13T11:32:20.000Z</time>
      </trkpt>
      <trkpt lat="47.26412" lon="-2.31551">
        <ele>35.400001525879</ele>
        <time>2022-03-13T11:32:22.000Z</time>
      </trkpt>
      <trkpt lat="47.26414" lon="-2.31551">
        <ele>35.799999237061</ele>
        <time>2022-03-13T11:32:23.000Z</time>
      </trkpt>
      <trkpt lat="47.26416" lon="-2.31551">
        <ele>36.200000762939</ele>
        <time>2022-03-13T11:32:24.000Z</time>
      </trkpt>
      <trkpt lat="47.26417" lon="-2.31552">
        <ele>37</ele>
        <time>2022-03-13T11:32:25.000Z</time>
      </trkpt>
      <trkpt lat="47.26417" lon="-2.31552">
        <ele>37.400001525879</ele>
        <time>2022-03-13T11:32:26.000Z</time>
      </trkpt>
      <trkpt lat="47.26418" lon="-2.31552">
        <ele>37.400001525879</ele>
        <time>2022-03-13T11:32:27.000Z</time>
      </trkpt>
    </trkseg>
  </trk>
</gpx>